<?xml version="1.0" encoding="UTF-8" standalone="no" ?>
<gpx xmlns="http://www.topografix.com/GPX/1/1" xmlns:xsi="http://www.w3.org/2001/XMLSchema-instance" xsi:schemaLocation="http://www.topografix.com/GPX/1/1 http://www.topografix.com/GPX/1/1/gpx.xsd" version="1.1" creator="VisuGPX - https://www.visugpx.com">
  <metadata>
    <name>43 CCC Flémalle - Bastogne - Flémalle</name>
    <desc><![CDATA[Randonnée au départ de l'Auto5 de Flémalle.]]></desc>
  </metadata>
  <trk>
    <name><![CDATA[43 CCC]]></name>
    <extensions>
      <line xmlns="http://www.topografix.com/GPX/gpx_style/0/2">
        <color>0000FF</color>
        <width>4</width>
      </line>
    </extensions>
    <trkseg>
      <trkpt lat="50.60434" lon="5.48417">
        <ele>65</ele>
        <time>2019-01-07T20:25:39Z</time>
      </trkpt>
      <trkpt lat="50.60404" lon="5.48442">
        <ele>65</ele>
        <time>2019-01-07T20:26:39Z</time>
      </trkpt>
      <trkpt lat="50.6035" lon="5.48513">
        <ele>64</ele>
        <time>2019-01-07T20:27:39Z</time>
      </trkpt>
      <trkpt lat="50.60364" lon="5.4855">
        <ele>63</ele>
        <time>2019-01-07T20:28:39Z</time>
      </trkpt>
      <trkpt lat="50.60372" lon="5.48535">
        <ele>64</ele>
        <time>2019-01-07T20:29:39Z</time>
      </trkpt>
      <trkpt lat="50.60423" lon="5.4847">
        <ele>65</ele>
        <time>2019-01-07T20:30:39Z</time>
      </trkpt>
      <trkpt lat="50.60483" lon="5.48399">
        <ele>67</ele>
        <time>2019-01-07T20:31:39Z</time>
      </trkpt>
      <trkpt lat="50.60486" lon="5.48378">
        <ele>67</ele>
        <time>2019-01-07T20:32:39Z</time>
      </trkpt>
      <trkpt lat="50.60494" lon="5.48367">
        <ele>67</ele>
        <time>2019-01-07T20:33:39Z</time>
      </trkpt>
      <trkpt lat="50.60504" lon="5.48372">
        <ele>68</ele>
        <time>2019-01-07T20:34:39Z</time>
      </trkpt>
      <trkpt lat="50.60502" lon="5.48391">
        <ele>67</ele>
        <time>2019-01-07T20:35:39Z</time>
      </trkpt>
      <trkpt lat="50.60506" lon="5.48403">
        <ele>67</ele>
        <time>2019-01-07T20:36:39Z</time>
      </trkpt>
      <trkpt lat="50.60574" lon="5.48556">
        <ele>65</ele>
        <time>2019-01-07T20:37:39Z</time>
      </trkpt>
      <trkpt lat="50.60646" lon="5.48725">
        <ele>64</ele>
        <time>2019-01-07T20:38:39Z</time>
      </trkpt>
      <trkpt lat="50.60723" lon="5.48877">
        <ele>64</ele>
        <time>2019-01-07T20:39:39Z</time>
      </trkpt>
      <trkpt lat="50.60768" lon="5.48964">
        <ele>65</ele>
        <time>2019-01-07T20:40:39Z</time>
      </trkpt>
      <trkpt lat="50.60804" lon="5.49035">
        <ele>66</ele>
        <time>2019-01-07T20:41:39Z</time>
      </trkpt>
      <trkpt lat="50.60902" lon="5.49194">
        <ele>64</ele>
        <time>2019-01-07T20:42:39Z</time>
      </trkpt>
      <trkpt lat="50.61031" lon="5.49389">
        <ele>64</ele>
        <time>2019-01-07T20:43:39Z</time>
      </trkpt>
      <trkpt lat="50.6111" lon="5.49508">
        <ele>64</ele>
        <time>2019-01-07T20:44:39Z</time>
      </trkpt>
      <trkpt lat="50.61264" lon="5.49745">
        <ele>62</ele>
        <time>2019-01-07T20:45:39Z</time>
      </trkpt>
      <trkpt lat="50.61601" lon="5.50334">
        <ele>64</ele>
        <time>2019-01-07T20:46:39Z</time>
      </trkpt>
      <trkpt lat="50.61609" lon="5.50353">
        <ele>64</ele>
        <time>2019-01-07T20:47:39Z</time>
      </trkpt>
      <trkpt lat="50.61608" lon="5.50393">
        <ele>64</ele>
        <time>2019-01-07T20:48:39Z</time>
      </trkpt>
      <trkpt lat="50.61596" lon="5.50454">
        <ele>64</ele>
        <time>2019-01-07T20:49:39Z</time>
      </trkpt>
      <trkpt lat="50.61601" lon="5.50486">
        <ele>65</ele>
        <time>2019-01-07T20:50:39Z</time>
      </trkpt>
      <trkpt lat="50.6166" lon="5.50594">
        <ele>64</ele>
        <time>2019-01-07T20:51:39Z</time>
      </trkpt>
      <trkpt lat="50.61723" lon="5.50735">
        <ele>65</ele>
        <time>2019-01-07T20:52:39Z</time>
      </trkpt>
      <trkpt lat="50.61754" lon="5.50831">
        <ele>63</ele>
        <time>2019-01-07T20:53:39Z</time>
      </trkpt>
      <trkpt lat="50.61758" lon="5.50887">
        <ele>63</ele>
        <time>2019-01-07T20:54:39Z</time>
      </trkpt>
      <trkpt lat="50.61773" lon="5.50981">
        <ele>63</ele>
        <time>2019-01-07T20:55:39Z</time>
      </trkpt>
      <trkpt lat="50.61783" lon="5.51009">
        <ele>63</ele>
        <time>2019-01-07T20:56:39Z</time>
      </trkpt>
      <trkpt lat="50.61806" lon="5.51058">
        <ele>64</ele>
        <time>2019-01-07T20:57:39Z</time>
      </trkpt>
      <trkpt lat="50.61821" lon="5.51049">
        <ele>64</ele>
        <time>2019-01-07T20:58:39Z</time>
      </trkpt>
      <trkpt lat="50.61835" lon="5.51048">
        <ele>65</ele>
        <time>2019-01-07T20:59:39Z</time>
      </trkpt>
      <trkpt lat="50.61846" lon="5.51056">
        <ele>65</ele>
        <time>2019-01-07T21:00:39Z</time>
      </trkpt>
      <trkpt lat="50.61852" lon="5.51067">
        <ele>66</ele>
        <time>2019-01-07T21:01:39Z</time>
      </trkpt>
      <trkpt lat="50.61854" lon="5.51084">
        <ele>65</ele>
        <time>2019-01-07T21:02:39Z</time>
      </trkpt>
      <trkpt lat="50.6185" lon="5.51101">
        <ele>65</ele>
        <time>2019-01-07T21:03:39Z</time>
      </trkpt>
      <trkpt lat="50.6184" lon="5.51117">
        <ele>64</ele>
        <time>2019-01-07T21:04:39Z</time>
      </trkpt>
      <trkpt lat="50.61781" lon="5.51153">
        <ele>65</ele>
        <time>2019-01-07T21:05:39Z</time>
      </trkpt>
      <trkpt lat="50.61705" lon="5.51197">
        <ele>64</ele>
        <time>2019-01-07T21:06:39Z</time>
      </trkpt>
      <trkpt lat="50.61681" lon="5.5121">
        <ele>63</ele>
        <time>2019-01-07T21:07:39Z</time>
      </trkpt>
      <trkpt lat="50.61667" lon="5.51222">
        <ele>63</ele>
        <time>2019-01-07T21:08:39Z</time>
      </trkpt>
      <trkpt lat="50.61659" lon="5.51238">
        <ele>63</ele>
        <time>2019-01-07T21:09:39Z</time>
      </trkpt>
      <trkpt lat="50.61656" lon="5.51254">
        <ele>63</ele>
        <time>2019-01-07T21:10:39Z</time>
      </trkpt>
      <trkpt lat="50.61656" lon="5.51273">
        <ele>62</ele>
        <time>2019-01-07T21:11:39Z</time>
      </trkpt>
      <trkpt lat="50.61663" lon="5.51287">
        <ele>62</ele>
        <time>2019-01-07T21:12:39Z</time>
      </trkpt>
      <trkpt lat="50.61675" lon="5.51395">
        <ele>62</ele>
        <time>2019-01-07T21:13:39Z</time>
      </trkpt>
      <trkpt lat="50.61666" lon="5.51398">
        <ele>62</ele>
        <time>2019-01-07T21:14:39Z</time>
      </trkpt>
      <trkpt lat="50.61657" lon="5.51402">
        <ele>62</ele>
        <time>2019-01-07T21:15:39Z</time>
      </trkpt>
      <trkpt lat="50.61657" lon="5.51419">
        <ele>63</ele>
        <time>2019-01-07T21:16:39Z</time>
      </trkpt>
      <trkpt lat="50.61662" lon="5.51438">
        <ele>63</ele>
        <time>2019-01-07T21:17:39Z</time>
      </trkpt>
      <trkpt lat="50.61665" lon="5.51475">
        <ele>63</ele>
        <time>2019-01-07T21:18:39Z</time>
      </trkpt>
      <trkpt lat="50.61668" lon="5.51496">
        <ele>63</ele>
        <time>2019-01-07T21:19:39Z</time>
      </trkpt>
      <trkpt lat="50.61685" lon="5.51501">
        <ele>63</ele>
        <time>2019-01-07T21:20:39Z</time>
      </trkpt>
      <trkpt lat="50.61688" lon="5.51515">
        <ele>63</ele>
        <time>2019-01-07T21:21:39Z</time>
      </trkpt>
      <trkpt lat="50.61695" lon="5.51537">
        <ele>63</ele>
        <time>2019-01-07T21:22:39Z</time>
      </trkpt>
      <trkpt lat="50.61697" lon="5.51564">
        <ele>62</ele>
        <time>2019-01-07T21:23:39Z</time>
      </trkpt>
      <trkpt lat="50.61707" lon="5.51656">
        <ele>59</ele>
        <time>2019-01-07T21:24:39Z</time>
      </trkpt>
      <trkpt lat="50.61712" lon="5.51759">
        <ele>58</ele>
        <time>2019-01-07T21:25:39Z</time>
      </trkpt>
      <trkpt lat="50.61713" lon="5.5181">
        <ele>59</ele>
        <time>2019-01-07T21:26:39Z</time>
      </trkpt>
      <trkpt lat="50.61714" lon="5.51844">
        <ele>60</ele>
        <time>2019-01-07T21:27:39Z</time>
      </trkpt>
      <trkpt lat="50.61714" lon="5.51868">
        <ele>61</ele>
        <time>2019-01-07T21:28:39Z</time>
      </trkpt>
      <trkpt lat="50.6171" lon="5.51888">
        <ele>62</ele>
        <time>2019-01-07T21:29:39Z</time>
      </trkpt>
      <trkpt lat="50.61702" lon="5.51903">
        <ele>63</ele>
        <time>2019-01-07T21:30:39Z</time>
      </trkpt>
      <trkpt lat="50.6169" lon="5.51913">
        <ele>62</ele>
        <time>2019-01-07T21:31:39Z</time>
      </trkpt>
      <trkpt lat="50.61684" lon="5.5191">
        <ele>62</ele>
        <time>2019-01-07T21:32:39Z</time>
      </trkpt>
      <trkpt lat="50.61669" lon="5.51906">
        <ele>61</ele>
        <time>2019-01-07T21:33:39Z</time>
      </trkpt>
      <trkpt lat="50.6166" lon="5.51914">
        <ele>61</ele>
        <time>2019-01-07T21:34:39Z</time>
      </trkpt>
      <trkpt lat="50.61653" lon="5.51933">
        <ele>61</ele>
        <time>2019-01-07T21:35:39Z</time>
      </trkpt>
      <trkpt lat="50.61657" lon="5.51956">
        <ele>61</ele>
        <time>2019-01-07T21:36:39Z</time>
      </trkpt>
      <trkpt lat="50.61669" lon="5.51965">
        <ele>61</ele>
        <time>2019-01-07T21:37:39Z</time>
      </trkpt>
      <trkpt lat="50.61686" lon="5.51966">
        <ele>61</ele>
        <time>2019-01-07T21:38:39Z</time>
      </trkpt>
      <trkpt lat="50.61694" lon="5.51986">
        <ele>60</ele>
        <time>2019-01-07T21:39:39Z</time>
      </trkpt>
      <trkpt lat="50.61697" lon="5.52004">
        <ele>59</ele>
        <time>2019-01-07T21:40:39Z</time>
      </trkpt>
      <trkpt lat="50.61699" lon="5.52029">
        <ele>61</ele>
        <time>2019-01-07T21:41:39Z</time>
      </trkpt>
      <trkpt lat="50.6169" lon="5.52086">
        <ele>64</ele>
        <time>2019-01-07T21:42:39Z</time>
      </trkpt>
      <trkpt lat="50.61672" lon="5.52155">
        <ele>67</ele>
        <time>2019-01-07T21:43:39Z</time>
      </trkpt>
      <trkpt lat="50.61648" lon="5.52225">
        <ele>65</ele>
        <time>2019-01-07T21:44:39Z</time>
      </trkpt>
      <trkpt lat="50.61602" lon="5.52344">
        <ele>63</ele>
        <time>2019-01-07T21:45:39Z</time>
      </trkpt>
      <trkpt lat="50.61558" lon="5.5244">
        <ele>62</ele>
        <time>2019-01-07T21:46:39Z</time>
      </trkpt>
      <trkpt lat="50.61503" lon="5.52547">
        <ele>64</ele>
        <time>2019-01-07T21:47:39Z</time>
      </trkpt>
      <trkpt lat="50.61431" lon="5.52664">
        <ele>66</ele>
        <time>2019-01-07T21:48:39Z</time>
      </trkpt>
      <trkpt lat="50.61365" lon="5.52754">
        <ele>62</ele>
        <time>2019-01-07T21:49:39Z</time>
      </trkpt>
      <trkpt lat="50.6129" lon="5.52848">
        <ele>62</ele>
        <time>2019-01-07T21:50:39Z</time>
      </trkpt>
      <trkpt lat="50.61095" lon="5.53035">
        <ele>65</ele>
        <time>2019-01-07T21:51:39Z</time>
      </trkpt>
      <trkpt lat="50.60993" lon="5.53134">
        <ele>65</ele>
        <time>2019-01-07T21:52:39Z</time>
      </trkpt>
      <trkpt lat="50.60963" lon="5.53171">
        <ele>66</ele>
        <time>2019-01-07T21:53:39Z</time>
      </trkpt>
      <trkpt lat="50.60924" lon="5.53227">
        <ele>64</ele>
        <time>2019-01-07T21:54:39Z</time>
      </trkpt>
      <trkpt lat="50.60886" lon="5.53308">
        <ele>63</ele>
        <time>2019-01-07T21:55:39Z</time>
      </trkpt>
      <trkpt lat="50.60823" lon="5.53463">
        <ele>65</ele>
        <time>2019-01-07T21:56:39Z</time>
      </trkpt>
      <trkpt lat="50.60784" lon="5.536">
        <ele>65</ele>
        <time>2019-01-07T21:57:39Z</time>
      </trkpt>
      <trkpt lat="50.60773" lon="5.53689">
        <ele>63</ele>
        <time>2019-01-07T21:58:39Z</time>
      </trkpt>
      <trkpt lat="50.60751" lon="5.53805">
        <ele>62</ele>
        <time>2019-01-07T21:59:39Z</time>
      </trkpt>
      <trkpt lat="50.60713" lon="5.53999">
        <ele>64</ele>
        <time>2019-01-07T22:00:39Z</time>
      </trkpt>
      <trkpt lat="50.60662" lon="5.54278">
        <ele>70</ele>
        <time>2019-01-07T22:01:39Z</time>
      </trkpt>
      <trkpt lat="50.60651" lon="5.54349">
        <ele>69</ele>
        <time>2019-01-07T22:02:39Z</time>
      </trkpt>
      <trkpt lat="50.60643" lon="5.5446">
        <ele>67</ele>
        <time>2019-01-07T22:03:39Z</time>
      </trkpt>
      <trkpt lat="50.60635" lon="5.54602">
        <ele>69</ele>
        <time>2019-01-07T22:04:39Z</time>
      </trkpt>
      <trkpt lat="50.60634" lon="5.54691">
        <ele>72</ele>
        <time>2019-01-07T22:05:39Z</time>
      </trkpt>
      <trkpt lat="50.6064" lon="5.54887">
        <ele>68</ele>
        <time>2019-01-07T22:06:39Z</time>
      </trkpt>
      <trkpt lat="50.60641" lon="5.54938">
        <ele>66</ele>
        <time>2019-01-07T22:07:39Z</time>
      </trkpt>
      <trkpt lat="50.60639" lon="5.55034">
        <ele>64</ele>
        <time>2019-01-07T22:08:39Z</time>
      </trkpt>
      <trkpt lat="50.60633" lon="5.55189">
        <ele>70</ele>
        <time>2019-01-07T22:09:39Z</time>
      </trkpt>
      <trkpt lat="50.60623" lon="5.55339">
        <ele>72</ele>
        <time>2019-01-07T22:10:39Z</time>
      </trkpt>
      <trkpt lat="50.60609" lon="5.55491">
        <ele>72</ele>
        <time>2019-01-07T22:11:39Z</time>
      </trkpt>
      <trkpt lat="50.60597" lon="5.55637">
        <ele>73</ele>
        <time>2019-01-07T22:12:39Z</time>
      </trkpt>
      <trkpt lat="50.60592" lon="5.55666">
        <ele>72</ele>
        <time>2019-01-07T22:13:39Z</time>
      </trkpt>
      <trkpt lat="50.60574" lon="5.55726">
        <ele>70</ele>
        <time>2019-01-07T22:14:39Z</time>
      </trkpt>
      <trkpt lat="50.60557" lon="5.55776">
        <ele>70</ele>
        <time>2019-01-07T22:15:39Z</time>
      </trkpt>
      <trkpt lat="50.6055" lon="5.55822">
        <ele>70</ele>
        <time>2019-01-07T22:16:39Z</time>
      </trkpt>
      <trkpt lat="50.60549" lon="5.55847">
        <ele>70</ele>
        <time>2019-01-07T22:17:39Z</time>
      </trkpt>
      <trkpt lat="50.60543" lon="5.55871">
        <ele>71</ele>
        <time>2019-01-07T22:18:39Z</time>
      </trkpt>
      <trkpt lat="50.60537" lon="5.55896">
        <ele>71</ele>
        <time>2019-01-07T22:19:39Z</time>
      </trkpt>
      <trkpt lat="50.60526" lon="5.55922">
        <ele>72</ele>
        <time>2019-01-07T22:20:39Z</time>
      </trkpt>
      <trkpt lat="50.60471" lon="5.56014">
        <ele>75</ele>
        <time>2019-01-07T22:21:39Z</time>
      </trkpt>
      <trkpt lat="50.60447" lon="5.5606">
        <ele>76</ele>
        <time>2019-01-07T22:22:39Z</time>
      </trkpt>
      <trkpt lat="50.60422" lon="5.56119">
        <ele>76</ele>
        <time>2019-01-07T22:23:39Z</time>
      </trkpt>
      <trkpt lat="50.60394" lon="5.56193">
        <ele>79</ele>
        <time>2019-01-07T22:24:39Z</time>
      </trkpt>
      <trkpt lat="50.6038" lon="5.56253">
        <ele>82</ele>
        <time>2019-01-07T22:25:39Z</time>
      </trkpt>
      <trkpt lat="50.60374" lon="5.56287">
        <ele>84</ele>
        <time>2019-01-07T22:26:39Z</time>
      </trkpt>
      <trkpt lat="50.60369" lon="5.5633">
        <ele>85</ele>
        <time>2019-01-07T22:27:39Z</time>
      </trkpt>
      <trkpt lat="50.60366" lon="5.56386">
        <ele>86</ele>
        <time>2019-01-07T22:28:39Z</time>
      </trkpt>
      <trkpt lat="50.60367" lon="5.56459">
        <ele>87</ele>
        <time>2019-01-07T22:29:39Z</time>
      </trkpt>
      <trkpt lat="50.60376" lon="5.56544">
        <ele>87</ele>
        <time>2019-01-07T22:30:39Z</time>
      </trkpt>
      <trkpt lat="50.60403" lon="5.56717">
        <ele>87</ele>
        <time>2019-01-07T22:31:39Z</time>
      </trkpt>
      <trkpt lat="50.60459" lon="5.57062">
        <ele>89</ele>
        <time>2019-01-07T22:32:39Z</time>
      </trkpt>
      <trkpt lat="50.60511" lon="5.57359">
        <ele>87</ele>
        <time>2019-01-07T22:33:39Z</time>
      </trkpt>
      <trkpt lat="50.60544" lon="5.57543">
        <ele>85</ele>
        <time>2019-01-07T22:34:39Z</time>
      </trkpt>
      <trkpt lat="50.60566" lon="5.57653">
        <ele>85</ele>
        <time>2019-01-07T22:35:39Z</time>
      </trkpt>
      <trkpt lat="50.60592" lon="5.57766">
        <ele>87</ele>
        <time>2019-01-07T22:36:39Z</time>
      </trkpt>
      <trkpt lat="50.6061" lon="5.57828">
        <ele>90</ele>
        <time>2019-01-07T22:37:39Z</time>
      </trkpt>
      <trkpt lat="50.60635" lon="5.579">
        <ele>89</ele>
        <time>2019-01-07T22:38:39Z</time>
      </trkpt>
      <trkpt lat="50.60689" lon="5.58024">
        <ele>88</ele>
        <time>2019-01-07T22:39:39Z</time>
      </trkpt>
      <trkpt lat="50.60741" lon="5.58125">
        <ele>84</ele>
        <time>2019-01-07T22:40:39Z</time>
      </trkpt>
      <trkpt lat="50.60839" lon="5.58309">
        <ele>86</ele>
        <time>2019-01-07T22:41:39Z</time>
      </trkpt>
      <trkpt lat="50.60867" lon="5.58357">
        <ele>87</ele>
        <time>2019-01-07T22:42:39Z</time>
      </trkpt>
      <trkpt lat="50.60895" lon="5.58386">
        <ele>83</ele>
        <time>2019-01-07T22:43:39Z</time>
      </trkpt>
      <trkpt lat="50.60923" lon="5.58402">
        <ele>77</ele>
        <time>2019-01-07T22:44:39Z</time>
      </trkpt>
      <trkpt lat="50.60962" lon="5.58408">
        <ele>74</ele>
        <time>2019-01-07T22:45:39Z</time>
      </trkpt>
      <trkpt lat="50.61048" lon="5.58411">
        <ele>71</ele>
        <time>2019-01-07T22:46:39Z</time>
      </trkpt>
      <trkpt lat="50.61103" lon="5.58411">
        <ele>69</ele>
        <time>2019-01-07T22:47:39Z</time>
      </trkpt>
      <trkpt lat="50.61143" lon="5.58416">
        <ele>69</ele>
        <time>2019-01-07T22:48:39Z</time>
      </trkpt>
      <trkpt lat="50.61194" lon="5.58414">
        <ele>68</ele>
        <time>2019-01-07T22:49:39Z</time>
      </trkpt>
      <trkpt lat="50.61244" lon="5.58419">
        <ele>67</ele>
        <time>2019-01-07T22:50:39Z</time>
      </trkpt>
      <trkpt lat="50.61279" lon="5.58423">
        <ele>67</ele>
        <time>2019-01-07T22:51:39Z</time>
      </trkpt>
      <trkpt lat="50.61289" lon="5.58424">
        <ele>67</ele>
        <time>2019-01-07T22:52:39Z</time>
      </trkpt>
      <trkpt lat="50.61316" lon="5.58445">
        <ele>66</ele>
        <time>2019-01-07T22:53:39Z</time>
      </trkpt>
      <trkpt lat="50.61329" lon="5.58496">
        <ele>66</ele>
        <time>2019-01-07T22:54:39Z</time>
      </trkpt>
      <trkpt lat="50.6134" lon="5.58546">
        <ele>65</ele>
        <time>2019-01-07T22:55:39Z</time>
      </trkpt>
      <trkpt lat="50.6135" lon="5.58603">
        <ele>65</ele>
        <time>2019-01-07T22:56:39Z</time>
      </trkpt>
      <trkpt lat="50.61353" lon="5.58634">
        <ele>66</ele>
        <time>2019-01-07T22:57:39Z</time>
      </trkpt>
      <trkpt lat="50.61349" lon="5.58791">
        <ele>67</ele>
        <time>2019-01-07T22:58:39Z</time>
      </trkpt>
      <trkpt lat="50.61346" lon="5.58843">
        <ele>67</ele>
        <time>2019-01-07T22:59:39Z</time>
      </trkpt>
      <trkpt lat="50.61348" lon="5.58869">
        <ele>67</ele>
        <time>2019-01-07T23:00:39Z</time>
      </trkpt>
      <trkpt lat="50.61346" lon="5.58929">
        <ele>67</ele>
        <time>2019-01-07T23:01:39Z</time>
      </trkpt>
      <trkpt lat="50.61348" lon="5.5895">
        <ele>66</ele>
        <time>2019-01-07T23:02:39Z</time>
      </trkpt>
      <trkpt lat="50.61345" lon="5.58997">
        <ele>65</ele>
        <time>2019-01-07T23:03:39Z</time>
      </trkpt>
      <trkpt lat="50.61341" lon="5.59011">
        <ele>65</ele>
        <time>2019-01-07T23:04:39Z</time>
      </trkpt>
      <trkpt lat="50.61333" lon="5.59096">
        <ele>66</ele>
        <time>2019-01-07T23:05:39Z</time>
      </trkpt>
      <trkpt lat="50.61296" lon="5.59265">
        <ele>67</ele>
        <time>2019-01-07T23:06:39Z</time>
      </trkpt>
      <trkpt lat="50.61253" lon="5.59465">
        <ele>65</ele>
        <time>2019-01-07T23:07:39Z</time>
      </trkpt>
      <trkpt lat="50.61263" lon="5.59612">
        <ele>65</ele>
        <time>2019-01-07T23:08:39Z</time>
      </trkpt>
      <trkpt lat="50.61268" lon="5.5971">
        <ele>64</ele>
        <time>2019-01-07T23:09:39Z</time>
      </trkpt>
      <trkpt lat="50.61266" lon="5.59741">
        <ele>65</ele>
        <time>2019-01-07T23:10:39Z</time>
      </trkpt>
      <trkpt lat="50.61262" lon="5.59756">
        <ele>65</ele>
        <time>2019-01-07T23:11:39Z</time>
      </trkpt>
      <trkpt lat="50.61199" lon="5.59834">
        <ele>64</ele>
        <time>2019-01-07T23:12:39Z</time>
      </trkpt>
      <trkpt lat="50.61142" lon="5.59913">
        <ele>65</ele>
        <time>2019-01-07T23:13:39Z</time>
      </trkpt>
      <trkpt lat="50.61131" lon="5.59933">
        <ele>65</ele>
        <time>2019-01-07T23:14:39Z</time>
      </trkpt>
      <trkpt lat="50.6113" lon="5.5995">
        <ele>65</ele>
        <time>2019-01-07T23:15:39Z</time>
      </trkpt>
      <trkpt lat="50.61143" lon="5.59949">
        <ele>65</ele>
        <time>2019-01-07T23:16:39Z</time>
      </trkpt>
      <trkpt lat="50.61161" lon="5.59971">
        <ele>65</ele>
        <time>2019-01-07T23:17:39Z</time>
      </trkpt>
      <trkpt lat="50.61177" lon="5.59998">
        <ele>66</ele>
        <time>2019-01-07T23:18:39Z</time>
      </trkpt>
      <trkpt lat="50.6121" lon="5.60073">
        <ele>67</ele>
        <time>2019-01-07T23:19:39Z</time>
      </trkpt>
      <trkpt lat="50.61218" lon="5.6009">
        <ele>67</ele>
        <time>2019-01-07T23:20:39Z</time>
      </trkpt>
      <trkpt lat="50.61226" lon="5.60101">
        <ele>67</ele>
        <time>2019-01-07T23:21:39Z</time>
      </trkpt>
      <trkpt lat="50.6126" lon="5.60127">
        <ele>67</ele>
        <time>2019-01-07T23:22:39Z</time>
      </trkpt>
      <trkpt lat="50.61196" lon="5.60356">
        <ele>67</ele>
        <time>2019-01-07T23:23:39Z</time>
      </trkpt>
      <trkpt lat="50.61121" lon="5.60579">
        <ele>67</ele>
        <time>2019-01-07T23:24:39Z</time>
      </trkpt>
      <trkpt lat="50.61097" lon="5.60657">
        <ele>67</ele>
        <time>2019-01-07T23:25:39Z</time>
      </trkpt>
      <trkpt lat="50.6108" lon="5.60698">
        <ele>67</ele>
        <time>2019-01-07T23:26:39Z</time>
      </trkpt>
      <trkpt lat="50.61039" lon="5.60837">
        <ele>66</ele>
        <time>2019-01-07T23:27:39Z</time>
      </trkpt>
      <trkpt lat="50.60945" lon="5.61187">
        <ele>68</ele>
        <time>2019-01-07T23:28:39Z</time>
      </trkpt>
      <trkpt lat="50.60921" lon="5.61271">
        <ele>66</ele>
        <time>2019-01-07T23:29:39Z</time>
      </trkpt>
      <trkpt lat="50.60913" lon="5.61301">
        <ele>67</ele>
        <time>2019-01-07T23:30:39Z</time>
      </trkpt>
      <trkpt lat="50.60908" lon="5.61328">
        <ele>67</ele>
        <time>2019-01-07T23:31:39Z</time>
      </trkpt>
      <trkpt lat="50.60907" lon="5.6142">
        <ele>68</ele>
        <time>2019-01-07T23:32:39Z</time>
      </trkpt>
      <trkpt lat="50.60884" lon="5.61414">
        <ele>68</ele>
        <time>2019-01-07T23:33:39Z</time>
      </trkpt>
      <trkpt lat="50.60847" lon="5.61396">
        <ele>67</ele>
        <time>2019-01-07T23:34:39Z</time>
      </trkpt>
      <trkpt lat="50.60811" lon="5.61373">
        <ele>68</ele>
        <time>2019-01-07T23:35:39Z</time>
      </trkpt>
      <trkpt lat="50.6077" lon="5.6134">
        <ele>68</ele>
        <time>2019-01-07T23:36:39Z</time>
      </trkpt>
      <trkpt lat="50.60722" lon="5.61306">
        <ele>68</ele>
        <time>2019-01-07T23:37:39Z</time>
      </trkpt>
      <trkpt lat="50.60699" lon="5.61297">
        <ele>68</ele>
        <time>2019-01-07T23:38:39Z</time>
      </trkpt>
      <trkpt lat="50.60649" lon="5.6127">
        <ele>68</ele>
        <time>2019-01-07T23:39:39Z</time>
      </trkpt>
      <trkpt lat="50.60629" lon="5.61421">
        <ele>70</ele>
        <time>2019-01-07T23:40:39Z</time>
      </trkpt>
      <trkpt lat="50.60625" lon="5.6144">
        <ele>73</ele>
        <time>2019-01-07T23:41:39Z</time>
      </trkpt>
      <trkpt lat="50.60616" lon="5.61456">
        <ele>75</ele>
        <time>2019-01-07T23:42:39Z</time>
      </trkpt>
      <trkpt lat="50.60602" lon="5.61466">
        <ele>77</ele>
        <time>2019-01-07T23:43:39Z</time>
      </trkpt>
      <trkpt lat="50.60585" lon="5.61465">
        <ele>77</ele>
        <time>2019-01-07T23:44:39Z</time>
      </trkpt>
      <trkpt lat="50.60508" lon="5.61456">
        <ele>80</ele>
        <time>2019-01-07T23:45:39Z</time>
      </trkpt>
      <trkpt lat="50.60464" lon="5.61451">
        <ele>84</ele>
        <time>2019-01-07T23:46:39Z</time>
      </trkpt>
      <trkpt lat="50.60423" lon="5.61442">
        <ele>87</ele>
        <time>2019-01-07T23:47:39Z</time>
      </trkpt>
      <trkpt lat="50.60368" lon="5.61427">
        <ele>90</ele>
        <time>2019-01-07T23:48:39Z</time>
      </trkpt>
      <trkpt lat="50.60339" lon="5.61419">
        <ele>91</ele>
        <time>2019-01-07T23:49:39Z</time>
      </trkpt>
      <trkpt lat="50.60266" lon="5.6139">
        <ele>100</ele>
        <time>2019-01-07T23:50:39Z</time>
      </trkpt>
      <trkpt lat="50.60132" lon="5.61297">
        <ele>106</ele>
        <time>2019-01-07T23:51:39Z</time>
      </trkpt>
      <trkpt lat="50.60087" lon="5.61259">
        <ele>105</ele>
        <time>2019-01-07T23:52:39Z</time>
      </trkpt>
      <trkpt lat="50.60062" lon="5.61238">
        <ele>108</ele>
        <time>2019-01-07T23:53:39Z</time>
      </trkpt>
      <trkpt lat="50.60053" lon="5.61225">
        <ele>109</ele>
        <time>2019-01-07T23:54:39Z</time>
      </trkpt>
      <trkpt lat="50.60044" lon="5.61202">
        <ele>110</ele>
        <time>2019-01-07T23:55:39Z</time>
      </trkpt>
      <trkpt lat="50.59965" lon="5.61043">
        <ele>108</ele>
        <time>2019-01-07T23:56:39Z</time>
      </trkpt>
      <trkpt lat="50.59897" lon="5.60987">
        <ele>116</ele>
        <time>2019-01-07T23:57:39Z</time>
      </trkpt>
      <trkpt lat="50.59847" lon="5.60949">
        <ele>120</ele>
        <time>2019-01-07T23:58:39Z</time>
      </trkpt>
      <trkpt lat="50.59824" lon="5.60949">
        <ele>123</ele>
        <time>2019-01-07T23:59:39Z</time>
      </trkpt>
      <trkpt lat="50.59811" lon="5.60953">
        <ele>124</ele>
        <time>2019-01-08T00:00:39Z</time>
      </trkpt>
      <trkpt lat="50.5979" lon="5.60975">
        <ele>126</ele>
        <time>2019-01-08T00:01:39Z</time>
      </trkpt>
      <trkpt lat="50.59772" lon="5.61007">
        <ele>127</ele>
        <time>2019-01-08T00:02:39Z</time>
      </trkpt>
      <trkpt lat="50.59755" lon="5.6104">
        <ele>129</ele>
        <time>2019-01-08T00:03:39Z</time>
      </trkpt>
      <trkpt lat="50.59743" lon="5.6106">
        <ele>131</ele>
        <time>2019-01-08T00:04:39Z</time>
      </trkpt>
      <trkpt lat="50.59725" lon="5.61073">
        <ele>132</ele>
        <time>2019-01-08T00:05:39Z</time>
      </trkpt>
      <trkpt lat="50.59705" lon="5.61063">
        <ele>132</ele>
        <time>2019-01-08T00:06:39Z</time>
      </trkpt>
      <trkpt lat="50.59698" lon="5.61031">
        <ele>132</ele>
        <time>2019-01-08T00:07:39Z</time>
      </trkpt>
      <trkpt lat="50.59698" lon="5.61006">
        <ele>131</ele>
        <time>2019-01-08T00:08:39Z</time>
      </trkpt>
      <trkpt lat="50.59698" lon="5.60969">
        <ele>131</ele>
        <time>2019-01-08T00:09:39Z</time>
      </trkpt>
      <trkpt lat="50.59701" lon="5.60889">
        <ele>131</ele>
        <time>2019-01-08T00:10:39Z</time>
      </trkpt>
      <trkpt lat="50.59699" lon="5.60862">
        <ele>131</ele>
        <time>2019-01-08T00:11:39Z</time>
      </trkpt>
      <trkpt lat="50.59693" lon="5.6084">
        <ele>131</ele>
        <time>2019-01-08T00:12:39Z</time>
      </trkpt>
      <trkpt lat="50.59684" lon="5.60819">
        <ele>131</ele>
        <time>2019-01-08T00:13:39Z</time>
      </trkpt>
      <trkpt lat="50.59673" lon="5.608">
        <ele>131</ele>
        <time>2019-01-08T00:14:39Z</time>
      </trkpt>
      <trkpt lat="50.59656" lon="5.60783">
        <ele>131</ele>
        <time>2019-01-08T00:15:39Z</time>
      </trkpt>
      <trkpt lat="50.59638" lon="5.60773">
        <ele>132</ele>
        <time>2019-01-08T00:16:39Z</time>
      </trkpt>
      <trkpt lat="50.5953" lon="5.60727">
        <ele>136</ele>
        <time>2019-01-08T00:17:39Z</time>
      </trkpt>
      <trkpt lat="50.59453" lon="5.60694">
        <ele>138</ele>
        <time>2019-01-08T00:18:39Z</time>
      </trkpt>
      <trkpt lat="50.59353" lon="5.60653">
        <ele>142</ele>
        <time>2019-01-08T00:19:39Z</time>
      </trkpt>
      <trkpt lat="50.59315" lon="5.60638">
        <ele>143</ele>
        <time>2019-01-08T00:20:39Z</time>
      </trkpt>
      <trkpt lat="50.59291" lon="5.60625">
        <ele>144</ele>
        <time>2019-01-08T00:21:39Z</time>
      </trkpt>
      <trkpt lat="50.5929" lon="5.60614">
        <ele>143</ele>
        <time>2019-01-08T00:22:39Z</time>
      </trkpt>
      <trkpt lat="50.59284" lon="5.60605">
        <ele>143</ele>
        <time>2019-01-08T00:23:39Z</time>
      </trkpt>
      <trkpt lat="50.59276" lon="5.60606">
        <ele>144</ele>
        <time>2019-01-08T00:24:39Z</time>
      </trkpt>
      <trkpt lat="50.59272" lon="5.60612">
        <ele>144</ele>
        <time>2019-01-08T00:25:39Z</time>
      </trkpt>
      <trkpt lat="50.5927" lon="5.60621">
        <ele>145</ele>
        <time>2019-01-08T00:26:39Z</time>
      </trkpt>
      <trkpt lat="50.59249" lon="5.60617">
        <ele>145</ele>
        <time>2019-01-08T00:27:39Z</time>
      </trkpt>
      <trkpt lat="50.5922" lon="5.60613">
        <ele>145</ele>
        <time>2019-01-08T00:28:39Z</time>
      </trkpt>
      <trkpt lat="50.59196" lon="5.60613">
        <ele>145</ele>
        <time>2019-01-08T00:29:39Z</time>
      </trkpt>
      <trkpt lat="50.59159" lon="5.6062">
        <ele>145</ele>
        <time>2019-01-08T00:30:39Z</time>
      </trkpt>
      <trkpt lat="50.59125" lon="5.60631">
        <ele>146</ele>
        <time>2019-01-08T00:31:39Z</time>
      </trkpt>
      <trkpt lat="50.59093" lon="5.60644">
        <ele>147</ele>
        <time>2019-01-08T00:32:39Z</time>
      </trkpt>
      <trkpt lat="50.59059" lon="5.60662">
        <ele>148</ele>
        <time>2019-01-08T00:33:39Z</time>
      </trkpt>
      <trkpt lat="50.59025" lon="5.60692">
        <ele>152</ele>
        <time>2019-01-08T00:34:39Z</time>
      </trkpt>
      <trkpt lat="50.58951" lon="5.60776">
        <ele>158</ele>
        <time>2019-01-08T00:35:39Z</time>
      </trkpt>
      <trkpt lat="50.5891" lon="5.60828">
        <ele>159</ele>
        <time>2019-01-08T00:36:39Z</time>
      </trkpt>
      <trkpt lat="50.58802" lon="5.60995">
        <ele>162</ele>
        <time>2019-01-08T00:37:39Z</time>
      </trkpt>
      <trkpt lat="50.5871" lon="5.61139">
        <ele>163</ele>
        <time>2019-01-08T00:38:39Z</time>
      </trkpt>
      <trkpt lat="50.58612" lon="5.61291">
        <ele>167</ele>
        <time>2019-01-08T00:39:39Z</time>
      </trkpt>
      <trkpt lat="50.58524" lon="5.61428">
        <ele>173</ele>
        <time>2019-01-08T00:40:39Z</time>
      </trkpt>
      <trkpt lat="50.58424" lon="5.61585">
        <ele>182</ele>
        <time>2019-01-08T00:41:39Z</time>
      </trkpt>
      <trkpt lat="50.58389" lon="5.61639">
        <ele>185</ele>
        <time>2019-01-08T00:42:39Z</time>
      </trkpt>
      <trkpt lat="50.58371" lon="5.61668">
        <ele>187</ele>
        <time>2019-01-08T00:43:39Z</time>
      </trkpt>
      <trkpt lat="50.58356" lon="5.61681">
        <ele>188</ele>
        <time>2019-01-08T00:44:39Z</time>
      </trkpt>
      <trkpt lat="50.58327" lon="5.61692">
        <ele>191</ele>
        <time>2019-01-08T00:45:39Z</time>
      </trkpt>
      <trkpt lat="50.58291" lon="5.6168">
        <ele>199</ele>
        <time>2019-01-08T00:46:39Z</time>
      </trkpt>
      <trkpt lat="50.58264" lon="5.61641">
        <ele>201</ele>
        <time>2019-01-08T00:47:39Z</time>
      </trkpt>
      <trkpt lat="50.58251" lon="5.61623">
        <ele>200</ele>
        <time>2019-01-08T00:48:39Z</time>
      </trkpt>
      <trkpt lat="50.5823" lon="5.6159">
        <ele>200</ele>
        <time>2019-01-08T00:49:39Z</time>
      </trkpt>
      <trkpt lat="50.58189" lon="5.61518">
        <ele>198</ele>
        <time>2019-01-08T00:50:39Z</time>
      </trkpt>
      <trkpt lat="50.58165" lon="5.61477">
        <ele>194</ele>
        <time>2019-01-08T00:51:39Z</time>
      </trkpt>
      <trkpt lat="50.58145" lon="5.61467">
        <ele>191</ele>
        <time>2019-01-08T00:52:39Z</time>
      </trkpt>
      <trkpt lat="50.58126" lon="5.61474">
        <ele>191</ele>
        <time>2019-01-08T00:53:39Z</time>
      </trkpt>
      <trkpt lat="50.58115" lon="5.615">
        <ele>195</ele>
        <time>2019-01-08T00:54:39Z</time>
      </trkpt>
      <trkpt lat="50.58107" lon="5.61559">
        <ele>202</ele>
        <time>2019-01-08T00:55:39Z</time>
      </trkpt>
      <trkpt lat="50.58095" lon="5.61669">
        <ele>210</ele>
        <time>2019-01-08T00:56:39Z</time>
      </trkpt>
      <trkpt lat="50.58089" lon="5.61698">
        <ele>210</ele>
        <time>2019-01-08T00:57:39Z</time>
      </trkpt>
      <trkpt lat="50.58083" lon="5.61715">
        <ele>210</ele>
        <time>2019-01-08T00:58:39Z</time>
      </trkpt>
      <trkpt lat="50.58074" lon="5.61727">
        <ele>211</ele>
        <time>2019-01-08T00:59:39Z</time>
      </trkpt>
      <trkpt lat="50.58062" lon="5.61732">
        <ele>211</ele>
        <time>2019-01-08T01:00:39Z</time>
      </trkpt>
      <trkpt lat="50.58049" lon="5.61736">
        <ele>212</ele>
        <time>2019-01-08T01:01:39Z</time>
      </trkpt>
      <trkpt lat="50.58036" lon="5.61737">
        <ele>213</ele>
        <time>2019-01-08T01:02:39Z</time>
      </trkpt>
      <trkpt lat="50.58019" lon="5.61741">
        <ele>213</ele>
        <time>2019-01-08T01:03:39Z</time>
      </trkpt>
      <trkpt lat="50.57903" lon="5.6174">
        <ele>221</ele>
        <time>2019-01-08T01:04:39Z</time>
      </trkpt>
      <trkpt lat="50.57838" lon="5.61744">
        <ele>224</ele>
        <time>2019-01-08T01:05:39Z</time>
      </trkpt>
      <trkpt lat="50.5773" lon="5.6178">
        <ele>233</ele>
        <time>2019-01-08T01:06:39Z</time>
      </trkpt>
      <trkpt lat="50.57617" lon="5.61818">
        <ele>236</ele>
        <time>2019-01-08T01:07:39Z</time>
      </trkpt>
      <trkpt lat="50.57431" lon="5.6188">
        <ele>246</ele>
        <time>2019-01-08T01:08:39Z</time>
      </trkpt>
      <trkpt lat="50.57225" lon="5.61962">
        <ele>263</ele>
        <time>2019-01-08T01:09:39Z</time>
      </trkpt>
      <trkpt lat="50.57065" lon="5.6203">
        <ele>267</ele>
        <time>2019-01-08T01:10:39Z</time>
      </trkpt>
      <trkpt lat="50.56961" lon="5.62094">
        <ele>269</ele>
        <time>2019-01-08T01:11:39Z</time>
      </trkpt>
      <trkpt lat="50.56949" lon="5.62117">
        <ele>270</ele>
        <time>2019-01-08T01:12:39Z</time>
      </trkpt>
      <trkpt lat="50.56939" lon="5.62147">
        <ele>270</ele>
        <time>2019-01-08T01:13:39Z</time>
      </trkpt>
      <trkpt lat="50.56921" lon="5.62214">
        <ele>269</ele>
        <time>2019-01-08T01:14:39Z</time>
      </trkpt>
      <trkpt lat="50.56911" lon="5.62253">
        <ele>269</ele>
        <time>2019-01-08T01:15:39Z</time>
      </trkpt>
      <trkpt lat="50.56869" lon="5.62373">
        <ele>269</ele>
        <time>2019-01-08T01:16:39Z</time>
      </trkpt>
      <trkpt lat="50.5681" lon="5.62518">
        <ele>272</ele>
        <time>2019-01-08T01:17:39Z</time>
      </trkpt>
      <trkpt lat="50.56774" lon="5.6262">
        <ele>272</ele>
        <time>2019-01-08T01:18:39Z</time>
      </trkpt>
      <trkpt lat="50.56731" lon="5.62757">
        <ele>271</ele>
        <time>2019-01-08T01:19:39Z</time>
      </trkpt>
      <trkpt lat="50.5672" lon="5.62794">
        <ele>271</ele>
        <time>2019-01-08T01:20:39Z</time>
      </trkpt>
      <trkpt lat="50.56711" lon="5.62835">
        <ele>271</ele>
        <time>2019-01-08T01:21:39Z</time>
      </trkpt>
      <trkpt lat="50.56699" lon="5.62889">
        <ele>272</ele>
        <time>2019-01-08T01:22:39Z</time>
      </trkpt>
      <trkpt lat="50.56684" lon="5.62948">
        <ele>272</ele>
        <time>2019-01-08T01:23:39Z</time>
      </trkpt>
      <trkpt lat="50.56662" lon="5.63015">
        <ele>272</ele>
        <time>2019-01-08T01:24:39Z</time>
      </trkpt>
      <trkpt lat="50.56636" lon="5.63086">
        <ele>271</ele>
        <time>2019-01-08T01:25:39Z</time>
      </trkpt>
      <trkpt lat="50.56618" lon="5.63129">
        <ele>271</ele>
        <time>2019-01-08T01:26:39Z</time>
      </trkpt>
      <trkpt lat="50.56525" lon="5.63316">
        <ele>274</ele>
        <time>2019-01-08T01:27:39Z</time>
      </trkpt>
      <trkpt lat="50.56458" lon="5.6345">
        <ele>274</ele>
        <time>2019-01-08T01:28:39Z</time>
      </trkpt>
      <trkpt lat="50.56448" lon="5.63466">
        <ele>274</ele>
        <time>2019-01-08T01:29:39Z</time>
      </trkpt>
      <trkpt lat="50.56438" lon="5.63475">
        <ele>275</ele>
        <time>2019-01-08T01:30:39Z</time>
      </trkpt>
      <trkpt lat="50.56382" lon="5.63514">
        <ele>275</ele>
        <time>2019-01-08T01:31:39Z</time>
      </trkpt>
      <trkpt lat="50.56294" lon="5.63563">
        <ele>276</ele>
        <time>2019-01-08T01:32:39Z</time>
      </trkpt>
      <trkpt lat="50.56173" lon="5.6363">
        <ele>279</ele>
        <time>2019-01-08T01:33:39Z</time>
      </trkpt>
      <trkpt lat="50.5599" lon="5.63733">
        <ele>285</ele>
        <time>2019-01-08T01:34:39Z</time>
      </trkpt>
      <trkpt lat="50.55944" lon="5.63757">
        <ele>287</ele>
        <time>2019-01-08T01:35:39Z</time>
      </trkpt>
      <trkpt lat="50.5592" lon="5.63773">
        <ele>288</ele>
        <time>2019-01-08T01:36:39Z</time>
      </trkpt>
      <trkpt lat="50.55903" lon="5.63793">
        <ele>288</ele>
        <time>2019-01-08T01:37:39Z</time>
      </trkpt>
      <trkpt lat="50.55891" lon="5.63818">
        <ele>288</ele>
        <time>2019-01-08T01:38:39Z</time>
      </trkpt>
      <trkpt lat="50.55881" lon="5.63843">
        <ele>288</ele>
        <time>2019-01-08T01:39:39Z</time>
      </trkpt>
      <trkpt lat="50.55868" lon="5.63887">
        <ele>288</ele>
        <time>2019-01-08T01:40:39Z</time>
      </trkpt>
      <trkpt lat="50.55851" lon="5.63951">
        <ele>288</ele>
        <time>2019-01-08T01:41:39Z</time>
      </trkpt>
      <trkpt lat="50.55839" lon="5.63992">
        <ele>288</ele>
        <time>2019-01-08T01:42:39Z</time>
      </trkpt>
      <trkpt lat="50.55787" lon="5.64179">
        <ele>285</ele>
        <time>2019-01-08T01:43:39Z</time>
      </trkpt>
      <trkpt lat="50.55727" lon="5.64401">
        <ele>286</ele>
        <time>2019-01-08T01:44:39Z</time>
      </trkpt>
      <trkpt lat="50.5568" lon="5.64571">
        <ele>286</ele>
        <time>2019-01-08T01:45:39Z</time>
      </trkpt>
      <trkpt lat="50.55626" lon="5.6477">
        <ele>285</ele>
        <time>2019-01-08T01:46:39Z</time>
      </trkpt>
      <trkpt lat="50.55534" lon="5.65108">
        <ele>283</ele>
        <time>2019-01-08T01:47:39Z</time>
      </trkpt>
      <trkpt lat="50.55407" lon="5.6556">
        <ele>283</ele>
        <time>2019-01-08T01:48:39Z</time>
      </trkpt>
      <trkpt lat="50.55398" lon="5.65591">
        <ele>283</ele>
        <time>2019-01-08T01:49:39Z</time>
      </trkpt>
      <trkpt lat="50.55378" lon="5.6565">
        <ele>284</ele>
        <time>2019-01-08T01:50:39Z</time>
      </trkpt>
      <trkpt lat="50.55355" lon="5.65693">
        <ele>284</ele>
        <time>2019-01-08T01:51:39Z</time>
      </trkpt>
      <trkpt lat="50.5534" lon="5.65723">
        <ele>285</ele>
        <time>2019-01-08T01:52:39Z</time>
      </trkpt>
      <trkpt lat="50.55313" lon="5.65763">
        <ele>286</ele>
        <time>2019-01-08T01:53:39Z</time>
      </trkpt>
      <trkpt lat="50.55243" lon="5.65873">
        <ele>291</ele>
        <time>2019-01-08T01:54:39Z</time>
      </trkpt>
      <trkpt lat="50.5517" lon="5.65988">
        <ele>296</ele>
        <time>2019-01-08T01:55:39Z</time>
      </trkpt>
      <trkpt lat="50.55138" lon="5.6604">
        <ele>299</ele>
        <time>2019-01-08T01:56:39Z</time>
      </trkpt>
      <trkpt lat="50.55128" lon="5.66061">
        <ele>299</ele>
        <time>2019-01-08T01:57:39Z</time>
      </trkpt>
      <trkpt lat="50.55109" lon="5.66103">
        <ele>300</ele>
        <time>2019-01-08T01:58:39Z</time>
      </trkpt>
      <trkpt lat="50.55013" lon="5.66349">
        <ele>299</ele>
        <time>2019-01-08T01:59:39Z</time>
      </trkpt>
      <trkpt lat="50.54958" lon="5.66492">
        <ele>299</ele>
        <time>2019-01-08T02:00:39Z</time>
      </trkpt>
      <trkpt lat="50.54874" lon="5.6671">
        <ele>300</ele>
        <time>2019-01-08T02:01:39Z</time>
      </trkpt>
      <trkpt lat="50.54797" lon="5.66909">
        <ele>292</ele>
        <time>2019-01-08T02:02:39Z</time>
      </trkpt>
      <trkpt lat="50.54713" lon="5.6712">
        <ele>283</ele>
        <time>2019-01-08T02:03:39Z</time>
      </trkpt>
      <trkpt lat="50.54644" lon="5.67303">
        <ele>278</ele>
        <time>2019-01-08T02:04:39Z</time>
      </trkpt>
      <trkpt lat="50.54625" lon="5.67348">
        <ele>277</ele>
        <time>2019-01-08T02:05:39Z</time>
      </trkpt>
      <trkpt lat="50.54562" lon="5.67491">
        <ele>273</ele>
        <time>2019-01-08T02:06:39Z</time>
      </trkpt>
      <trkpt lat="50.54534" lon="5.67534">
        <ele>272</ele>
        <time>2019-01-08T02:07:39Z</time>
      </trkpt>
      <trkpt lat="50.54486" lon="5.67599">
        <ele>269</ele>
        <time>2019-01-08T02:08:39Z</time>
      </trkpt>
      <trkpt lat="50.54452" lon="5.67646">
        <ele>264</ele>
        <time>2019-01-08T02:09:39Z</time>
      </trkpt>
      <trkpt lat="50.54441" lon="5.67665">
        <ele>263</ele>
        <time>2019-01-08T02:10:39Z</time>
      </trkpt>
      <trkpt lat="50.54435" lon="5.67681">
        <ele>262</ele>
        <time>2019-01-08T02:11:39Z</time>
      </trkpt>
      <trkpt lat="50.5443" lon="5.67705">
        <ele>261</ele>
        <time>2019-01-08T02:12:39Z</time>
      </trkpt>
      <trkpt lat="50.54429" lon="5.67725">
        <ele>261</ele>
        <time>2019-01-08T02:13:39Z</time>
      </trkpt>
      <trkpt lat="50.54429" lon="5.67752">
        <ele>260</ele>
        <time>2019-01-08T02:14:39Z</time>
      </trkpt>
      <trkpt lat="50.5443" lon="5.67895">
        <ele>255</ele>
        <time>2019-01-08T02:15:39Z</time>
      </trkpt>
      <trkpt lat="50.5443" lon="5.6811">
        <ele>244</ele>
        <time>2019-01-08T02:16:39Z</time>
      </trkpt>
      <trkpt lat="50.5443" lon="5.68219">
        <ele>235</ele>
        <time>2019-01-08T02:17:39Z</time>
      </trkpt>
      <trkpt lat="50.54426" lon="5.68245">
        <ele>231</ele>
        <time>2019-01-08T02:18:39Z</time>
      </trkpt>
      <trkpt lat="50.54422" lon="5.6827">
        <ele>229</ele>
        <time>2019-01-08T02:19:39Z</time>
      </trkpt>
      <trkpt lat="50.54399" lon="5.68348">
        <ele>222</ele>
        <time>2019-01-08T02:20:39Z</time>
      </trkpt>
      <trkpt lat="50.54376" lon="5.68399">
        <ele>217</ele>
        <time>2019-01-08T02:21:39Z</time>
      </trkpt>
      <trkpt lat="50.54357" lon="5.68437">
        <ele>213</ele>
        <time>2019-01-08T02:22:39Z</time>
      </trkpt>
      <trkpt lat="50.5435" lon="5.68456">
        <ele>211</ele>
        <time>2019-01-08T02:23:39Z</time>
      </trkpt>
      <trkpt lat="50.54347" lon="5.6848">
        <ele>209</ele>
        <time>2019-01-08T02:24:39Z</time>
      </trkpt>
      <trkpt lat="50.54354" lon="5.68511">
        <ele>207</ele>
        <time>2019-01-08T02:25:39Z</time>
      </trkpt>
      <trkpt lat="50.54367" lon="5.68582">
        <ele>204</ele>
        <time>2019-01-08T02:26:39Z</time>
      </trkpt>
      <trkpt lat="50.5438" lon="5.68667">
        <ele>201</ele>
        <time>2019-01-08T02:27:39Z</time>
      </trkpt>
      <trkpt lat="50.54386" lon="5.6877">
        <ele>198</ele>
        <time>2019-01-08T02:28:39Z</time>
      </trkpt>
      <trkpt lat="50.54402" lon="5.68955">
        <ele>187</ele>
        <time>2019-01-08T02:29:39Z</time>
      </trkpt>
      <trkpt lat="50.54408" lon="5.69028">
        <ele>181</ele>
        <time>2019-01-08T02:30:39Z</time>
      </trkpt>
      <trkpt lat="50.54406" lon="5.69062">
        <ele>179</ele>
        <time>2019-01-08T02:31:39Z</time>
      </trkpt>
      <trkpt lat="50.54404" lon="5.69083">
        <ele>177</ele>
        <time>2019-01-08T02:32:39Z</time>
      </trkpt>
      <trkpt lat="50.54401" lon="5.69103">
        <ele>177</ele>
        <time>2019-01-08T02:33:39Z</time>
      </trkpt>
      <trkpt lat="50.54396" lon="5.69124">
        <ele>177</ele>
        <time>2019-01-08T02:34:39Z</time>
      </trkpt>
      <trkpt lat="50.5439" lon="5.69144">
        <ele>177</ele>
        <time>2019-01-08T02:35:39Z</time>
      </trkpt>
      <trkpt lat="50.54383" lon="5.69163">
        <ele>177</ele>
        <time>2019-01-08T02:36:39Z</time>
      </trkpt>
      <trkpt lat="50.54374" lon="5.69183">
        <ele>178</ele>
        <time>2019-01-08T02:37:39Z</time>
      </trkpt>
      <trkpt lat="50.54363" lon="5.692">
        <ele>178</ele>
        <time>2019-01-08T02:38:39Z</time>
      </trkpt>
      <trkpt lat="50.54344" lon="5.69218">
        <ele>178</ele>
        <time>2019-01-08T02:39:39Z</time>
      </trkpt>
      <trkpt lat="50.54325" lon="5.69232">
        <ele>179</ele>
        <time>2019-01-08T02:40:39Z</time>
      </trkpt>
      <trkpt lat="50.54301" lon="5.69248">
        <ele>180</ele>
        <time>2019-01-08T02:41:39Z</time>
      </trkpt>
      <trkpt lat="50.5421" lon="5.69295">
        <ele>189</ele>
        <time>2019-01-08T02:42:39Z</time>
      </trkpt>
      <trkpt lat="50.54187" lon="5.69303">
        <ele>190</ele>
        <time>2019-01-08T02:43:39Z</time>
      </trkpt>
      <trkpt lat="50.54162" lon="5.69302">
        <ele>192</ele>
        <time>2019-01-08T02:44:39Z</time>
      </trkpt>
      <trkpt lat="50.54096" lon="5.69281">
        <ele>193</ele>
        <time>2019-01-08T02:45:39Z</time>
      </trkpt>
      <trkpt lat="50.54016" lon="5.69258">
        <ele>195</ele>
        <time>2019-01-08T02:46:39Z</time>
      </trkpt>
      <trkpt lat="50.53991" lon="5.69245">
        <ele>195</ele>
        <time>2019-01-08T02:47:39Z</time>
      </trkpt>
      <trkpt lat="50.53845" lon="5.69167">
        <ele>193</ele>
        <time>2019-01-08T02:48:39Z</time>
      </trkpt>
      <trkpt lat="50.53831" lon="5.69165">
        <ele>194</ele>
        <time>2019-01-08T02:49:39Z</time>
      </trkpt>
      <trkpt lat="50.53817" lon="5.69164">
        <ele>196</ele>
        <time>2019-01-08T02:50:39Z</time>
      </trkpt>
      <trkpt lat="50.53802" lon="5.69168">
        <ele>196</ele>
        <time>2019-01-08T02:51:39Z</time>
      </trkpt>
      <trkpt lat="50.53788" lon="5.69173">
        <ele>198</ele>
        <time>2019-01-08T02:52:39Z</time>
      </trkpt>
      <trkpt lat="50.53774" lon="5.69183">
        <ele>200</ele>
        <time>2019-01-08T02:53:39Z</time>
      </trkpt>
      <trkpt lat="50.53747" lon="5.69205">
        <ele>202</ele>
        <time>2019-01-08T02:54:39Z</time>
      </trkpt>
      <trkpt lat="50.53736" lon="5.69219">
        <ele>204</ele>
        <time>2019-01-08T02:55:39Z</time>
      </trkpt>
      <trkpt lat="50.53724" lon="5.69236">
        <ele>205</ele>
        <time>2019-01-08T02:56:39Z</time>
      </trkpt>
      <trkpt lat="50.53714" lon="5.69255">
        <ele>206</ele>
        <time>2019-01-08T02:57:39Z</time>
      </trkpt>
      <trkpt lat="50.53704" lon="5.69275">
        <ele>207</ele>
        <time>2019-01-08T02:58:39Z</time>
      </trkpt>
      <trkpt lat="50.53695" lon="5.69296">
        <ele>207</ele>
        <time>2019-01-08T02:59:39Z</time>
      </trkpt>
      <trkpt lat="50.53671" lon="5.69369">
        <ele>206</ele>
        <time>2019-01-08T03:00:39Z</time>
      </trkpt>
      <trkpt lat="50.53642" lon="5.695">
        <ele>207</ele>
        <time>2019-01-08T03:01:39Z</time>
      </trkpt>
      <trkpt lat="50.53626" lon="5.69586">
        <ele>210</ele>
        <time>2019-01-08T03:02:39Z</time>
      </trkpt>
      <trkpt lat="50.53619" lon="5.69654">
        <ele>211</ele>
        <time>2019-01-08T03:03:39Z</time>
      </trkpt>
      <trkpt lat="50.53618" lon="5.69746">
        <ele>211</ele>
        <time>2019-01-08T03:04:39Z</time>
      </trkpt>
      <trkpt lat="50.53604" lon="5.7001">
        <ele>211</ele>
        <time>2019-01-08T03:05:39Z</time>
      </trkpt>
      <trkpt lat="50.53576" lon="5.70333">
        <ele>208</ele>
        <time>2019-01-08T03:06:39Z</time>
      </trkpt>
      <trkpt lat="50.53562" lon="5.70507">
        <ele>209</ele>
        <time>2019-01-08T03:07:39Z</time>
      </trkpt>
      <trkpt lat="50.53549" lon="5.70663">
        <ele>211</ele>
        <time>2019-01-08T03:08:39Z</time>
      </trkpt>
      <trkpt lat="50.53542" lon="5.70777">
        <ele>214</ele>
        <time>2019-01-08T03:09:39Z</time>
      </trkpt>
      <trkpt lat="50.53544" lon="5.70799">
        <ele>214</ele>
        <time>2019-01-08T03:10:39Z</time>
      </trkpt>
      <trkpt lat="50.53557" lon="5.70873">
        <ele>214</ele>
        <time>2019-01-08T03:11:39Z</time>
      </trkpt>
      <trkpt lat="50.53557" lon="5.70889">
        <ele>214</ele>
        <time>2019-01-08T03:12:39Z</time>
      </trkpt>
      <trkpt lat="50.53554" lon="5.70903">
        <ele>214</ele>
        <time>2019-01-08T03:13:39Z</time>
      </trkpt>
      <trkpt lat="50.53547" lon="5.70912">
        <ele>215</ele>
        <time>2019-01-08T03:14:39Z</time>
      </trkpt>
      <trkpt lat="50.53538" lon="5.70916">
        <ele>215</ele>
        <time>2019-01-08T03:15:39Z</time>
      </trkpt>
      <trkpt lat="50.53527" lon="5.70915">
        <ele>216</ele>
        <time>2019-01-08T03:16:39Z</time>
      </trkpt>
      <trkpt lat="50.53517" lon="5.70909">
        <ele>216</ele>
        <time>2019-01-08T03:17:39Z</time>
      </trkpt>
      <trkpt lat="50.53507" lon="5.709">
        <ele>217</ele>
        <time>2019-01-08T03:18:39Z</time>
      </trkpt>
      <trkpt lat="50.53401" lon="5.70789">
        <ele>222</ele>
        <time>2019-01-08T03:19:39Z</time>
      </trkpt>
      <trkpt lat="50.53244" lon="5.70633">
        <ele>229</ele>
        <time>2019-01-08T03:20:39Z</time>
      </trkpt>
      <trkpt lat="50.53223" lon="5.70634">
        <ele>229</ele>
        <time>2019-01-08T03:21:39Z</time>
      </trkpt>
      <trkpt lat="50.53209" lon="5.70641">
        <ele>228</ele>
        <time>2019-01-08T03:22:39Z</time>
      </trkpt>
      <trkpt lat="50.53194" lon="5.70662">
        <ele>227</ele>
        <time>2019-01-08T03:23:39Z</time>
      </trkpt>
      <trkpt lat="50.53186" lon="5.70697">
        <ele>228</ele>
        <time>2019-01-08T03:24:39Z</time>
      </trkpt>
      <trkpt lat="50.53187" lon="5.7073">
        <ele>230</ele>
        <time>2019-01-08T03:25:39Z</time>
      </trkpt>
      <trkpt lat="50.53193" lon="5.70767">
        <ele>231</ele>
        <time>2019-01-08T03:26:39Z</time>
      </trkpt>
      <trkpt lat="50.53203" lon="5.7083">
        <ele>234</ele>
        <time>2019-01-08T03:27:39Z</time>
      </trkpt>
      <trkpt lat="50.53209" lon="5.70881">
        <ele>235</ele>
        <time>2019-01-08T03:28:39Z</time>
      </trkpt>
      <trkpt lat="50.53205" lon="5.70915">
        <ele>237</ele>
        <time>2019-01-08T03:29:39Z</time>
      </trkpt>
      <trkpt lat="50.53193" lon="5.70946">
        <ele>239</ele>
        <time>2019-01-08T03:30:39Z</time>
      </trkpt>
      <trkpt lat="50.53185" lon="5.70963">
        <ele>240</ele>
        <time>2019-01-08T03:31:39Z</time>
      </trkpt>
      <trkpt lat="50.53176" lon="5.70978">
        <ele>241</ele>
        <time>2019-01-08T03:32:39Z</time>
      </trkpt>
      <trkpt lat="50.53165" lon="5.70992">
        <ele>242</ele>
        <time>2019-01-08T03:33:39Z</time>
      </trkpt>
      <trkpt lat="50.53153" lon="5.71005">
        <ele>242</ele>
        <time>2019-01-08T03:34:39Z</time>
      </trkpt>
      <trkpt lat="50.53141" lon="5.71016">
        <ele>242</ele>
        <time>2019-01-08T03:35:39Z</time>
      </trkpt>
      <trkpt lat="50.53113" lon="5.7103">
        <ele>243</ele>
        <time>2019-01-08T03:36:39Z</time>
      </trkpt>
      <trkpt lat="50.53079" lon="5.71058">
        <ele>243</ele>
        <time>2019-01-08T03:37:39Z</time>
      </trkpt>
      <trkpt lat="50.53061" lon="5.71075">
        <ele>243</ele>
        <time>2019-01-08T03:38:39Z</time>
      </trkpt>
      <trkpt lat="50.53046" lon="5.71102">
        <ele>242</ele>
        <time>2019-01-08T03:39:39Z</time>
      </trkpt>
      <trkpt lat="50.5304" lon="5.71137">
        <ele>243</ele>
        <time>2019-01-08T03:40:39Z</time>
      </trkpt>
      <trkpt lat="50.53037" lon="5.71175">
        <ele>243</ele>
        <time>2019-01-08T03:41:39Z</time>
      </trkpt>
      <trkpt lat="50.53033" lon="5.71325">
        <ele>246</ele>
        <time>2019-01-08T03:42:39Z</time>
      </trkpt>
      <trkpt lat="50.53035" lon="5.71343">
        <ele>246</ele>
        <time>2019-01-08T03:43:39Z</time>
      </trkpt>
      <trkpt lat="50.53045" lon="5.71407">
        <ele>249</ele>
        <time>2019-01-08T03:44:39Z</time>
      </trkpt>
      <trkpt lat="50.53042" lon="5.71447">
        <ele>250</ele>
        <time>2019-01-08T03:45:39Z</time>
      </trkpt>
      <trkpt lat="50.53016" lon="5.71647">
        <ele>255</ele>
        <time>2019-01-08T03:46:39Z</time>
      </trkpt>
      <trkpt lat="50.53004" lon="5.71737">
        <ele>259</ele>
        <time>2019-01-08T03:47:39Z</time>
      </trkpt>
      <trkpt lat="50.52977" lon="5.7183">
        <ele>261</ele>
        <time>2019-01-08T03:48:39Z</time>
      </trkpt>
      <trkpt lat="50.52949" lon="5.71933">
        <ele>265</ele>
        <time>2019-01-08T03:49:39Z</time>
      </trkpt>
      <trkpt lat="50.52937" lon="5.71937">
        <ele>265</ele>
        <time>2019-01-08T03:50:39Z</time>
      </trkpt>
      <trkpt lat="50.52929" lon="5.71953">
        <ele>265</ele>
        <time>2019-01-08T03:51:39Z</time>
      </trkpt>
      <trkpt lat="50.52911" lon="5.71964">
        <ele>264</ele>
        <time>2019-01-08T03:52:39Z</time>
      </trkpt>
      <trkpt lat="50.52722" lon="5.72119">
        <ele>266</ele>
        <time>2019-01-08T03:53:39Z</time>
      </trkpt>
      <trkpt lat="50.52475" lon="5.72328">
        <ele>267</ele>
        <time>2019-01-08T03:54:39Z</time>
      </trkpt>
      <trkpt lat="50.52279" lon="5.72494">
        <ele>267</ele>
        <time>2019-01-08T03:55:39Z</time>
      </trkpt>
      <trkpt lat="50.52006" lon="5.72723">
        <ele>256</ele>
        <time>2019-01-08T03:56:39Z</time>
      </trkpt>
      <trkpt lat="50.51935" lon="5.72786">
        <ele>254</ele>
        <time>2019-01-08T03:57:39Z</time>
      </trkpt>
      <trkpt lat="50.51869" lon="5.72835">
        <ele>255</ele>
        <time>2019-01-08T03:58:39Z</time>
      </trkpt>
      <trkpt lat="50.51812" lon="5.72867">
        <ele>256</ele>
        <time>2019-01-08T03:59:39Z</time>
      </trkpt>
      <trkpt lat="50.51743" lon="5.72885">
        <ele>256</ele>
        <time>2019-01-08T04:00:39Z</time>
      </trkpt>
      <trkpt lat="50.51693" lon="5.72889">
        <ele>254</ele>
        <time>2019-01-08T04:01:39Z</time>
      </trkpt>
      <trkpt lat="50.51301" lon="5.72851">
        <ele>240</ele>
        <time>2019-01-08T04:02:39Z</time>
      </trkpt>
      <trkpt lat="50.50998" lon="5.72823">
        <ele>226</ele>
        <time>2019-01-08T04:03:39Z</time>
      </trkpt>
      <trkpt lat="50.50771" lon="5.72804">
        <ele>218</ele>
        <time>2019-01-08T04:04:39Z</time>
      </trkpt>
      <trkpt lat="50.50512" lon="5.72778">
        <ele>210</ele>
        <time>2019-01-08T04:05:39Z</time>
      </trkpt>
      <trkpt lat="50.50452" lon="5.72771">
        <ele>209</ele>
        <time>2019-01-08T04:06:39Z</time>
      </trkpt>
      <trkpt lat="50.50431" lon="5.72761">
        <ele>209</ele>
        <time>2019-01-08T04:07:39Z</time>
      </trkpt>
      <trkpt lat="50.50415" lon="5.7275">
        <ele>208</ele>
        <time>2019-01-08T04:08:39Z</time>
      </trkpt>
      <trkpt lat="50.50407" lon="5.72742">
        <ele>208</ele>
        <time>2019-01-08T04:09:39Z</time>
      </trkpt>
      <trkpt lat="50.50347" lon="5.72667">
        <ele>210</ele>
        <time>2019-01-08T04:10:39Z</time>
      </trkpt>
      <trkpt lat="50.50321" lon="5.72638">
        <ele>211</ele>
        <time>2019-01-08T04:11:39Z</time>
      </trkpt>
      <trkpt lat="50.50299" lon="5.72623">
        <ele>211</ele>
        <time>2019-01-08T04:12:39Z</time>
      </trkpt>
      <trkpt lat="50.50283" lon="5.72612">
        <ele>211</ele>
        <time>2019-01-08T04:13:39Z</time>
      </trkpt>
      <trkpt lat="50.50266" lon="5.72604">
        <ele>210</ele>
        <time>2019-01-08T04:14:39Z</time>
      </trkpt>
      <trkpt lat="50.50248" lon="5.72601">
        <ele>210</ele>
        <time>2019-01-08T04:15:39Z</time>
      </trkpt>
      <trkpt lat="50.50231" lon="5.72604">
        <ele>210</ele>
        <time>2019-01-08T04:16:39Z</time>
      </trkpt>
      <trkpt lat="50.50181" lon="5.72625">
        <ele>208</ele>
        <time>2019-01-08T04:17:39Z</time>
      </trkpt>
      <trkpt lat="50.50138" lon="5.72649">
        <ele>209</ele>
        <time>2019-01-08T04:18:39Z</time>
      </trkpt>
      <trkpt lat="50.50123" lon="5.72652">
        <ele>210</ele>
        <time>2019-01-08T04:19:39Z</time>
      </trkpt>
      <trkpt lat="50.50102" lon="5.72643">
        <ele>210</ele>
        <time>2019-01-08T04:20:39Z</time>
      </trkpt>
      <trkpt lat="50.50088" lon="5.72631">
        <ele>210</ele>
        <time>2019-01-08T04:21:39Z</time>
      </trkpt>
      <trkpt lat="50.5006" lon="5.726">
        <ele>207</ele>
        <time>2019-01-08T04:22:39Z</time>
      </trkpt>
      <trkpt lat="50.50041" lon="5.72578">
        <ele>207</ele>
        <time>2019-01-08T04:23:39Z</time>
      </trkpt>
      <trkpt lat="50.4999" lon="5.72516">
        <ele>208</ele>
        <time>2019-01-08T04:24:39Z</time>
      </trkpt>
      <trkpt lat="50.49959" lon="5.72451">
        <ele>209</ele>
        <time>2019-01-08T04:25:39Z</time>
      </trkpt>
      <trkpt lat="50.49903" lon="5.72311">
        <ele>204</ele>
        <time>2019-01-08T04:26:39Z</time>
      </trkpt>
      <trkpt lat="50.49826" lon="5.72122">
        <ele>193</ele>
        <time>2019-01-08T04:27:39Z</time>
      </trkpt>
      <trkpt lat="50.49809" lon="5.72097">
        <ele>192</ele>
        <time>2019-01-08T04:28:39Z</time>
      </trkpt>
      <trkpt lat="50.49798" lon="5.72082">
        <ele>190</ele>
        <time>2019-01-08T04:29:39Z</time>
      </trkpt>
      <trkpt lat="50.49784" lon="5.7207">
        <ele>188</ele>
        <time>2019-01-08T04:30:39Z</time>
      </trkpt>
      <trkpt lat="50.49763" lon="5.72061">
        <ele>185</ele>
        <time>2019-01-08T04:31:39Z</time>
      </trkpt>
      <trkpt lat="50.49748" lon="5.72059">
        <ele>183</ele>
        <time>2019-01-08T04:32:39Z</time>
      </trkpt>
      <trkpt lat="50.49708" lon="5.72057">
        <ele>182</ele>
        <time>2019-01-08T04:33:39Z</time>
      </trkpt>
      <trkpt lat="50.49313" lon="5.72026">
        <ele>177</ele>
        <time>2019-01-08T04:34:39Z</time>
      </trkpt>
      <trkpt lat="50.49163" lon="5.72013">
        <ele>174</ele>
        <time>2019-01-08T04:35:39Z</time>
      </trkpt>
      <trkpt lat="50.49117" lon="5.72006">
        <ele>174</ele>
        <time>2019-01-08T04:36:39Z</time>
      </trkpt>
      <trkpt lat="50.49036" lon="5.71971">
        <ele>174</ele>
        <time>2019-01-08T04:37:39Z</time>
      </trkpt>
      <trkpt lat="50.48928" lon="5.71919">
        <ele>174</ele>
        <time>2019-01-08T04:38:39Z</time>
      </trkpt>
      <trkpt lat="50.489" lon="5.71915">
        <ele>174</ele>
        <time>2019-01-08T04:39:39Z</time>
      </trkpt>
      <trkpt lat="50.48882" lon="5.71911">
        <ele>175</ele>
        <time>2019-01-08T04:40:39Z</time>
      </trkpt>
      <trkpt lat="50.48756" lon="5.71943">
        <ele>176</ele>
        <time>2019-01-08T04:41:39Z</time>
      </trkpt>
      <trkpt lat="50.48601" lon="5.71977">
        <ele>168</ele>
        <time>2019-01-08T04:42:39Z</time>
      </trkpt>
      <trkpt lat="50.48587" lon="5.71976">
        <ele>166</ele>
        <time>2019-01-08T04:43:39Z</time>
      </trkpt>
      <trkpt lat="50.48574" lon="5.7197">
        <ele>168</ele>
        <time>2019-01-08T04:44:39Z</time>
      </trkpt>
      <trkpt lat="50.48556" lon="5.71951">
        <ele>170</ele>
        <time>2019-01-08T04:45:39Z</time>
      </trkpt>
      <trkpt lat="50.48512" lon="5.71901">
        <ele>169</ele>
        <time>2019-01-08T04:46:39Z</time>
      </trkpt>
      <trkpt lat="50.48313" lon="5.71669">
        <ele>169</ele>
        <time>2019-01-08T04:47:39Z</time>
      </trkpt>
      <trkpt lat="50.48287" lon="5.71632">
        <ele>176</ele>
        <time>2019-01-08T04:48:39Z</time>
      </trkpt>
      <trkpt lat="50.48271" lon="5.71596">
        <ele>175</ele>
        <time>2019-01-08T04:49:39Z</time>
      </trkpt>
      <trkpt lat="50.48246" lon="5.71537">
        <ele>169</ele>
        <time>2019-01-08T04:50:39Z</time>
      </trkpt>
      <trkpt lat="50.48237" lon="5.71516">
        <ele>167</ele>
        <time>2019-01-08T04:51:39Z</time>
      </trkpt>
      <trkpt lat="50.48224" lon="5.71495">
        <ele>166</ele>
        <time>2019-01-08T04:52:39Z</time>
      </trkpt>
      <trkpt lat="50.48204" lon="5.71472">
        <ele>168</ele>
        <time>2019-01-08T04:53:39Z</time>
      </trkpt>
      <trkpt lat="50.48176" lon="5.71458">
        <ele>166</ele>
        <time>2019-01-08T04:54:39Z</time>
      </trkpt>
      <trkpt lat="50.48124" lon="5.71434">
        <ele>159</ele>
        <time>2019-01-08T04:55:39Z</time>
      </trkpt>
      <trkpt lat="50.48087" lon="5.71408">
        <ele>149</ele>
        <time>2019-01-08T04:56:39Z</time>
      </trkpt>
      <trkpt lat="50.48056" lon="5.71374">
        <ele>155</ele>
        <time>2019-01-08T04:57:39Z</time>
      </trkpt>
      <trkpt lat="50.48037" lon="5.71347">
        <ele>154</ele>
        <time>2019-01-08T04:58:39Z</time>
      </trkpt>
      <trkpt lat="50.48022" lon="5.71324">
        <ele>151</ele>
        <time>2019-01-08T04:59:39Z</time>
      </trkpt>
      <trkpt lat="50.4801" lon="5.71299">
        <ele>147</ele>
        <time>2019-01-08T05:00:39Z</time>
      </trkpt>
      <trkpt lat="50.47999" lon="5.71267">
        <ele>142</ele>
        <time>2019-01-08T05:01:39Z</time>
      </trkpt>
      <trkpt lat="50.47993" lon="5.71237">
        <ele>139</ele>
        <time>2019-01-08T05:02:39Z</time>
      </trkpt>
      <trkpt lat="50.47972" lon="5.71061">
        <ele>130</ele>
        <time>2019-01-08T05:03:39Z</time>
      </trkpt>
      <trkpt lat="50.47963" lon="5.70952">
        <ele>130</ele>
        <time>2019-01-08T05:04:39Z</time>
      </trkpt>
      <trkpt lat="50.47965" lon="5.70919">
        <ele>130</ele>
        <time>2019-01-08T05:05:39Z</time>
      </trkpt>
      <trkpt lat="50.47988" lon="5.70771">
        <ele>127</ele>
        <time>2019-01-08T05:06:39Z</time>
      </trkpt>
      <trkpt lat="50.47996" lon="5.70718">
        <ele>128</ele>
        <time>2019-01-08T05:07:39Z</time>
      </trkpt>
      <trkpt lat="50.48007" lon="5.70658">
        <ele>129</ele>
        <time>2019-01-08T05:08:39Z</time>
      </trkpt>
      <trkpt lat="50.48012" lon="5.70659">
        <ele>129</ele>
        <time>2019-01-08T05:09:39Z</time>
      </trkpt>
      <trkpt lat="50.48017" lon="5.70657">
        <ele>129</ele>
        <time>2019-01-08T05:10:39Z</time>
      </trkpt>
      <trkpt lat="50.48021" lon="5.70651">
        <ele>129</ele>
        <time>2019-01-08T05:11:39Z</time>
      </trkpt>
      <trkpt lat="50.48023" lon="5.70643">
        <ele>129</ele>
        <time>2019-01-08T05:12:39Z</time>
      </trkpt>
      <trkpt lat="50.48022" lon="5.70634">
        <ele>129</ele>
        <time>2019-01-08T05:13:39Z</time>
      </trkpt>
      <trkpt lat="50.48019" lon="5.70626">
        <ele>129</ele>
        <time>2019-01-08T05:14:39Z</time>
      </trkpt>
      <trkpt lat="50.48011" lon="5.7062">
        <ele>130</ele>
        <time>2019-01-08T05:15:39Z</time>
      </trkpt>
      <trkpt lat="50.48008" lon="5.70599">
        <ele>130</ele>
        <time>2019-01-08T05:16:39Z</time>
      </trkpt>
      <trkpt lat="50.48002" lon="5.70485">
        <ele>131</ele>
        <time>2019-01-08T05:17:39Z</time>
      </trkpt>
      <trkpt lat="50.47983" lon="5.70277">
        <ele>135</ele>
        <time>2019-01-08T05:18:39Z</time>
      </trkpt>
      <trkpt lat="50.47968" lon="5.70099">
        <ele>137</ele>
        <time>2019-01-08T05:19:39Z</time>
      </trkpt>
      <trkpt lat="50.47937" lon="5.69943">
        <ele>134</ele>
        <time>2019-01-08T05:20:39Z</time>
      </trkpt>
      <trkpt lat="50.47898" lon="5.69772">
        <ele>130</ele>
        <time>2019-01-08T05:21:39Z</time>
      </trkpt>
      <trkpt lat="50.47867" lon="5.69641">
        <ele>128</ele>
        <time>2019-01-08T05:22:39Z</time>
      </trkpt>
      <trkpt lat="50.47856" lon="5.69611">
        <ele>128</ele>
        <time>2019-01-08T05:23:39Z</time>
      </trkpt>
      <trkpt lat="50.47794" lon="5.69465">
        <ele>129</ele>
        <time>2019-01-08T05:24:39Z</time>
      </trkpt>
      <trkpt lat="50.47723" lon="5.693">
        <ele>130</ele>
        <time>2019-01-08T05:25:39Z</time>
      </trkpt>
      <trkpt lat="50.47595" lon="5.6901">
        <ele>132</ele>
        <time>2019-01-08T05:26:39Z</time>
      </trkpt>
      <trkpt lat="50.47578" lon="5.68972">
        <ele>135</ele>
        <time>2019-01-08T05:27:39Z</time>
      </trkpt>
      <trkpt lat="50.4756" lon="5.6893">
        <ele>142</ele>
        <time>2019-01-08T05:28:39Z</time>
      </trkpt>
      <trkpt lat="50.47546" lon="5.68894">
        <ele>145</ele>
        <time>2019-01-08T05:29:39Z</time>
      </trkpt>
      <trkpt lat="50.47538" lon="5.68865">
        <ele>146</ele>
        <time>2019-01-08T05:30:39Z</time>
      </trkpt>
      <trkpt lat="50.47532" lon="5.68836">
        <ele>146</ele>
        <time>2019-01-08T05:31:39Z</time>
      </trkpt>
      <trkpt lat="50.4748" lon="5.68475">
        <ele>139</ele>
        <time>2019-01-08T05:32:39Z</time>
      </trkpt>
      <trkpt lat="50.47452" lon="5.68279">
        <ele>148</ele>
        <time>2019-01-08T05:33:39Z</time>
      </trkpt>
      <trkpt lat="50.47426" lon="5.68111">
        <ele>141</ele>
        <time>2019-01-08T05:34:39Z</time>
      </trkpt>
      <trkpt lat="50.47401" lon="5.67937">
        <ele>135</ele>
        <time>2019-01-08T05:35:39Z</time>
      </trkpt>
      <trkpt lat="50.47376" lon="5.67767">
        <ele>132</ele>
        <time>2019-01-08T05:36:39Z</time>
      </trkpt>
      <trkpt lat="50.47366" lon="5.67703">
        <ele>130</ele>
        <time>2019-01-08T05:37:39Z</time>
      </trkpt>
      <trkpt lat="50.47358" lon="5.67632">
        <ele>128</ele>
        <time>2019-01-08T05:38:39Z</time>
      </trkpt>
      <trkpt lat="50.47356" lon="5.67584">
        <ele>127</ele>
        <time>2019-01-08T05:39:39Z</time>
      </trkpt>
      <trkpt lat="50.47327" lon="5.67584">
        <ele>128</ele>
        <time>2019-01-08T05:40:39Z</time>
      </trkpt>
      <trkpt lat="50.47243" lon="5.67585">
        <ele>135</ele>
        <time>2019-01-08T05:41:39Z</time>
      </trkpt>
      <trkpt lat="50.4723" lon="5.67586">
        <ele>135</ele>
        <time>2019-01-08T05:42:39Z</time>
      </trkpt>
      <trkpt lat="50.47195" lon="5.67594">
        <ele>137</ele>
        <time>2019-01-08T05:43:39Z</time>
      </trkpt>
      <trkpt lat="50.47165" lon="5.67606">
        <ele>138</ele>
        <time>2019-01-08T05:44:39Z</time>
      </trkpt>
      <trkpt lat="50.47132" lon="5.67626">
        <ele>138</ele>
        <time>2019-01-08T05:45:39Z</time>
      </trkpt>
      <trkpt lat="50.47115" lon="5.67647">
        <ele>136</ele>
        <time>2019-01-08T05:46:39Z</time>
      </trkpt>
      <trkpt lat="50.47108" lon="5.67664">
        <ele>135</ele>
        <time>2019-01-08T05:47:39Z</time>
      </trkpt>
      <trkpt lat="50.47065" lon="5.67779">
        <ele>139</ele>
        <time>2019-01-08T05:48:39Z</time>
      </trkpt>
      <trkpt lat="50.47054" lon="5.67807">
        <ele>140</ele>
        <time>2019-01-08T05:49:39Z</time>
      </trkpt>
      <trkpt lat="50.47045" lon="5.67827">
        <ele>141</ele>
        <time>2019-01-08T05:50:39Z</time>
      </trkpt>
      <trkpt lat="50.47033" lon="5.67844">
        <ele>140</ele>
        <time>2019-01-08T05:51:39Z</time>
      </trkpt>
      <trkpt lat="50.47022" lon="5.67853">
        <ele>140</ele>
        <time>2019-01-08T05:52:39Z</time>
      </trkpt>
      <trkpt lat="50.47011" lon="5.67858">
        <ele>139</ele>
        <time>2019-01-08T05:53:39Z</time>
      </trkpt>
      <trkpt lat="50.47" lon="5.6786">
        <ele>139</ele>
        <time>2019-01-08T05:54:39Z</time>
      </trkpt>
      <trkpt lat="50.46979" lon="5.67859">
        <ele>140</ele>
        <time>2019-01-08T05:55:39Z</time>
      </trkpt>
      <trkpt lat="50.46891" lon="5.67855">
        <ele>144</ele>
        <time>2019-01-08T05:56:39Z</time>
      </trkpt>
      <trkpt lat="50.46827" lon="5.67856">
        <ele>147</ele>
        <time>2019-01-08T05:57:39Z</time>
      </trkpt>
      <trkpt lat="50.46807" lon="5.67858">
        <ele>149</ele>
        <time>2019-01-08T05:58:39Z</time>
      </trkpt>
      <trkpt lat="50.46767" lon="5.67867">
        <ele>152</ele>
        <time>2019-01-08T05:59:39Z</time>
      </trkpt>
      <trkpt lat="50.4671" lon="5.6787">
        <ele>153</ele>
        <time>2019-01-08T06:00:39Z</time>
      </trkpt>
      <trkpt lat="50.46692" lon="5.67868">
        <ele>154</ele>
        <time>2019-01-08T06:01:39Z</time>
      </trkpt>
      <trkpt lat="50.46675" lon="5.67864">
        <ele>154</ele>
        <time>2019-01-08T06:02:39Z</time>
      </trkpt>
      <trkpt lat="50.46636" lon="5.67851">
        <ele>155</ele>
        <time>2019-01-08T06:03:39Z</time>
      </trkpt>
      <trkpt lat="50.46577" lon="5.67825">
        <ele>155</ele>
        <time>2019-01-08T06:04:39Z</time>
      </trkpt>
      <trkpt lat="50.46512" lon="5.67802">
        <ele>158</ele>
        <time>2019-01-08T06:05:39Z</time>
      </trkpt>
      <trkpt lat="50.46474" lon="5.67777">
        <ele>159</ele>
        <time>2019-01-08T06:06:39Z</time>
      </trkpt>
      <trkpt lat="50.46449" lon="5.67761">
        <ele>157</ele>
        <time>2019-01-08T06:07:39Z</time>
      </trkpt>
      <trkpt lat="50.46434" lon="5.67751">
        <ele>156</ele>
        <time>2019-01-08T06:08:39Z</time>
      </trkpt>
      <trkpt lat="50.46416" lon="5.67734">
        <ele>155</ele>
        <time>2019-01-08T06:09:39Z</time>
      </trkpt>
      <trkpt lat="50.46333" lon="5.67644">
        <ele>157</ele>
        <time>2019-01-08T06:10:39Z</time>
      </trkpt>
      <trkpt lat="50.46296" lon="5.67604">
        <ele>160</ele>
        <time>2019-01-08T06:11:39Z</time>
      </trkpt>
      <trkpt lat="50.46246" lon="5.67543">
        <ele>159</ele>
        <time>2019-01-08T06:12:39Z</time>
      </trkpt>
      <trkpt lat="50.46145" lon="5.67418">
        <ele>163</ele>
        <time>2019-01-08T06:13:39Z</time>
      </trkpt>
      <trkpt lat="50.46111" lon="5.67394">
        <ele>168</ele>
        <time>2019-01-08T06:14:39Z</time>
      </trkpt>
      <trkpt lat="50.46055" lon="5.67395">
        <ele>170</ele>
        <time>2019-01-08T06:15:39Z</time>
      </trkpt>
      <trkpt lat="50.46028" lon="5.6741">
        <ele>170</ele>
        <time>2019-01-08T06:16:39Z</time>
      </trkpt>
      <trkpt lat="50.45991" lon="5.67433">
        <ele>172</ele>
        <time>2019-01-08T06:17:39Z</time>
      </trkpt>
      <trkpt lat="50.45941" lon="5.67427">
        <ele>178</ele>
        <time>2019-01-08T06:18:39Z</time>
      </trkpt>
      <trkpt lat="50.45871" lon="5.67419">
        <ele>180</ele>
        <time>2019-01-08T06:19:39Z</time>
      </trkpt>
      <trkpt lat="50.45774" lon="5.67362">
        <ele>179</ele>
        <time>2019-01-08T06:20:39Z</time>
      </trkpt>
      <trkpt lat="50.4572" lon="5.67332">
        <ele>178</ele>
        <time>2019-01-08T06:21:39Z</time>
      </trkpt>
      <trkpt lat="50.45669" lon="5.67314">
        <ele>181</ele>
        <time>2019-01-08T06:22:39Z</time>
      </trkpt>
      <trkpt lat="50.45627" lon="5.67308">
        <ele>181</ele>
        <time>2019-01-08T06:23:39Z</time>
      </trkpt>
      <trkpt lat="50.45502" lon="5.67295">
        <ele>184</ele>
        <time>2019-01-08T06:24:39Z</time>
      </trkpt>
      <trkpt lat="50.4547" lon="5.67286">
        <ele>187</ele>
        <time>2019-01-08T06:25:39Z</time>
      </trkpt>
      <trkpt lat="50.45448" lon="5.67253">
        <ele>188</ele>
        <time>2019-01-08T06:26:39Z</time>
      </trkpt>
      <trkpt lat="50.4544" lon="5.67195">
        <ele>192</ele>
        <time>2019-01-08T06:27:39Z</time>
      </trkpt>
      <trkpt lat="50.45431" lon="5.67131">
        <ele>194</ele>
        <time>2019-01-08T06:28:39Z</time>
      </trkpt>
      <trkpt lat="50.45421" lon="5.67048">
        <ele>195</ele>
        <time>2019-01-08T06:29:39Z</time>
      </trkpt>
      <trkpt lat="50.45412" lon="5.66959">
        <ele>195</ele>
        <time>2019-01-08T06:30:39Z</time>
      </trkpt>
      <trkpt lat="50.45408" lon="5.6691">
        <ele>196</ele>
        <time>2019-01-08T06:31:39Z</time>
      </trkpt>
      <trkpt lat="50.45376" lon="5.66839">
        <ele>197</ele>
        <time>2019-01-08T06:32:39Z</time>
      </trkpt>
      <trkpt lat="50.4536" lon="5.66823">
        <ele>196</ele>
        <time>2019-01-08T06:33:39Z</time>
      </trkpt>
      <trkpt lat="50.45342" lon="5.66807">
        <ele>194</ele>
        <time>2019-01-08T06:34:39Z</time>
      </trkpt>
      <trkpt lat="50.45321" lon="5.668">
        <ele>194</ele>
        <time>2019-01-08T06:35:39Z</time>
      </trkpt>
      <trkpt lat="50.45299" lon="5.66796">
        <ele>195</ele>
        <time>2019-01-08T06:36:39Z</time>
      </trkpt>
      <trkpt lat="50.45281" lon="5.66795">
        <ele>196</ele>
        <time>2019-01-08T06:37:39Z</time>
      </trkpt>
      <trkpt lat="50.45268" lon="5.66799">
        <ele>197</ele>
        <time>2019-01-08T06:38:39Z</time>
      </trkpt>
      <trkpt lat="50.45144" lon="5.66827">
        <ele>205</ele>
        <time>2019-01-08T06:39:39Z</time>
      </trkpt>
      <trkpt lat="50.45055" lon="5.66848">
        <ele>205</ele>
        <time>2019-01-08T06:40:39Z</time>
      </trkpt>
      <trkpt lat="50.45028" lon="5.66851">
        <ele>204</ele>
        <time>2019-01-08T06:41:39Z</time>
      </trkpt>
      <trkpt lat="50.44987" lon="5.66838">
        <ele>202</ele>
        <time>2019-01-08T06:42:39Z</time>
      </trkpt>
      <trkpt lat="50.44944" lon="5.66801">
        <ele>204</ele>
        <time>2019-01-08T06:43:39Z</time>
      </trkpt>
      <trkpt lat="50.44883" lon="5.66749">
        <ele>206</ele>
        <time>2019-01-08T06:44:39Z</time>
      </trkpt>
      <trkpt lat="50.4483" lon="5.6671">
        <ele>210</ele>
        <time>2019-01-08T06:45:39Z</time>
      </trkpt>
      <trkpt lat="50.44775" lon="5.66687">
        <ele>212</ele>
        <time>2019-01-08T06:46:39Z</time>
      </trkpt>
      <trkpt lat="50.44693" lon="5.66673">
        <ele>212</ele>
        <time>2019-01-08T06:47:39Z</time>
      </trkpt>
      <trkpt lat="50.44634" lon="5.66667">
        <ele>210</ele>
        <time>2019-01-08T06:48:39Z</time>
      </trkpt>
      <trkpt lat="50.44464" lon="5.66668">
        <ele>211</ele>
        <time>2019-01-08T06:49:39Z</time>
      </trkpt>
      <trkpt lat="50.44399" lon="5.66669">
        <ele>211</ele>
        <time>2019-01-08T06:50:39Z</time>
      </trkpt>
      <trkpt lat="50.44371" lon="5.66668">
        <ele>212</ele>
        <time>2019-01-08T06:51:39Z</time>
      </trkpt>
      <trkpt lat="50.4436" lon="5.66667">
        <ele>212</ele>
        <time>2019-01-08T06:52:39Z</time>
      </trkpt>
      <trkpt lat="50.44327" lon="5.66645">
        <ele>214</ele>
        <time>2019-01-08T06:53:39Z</time>
      </trkpt>
      <trkpt lat="50.44294" lon="5.66617">
        <ele>218</ele>
        <time>2019-01-08T06:54:39Z</time>
      </trkpt>
      <trkpt lat="50.44284" lon="5.66603">
        <ele>219</ele>
        <time>2019-01-08T06:55:39Z</time>
      </trkpt>
      <trkpt lat="50.44208" lon="5.66505">
        <ele>226</ele>
        <time>2019-01-08T06:56:39Z</time>
      </trkpt>
      <trkpt lat="50.44191" lon="5.66492">
        <ele>228</ele>
        <time>2019-01-08T06:57:39Z</time>
      </trkpt>
      <trkpt lat="50.44173" lon="5.66483">
        <ele>229</ele>
        <time>2019-01-08T06:58:39Z</time>
      </trkpt>
      <trkpt lat="50.44155" lon="5.66485">
        <ele>230</ele>
        <time>2019-01-08T06:59:39Z</time>
      </trkpt>
      <trkpt lat="50.4414" lon="5.66491">
        <ele>229</ele>
        <time>2019-01-08T07:00:39Z</time>
      </trkpt>
      <trkpt lat="50.44129" lon="5.66502">
        <ele>229</ele>
        <time>2019-01-08T07:01:39Z</time>
      </trkpt>
      <trkpt lat="50.4412" lon="5.66516">
        <ele>229</ele>
        <time>2019-01-08T07:02:39Z</time>
      </trkpt>
      <trkpt lat="50.4411" lon="5.66542">
        <ele>229</ele>
        <time>2019-01-08T07:03:39Z</time>
      </trkpt>
      <trkpt lat="50.44101" lon="5.66582">
        <ele>229</ele>
        <time>2019-01-08T07:04:39Z</time>
      </trkpt>
      <trkpt lat="50.44095" lon="5.66629">
        <ele>231</ele>
        <time>2019-01-08T07:05:39Z</time>
      </trkpt>
      <trkpt lat="50.44089" lon="5.66669">
        <ele>232</ele>
        <time>2019-01-08T07:06:39Z</time>
      </trkpt>
      <trkpt lat="50.44085" lon="5.66678">
        <ele>232</ele>
        <time>2019-01-08T07:07:39Z</time>
      </trkpt>
      <trkpt lat="50.44078" lon="5.6669">
        <ele>232</ele>
        <time>2019-01-08T07:08:39Z</time>
      </trkpt>
      <trkpt lat="50.44062" lon="5.66707">
        <ele>233</ele>
        <time>2019-01-08T07:09:39Z</time>
      </trkpt>
      <trkpt lat="50.44047" lon="5.66718">
        <ele>234</ele>
        <time>2019-01-08T07:10:39Z</time>
      </trkpt>
      <trkpt lat="50.43962" lon="5.66736">
        <ele>240</ele>
        <time>2019-01-08T07:11:39Z</time>
      </trkpt>
      <trkpt lat="50.43884" lon="5.66752">
        <ele>241</ele>
        <time>2019-01-08T07:12:39Z</time>
      </trkpt>
      <trkpt lat="50.4383" lon="5.66762">
        <ele>241</ele>
        <time>2019-01-08T07:13:39Z</time>
      </trkpt>
      <trkpt lat="50.4382" lon="5.66762">
        <ele>242</ele>
        <time>2019-01-08T07:14:39Z</time>
      </trkpt>
      <trkpt lat="50.43809" lon="5.6676">
        <ele>243</ele>
        <time>2019-01-08T07:15:39Z</time>
      </trkpt>
      <trkpt lat="50.43799" lon="5.66756">
        <ele>243</ele>
        <time>2019-01-08T07:16:39Z</time>
      </trkpt>
      <trkpt lat="50.43788" lon="5.66751">
        <ele>244</ele>
        <time>2019-01-08T07:17:39Z</time>
      </trkpt>
      <trkpt lat="50.43778" lon="5.66742">
        <ele>245</ele>
        <time>2019-01-08T07:18:39Z</time>
      </trkpt>
      <trkpt lat="50.43703" lon="5.66682">
        <ele>249</ele>
        <time>2019-01-08T07:19:39Z</time>
      </trkpt>
      <trkpt lat="50.43566" lon="5.66571">
        <ele>257</ele>
        <time>2019-01-08T07:20:39Z</time>
      </trkpt>
      <trkpt lat="50.43531" lon="5.66545">
        <ele>260</ele>
        <time>2019-01-08T07:21:39Z</time>
      </trkpt>
      <trkpt lat="50.43506" lon="5.66537">
        <ele>262</ele>
        <time>2019-01-08T07:22:39Z</time>
      </trkpt>
      <trkpt lat="50.43428" lon="5.66517">
        <ele>264</ele>
        <time>2019-01-08T07:23:39Z</time>
      </trkpt>
      <trkpt lat="50.43391" lon="5.6651">
        <ele>265</ele>
        <time>2019-01-08T07:24:39Z</time>
      </trkpt>
      <trkpt lat="50.43348" lon="5.66508">
        <ele>266</ele>
        <time>2019-01-08T07:25:39Z</time>
      </trkpt>
      <trkpt lat="50.43328" lon="5.66514">
        <ele>267</ele>
        <time>2019-01-08T07:26:39Z</time>
      </trkpt>
      <trkpt lat="50.43314" lon="5.66523">
        <ele>268</ele>
        <time>2019-01-08T07:27:39Z</time>
      </trkpt>
      <trkpt lat="50.43302" lon="5.6653">
        <ele>269</ele>
        <time>2019-01-08T07:28:39Z</time>
      </trkpt>
      <trkpt lat="50.43285" lon="5.66551">
        <ele>270</ele>
        <time>2019-01-08T07:29:39Z</time>
      </trkpt>
      <trkpt lat="50.43267" lon="5.66588">
        <ele>271</ele>
        <time>2019-01-08T07:30:39Z</time>
      </trkpt>
      <trkpt lat="50.43259" lon="5.66622">
        <ele>272</ele>
        <time>2019-01-08T07:31:39Z</time>
      </trkpt>
      <trkpt lat="50.4322" lon="5.66795">
        <ele>281</ele>
        <time>2019-01-08T07:32:39Z</time>
      </trkpt>
      <trkpt lat="50.43168" lon="5.67025">
        <ele>284</ele>
        <time>2019-01-08T07:33:39Z</time>
      </trkpt>
      <trkpt lat="50.4316" lon="5.67081">
        <ele>285</ele>
        <time>2019-01-08T07:34:39Z</time>
      </trkpt>
      <trkpt lat="50.43151" lon="5.67187">
        <ele>288</ele>
        <time>2019-01-08T07:35:39Z</time>
      </trkpt>
      <trkpt lat="50.43144" lon="5.6722">
        <ele>289</ele>
        <time>2019-01-08T07:36:39Z</time>
      </trkpt>
      <trkpt lat="50.43132" lon="5.67248">
        <ele>291</ele>
        <time>2019-01-08T07:37:39Z</time>
      </trkpt>
      <trkpt lat="50.4312" lon="5.67268">
        <ele>293</ele>
        <time>2019-01-08T07:38:39Z</time>
      </trkpt>
      <trkpt lat="50.43108" lon="5.67287">
        <ele>294</ele>
        <time>2019-01-08T07:39:39Z</time>
      </trkpt>
      <trkpt lat="50.43095" lon="5.67306">
        <ele>296</ele>
        <time>2019-01-08T07:40:39Z</time>
      </trkpt>
      <trkpt lat="50.43083" lon="5.67326">
        <ele>296</ele>
        <time>2019-01-08T07:41:39Z</time>
      </trkpt>
      <trkpt lat="50.43074" lon="5.67348">
        <ele>297</ele>
        <time>2019-01-08T07:42:39Z</time>
      </trkpt>
      <trkpt lat="50.43068" lon="5.67373">
        <ele>297</ele>
        <time>2019-01-08T07:43:39Z</time>
      </trkpt>
      <trkpt lat="50.43065" lon="5.674">
        <ele>298</ele>
        <time>2019-01-08T07:44:39Z</time>
      </trkpt>
      <trkpt lat="50.43065" lon="5.67417">
        <ele>297</ele>
        <time>2019-01-08T07:45:39Z</time>
      </trkpt>
      <trkpt lat="50.43072" lon="5.67576">
        <ele>301</ele>
        <time>2019-01-08T07:46:39Z</time>
      </trkpt>
      <trkpt lat="50.43067" lon="5.67619">
        <ele>304</ele>
        <time>2019-01-08T07:47:39Z</time>
      </trkpt>
      <trkpt lat="50.43059" lon="5.67655">
        <ele>306</ele>
        <time>2019-01-08T07:48:39Z</time>
      </trkpt>
      <trkpt lat="50.43049" lon="5.6768">
        <ele>308</ele>
        <time>2019-01-08T07:49:39Z</time>
      </trkpt>
      <trkpt lat="50.43039" lon="5.67699">
        <ele>309</ele>
        <time>2019-01-08T07:50:39Z</time>
      </trkpt>
      <trkpt lat="50.43023" lon="5.67721">
        <ele>311</ele>
        <time>2019-01-08T07:51:39Z</time>
      </trkpt>
      <trkpt lat="50.42988" lon="5.67761">
        <ele>315</ele>
        <time>2019-01-08T07:52:39Z</time>
      </trkpt>
      <trkpt lat="50.42968" lon="5.67777">
        <ele>316</ele>
        <time>2019-01-08T07:53:39Z</time>
      </trkpt>
      <trkpt lat="50.42911" lon="5.67812">
        <ele>321</ele>
        <time>2019-01-08T07:54:39Z</time>
      </trkpt>
      <trkpt lat="50.42813" lon="5.67824">
        <ele>321</ele>
        <time>2019-01-08T07:55:39Z</time>
      </trkpt>
      <trkpt lat="50.42801" lon="5.67829">
        <ele>321</ele>
        <time>2019-01-08T07:56:39Z</time>
      </trkpt>
      <trkpt lat="50.42778" lon="5.67846">
        <ele>320</ele>
        <time>2019-01-08T07:57:39Z</time>
      </trkpt>
      <trkpt lat="50.42764" lon="5.6786">
        <ele>320</ele>
        <time>2019-01-08T07:58:39Z</time>
      </trkpt>
      <trkpt lat="50.42752" lon="5.67877">
        <ele>319</ele>
        <time>2019-01-08T07:59:39Z</time>
      </trkpt>
      <trkpt lat="50.42741" lon="5.67898">
        <ele>320</ele>
        <time>2019-01-08T08:00:39Z</time>
      </trkpt>
      <trkpt lat="50.42729" lon="5.67924">
        <ele>320</ele>
        <time>2019-01-08T08:01:39Z</time>
      </trkpt>
      <trkpt lat="50.42702" lon="5.67984">
        <ele>320</ele>
        <time>2019-01-08T08:02:39Z</time>
      </trkpt>
      <trkpt lat="50.42666" lon="5.68062">
        <ele>323</ele>
        <time>2019-01-08T08:03:39Z</time>
      </trkpt>
      <trkpt lat="50.42654" lon="5.68072">
        <ele>325</ele>
        <time>2019-01-08T08:04:39Z</time>
      </trkpt>
      <trkpt lat="50.42641" lon="5.68082">
        <ele>326</ele>
        <time>2019-01-08T08:05:39Z</time>
      </trkpt>
      <trkpt lat="50.42631" lon="5.68087">
        <ele>327</ele>
        <time>2019-01-08T08:06:39Z</time>
      </trkpt>
      <trkpt lat="50.42576" lon="5.68117">
        <ele>332</ele>
        <time>2019-01-08T08:07:39Z</time>
      </trkpt>
      <trkpt lat="50.42489" lon="5.68166">
        <ele>335</ele>
        <time>2019-01-08T08:08:39Z</time>
      </trkpt>
      <trkpt lat="50.42432" lon="5.68204">
        <ele>336</ele>
        <time>2019-01-08T08:09:39Z</time>
      </trkpt>
      <trkpt lat="50.42355" lon="5.68254">
        <ele>331</ele>
        <time>2019-01-08T08:10:39Z</time>
      </trkpt>
      <trkpt lat="50.423" lon="5.6829">
        <ele>327</ele>
        <time>2019-01-08T08:11:39Z</time>
      </trkpt>
      <trkpt lat="50.42282" lon="5.68299">
        <ele>325</ele>
        <time>2019-01-08T08:12:39Z</time>
      </trkpt>
      <trkpt lat="50.42255" lon="5.68302">
        <ele>322</ele>
        <time>2019-01-08T08:13:39Z</time>
      </trkpt>
      <trkpt lat="50.42233" lon="5.68293">
        <ele>321</ele>
        <time>2019-01-08T08:14:39Z</time>
      </trkpt>
      <trkpt lat="50.42223" lon="5.68287">
        <ele>320</ele>
        <time>2019-01-08T08:15:39Z</time>
      </trkpt>
      <trkpt lat="50.42213" lon="5.68274">
        <ele>320</ele>
        <time>2019-01-08T08:16:39Z</time>
      </trkpt>
      <trkpt lat="50.42201" lon="5.68263">
        <ele>319</ele>
        <time>2019-01-08T08:17:39Z</time>
      </trkpt>
      <trkpt lat="50.42189" lon="5.6824">
        <ele>319</ele>
        <time>2019-01-08T08:18:39Z</time>
      </trkpt>
      <trkpt lat="50.42174" lon="5.68199">
        <ele>319</ele>
        <time>2019-01-08T08:19:39Z</time>
      </trkpt>
      <trkpt lat="50.4209" lon="5.67962">
        <ele>323</ele>
        <time>2019-01-08T08:20:39Z</time>
      </trkpt>
      <trkpt lat="50.42023" lon="5.67769">
        <ele>326</ele>
        <time>2019-01-08T08:21:39Z</time>
      </trkpt>
      <trkpt lat="50.42007" lon="5.67723">
        <ele>322</ele>
        <time>2019-01-08T08:22:39Z</time>
      </trkpt>
      <trkpt lat="50.41993" lon="5.6767">
        <ele>316</ele>
        <time>2019-01-08T08:23:39Z</time>
      </trkpt>
      <trkpt lat="50.41986" lon="5.67625">
        <ele>315</ele>
        <time>2019-01-08T08:24:39Z</time>
      </trkpt>
      <trkpt lat="50.41984" lon="5.67586">
        <ele>312</ele>
        <time>2019-01-08T08:25:39Z</time>
      </trkpt>
      <trkpt lat="50.41984" lon="5.67552">
        <ele>312</ele>
        <time>2019-01-08T08:26:39Z</time>
      </trkpt>
      <trkpt lat="50.41986" lon="5.67508">
        <ele>312</ele>
        <time>2019-01-08T08:27:39Z</time>
      </trkpt>
      <trkpt lat="50.41984" lon="5.67482">
        <ele>312</ele>
        <time>2019-01-08T08:28:39Z</time>
      </trkpt>
      <trkpt lat="50.41978" lon="5.67454">
        <ele>311</ele>
        <time>2019-01-08T08:29:39Z</time>
      </trkpt>
      <trkpt lat="50.41968" lon="5.67428">
        <ele>310</ele>
        <time>2019-01-08T08:30:39Z</time>
      </trkpt>
      <trkpt lat="50.41951" lon="5.67398">
        <ele>309</ele>
        <time>2019-01-08T08:31:39Z</time>
      </trkpt>
      <trkpt lat="50.41935" lon="5.67385">
        <ele>310</ele>
        <time>2019-01-08T08:32:39Z</time>
      </trkpt>
      <trkpt lat="50.41915" lon="5.67373">
        <ele>311</ele>
        <time>2019-01-08T08:33:39Z</time>
      </trkpt>
      <trkpt lat="50.41896" lon="5.67368">
        <ele>312</ele>
        <time>2019-01-08T08:34:39Z</time>
      </trkpt>
      <trkpt lat="50.41879" lon="5.67371">
        <ele>313</ele>
        <time>2019-01-08T08:35:39Z</time>
      </trkpt>
      <trkpt lat="50.41748" lon="5.67406">
        <ele>318</ele>
        <time>2019-01-08T08:36:39Z</time>
      </trkpt>
      <trkpt lat="50.41709" lon="5.67414">
        <ele>318</ele>
        <time>2019-01-08T08:37:39Z</time>
      </trkpt>
      <trkpt lat="50.41675" lon="5.67413">
        <ele>320</ele>
        <time>2019-01-08T08:38:39Z</time>
      </trkpt>
      <trkpt lat="50.41625" lon="5.67404">
        <ele>324</ele>
        <time>2019-01-08T08:39:39Z</time>
      </trkpt>
      <trkpt lat="50.41559" lon="5.67391">
        <ele>329</ele>
        <time>2019-01-08T08:40:39Z</time>
      </trkpt>
      <trkpt lat="50.41468" lon="5.67376">
        <ele>335</ele>
        <time>2019-01-08T08:41:39Z</time>
      </trkpt>
      <trkpt lat="50.41366" lon="5.67364">
        <ele>341</ele>
        <time>2019-01-08T08:42:39Z</time>
      </trkpt>
      <trkpt lat="50.41251" lon="5.67352">
        <ele>343</ele>
        <time>2019-01-08T08:43:39Z</time>
      </trkpt>
      <trkpt lat="50.41125" lon="5.67337">
        <ele>342</ele>
        <time>2019-01-08T08:44:39Z</time>
      </trkpt>
      <trkpt lat="50.41087" lon="5.6734">
        <ele>345</ele>
        <time>2019-01-08T08:45:39Z</time>
      </trkpt>
      <trkpt lat="50.41063" lon="5.67345">
        <ele>346</ele>
        <time>2019-01-08T08:46:39Z</time>
      </trkpt>
      <trkpt lat="50.41017" lon="5.67359">
        <ele>349</ele>
        <time>2019-01-08T08:47:39Z</time>
      </trkpt>
      <trkpt lat="50.40977" lon="5.67398">
        <ele>347</ele>
        <time>2019-01-08T08:48:39Z</time>
      </trkpt>
      <trkpt lat="50.40947" lon="5.67435">
        <ele>346</ele>
        <time>2019-01-08T08:49:39Z</time>
      </trkpt>
      <trkpt lat="50.40922" lon="5.6747">
        <ele>345</ele>
        <time>2019-01-08T08:50:39Z</time>
      </trkpt>
      <trkpt lat="50.40886" lon="5.67536">
        <ele>347</ele>
        <time>2019-01-08T08:51:39Z</time>
      </trkpt>
      <trkpt lat="50.40837" lon="5.67634">
        <ele>349</ele>
        <time>2019-01-08T08:52:39Z</time>
      </trkpt>
      <trkpt lat="50.40828" lon="5.67647">
        <ele>350</ele>
        <time>2019-01-08T08:53:39Z</time>
      </trkpt>
      <trkpt lat="50.40814" lon="5.67658">
        <ele>351</ele>
        <time>2019-01-08T08:54:39Z</time>
      </trkpt>
      <trkpt lat="50.40804" lon="5.67661">
        <ele>352</ele>
        <time>2019-01-08T08:55:39Z</time>
      </trkpt>
      <trkpt lat="50.40796" lon="5.67662">
        <ele>353</ele>
        <time>2019-01-08T08:56:39Z</time>
      </trkpt>
      <trkpt lat="50.4078" lon="5.67661">
        <ele>355</ele>
        <time>2019-01-08T08:57:39Z</time>
      </trkpt>
      <trkpt lat="50.40761" lon="5.67648">
        <ele>358</ele>
        <time>2019-01-08T08:58:39Z</time>
      </trkpt>
      <trkpt lat="50.40741" lon="5.67635">
        <ele>361</ele>
        <time>2019-01-08T08:59:39Z</time>
      </trkpt>
      <trkpt lat="50.4063" lon="5.67546">
        <ele>366</ele>
        <time>2019-01-08T09:00:39Z</time>
      </trkpt>
      <trkpt lat="50.40541" lon="5.67471">
        <ele>368</ele>
        <time>2019-01-08T09:01:39Z</time>
      </trkpt>
      <trkpt lat="50.40476" lon="5.67432">
        <ele>367</ele>
        <time>2019-01-08T09:02:39Z</time>
      </trkpt>
      <trkpt lat="50.40447" lon="5.67416">
        <ele>366</ele>
        <time>2019-01-08T09:03:39Z</time>
      </trkpt>
      <trkpt lat="50.40419" lon="5.67405">
        <ele>366</ele>
        <time>2019-01-08T09:04:39Z</time>
      </trkpt>
      <trkpt lat="50.40381" lon="5.67397">
        <ele>366</ele>
        <time>2019-01-08T09:05:39Z</time>
      </trkpt>
      <trkpt lat="50.40352" lon="5.67391">
        <ele>367</ele>
        <time>2019-01-08T09:06:39Z</time>
      </trkpt>
      <trkpt lat="50.40307" lon="5.67393">
        <ele>367</ele>
        <time>2019-01-08T09:07:39Z</time>
      </trkpt>
      <trkpt lat="50.40285" lon="5.67396">
        <ele>367</ele>
        <time>2019-01-08T09:08:39Z</time>
      </trkpt>
      <trkpt lat="50.4024" lon="5.67412">
        <ele>367</ele>
        <time>2019-01-08T09:09:39Z</time>
      </trkpt>
      <trkpt lat="50.40208" lon="5.67425">
        <ele>367</ele>
        <time>2019-01-08T09:10:39Z</time>
      </trkpt>
      <trkpt lat="50.40178" lon="5.67443">
        <ele>368</ele>
        <time>2019-01-08T09:11:39Z</time>
      </trkpt>
      <trkpt lat="50.40113" lon="5.67493">
        <ele>375</ele>
        <time>2019-01-08T09:12:39Z</time>
      </trkpt>
      <trkpt lat="50.40087" lon="5.67524">
        <ele>378</ele>
        <time>2019-01-08T09:13:39Z</time>
      </trkpt>
      <trkpt lat="50.40047" lon="5.67584">
        <ele>384</ele>
        <time>2019-01-08T09:14:39Z</time>
      </trkpt>
      <trkpt lat="50.40018" lon="5.67626">
        <ele>388</ele>
        <time>2019-01-08T09:15:39Z</time>
      </trkpt>
      <trkpt lat="50.3999" lon="5.67661">
        <ele>390</ele>
        <time>2019-01-08T09:16:39Z</time>
      </trkpt>
      <trkpt lat="50.3996" lon="5.67689">
        <ele>390</ele>
        <time>2019-01-08T09:17:39Z</time>
      </trkpt>
      <trkpt lat="50.39919" lon="5.67718">
        <ele>390</ele>
        <time>2019-01-08T09:18:39Z</time>
      </trkpt>
      <trkpt lat="50.39886" lon="5.67741">
        <ele>389</ele>
        <time>2019-01-08T09:19:39Z</time>
      </trkpt>
      <trkpt lat="50.39833" lon="5.67775">
        <ele>389</ele>
        <time>2019-01-08T09:20:39Z</time>
      </trkpt>
      <trkpt lat="50.39811" lon="5.67785">
        <ele>389</ele>
        <time>2019-01-08T09:21:39Z</time>
      </trkpt>
      <trkpt lat="50.39786" lon="5.67793">
        <ele>391</ele>
        <time>2019-01-08T09:22:39Z</time>
      </trkpt>
      <trkpt lat="50.39748" lon="5.67802">
        <ele>393</ele>
        <time>2019-01-08T09:23:39Z</time>
      </trkpt>
      <trkpt lat="50.3971" lon="5.67802">
        <ele>394</ele>
        <time>2019-01-08T09:24:39Z</time>
      </trkpt>
      <trkpt lat="50.39682" lon="5.67801">
        <ele>396</ele>
        <time>2019-01-08T09:25:39Z</time>
      </trkpt>
      <trkpt lat="50.39661" lon="5.678">
        <ele>396</ele>
        <time>2019-01-08T09:26:39Z</time>
      </trkpt>
      <trkpt lat="50.39632" lon="5.67795">
        <ele>396</ele>
        <time>2019-01-08T09:27:39Z</time>
      </trkpt>
      <trkpt lat="50.39569" lon="5.67779">
        <ele>396</ele>
        <time>2019-01-08T09:28:39Z</time>
      </trkpt>
      <trkpt lat="50.39474" lon="5.67756">
        <ele>396</ele>
        <time>2019-01-08T09:29:39Z</time>
      </trkpt>
      <trkpt lat="50.39393" lon="5.67736">
        <ele>398</ele>
        <time>2019-01-08T09:30:39Z</time>
      </trkpt>
      <trkpt lat="50.39369" lon="5.67735">
        <ele>400</ele>
        <time>2019-01-08T09:31:39Z</time>
      </trkpt>
      <trkpt lat="50.39345" lon="5.67741">
        <ele>401</ele>
        <time>2019-01-08T09:32:39Z</time>
      </trkpt>
      <trkpt lat="50.3932" lon="5.6775">
        <ele>402</ele>
        <time>2019-01-08T09:33:39Z</time>
      </trkpt>
      <trkpt lat="50.39296" lon="5.67763">
        <ele>403</ele>
        <time>2019-01-08T09:34:39Z</time>
      </trkpt>
      <trkpt lat="50.39276" lon="5.67781">
        <ele>404</ele>
        <time>2019-01-08T09:35:39Z</time>
      </trkpt>
      <trkpt lat="50.39244" lon="5.67819">
        <ele>405</ele>
        <time>2019-01-08T09:36:39Z</time>
      </trkpt>
      <trkpt lat="50.39193" lon="5.67889">
        <ele>406</ele>
        <time>2019-01-08T09:37:39Z</time>
      </trkpt>
      <trkpt lat="50.39115" lon="5.67996">
        <ele>407</ele>
        <time>2019-01-08T09:38:39Z</time>
      </trkpt>
      <trkpt lat="50.39015" lon="5.68125">
        <ele>413</ele>
        <time>2019-01-08T09:39:39Z</time>
      </trkpt>
      <trkpt lat="50.38929" lon="5.68243">
        <ele>416</ele>
        <time>2019-01-08T09:40:39Z</time>
      </trkpt>
      <trkpt lat="50.38889" lon="5.68295">
        <ele>415</ele>
        <time>2019-01-08T09:41:39Z</time>
      </trkpt>
      <trkpt lat="50.3885" lon="5.68347">
        <ele>414</ele>
        <time>2019-01-08T09:42:39Z</time>
      </trkpt>
      <trkpt lat="50.38814" lon="5.68397">
        <ele>416</ele>
        <time>2019-01-08T09:43:39Z</time>
      </trkpt>
      <trkpt lat="50.38775" lon="5.68443">
        <ele>418</ele>
        <time>2019-01-08T09:44:39Z</time>
      </trkpt>
      <trkpt lat="50.38746" lon="5.68463">
        <ele>419</ele>
        <time>2019-01-08T09:45:39Z</time>
      </trkpt>
      <trkpt lat="50.38717" lon="5.68475">
        <ele>419</ele>
        <time>2019-01-08T09:46:39Z</time>
      </trkpt>
      <trkpt lat="50.38687" lon="5.68476">
        <ele>420</ele>
        <time>2019-01-08T09:47:39Z</time>
      </trkpt>
      <trkpt lat="50.3866" lon="5.6847">
        <ele>420</ele>
        <time>2019-01-08T09:48:39Z</time>
      </trkpt>
      <trkpt lat="50.3864" lon="5.68462">
        <ele>421</ele>
        <time>2019-01-08T09:49:39Z</time>
      </trkpt>
      <trkpt lat="50.38567" lon="5.68423">
        <ele>423</ele>
        <time>2019-01-08T09:50:39Z</time>
      </trkpt>
      <trkpt lat="50.38319" lon="5.68287">
        <ele>433</ele>
        <time>2019-01-08T09:51:39Z</time>
      </trkpt>
      <trkpt lat="50.38271" lon="5.68261">
        <ele>435</ele>
        <time>2019-01-08T09:52:39Z</time>
      </trkpt>
      <trkpt lat="50.38134" lon="5.68188">
        <ele>438</ele>
        <time>2019-01-08T09:53:39Z</time>
      </trkpt>
      <trkpt lat="50.38111" lon="5.68174">
        <ele>437</ele>
        <time>2019-01-08T09:54:39Z</time>
      </trkpt>
      <trkpt lat="50.38096" lon="5.68158">
        <ele>437</ele>
        <time>2019-01-08T09:55:39Z</time>
      </trkpt>
      <trkpt lat="50.38093" lon="5.68148">
        <ele>437</ele>
        <time>2019-01-08T09:56:39Z</time>
      </trkpt>
      <trkpt lat="50.38085" lon="5.68143">
        <ele>437</ele>
        <time>2019-01-08T09:57:39Z</time>
      </trkpt>
      <trkpt lat="50.38078" lon="5.68148">
        <ele>437</ele>
        <time>2019-01-08T09:58:39Z</time>
      </trkpt>
      <trkpt lat="50.38065" lon="5.68145">
        <ele>437</ele>
        <time>2019-01-08T09:59:39Z</time>
      </trkpt>
      <trkpt lat="50.3805" lon="5.68143">
        <ele>437</ele>
        <time>2019-01-08T10:00:39Z</time>
      </trkpt>
      <trkpt lat="50.37917" lon="5.68071">
        <ele>435</ele>
        <time>2019-01-08T10:01:39Z</time>
      </trkpt>
      <trkpt lat="50.37769" lon="5.67992">
        <ele>436</ele>
        <time>2019-01-08T10:02:39Z</time>
      </trkpt>
      <trkpt lat="50.37526" lon="5.6786">
        <ele>438</ele>
        <time>2019-01-08T10:03:39Z</time>
      </trkpt>
      <trkpt lat="50.37426" lon="5.67807">
        <ele>438</ele>
        <time>2019-01-08T10:04:39Z</time>
      </trkpt>
      <trkpt lat="50.37342" lon="5.67761">
        <ele>439</ele>
        <time>2019-01-08T10:05:39Z</time>
      </trkpt>
      <trkpt lat="50.3703" lon="5.67592">
        <ele>453</ele>
        <time>2019-01-08T10:06:39Z</time>
      </trkpt>
      <trkpt lat="50.36954" lon="5.6755">
        <ele>455</ele>
        <time>2019-01-08T10:07:39Z</time>
      </trkpt>
      <trkpt lat="50.367" lon="5.67416">
        <ele>468</ele>
        <time>2019-01-08T10:08:39Z</time>
      </trkpt>
      <trkpt lat="50.36586" lon="5.67354">
        <ele>468</ele>
        <time>2019-01-08T10:09:39Z</time>
      </trkpt>
      <trkpt lat="50.36453" lon="5.67283">
        <ele>467</ele>
        <time>2019-01-08T10:10:39Z</time>
      </trkpt>
      <trkpt lat="50.3637" lon="5.67241">
        <ele>471</ele>
        <time>2019-01-08T10:11:39Z</time>
      </trkpt>
      <trkpt lat="50.36328" lon="5.67218">
        <ele>473</ele>
        <time>2019-01-08T10:12:39Z</time>
      </trkpt>
      <trkpt lat="50.36237" lon="5.67165">
        <ele>473</ele>
        <time>2019-01-08T10:13:39Z</time>
      </trkpt>
      <trkpt lat="50.36166" lon="5.67124">
        <ele>473</ele>
        <time>2019-01-08T10:14:39Z</time>
      </trkpt>
      <trkpt lat="50.36064" lon="5.67068">
        <ele>469</ele>
        <time>2019-01-08T10:15:39Z</time>
      </trkpt>
      <trkpt lat="50.35979" lon="5.67021">
        <ele>466</ele>
        <time>2019-01-08T10:16:39Z</time>
      </trkpt>
      <trkpt lat="50.35933" lon="5.67">
        <ele>465</ele>
        <time>2019-01-08T10:17:39Z</time>
      </trkpt>
      <trkpt lat="50.35904" lon="5.66995">
        <ele>464</ele>
        <time>2019-01-08T10:18:39Z</time>
      </trkpt>
      <trkpt lat="50.35867" lon="5.66995">
        <ele>463</ele>
        <time>2019-01-08T10:19:39Z</time>
      </trkpt>
      <trkpt lat="50.35685" lon="5.66981">
        <ele>463</ele>
        <time>2019-01-08T10:20:39Z</time>
      </trkpt>
      <trkpt lat="50.35595" lon="5.66976">
        <ele>462</ele>
        <time>2019-01-08T10:21:39Z</time>
      </trkpt>
      <trkpt lat="50.35564" lon="5.66974">
        <ele>463</ele>
        <time>2019-01-08T10:22:39Z</time>
      </trkpt>
      <trkpt lat="50.35538" lon="5.66976">
        <ele>464</ele>
        <time>2019-01-08T10:23:39Z</time>
      </trkpt>
      <trkpt lat="50.35513" lon="5.66985">
        <ele>465</ele>
        <time>2019-01-08T10:24:39Z</time>
      </trkpt>
      <trkpt lat="50.35496" lon="5.66997">
        <ele>465</ele>
        <time>2019-01-08T10:25:39Z</time>
      </trkpt>
      <trkpt lat="50.3546" lon="5.6703">
        <ele>466</ele>
        <time>2019-01-08T10:26:39Z</time>
      </trkpt>
      <trkpt lat="50.35379" lon="5.67102">
        <ele>469</ele>
        <time>2019-01-08T10:27:39Z</time>
      </trkpt>
      <trkpt lat="50.35276" lon="5.67196">
        <ele>477</ele>
        <time>2019-01-08T10:28:39Z</time>
      </trkpt>
      <trkpt lat="50.35166" lon="5.67291">
        <ele>473</ele>
        <time>2019-01-08T10:29:39Z</time>
      </trkpt>
      <trkpt lat="50.35077" lon="5.67373">
        <ele>468</ele>
        <time>2019-01-08T10:30:39Z</time>
      </trkpt>
      <trkpt lat="50.34948" lon="5.67493">
        <ele>471</ele>
        <time>2019-01-08T10:31:39Z</time>
      </trkpt>
      <trkpt lat="50.34775" lon="5.67651">
        <ele>464</ele>
        <time>2019-01-08T10:32:39Z</time>
      </trkpt>
      <trkpt lat="50.34616" lon="5.67797">
        <ele>475</ele>
        <time>2019-01-08T10:33:39Z</time>
      </trkpt>
      <trkpt lat="50.34472" lon="5.67927">
        <ele>470</ele>
        <time>2019-01-08T10:34:39Z</time>
      </trkpt>
      <trkpt lat="50.34438" lon="5.67948">
        <ele>469</ele>
        <time>2019-01-08T10:35:39Z</time>
      </trkpt>
      <trkpt lat="50.34417" lon="5.67957">
        <ele>468</ele>
        <time>2019-01-08T10:36:39Z</time>
      </trkpt>
      <trkpt lat="50.34394" lon="5.67963">
        <ele>471</ele>
        <time>2019-01-08T10:37:39Z</time>
      </trkpt>
      <trkpt lat="50.34372" lon="5.67966">
        <ele>473</ele>
        <time>2019-01-08T10:38:39Z</time>
      </trkpt>
      <trkpt lat="50.34349" lon="5.67966">
        <ele>475</ele>
        <time>2019-01-08T10:39:39Z</time>
      </trkpt>
      <trkpt lat="50.34224" lon="5.67965">
        <ele>484</ele>
        <time>2019-01-08T10:40:39Z</time>
      </trkpt>
      <trkpt lat="50.3404" lon="5.67963">
        <ele>488</ele>
        <time>2019-01-08T10:41:39Z</time>
      </trkpt>
      <trkpt lat="50.33771" lon="5.67959">
        <ele>493</ele>
        <time>2019-01-08T10:42:39Z</time>
      </trkpt>
      <trkpt lat="50.33664" lon="5.67958">
        <ele>489</ele>
        <time>2019-01-08T10:43:39Z</time>
      </trkpt>
      <trkpt lat="50.33337" lon="5.67955">
        <ele>483</ele>
        <time>2019-01-08T10:44:39Z</time>
      </trkpt>
      <trkpt lat="50.32927" lon="5.6795">
        <ele>501</ele>
        <time>2019-01-08T10:45:39Z</time>
      </trkpt>
      <trkpt lat="50.32564" lon="5.67947">
        <ele>501</ele>
        <time>2019-01-08T10:46:39Z</time>
      </trkpt>
      <trkpt lat="50.3248" lon="5.67946">
        <ele>505</ele>
        <time>2019-01-08T10:47:39Z</time>
      </trkpt>
      <trkpt lat="50.32451" lon="5.67942">
        <ele>505</ele>
        <time>2019-01-08T10:48:39Z</time>
      </trkpt>
      <trkpt lat="50.32385" lon="5.67936">
        <ele>503</ele>
        <time>2019-01-08T10:49:39Z</time>
      </trkpt>
      <trkpt lat="50.32305" lon="5.67892">
        <ele>501</ele>
        <time>2019-01-08T10:50:39Z</time>
      </trkpt>
      <trkpt lat="50.32231" lon="5.67843">
        <ele>500</ele>
        <time>2019-01-08T10:51:39Z</time>
      </trkpt>
      <trkpt lat="50.32111" lon="5.67765">
        <ele>499</ele>
        <time>2019-01-08T10:52:39Z</time>
      </trkpt>
      <trkpt lat="50.31991" lon="5.67687">
        <ele>496</ele>
        <time>2019-01-08T10:53:39Z</time>
      </trkpt>
      <trkpt lat="50.31885" lon="5.67619">
        <ele>494</ele>
        <time>2019-01-08T10:54:39Z</time>
      </trkpt>
      <trkpt lat="50.31788" lon="5.67556">
        <ele>494</ele>
        <time>2019-01-08T10:55:39Z</time>
      </trkpt>
      <trkpt lat="50.31524" lon="5.67382">
        <ele>504</ele>
        <time>2019-01-08T10:56:39Z</time>
      </trkpt>
      <trkpt lat="50.31477" lon="5.67368">
        <ele>504</ele>
        <time>2019-01-08T10:57:39Z</time>
      </trkpt>
      <trkpt lat="50.31441" lon="5.67373">
        <ele>503</ele>
        <time>2019-01-08T10:58:39Z</time>
      </trkpt>
      <trkpt lat="50.31402" lon="5.67392">
        <ele>501</ele>
        <time>2019-01-08T10:59:39Z</time>
      </trkpt>
      <trkpt lat="50.31359" lon="5.67421">
        <ele>500</ele>
        <time>2019-01-08T11:00:39Z</time>
      </trkpt>
      <trkpt lat="50.3124" lon="5.67502">
        <ele>504</ele>
        <time>2019-01-08T11:01:39Z</time>
      </trkpt>
      <trkpt lat="50.31154" lon="5.67561">
        <ele>505</ele>
        <time>2019-01-08T11:02:39Z</time>
      </trkpt>
      <trkpt lat="50.31059" lon="5.67621">
        <ele>505</ele>
        <time>2019-01-08T11:03:39Z</time>
      </trkpt>
      <trkpt lat="50.30982" lon="5.67647">
        <ele>507</ele>
        <time>2019-01-08T11:04:39Z</time>
      </trkpt>
      <trkpt lat="50.30941" lon="5.67654">
        <ele>508</ele>
        <time>2019-01-08T11:05:39Z</time>
      </trkpt>
      <trkpt lat="50.30852" lon="5.67659">
        <ele>502</ele>
        <time>2019-01-08T11:06:39Z</time>
      </trkpt>
      <trkpt lat="50.30788" lon="5.67642">
        <ele>501</ele>
        <time>2019-01-08T11:07:39Z</time>
      </trkpt>
      <trkpt lat="50.30751" lon="5.67629">
        <ele>502</ele>
        <time>2019-01-08T11:08:39Z</time>
      </trkpt>
      <trkpt lat="50.30709" lon="5.67605">
        <ele>499</ele>
        <time>2019-01-08T11:09:39Z</time>
      </trkpt>
      <trkpt lat="50.30658" lon="5.67576">
        <ele>494</ele>
        <time>2019-01-08T11:10:39Z</time>
      </trkpt>
      <trkpt lat="50.30564" lon="5.67485">
        <ele>493</ele>
        <time>2019-01-08T11:11:39Z</time>
      </trkpt>
      <trkpt lat="50.3052" lon="5.67427">
        <ele>490</ele>
        <time>2019-01-08T11:12:39Z</time>
      </trkpt>
      <trkpt lat="50.30452" lon="5.6734">
        <ele>485</ele>
        <time>2019-01-08T11:13:39Z</time>
      </trkpt>
      <trkpt lat="50.30376" lon="5.67242">
        <ele>484</ele>
        <time>2019-01-08T11:14:39Z</time>
      </trkpt>
      <trkpt lat="50.30355" lon="5.67216">
        <ele>482</ele>
        <time>2019-01-08T11:15:39Z</time>
      </trkpt>
      <trkpt lat="50.30323" lon="5.67181">
        <ele>478</ele>
        <time>2019-01-08T11:16:39Z</time>
      </trkpt>
      <trkpt lat="50.30313" lon="5.67171">
        <ele>478</ele>
        <time>2019-01-08T11:17:39Z</time>
      </trkpt>
      <trkpt lat="50.30286" lon="5.67153">
        <ele>474</ele>
        <time>2019-01-08T11:18:39Z</time>
      </trkpt>
      <trkpt lat="50.30251" lon="5.67129">
        <ele>470</ele>
        <time>2019-01-08T11:19:39Z</time>
      </trkpt>
      <trkpt lat="50.30199" lon="5.67114">
        <ele>467</ele>
        <time>2019-01-08T11:20:39Z</time>
      </trkpt>
      <trkpt lat="50.30099" lon="5.67082">
        <ele>461</ele>
        <time>2019-01-08T11:21:39Z</time>
      </trkpt>
      <trkpt lat="50.30062" lon="5.67069">
        <ele>460</ele>
        <time>2019-01-08T11:22:39Z</time>
      </trkpt>
      <trkpt lat="50.30003" lon="5.67055">
        <ele>457</ele>
        <time>2019-01-08T11:23:39Z</time>
      </trkpt>
      <trkpt lat="50.29948" lon="5.6704">
        <ele>455</ele>
        <time>2019-01-08T11:24:39Z</time>
      </trkpt>
      <trkpt lat="50.29869" lon="5.6703">
        <ele>452</ele>
        <time>2019-01-08T11:25:39Z</time>
      </trkpt>
      <trkpt lat="50.29852" lon="5.67036">
        <ele>451</ele>
        <time>2019-01-08T11:26:39Z</time>
      </trkpt>
      <trkpt lat="50.29812" lon="5.67055">
        <ele>449</ele>
        <time>2019-01-08T11:27:39Z</time>
      </trkpt>
      <trkpt lat="50.29721" lon="5.67131">
        <ele>444</ele>
        <time>2019-01-08T11:28:39Z</time>
      </trkpt>
      <trkpt lat="50.29488" lon="5.67333">
        <ele>441</ele>
        <time>2019-01-08T11:29:39Z</time>
      </trkpt>
      <trkpt lat="50.29415" lon="5.67398">
        <ele>442</ele>
        <time>2019-01-08T11:30:39Z</time>
      </trkpt>
      <trkpt lat="50.29396" lon="5.67419">
        <ele>442</ele>
        <time>2019-01-08T11:31:39Z</time>
      </trkpt>
      <trkpt lat="50.29273" lon="5.67524">
        <ele>441</ele>
        <time>2019-01-08T11:32:39Z</time>
      </trkpt>
      <trkpt lat="50.29225" lon="5.67564">
        <ele>441</ele>
        <time>2019-01-08T11:33:39Z</time>
      </trkpt>
      <trkpt lat="50.29214" lon="5.67547">
        <ele>441</ele>
        <time>2019-01-08T11:34:39Z</time>
      </trkpt>
      <trkpt lat="50.2918" lon="5.67547">
        <ele>442</ele>
        <time>2019-01-08T11:35:39Z</time>
      </trkpt>
      <trkpt lat="50.29144" lon="5.67543">
        <ele>443</ele>
        <time>2019-01-08T11:36:39Z</time>
      </trkpt>
      <trkpt lat="50.29135" lon="5.6754">
        <ele>443</ele>
        <time>2019-01-08T11:37:39Z</time>
      </trkpt>
      <trkpt lat="50.29125" lon="5.6753">
        <ele>443</ele>
        <time>2019-01-08T11:38:39Z</time>
      </trkpt>
      <trkpt lat="50.29098" lon="5.67504">
        <ele>444</ele>
        <time>2019-01-08T11:39:39Z</time>
      </trkpt>
      <trkpt lat="50.29084" lon="5.67492">
        <ele>444</ele>
        <time>2019-01-08T11:40:39Z</time>
      </trkpt>
      <trkpt lat="50.29067" lon="5.6748">
        <ele>444</ele>
        <time>2019-01-08T11:41:39Z</time>
      </trkpt>
      <trkpt lat="50.29008" lon="5.67416">
        <ele>445</ele>
        <time>2019-01-08T11:42:39Z</time>
      </trkpt>
      <trkpt lat="50.28882" lon="5.67273">
        <ele>441</ele>
        <time>2019-01-08T11:43:39Z</time>
      </trkpt>
      <trkpt lat="50.28689" lon="5.67056">
        <ele>442</ele>
        <time>2019-01-08T11:44:39Z</time>
      </trkpt>
      <trkpt lat="50.285" lon="5.66844">
        <ele>451</ele>
        <time>2019-01-08T11:45:39Z</time>
      </trkpt>
      <trkpt lat="50.28333" lon="5.66662">
        <ele>460</ele>
        <time>2019-01-08T11:46:39Z</time>
      </trkpt>
      <trkpt lat="50.28184" lon="5.66497">
        <ele>464</ele>
        <time>2019-01-08T11:47:39Z</time>
      </trkpt>
      <trkpt lat="50.2799" lon="5.66322">
        <ele>460</ele>
        <time>2019-01-08T11:48:39Z</time>
      </trkpt>
      <trkpt lat="50.27702" lon="5.66059">
        <ele>456</ele>
        <time>2019-01-08T11:49:39Z</time>
      </trkpt>
      <trkpt lat="50.27546" lon="5.65919">
        <ele>454</ele>
        <time>2019-01-08T11:50:39Z</time>
      </trkpt>
      <trkpt lat="50.27512" lon="5.65887">
        <ele>452</ele>
        <time>2019-01-08T11:51:39Z</time>
      </trkpt>
      <trkpt lat="50.27504" lon="5.65877">
        <ele>451</ele>
        <time>2019-01-08T11:52:39Z</time>
      </trkpt>
      <trkpt lat="50.27497" lon="5.65865">
        <ele>450</ele>
        <time>2019-01-08T11:53:39Z</time>
      </trkpt>
      <trkpt lat="50.27477" lon="5.65808">
        <ele>448</ele>
        <time>2019-01-08T11:54:39Z</time>
      </trkpt>
      <trkpt lat="50.27438" lon="5.65711">
        <ele>444</ele>
        <time>2019-01-08T11:55:39Z</time>
      </trkpt>
      <trkpt lat="50.27423" lon="5.65692">
        <ele>444</ele>
        <time>2019-01-08T11:56:39Z</time>
      </trkpt>
      <trkpt lat="50.27408" lon="5.65671">
        <ele>443</ele>
        <time>2019-01-08T11:57:39Z</time>
      </trkpt>
      <trkpt lat="50.274" lon="5.65657">
        <ele>443</ele>
        <time>2019-01-08T11:58:39Z</time>
      </trkpt>
      <trkpt lat="50.27394" lon="5.65639">
        <ele>442</ele>
        <time>2019-01-08T11:59:39Z</time>
      </trkpt>
      <trkpt lat="50.27383" lon="5.65612">
        <ele>441</ele>
        <time>2019-01-08T12:00:39Z</time>
      </trkpt>
      <trkpt lat="50.27362" lon="5.65557">
        <ele>439</ele>
        <time>2019-01-08T12:01:39Z</time>
      </trkpt>
      <trkpt lat="50.27341" lon="5.65508">
        <ele>437</ele>
        <time>2019-01-08T12:02:39Z</time>
      </trkpt>
      <trkpt lat="50.27328" lon="5.65486">
        <ele>436</ele>
        <time>2019-01-08T12:03:39Z</time>
      </trkpt>
      <trkpt lat="50.27308" lon="5.65456">
        <ele>435</ele>
        <time>2019-01-08T12:04:39Z</time>
      </trkpt>
      <trkpt lat="50.27244" lon="5.65358">
        <ele>430</ele>
        <time>2019-01-08T12:05:39Z</time>
      </trkpt>
      <trkpt lat="50.27214" lon="5.65323">
        <ele>429</ele>
        <time>2019-01-08T12:06:39Z</time>
      </trkpt>
      <trkpt lat="50.27202" lon="5.65313">
        <ele>429</ele>
        <time>2019-01-08T12:07:39Z</time>
      </trkpt>
      <trkpt lat="50.27189" lon="5.65305">
        <ele>429</ele>
        <time>2019-01-08T12:08:39Z</time>
      </trkpt>
      <trkpt lat="50.27082" lon="5.65252">
        <ele>426</ele>
        <time>2019-01-08T12:09:39Z</time>
      </trkpt>
      <trkpt lat="50.27028" lon="5.65205">
        <ele>426</ele>
        <time>2019-01-08T12:10:39Z</time>
      </trkpt>
      <trkpt lat="50.26928" lon="5.65157">
        <ele>423</ele>
        <time>2019-01-08T12:11:39Z</time>
      </trkpt>
      <trkpt lat="50.26835" lon="5.65115">
        <ele>421</ele>
        <time>2019-01-08T12:12:39Z</time>
      </trkpt>
      <trkpt lat="50.2681" lon="5.65098">
        <ele>420</ele>
        <time>2019-01-08T12:13:39Z</time>
      </trkpt>
      <trkpt lat="50.2677" lon="5.65075">
        <ele>416</ele>
        <time>2019-01-08T12:14:39Z</time>
      </trkpt>
      <trkpt lat="50.26749" lon="5.6508">
        <ele>415</ele>
        <time>2019-01-08T12:15:39Z</time>
      </trkpt>
      <trkpt lat="50.26728" lon="5.65089">
        <ele>412</ele>
        <time>2019-01-08T12:16:39Z</time>
      </trkpt>
      <trkpt lat="50.26701" lon="5.65103">
        <ele>409</ele>
        <time>2019-01-08T12:17:39Z</time>
      </trkpt>
      <trkpt lat="50.26687" lon="5.65117">
        <ele>408</ele>
        <time>2019-01-08T12:18:39Z</time>
      </trkpt>
      <trkpt lat="50.26666" lon="5.6515">
        <ele>408</ele>
        <time>2019-01-08T12:19:39Z</time>
      </trkpt>
      <trkpt lat="50.26641" lon="5.65192">
        <ele>406</ele>
        <time>2019-01-08T12:20:39Z</time>
      </trkpt>
      <trkpt lat="50.2659" lon="5.65296">
        <ele>403</ele>
        <time>2019-01-08T12:21:39Z</time>
      </trkpt>
      <trkpt lat="50.26575" lon="5.65325">
        <ele>403</ele>
        <time>2019-01-08T12:22:39Z</time>
      </trkpt>
      <trkpt lat="50.26543" lon="5.65381">
        <ele>405</ele>
        <time>2019-01-08T12:23:39Z</time>
      </trkpt>
      <trkpt lat="50.26502" lon="5.65451">
        <ele>406</ele>
        <time>2019-01-08T12:24:39Z</time>
      </trkpt>
      <trkpt lat="50.26457" lon="5.65511">
        <ele>406</ele>
        <time>2019-01-08T12:25:39Z</time>
      </trkpt>
      <trkpt lat="50.26424" lon="5.65558">
        <ele>406</ele>
        <time>2019-01-08T12:26:39Z</time>
      </trkpt>
      <trkpt lat="50.26396" lon="5.65604">
        <ele>409</ele>
        <time>2019-01-08T12:27:39Z</time>
      </trkpt>
      <trkpt lat="50.26345" lon="5.65663">
        <ele>410</ele>
        <time>2019-01-08T12:28:39Z</time>
      </trkpt>
      <trkpt lat="50.26334" lon="5.65675">
        <ele>411</ele>
        <time>2019-01-08T12:29:39Z</time>
      </trkpt>
      <trkpt lat="50.26306" lon="5.65688">
        <ele>412</ele>
        <time>2019-01-08T12:30:39Z</time>
      </trkpt>
      <trkpt lat="50.26286" lon="5.65661">
        <ele>408</ele>
        <time>2019-01-08T12:31:39Z</time>
      </trkpt>
      <trkpt lat="50.26265" lon="5.65635">
        <ele>406</ele>
        <time>2019-01-08T12:32:39Z</time>
      </trkpt>
      <trkpt lat="50.26237" lon="5.65595">
        <ele>405</ele>
        <time>2019-01-08T12:33:39Z</time>
      </trkpt>
      <trkpt lat="50.26223" lon="5.65557">
        <ele>406</ele>
        <time>2019-01-08T12:34:39Z</time>
      </trkpt>
      <trkpt lat="50.26219" lon="5.65541">
        <ele>406</ele>
        <time>2019-01-08T12:35:39Z</time>
      </trkpt>
      <trkpt lat="50.26215" lon="5.65516">
        <ele>406</ele>
        <time>2019-01-08T12:36:39Z</time>
      </trkpt>
      <trkpt lat="50.26205" lon="5.65445">
        <ele>408</ele>
        <time>2019-01-08T12:37:39Z</time>
      </trkpt>
      <trkpt lat="50.2619" lon="5.65346">
        <ele>411</ele>
        <time>2019-01-08T12:38:39Z</time>
      </trkpt>
      <trkpt lat="50.26177" lon="5.6531">
        <ele>413</ele>
        <time>2019-01-08T12:39:39Z</time>
      </trkpt>
      <trkpt lat="50.26171" lon="5.65295">
        <ele>413</ele>
        <time>2019-01-08T12:40:39Z</time>
      </trkpt>
      <trkpt lat="50.26134" lon="5.65222">
        <ele>415</ele>
        <time>2019-01-08T12:41:39Z</time>
      </trkpt>
      <trkpt lat="50.26092" lon="5.65185">
        <ele>418</ele>
        <time>2019-01-08T12:42:39Z</time>
      </trkpt>
      <trkpt lat="50.26056" lon="5.65176">
        <ele>421</ele>
        <time>2019-01-08T12:43:39Z</time>
      </trkpt>
      <trkpt lat="50.25862" lon="5.65094">
        <ele>434</ele>
        <time>2019-01-08T12:44:39Z</time>
      </trkpt>
      <trkpt lat="50.25826" lon="5.65079">
        <ele>435</ele>
        <time>2019-01-08T12:45:39Z</time>
      </trkpt>
      <trkpt lat="50.25742" lon="5.65064">
        <ele>440</ele>
        <time>2019-01-08T12:46:39Z</time>
      </trkpt>
      <trkpt lat="50.25723" lon="5.65052">
        <ele>441</ele>
        <time>2019-01-08T12:47:39Z</time>
      </trkpt>
      <trkpt lat="50.25712" lon="5.65036">
        <ele>441</ele>
        <time>2019-01-08T12:48:39Z</time>
      </trkpt>
      <trkpt lat="50.25698" lon="5.65015">
        <ele>441</ele>
        <time>2019-01-08T12:49:39Z</time>
      </trkpt>
      <trkpt lat="50.25693" lon="5.65">
        <ele>441</ele>
        <time>2019-01-08T12:50:39Z</time>
      </trkpt>
      <trkpt lat="50.25681" lon="5.64978">
        <ele>442</ele>
        <time>2019-01-08T12:51:39Z</time>
      </trkpt>
      <trkpt lat="50.25666" lon="5.64953">
        <ele>442</ele>
        <time>2019-01-08T12:52:39Z</time>
      </trkpt>
      <trkpt lat="50.25635" lon="5.64908">
        <ele>443</ele>
        <time>2019-01-08T12:53:39Z</time>
      </trkpt>
      <trkpt lat="50.25594" lon="5.64855">
        <ele>444</ele>
        <time>2019-01-08T12:54:39Z</time>
      </trkpt>
      <trkpt lat="50.25571" lon="5.64824">
        <ele>444</ele>
        <time>2019-01-08T12:55:39Z</time>
      </trkpt>
      <trkpt lat="50.25539" lon="5.64791">
        <ele>445</ele>
        <time>2019-01-08T12:56:39Z</time>
      </trkpt>
      <trkpt lat="50.25482" lon="5.64732">
        <ele>447</ele>
        <time>2019-01-08T12:57:39Z</time>
      </trkpt>
      <trkpt lat="50.25449" lon="5.64691">
        <ele>448</ele>
        <time>2019-01-08T12:58:39Z</time>
      </trkpt>
      <trkpt lat="50.25422" lon="5.64657">
        <ele>450</ele>
        <time>2019-01-08T12:59:39Z</time>
      </trkpt>
      <trkpt lat="50.25392" lon="5.64606">
        <ele>452</ele>
        <time>2019-01-08T13:00:39Z</time>
      </trkpt>
      <trkpt lat="50.25358" lon="5.64549">
        <ele>456</ele>
        <time>2019-01-08T13:01:39Z</time>
      </trkpt>
      <trkpt lat="50.25315" lon="5.6451">
        <ele>460</ele>
        <time>2019-01-08T13:02:39Z</time>
      </trkpt>
      <trkpt lat="50.25306" lon="5.64506">
        <ele>461</ele>
        <time>2019-01-08T13:03:39Z</time>
      </trkpt>
      <trkpt lat="50.25289" lon="5.64495">
        <ele>461</ele>
        <time>2019-01-08T13:04:39Z</time>
      </trkpt>
      <trkpt lat="50.25272" lon="5.64486">
        <ele>462</ele>
        <time>2019-01-08T13:05:39Z</time>
      </trkpt>
      <trkpt lat="50.25256" lon="5.6448">
        <ele>463</ele>
        <time>2019-01-08T13:06:39Z</time>
      </trkpt>
      <trkpt lat="50.25235" lon="5.64473">
        <ele>463</ele>
        <time>2019-01-08T13:07:39Z</time>
      </trkpt>
      <trkpt lat="50.25197" lon="5.6446">
        <ele>463</ele>
        <time>2019-01-08T13:08:39Z</time>
      </trkpt>
      <trkpt lat="50.25124" lon="5.64417">
        <ele>465</ele>
        <time>2019-01-08T13:09:39Z</time>
      </trkpt>
      <trkpt lat="50.25077" lon="5.64387">
        <ele>466</ele>
        <time>2019-01-08T13:10:39Z</time>
      </trkpt>
      <trkpt lat="50.24871" lon="5.64256">
        <ele>470</ele>
        <time>2019-01-08T13:11:39Z</time>
      </trkpt>
      <trkpt lat="50.24798" lon="5.64207">
        <ele>472</ele>
        <time>2019-01-08T13:12:39Z</time>
      </trkpt>
      <trkpt lat="50.24749" lon="5.64167">
        <ele>473</ele>
        <time>2019-01-08T13:13:39Z</time>
      </trkpt>
      <trkpt lat="50.24693" lon="5.64117">
        <ele>469</ele>
        <time>2019-01-08T13:14:39Z</time>
      </trkpt>
      <trkpt lat="50.24621" lon="5.64048">
        <ele>468</ele>
        <time>2019-01-08T13:15:39Z</time>
      </trkpt>
      <trkpt lat="50.24534" lon="5.63965">
        <ele>466</ele>
        <time>2019-01-08T13:16:39Z</time>
      </trkpt>
      <trkpt lat="50.24502" lon="5.63949">
        <ele>465</ele>
        <time>2019-01-08T13:17:39Z</time>
      </trkpt>
      <trkpt lat="50.24486" lon="5.63942">
        <ele>464</ele>
        <time>2019-01-08T13:18:39Z</time>
      </trkpt>
      <trkpt lat="50.24405" lon="5.63935">
        <ele>461</ele>
        <time>2019-01-08T13:19:39Z</time>
      </trkpt>
      <trkpt lat="50.24396" lon="5.63931">
        <ele>461</ele>
        <time>2019-01-08T13:20:39Z</time>
      </trkpt>
      <trkpt lat="50.24368" lon="5.6391">
        <ele>460</ele>
        <time>2019-01-08T13:21:39Z</time>
      </trkpt>
      <trkpt lat="50.24363" lon="5.63904">
        <ele>460</ele>
        <time>2019-01-08T13:22:39Z</time>
      </trkpt>
      <trkpt lat="50.24353" lon="5.63882">
        <ele>459</ele>
        <time>2019-01-08T13:23:39Z</time>
      </trkpt>
      <trkpt lat="50.24259" lon="5.63662">
        <ele>456</ele>
        <time>2019-01-08T13:24:39Z</time>
      </trkpt>
      <trkpt lat="50.24242" lon="5.63578">
        <ele>456</ele>
        <time>2019-01-08T13:25:39Z</time>
      </trkpt>
      <trkpt lat="50.2418" lon="5.63394">
        <ele>458</ele>
        <time>2019-01-08T13:26:39Z</time>
      </trkpt>
      <trkpt lat="50.24158" lon="5.63336">
        <ele>456</ele>
        <time>2019-01-08T13:27:39Z</time>
      </trkpt>
      <trkpt lat="50.24149" lon="5.63324">
        <ele>456</ele>
        <time>2019-01-08T13:28:39Z</time>
      </trkpt>
      <trkpt lat="50.24137" lon="5.63316">
        <ele>456</ele>
        <time>2019-01-08T13:29:39Z</time>
      </trkpt>
      <trkpt lat="50.24124" lon="5.63313">
        <ele>456</ele>
        <time>2019-01-08T13:30:39Z</time>
      </trkpt>
      <trkpt lat="50.2411" lon="5.63315">
        <ele>456</ele>
        <time>2019-01-08T13:31:39Z</time>
      </trkpt>
      <trkpt lat="50.24093" lon="5.63324">
        <ele>457</ele>
        <time>2019-01-08T13:32:39Z</time>
      </trkpt>
      <trkpt lat="50.24063" lon="5.63339">
        <ele>457</ele>
        <time>2019-01-08T13:33:39Z</time>
      </trkpt>
      <trkpt lat="50.24019" lon="5.63363">
        <ele>457</ele>
        <time>2019-01-08T13:34:39Z</time>
      </trkpt>
      <trkpt lat="50.23986" lon="5.63384">
        <ele>457</ele>
        <time>2019-01-08T13:35:39Z</time>
      </trkpt>
      <trkpt lat="50.23969" lon="5.63409">
        <ele>456</ele>
        <time>2019-01-08T13:36:39Z</time>
      </trkpt>
      <trkpt lat="50.23967" lon="5.63406">
        <ele>456</ele>
        <time>2019-01-08T13:37:39Z</time>
      </trkpt>
      <trkpt lat="50.23936" lon="5.63478">
        <ele>456</ele>
        <time>2019-01-08T13:38:39Z</time>
      </trkpt>
      <trkpt lat="50.23915" lon="5.63535">
        <ele>458</ele>
        <time>2019-01-08T13:39:39Z</time>
      </trkpt>
      <trkpt lat="50.23902" lon="5.63545">
        <ele>457</ele>
        <time>2019-01-08T13:40:39Z</time>
      </trkpt>
      <trkpt lat="50.2389" lon="5.63554">
        <ele>456</ele>
        <time>2019-01-08T13:41:39Z</time>
      </trkpt>
      <trkpt lat="50.23847" lon="5.63569">
        <ele>451</ele>
        <time>2019-01-08T13:42:39Z</time>
      </trkpt>
      <trkpt lat="50.23801" lon="5.63617">
        <ele>454</ele>
        <time>2019-01-08T13:43:39Z</time>
      </trkpt>
      <trkpt lat="50.23775" lon="5.63636">
        <ele>453</ele>
        <time>2019-01-08T13:44:39Z</time>
      </trkpt>
      <trkpt lat="50.23742" lon="5.63655">
        <ele>450</ele>
        <time>2019-01-08T13:45:39Z</time>
      </trkpt>
      <trkpt lat="50.23713" lon="5.63671">
        <ele>448</ele>
        <time>2019-01-08T13:46:39Z</time>
      </trkpt>
      <trkpt lat="50.23676" lon="5.63687">
        <ele>446</ele>
        <time>2019-01-08T13:47:39Z</time>
      </trkpt>
      <trkpt lat="50.23625" lon="5.63703">
        <ele>444</ele>
        <time>2019-01-08T13:48:39Z</time>
      </trkpt>
      <trkpt lat="50.23608" lon="5.63704">
        <ele>442</ele>
        <time>2019-01-08T13:49:39Z</time>
      </trkpt>
      <trkpt lat="50.23597" lon="5.63705">
        <ele>441</ele>
        <time>2019-01-08T13:50:39Z</time>
      </trkpt>
      <trkpt lat="50.23588" lon="5.63699">
        <ele>440</ele>
        <time>2019-01-08T13:51:39Z</time>
      </trkpt>
      <trkpt lat="50.23581" lon="5.63689">
        <ele>438</ele>
        <time>2019-01-08T13:52:39Z</time>
      </trkpt>
      <trkpt lat="50.23574" lon="5.63671">
        <ele>437</ele>
        <time>2019-01-08T13:53:39Z</time>
      </trkpt>
      <trkpt lat="50.23571" lon="5.63648">
        <ele>437</ele>
        <time>2019-01-08T13:54:39Z</time>
      </trkpt>
      <trkpt lat="50.23571" lon="5.63633">
        <ele>437</ele>
        <time>2019-01-08T13:55:39Z</time>
      </trkpt>
      <trkpt lat="50.23576" lon="5.63619">
        <ele>437</ele>
        <time>2019-01-08T13:56:39Z</time>
      </trkpt>
      <trkpt lat="50.23586" lon="5.63599">
        <ele>436</ele>
        <time>2019-01-08T13:57:39Z</time>
      </trkpt>
      <trkpt lat="50.23602" lon="5.63567">
        <ele>436</ele>
        <time>2019-01-08T13:58:39Z</time>
      </trkpt>
      <trkpt lat="50.23614" lon="5.63536">
        <ele>437</ele>
        <time>2019-01-08T13:59:39Z</time>
      </trkpt>
      <trkpt lat="50.23622" lon="5.63518">
        <ele>438</ele>
        <time>2019-01-08T14:00:39Z</time>
      </trkpt>
      <trkpt lat="50.23629" lon="5.63474">
        <ele>438</ele>
        <time>2019-01-08T14:01:39Z</time>
      </trkpt>
      <trkpt lat="50.2363" lon="5.63444">
        <ele>438</ele>
        <time>2019-01-08T14:02:39Z</time>
      </trkpt>
      <trkpt lat="50.23628" lon="5.63415">
        <ele>438</ele>
        <time>2019-01-08T14:03:39Z</time>
      </trkpt>
      <trkpt lat="50.23618" lon="5.63372">
        <ele>439</ele>
        <time>2019-01-08T14:04:39Z</time>
      </trkpt>
      <trkpt lat="50.2355" lon="5.63141">
        <ele>451</ele>
        <time>2019-01-08T14:05:39Z</time>
      </trkpt>
      <trkpt lat="50.23541" lon="5.6309">
        <ele>453</ele>
        <time>2019-01-08T14:06:39Z</time>
      </trkpt>
      <trkpt lat="50.23534" lon="5.63049">
        <ele>456</ele>
        <time>2019-01-08T14:07:39Z</time>
      </trkpt>
      <trkpt lat="50.23533" lon="5.63024">
        <ele>457</ele>
        <time>2019-01-08T14:08:39Z</time>
      </trkpt>
      <trkpt lat="50.23533" lon="5.62997">
        <ele>459</ele>
        <time>2019-01-08T14:09:39Z</time>
      </trkpt>
      <trkpt lat="50.23541" lon="5.62957">
        <ele>461</ele>
        <time>2019-01-08T14:10:39Z</time>
      </trkpt>
      <trkpt lat="50.23551" lon="5.62923">
        <ele>462</ele>
        <time>2019-01-08T14:11:39Z</time>
      </trkpt>
      <trkpt lat="50.23575" lon="5.62838">
        <ele>466</ele>
        <time>2019-01-08T14:12:39Z</time>
      </trkpt>
      <trkpt lat="50.23584" lon="5.62791">
        <ele>465</ele>
        <time>2019-01-08T14:13:39Z</time>
      </trkpt>
      <trkpt lat="50.23586" lon="5.62761">
        <ele>466</ele>
        <time>2019-01-08T14:14:39Z</time>
      </trkpt>
      <trkpt lat="50.23586" lon="5.62745">
        <ele>466</ele>
        <time>2019-01-08T14:15:39Z</time>
      </trkpt>
      <trkpt lat="50.23585" lon="5.62727">
        <ele>466</ele>
        <time>2019-01-08T14:16:39Z</time>
      </trkpt>
      <trkpt lat="50.23582" lon="5.62715">
        <ele>467</ele>
        <time>2019-01-08T14:17:39Z</time>
      </trkpt>
      <trkpt lat="50.23578" lon="5.62703">
        <ele>468</ele>
        <time>2019-01-08T14:18:39Z</time>
      </trkpt>
      <trkpt lat="50.2357" lon="5.62691">
        <ele>469</ele>
        <time>2019-01-08T14:19:39Z</time>
      </trkpt>
      <trkpt lat="50.23559" lon="5.62679">
        <ele>471</ele>
        <time>2019-01-08T14:20:39Z</time>
      </trkpt>
      <trkpt lat="50.23553" lon="5.62675">
        <ele>472</ele>
        <time>2019-01-08T14:21:39Z</time>
      </trkpt>
      <trkpt lat="50.23539" lon="5.62663">
        <ele>474</ele>
        <time>2019-01-08T14:22:39Z</time>
      </trkpt>
      <trkpt lat="50.23522" lon="5.62639">
        <ele>475</ele>
        <time>2019-01-08T14:23:39Z</time>
      </trkpt>
      <trkpt lat="50.23487" lon="5.62592">
        <ele>476</ele>
        <time>2019-01-08T14:24:39Z</time>
      </trkpt>
      <trkpt lat="50.23451" lon="5.62549">
        <ele>477</ele>
        <time>2019-01-08T14:25:39Z</time>
      </trkpt>
      <trkpt lat="50.23431" lon="5.6252">
        <ele>477</ele>
        <time>2019-01-08T14:26:39Z</time>
      </trkpt>
      <trkpt lat="50.23423" lon="5.62512">
        <ele>477</ele>
        <time>2019-01-08T14:27:39Z</time>
      </trkpt>
      <trkpt lat="50.2341" lon="5.62508">
        <ele>478</ele>
        <time>2019-01-08T14:28:39Z</time>
      </trkpt>
      <trkpt lat="50.23391" lon="5.62494">
        <ele>479</ele>
        <time>2019-01-08T14:29:39Z</time>
      </trkpt>
      <trkpt lat="50.23366" lon="5.62472">
        <ele>480</ele>
        <time>2019-01-08T14:30:39Z</time>
      </trkpt>
      <trkpt lat="50.23331" lon="5.62435">
        <ele>481</ele>
        <time>2019-01-08T14:31:39Z</time>
      </trkpt>
      <trkpt lat="50.23288" lon="5.62403">
        <ele>483</ele>
        <time>2019-01-08T14:32:39Z</time>
      </trkpt>
      <trkpt lat="50.23281" lon="5.624">
        <ele>484</ele>
        <time>2019-01-08T14:33:39Z</time>
      </trkpt>
      <trkpt lat="50.23271" lon="5.62403">
        <ele>484</ele>
        <time>2019-01-08T14:34:39Z</time>
      </trkpt>
      <trkpt lat="50.23262" lon="5.62411">
        <ele>485</ele>
        <time>2019-01-08T14:35:39Z</time>
      </trkpt>
      <trkpt lat="50.23246" lon="5.62431">
        <ele>486</ele>
        <time>2019-01-08T14:36:39Z</time>
      </trkpt>
      <trkpt lat="50.23204" lon="5.62477">
        <ele>487</ele>
        <time>2019-01-08T14:37:39Z</time>
      </trkpt>
      <trkpt lat="50.23195" lon="5.62483">
        <ele>487</ele>
        <time>2019-01-08T14:38:39Z</time>
      </trkpt>
      <trkpt lat="50.23186" lon="5.62486">
        <ele>487</ele>
        <time>2019-01-08T14:39:39Z</time>
      </trkpt>
      <trkpt lat="50.23174" lon="5.62484">
        <ele>487</ele>
        <time>2019-01-08T14:40:39Z</time>
      </trkpt>
      <trkpt lat="50.23111" lon="5.6247">
        <ele>489</ele>
        <time>2019-01-08T14:41:39Z</time>
      </trkpt>
      <trkpt lat="50.23061" lon="5.62458">
        <ele>491</ele>
        <time>2019-01-08T14:42:39Z</time>
      </trkpt>
      <trkpt lat="50.22946" lon="5.62437">
        <ele>493</ele>
        <time>2019-01-08T14:43:39Z</time>
      </trkpt>
      <trkpt lat="50.22831" lon="5.6242">
        <ele>500</ele>
        <time>2019-01-08T14:44:39Z</time>
      </trkpt>
      <trkpt lat="50.22712" lon="5.62407">
        <ele>507</ele>
        <time>2019-01-08T14:45:39Z</time>
      </trkpt>
      <trkpt lat="50.22701" lon="5.62401">
        <ele>508</ele>
        <time>2019-01-08T14:46:39Z</time>
      </trkpt>
      <trkpt lat="50.22685" lon="5.62392">
        <ele>509</ele>
        <time>2019-01-08T14:47:39Z</time>
      </trkpt>
      <trkpt lat="50.22672" lon="5.62384">
        <ele>511</ele>
        <time>2019-01-08T14:48:39Z</time>
      </trkpt>
      <trkpt lat="50.22634" lon="5.62353">
        <ele>516</ele>
        <time>2019-01-08T14:49:39Z</time>
      </trkpt>
      <trkpt lat="50.2258" lon="5.62327">
        <ele>520</ele>
        <time>2019-01-08T14:50:39Z</time>
      </trkpt>
      <trkpt lat="50.22553" lon="5.62316">
        <ele>524</ele>
        <time>2019-01-08T14:51:39Z</time>
      </trkpt>
      <trkpt lat="50.22527" lon="5.62308">
        <ele>527</ele>
        <time>2019-01-08T14:52:39Z</time>
      </trkpt>
      <trkpt lat="50.22497" lon="5.62311">
        <ele>528</ele>
        <time>2019-01-08T14:53:39Z</time>
      </trkpt>
      <trkpt lat="50.22452" lon="5.62323">
        <ele>528</ele>
        <time>2019-01-08T14:54:39Z</time>
      </trkpt>
      <trkpt lat="50.22415" lon="5.62324">
        <ele>530</ele>
        <time>2019-01-08T14:55:39Z</time>
      </trkpt>
      <trkpt lat="50.2238" lon="5.62314">
        <ele>534</ele>
        <time>2019-01-08T14:56:39Z</time>
      </trkpt>
      <trkpt lat="50.22368" lon="5.62313">
        <ele>534</ele>
        <time>2019-01-08T14:57:39Z</time>
      </trkpt>
      <trkpt lat="50.22347" lon="5.62312">
        <ele>536</ele>
        <time>2019-01-08T14:58:39Z</time>
      </trkpt>
      <trkpt lat="50.22307" lon="5.62326">
        <ele>538</ele>
        <time>2019-01-08T14:59:39Z</time>
      </trkpt>
      <trkpt lat="50.22273" lon="5.62345">
        <ele>542</ele>
        <time>2019-01-08T15:00:39Z</time>
      </trkpt>
      <trkpt lat="50.2224" lon="5.62376">
        <ele>546</ele>
        <time>2019-01-08T15:01:39Z</time>
      </trkpt>
      <trkpt lat="50.22226" lon="5.62389">
        <ele>546</ele>
        <time>2019-01-08T15:02:39Z</time>
      </trkpt>
      <trkpt lat="50.22185" lon="5.62441">
        <ele>548</ele>
        <time>2019-01-08T15:03:39Z</time>
      </trkpt>
      <trkpt lat="50.22164" lon="5.62489">
        <ele>549</ele>
        <time>2019-01-08T15:04:39Z</time>
      </trkpt>
      <trkpt lat="50.22147" lon="5.62534">
        <ele>548</ele>
        <time>2019-01-08T15:05:39Z</time>
      </trkpt>
      <trkpt lat="50.22126" lon="5.62574">
        <ele>547</ele>
        <time>2019-01-08T15:06:39Z</time>
      </trkpt>
      <trkpt lat="50.22111" lon="5.62603">
        <ele>547</ele>
        <time>2019-01-08T15:07:39Z</time>
      </trkpt>
      <trkpt lat="50.22028" lon="5.62734">
        <ele>546</ele>
        <time>2019-01-08T15:08:39Z</time>
      </trkpt>
      <trkpt lat="50.21977" lon="5.62814">
        <ele>547</ele>
        <time>2019-01-08T15:09:39Z</time>
      </trkpt>
      <trkpt lat="50.21924" lon="5.62899">
        <ele>547</ele>
        <time>2019-01-08T15:10:39Z</time>
      </trkpt>
      <trkpt lat="50.21899" lon="5.62917">
        <ele>546</ele>
        <time>2019-01-08T15:11:39Z</time>
      </trkpt>
      <trkpt lat="50.21837" lon="5.62965">
        <ele>544</ele>
        <time>2019-01-08T15:12:39Z</time>
      </trkpt>
      <trkpt lat="50.21807" lon="5.62996">
        <ele>545</ele>
        <time>2019-01-08T15:13:39Z</time>
      </trkpt>
      <trkpt lat="50.21772" lon="5.6304">
        <ele>544</ele>
        <time>2019-01-08T15:14:39Z</time>
      </trkpt>
      <trkpt lat="50.21731" lon="5.63096">
        <ele>543</ele>
        <time>2019-01-08T15:15:39Z</time>
      </trkpt>
      <trkpt lat="50.21648" lon="5.63174">
        <ele>543</ele>
        <time>2019-01-08T15:16:39Z</time>
      </trkpt>
      <trkpt lat="50.21417" lon="5.63385">
        <ele>547</ele>
        <time>2019-01-08T15:17:39Z</time>
      </trkpt>
      <trkpt lat="50.21359" lon="5.63438">
        <ele>548</ele>
        <time>2019-01-08T15:18:39Z</time>
      </trkpt>
      <trkpt lat="50.21331" lon="5.63456">
        <ele>549</ele>
        <time>2019-01-08T15:19:39Z</time>
      </trkpt>
      <trkpt lat="50.21305" lon="5.63463">
        <ele>549</ele>
        <time>2019-01-08T15:20:39Z</time>
      </trkpt>
      <trkpt lat="50.21276" lon="5.63463">
        <ele>548</ele>
        <time>2019-01-08T15:21:39Z</time>
      </trkpt>
      <trkpt lat="50.21246" lon="5.63454">
        <ele>548</ele>
        <time>2019-01-08T15:22:39Z</time>
      </trkpt>
      <trkpt lat="50.2119" lon="5.63434">
        <ele>548</ele>
        <time>2019-01-08T15:23:39Z</time>
      </trkpt>
      <trkpt lat="50.2113" lon="5.63423">
        <ele>549</ele>
        <time>2019-01-08T15:24:39Z</time>
      </trkpt>
      <trkpt lat="50.21114" lon="5.63424">
        <ele>549</ele>
        <time>2019-01-08T15:25:39Z</time>
      </trkpt>
      <trkpt lat="50.21108" lon="5.63388">
        <ele>549</ele>
        <time>2019-01-08T15:26:39Z</time>
      </trkpt>
      <trkpt lat="50.21102" lon="5.63348">
        <ele>548</ele>
        <time>2019-01-08T15:27:39Z</time>
      </trkpt>
      <trkpt lat="50.21094" lon="5.633">
        <ele>546</ele>
        <time>2019-01-08T15:28:39Z</time>
      </trkpt>
      <trkpt lat="50.21083" lon="5.63194">
        <ele>543</ele>
        <time>2019-01-08T15:29:39Z</time>
      </trkpt>
      <trkpt lat="50.21045" lon="5.62843">
        <ele>538</ele>
        <time>2019-01-08T15:30:39Z</time>
      </trkpt>
      <trkpt lat="50.21009" lon="5.62462">
        <ele>533</ele>
        <time>2019-01-08T15:31:39Z</time>
      </trkpt>
      <trkpt lat="50.21006" lon="5.62406">
        <ele>533</ele>
        <time>2019-01-08T15:32:39Z</time>
      </trkpt>
      <trkpt lat="50.21007" lon="5.62376">
        <ele>533</ele>
        <time>2019-01-08T15:33:39Z</time>
      </trkpt>
      <trkpt lat="50.21009" lon="5.62358">
        <ele>532</ele>
        <time>2019-01-08T15:34:39Z</time>
      </trkpt>
      <trkpt lat="50.21013" lon="5.62328">
        <ele>532</ele>
        <time>2019-01-08T15:35:39Z</time>
      </trkpt>
      <trkpt lat="50.21018" lon="5.62299">
        <ele>532</ele>
        <time>2019-01-08T15:36:39Z</time>
      </trkpt>
      <trkpt lat="50.21026" lon="5.62276">
        <ele>532</ele>
        <time>2019-01-08T15:37:39Z</time>
      </trkpt>
      <trkpt lat="50.21034" lon="5.62252">
        <ele>531</ele>
        <time>2019-01-08T15:38:39Z</time>
      </trkpt>
      <trkpt lat="50.21044" lon="5.6223">
        <ele>531</ele>
        <time>2019-01-08T15:39:39Z</time>
      </trkpt>
      <trkpt lat="50.21057" lon="5.62206">
        <ele>532</ele>
        <time>2019-01-08T15:40:39Z</time>
      </trkpt>
      <trkpt lat="50.21072" lon="5.62185">
        <ele>533</ele>
        <time>2019-01-08T15:41:39Z</time>
      </trkpt>
      <trkpt lat="50.21086" lon="5.62164">
        <ele>535</ele>
        <time>2019-01-08T15:42:39Z</time>
      </trkpt>
      <trkpt lat="50.21101" lon="5.62148">
        <ele>534</ele>
        <time>2019-01-08T15:43:39Z</time>
      </trkpt>
      <trkpt lat="50.21203" lon="5.6203">
        <ele>530</ele>
        <time>2019-01-08T15:44:39Z</time>
      </trkpt>
      <trkpt lat="50.21226" lon="5.61996">
        <ele>527</ele>
        <time>2019-01-08T15:45:39Z</time>
      </trkpt>
      <trkpt lat="50.21241" lon="5.61967">
        <ele>526</ele>
        <time>2019-01-08T15:46:39Z</time>
      </trkpt>
      <trkpt lat="50.21263" lon="5.61908">
        <ele>523</ele>
        <time>2019-01-08T15:47:39Z</time>
      </trkpt>
      <trkpt lat="50.21277" lon="5.61836">
        <ele>518</ele>
        <time>2019-01-08T15:48:39Z</time>
      </trkpt>
      <trkpt lat="50.2128" lon="5.61796">
        <ele>514</ele>
        <time>2019-01-08T15:49:39Z</time>
      </trkpt>
      <trkpt lat="50.21284" lon="5.61659">
        <ele>505</ele>
        <time>2019-01-08T15:50:39Z</time>
      </trkpt>
      <trkpt lat="50.21291" lon="5.61609">
        <ele>504</ele>
        <time>2019-01-08T15:51:39Z</time>
      </trkpt>
      <trkpt lat="50.21303" lon="5.61564">
        <ele>503</ele>
        <time>2019-01-08T15:52:39Z</time>
      </trkpt>
      <trkpt lat="50.21317" lon="5.61523">
        <ele>503</ele>
        <time>2019-01-08T15:53:39Z</time>
      </trkpt>
      <trkpt lat="50.21327" lon="5.61505">
        <ele>502</ele>
        <time>2019-01-08T15:54:39Z</time>
      </trkpt>
      <trkpt lat="50.21341" lon="5.61478">
        <ele>502</ele>
        <time>2019-01-08T15:55:39Z</time>
      </trkpt>
      <trkpt lat="50.2137" lon="5.61441">
        <ele>502</ele>
        <time>2019-01-08T15:56:39Z</time>
      </trkpt>
      <trkpt lat="50.21386" lon="5.61424">
        <ele>502</ele>
        <time>2019-01-08T15:57:39Z</time>
      </trkpt>
      <trkpt lat="50.21418" lon="5.61394">
        <ele>502</ele>
        <time>2019-01-08T15:58:39Z</time>
      </trkpt>
      <trkpt lat="50.21466" lon="5.61347">
        <ele>500</ele>
        <time>2019-01-08T15:59:39Z</time>
      </trkpt>
      <trkpt lat="50.21504" lon="5.61278">
        <ele>499</ele>
        <time>2019-01-08T16:00:39Z</time>
      </trkpt>
      <trkpt lat="50.21521" lon="5.61216">
        <ele>497</ele>
        <time>2019-01-08T16:01:39Z</time>
      </trkpt>
      <trkpt lat="50.21548" lon="5.61066">
        <ele>492</ele>
        <time>2019-01-08T16:02:39Z</time>
      </trkpt>
      <trkpt lat="50.21587" lon="5.60855">
        <ele>486</ele>
        <time>2019-01-08T16:03:39Z</time>
      </trkpt>
      <trkpt lat="50.21597" lon="5.60767">
        <ele>484</ele>
        <time>2019-01-08T16:04:39Z</time>
      </trkpt>
      <trkpt lat="50.21593" lon="5.60675">
        <ele>480</ele>
        <time>2019-01-08T16:05:39Z</time>
      </trkpt>
      <trkpt lat="50.21578" lon="5.60607">
        <ele>474</ele>
        <time>2019-01-08T16:06:39Z</time>
      </trkpt>
      <trkpt lat="50.21542" lon="5.6049">
        <ele>469</ele>
        <time>2019-01-08T16:07:39Z</time>
      </trkpt>
      <trkpt lat="50.21443" lon="5.60296">
        <ele>465</ele>
        <time>2019-01-08T16:08:39Z</time>
      </trkpt>
      <trkpt lat="50.21407" lon="5.60224">
        <ele>458</ele>
        <time>2019-01-08T16:09:39Z</time>
      </trkpt>
      <trkpt lat="50.21384" lon="5.602">
        <ele>454</ele>
        <time>2019-01-08T16:10:39Z</time>
      </trkpt>
      <trkpt lat="50.21356" lon="5.60188">
        <ele>452</ele>
        <time>2019-01-08T16:11:39Z</time>
      </trkpt>
      <trkpt lat="50.21309" lon="5.60183">
        <ele>453</ele>
        <time>2019-01-08T16:12:39Z</time>
      </trkpt>
      <trkpt lat="50.21289" lon="5.60181">
        <ele>454</ele>
        <time>2019-01-08T16:13:39Z</time>
      </trkpt>
      <trkpt lat="50.2126" lon="5.6017">
        <ele>453</ele>
        <time>2019-01-08T16:14:39Z</time>
      </trkpt>
      <trkpt lat="50.21206" lon="5.60132">
        <ele>449</ele>
        <time>2019-01-08T16:15:39Z</time>
      </trkpt>
      <trkpt lat="50.21166" lon="5.60099">
        <ele>447</ele>
        <time>2019-01-08T16:16:39Z</time>
      </trkpt>
      <trkpt lat="50.2114" lon="5.60077">
        <ele>443</ele>
        <time>2019-01-08T16:17:39Z</time>
      </trkpt>
      <trkpt lat="50.21116" lon="5.60059">
        <ele>441</ele>
        <time>2019-01-08T16:18:39Z</time>
      </trkpt>
      <trkpt lat="50.211" lon="5.6005">
        <ele>440</ele>
        <time>2019-01-08T16:19:39Z</time>
      </trkpt>
      <trkpt lat="50.21083" lon="5.60049">
        <ele>441</ele>
        <time>2019-01-08T16:20:39Z</time>
      </trkpt>
      <trkpt lat="50.2106" lon="5.60064">
        <ele>438</ele>
        <time>2019-01-08T16:21:39Z</time>
      </trkpt>
      <trkpt lat="50.2104" lon="5.60085">
        <ele>437</ele>
        <time>2019-01-08T16:22:39Z</time>
      </trkpt>
      <trkpt lat="50.21021" lon="5.60109">
        <ele>436</ele>
        <time>2019-01-08T16:23:39Z</time>
      </trkpt>
      <trkpt lat="50.21008" lon="5.60126">
        <ele>435</ele>
        <time>2019-01-08T16:24:39Z</time>
      </trkpt>
      <trkpt lat="50.20988" lon="5.60169">
        <ele>437</ele>
        <time>2019-01-08T16:25:39Z</time>
      </trkpt>
      <trkpt lat="50.2098" lon="5.602">
        <ele>437</ele>
        <time>2019-01-08T16:26:39Z</time>
      </trkpt>
      <trkpt lat="50.2097" lon="5.60254">
        <ele>439</ele>
        <time>2019-01-08T16:27:39Z</time>
      </trkpt>
      <trkpt lat="50.20964" lon="5.60265">
        <ele>439</ele>
        <time>2019-01-08T16:28:39Z</time>
      </trkpt>
      <trkpt lat="50.20956" lon="5.60279">
        <ele>439</ele>
        <time>2019-01-08T16:29:39Z</time>
      </trkpt>
      <trkpt lat="50.20946" lon="5.60286">
        <ele>439</ele>
        <time>2019-01-08T16:30:39Z</time>
      </trkpt>
      <trkpt lat="50.20936" lon="5.60287">
        <ele>439</ele>
        <time>2019-01-08T16:31:39Z</time>
      </trkpt>
      <trkpt lat="50.20925" lon="5.60282">
        <ele>438</ele>
        <time>2019-01-08T16:32:39Z</time>
      </trkpt>
      <trkpt lat="50.20915" lon="5.60273">
        <ele>437</ele>
        <time>2019-01-08T16:33:39Z</time>
      </trkpt>
      <trkpt lat="50.20895" lon="5.60219">
        <ele>438</ele>
        <time>2019-01-08T16:34:39Z</time>
      </trkpt>
      <trkpt lat="50.20878" lon="5.60168">
        <ele>440</ele>
        <time>2019-01-08T16:35:39Z</time>
      </trkpt>
      <trkpt lat="50.20876" lon="5.60147">
        <ele>440</ele>
        <time>2019-01-08T16:36:39Z</time>
      </trkpt>
      <trkpt lat="50.20876" lon="5.60126">
        <ele>439</ele>
        <time>2019-01-08T16:37:39Z</time>
      </trkpt>
      <trkpt lat="50.20878" lon="5.60104">
        <ele>438</ele>
        <time>2019-01-08T16:38:39Z</time>
      </trkpt>
      <trkpt lat="50.2088" lon="5.60082">
        <ele>437</ele>
        <time>2019-01-08T16:39:39Z</time>
      </trkpt>
      <trkpt lat="50.2091" lon="5.59945">
        <ele>426</ele>
        <time>2019-01-08T16:40:39Z</time>
      </trkpt>
      <trkpt lat="50.20923" lon="5.59847">
        <ele>423</ele>
        <time>2019-01-08T16:41:39Z</time>
      </trkpt>
      <trkpt lat="50.20937" lon="5.59647">
        <ele>411</ele>
        <time>2019-01-08T16:42:39Z</time>
      </trkpt>
      <trkpt lat="50.20925" lon="5.59592">
        <ele>408</ele>
        <time>2019-01-08T16:43:39Z</time>
      </trkpt>
      <trkpt lat="50.20899" lon="5.59555">
        <ele>409</ele>
        <time>2019-01-08T16:44:39Z</time>
      </trkpt>
      <trkpt lat="50.20875" lon="5.59524">
        <ele>410</ele>
        <time>2019-01-08T16:45:39Z</time>
      </trkpt>
      <trkpt lat="50.20841" lon="5.59452">
        <ele>408</ele>
        <time>2019-01-08T16:46:39Z</time>
      </trkpt>
      <trkpt lat="50.20821" lon="5.59385">
        <ele>404</ele>
        <time>2019-01-08T16:47:39Z</time>
      </trkpt>
      <trkpt lat="50.20816" lon="5.59361">
        <ele>403</ele>
        <time>2019-01-08T16:48:39Z</time>
      </trkpt>
      <trkpt lat="50.20812" lon="5.59336">
        <ele>401</ele>
        <time>2019-01-08T16:49:39Z</time>
      </trkpt>
      <trkpt lat="50.20804" lon="5.59283">
        <ele>395</ele>
        <time>2019-01-08T16:50:39Z</time>
      </trkpt>
      <trkpt lat="50.20782" lon="5.59235">
        <ele>395</ele>
        <time>2019-01-08T16:51:39Z</time>
      </trkpt>
      <trkpt lat="50.20759" lon="5.59204">
        <ele>396</ele>
        <time>2019-01-08T16:52:39Z</time>
      </trkpt>
      <trkpt lat="50.20735" lon="5.59171">
        <ele>395</ele>
        <time>2019-01-08T16:53:39Z</time>
      </trkpt>
      <trkpt lat="50.20705" lon="5.591">
        <ele>389</ele>
        <time>2019-01-08T16:54:39Z</time>
      </trkpt>
      <trkpt lat="50.20645" lon="5.59013">
        <ele>386</ele>
        <time>2019-01-08T16:55:39Z</time>
      </trkpt>
      <trkpt lat="50.20616" lon="5.58971">
        <ele>380</ele>
        <time>2019-01-08T16:56:39Z</time>
      </trkpt>
      <trkpt lat="50.20591" lon="5.58951">
        <ele>377</ele>
        <time>2019-01-08T16:57:39Z</time>
      </trkpt>
      <trkpt lat="50.20575" lon="5.58944">
        <ele>377</ele>
        <time>2019-01-08T16:58:39Z</time>
      </trkpt>
      <trkpt lat="50.20542" lon="5.58938">
        <ele>376</ele>
        <time>2019-01-08T16:59:39Z</time>
      </trkpt>
      <trkpt lat="50.20461" lon="5.58922">
        <ele>376</ele>
        <time>2019-01-08T17:00:39Z</time>
      </trkpt>
      <trkpt lat="50.20372" lon="5.58879">
        <ele>377</ele>
        <time>2019-01-08T17:01:39Z</time>
      </trkpt>
      <trkpt lat="50.20306" lon="5.5882">
        <ele>374</ele>
        <time>2019-01-08T17:02:39Z</time>
      </trkpt>
      <trkpt lat="50.20252" lon="5.58757">
        <ele>368</ele>
        <time>2019-01-08T17:03:39Z</time>
      </trkpt>
      <trkpt lat="50.2016" lon="5.58635">
        <ele>362</ele>
        <time>2019-01-08T17:04:39Z</time>
      </trkpt>
      <trkpt lat="50.20133" lon="5.58567">
        <ele>354</ele>
        <time>2019-01-08T17:05:39Z</time>
      </trkpt>
      <trkpt lat="50.20126" lon="5.58548">
        <ele>351</ele>
        <time>2019-01-08T17:06:39Z</time>
      </trkpt>
      <trkpt lat="50.20111" lon="5.58528">
        <ele>350</ele>
        <time>2019-01-08T17:07:39Z</time>
      </trkpt>
      <trkpt lat="50.20094" lon="5.58527">
        <ele>352</ele>
        <time>2019-01-08T17:08:39Z</time>
      </trkpt>
      <trkpt lat="50.20055" lon="5.58531">
        <ele>359</ele>
        <time>2019-01-08T17:09:39Z</time>
      </trkpt>
      <trkpt lat="50.20032" lon="5.58518">
        <ele>362</ele>
        <time>2019-01-08T17:10:39Z</time>
      </trkpt>
      <trkpt lat="50.2002" lon="5.58487">
        <ele>362</ele>
        <time>2019-01-08T17:11:39Z</time>
      </trkpt>
      <trkpt lat="50.20018" lon="5.58446">
        <ele>361</ele>
        <time>2019-01-08T17:12:39Z</time>
      </trkpt>
      <trkpt lat="50.20028" lon="5.58414">
        <ele>357</ele>
        <time>2019-01-08T17:13:39Z</time>
      </trkpt>
      <trkpt lat="50.20044" lon="5.58382">
        <ele>352</ele>
        <time>2019-01-08T17:14:39Z</time>
      </trkpt>
      <trkpt lat="50.20063" lon="5.58335">
        <ele>345</ele>
        <time>2019-01-08T17:15:39Z</time>
      </trkpt>
      <trkpt lat="50.20064" lon="5.58313">
        <ele>343</ele>
        <time>2019-01-08T17:16:39Z</time>
      </trkpt>
      <trkpt lat="50.20062" lon="5.58286">
        <ele>342</ele>
        <time>2019-01-08T17:17:39Z</time>
      </trkpt>
      <trkpt lat="50.20048" lon="5.58224">
        <ele>341</ele>
        <time>2019-01-08T17:18:39Z</time>
      </trkpt>
      <trkpt lat="50.20024" lon="5.58139">
        <ele>338</ele>
        <time>2019-01-08T17:19:39Z</time>
      </trkpt>
      <trkpt lat="50.20011" lon="5.58097">
        <ele>338</ele>
        <time>2019-01-08T17:20:39Z</time>
      </trkpt>
      <trkpt lat="50.19999" lon="5.58027">
        <ele>335</ele>
        <time>2019-01-08T17:21:39Z</time>
      </trkpt>
      <trkpt lat="50.19973" lon="5.57899">
        <ele>332</ele>
        <time>2019-01-08T17:22:39Z</time>
      </trkpt>
      <trkpt lat="50.19963" lon="5.5787">
        <ele>331</ele>
        <time>2019-01-08T17:23:39Z</time>
      </trkpt>
      <trkpt lat="50.19937" lon="5.57813">
        <ele>330</ele>
        <time>2019-01-08T17:24:39Z</time>
      </trkpt>
      <trkpt lat="50.1991" lon="5.57759">
        <ele>329</ele>
        <time>2019-01-08T17:25:39Z</time>
      </trkpt>
      <trkpt lat="50.19895" lon="5.57719">
        <ele>328</ele>
        <time>2019-01-08T17:26:39Z</time>
      </trkpt>
      <trkpt lat="50.1988" lon="5.57663">
        <ele>324</ele>
        <time>2019-01-08T17:27:39Z</time>
      </trkpt>
      <trkpt lat="50.19865" lon="5.57605">
        <ele>320</ele>
        <time>2019-01-08T17:28:39Z</time>
      </trkpt>
      <trkpt lat="50.1985" lon="5.57563">
        <ele>317</ele>
        <time>2019-01-08T17:29:39Z</time>
      </trkpt>
      <trkpt lat="50.19808" lon="5.57485">
        <ele>314</ele>
        <time>2019-01-08T17:30:39Z</time>
      </trkpt>
      <trkpt lat="50.19796" lon="5.57471">
        <ele>314</ele>
        <time>2019-01-08T17:31:39Z</time>
      </trkpt>
      <trkpt lat="50.19761" lon="5.57447">
        <ele>316</ele>
        <time>2019-01-08T17:32:39Z</time>
      </trkpt>
      <trkpt lat="50.19729" lon="5.57419">
        <ele>315</ele>
        <time>2019-01-08T17:33:39Z</time>
      </trkpt>
      <trkpt lat="50.19659" lon="5.57344">
        <ele>307</ele>
        <time>2019-01-08T17:34:39Z</time>
      </trkpt>
      <trkpt lat="50.1958" lon="5.57281">
        <ele>302</ele>
        <time>2019-01-08T17:35:39Z</time>
      </trkpt>
      <trkpt lat="50.19513" lon="5.57223">
        <ele>293</ele>
        <time>2019-01-08T17:36:39Z</time>
      </trkpt>
      <trkpt lat="50.19482" lon="5.57186">
        <ele>289</ele>
        <time>2019-01-08T17:37:39Z</time>
      </trkpt>
      <trkpt lat="50.19436" lon="5.57124">
        <ele>282</ele>
        <time>2019-01-08T17:38:39Z</time>
      </trkpt>
      <trkpt lat="50.19417" lon="5.5711">
        <ele>283</ele>
        <time>2019-01-08T17:39:39Z</time>
      </trkpt>
      <trkpt lat="50.19399" lon="5.57111">
        <ele>280</ele>
        <time>2019-01-08T17:40:39Z</time>
      </trkpt>
      <trkpt lat="50.19388" lon="5.57121">
        <ele>280</ele>
        <time>2019-01-08T17:41:39Z</time>
      </trkpt>
      <trkpt lat="50.19379" lon="5.57133">
        <ele>279</ele>
        <time>2019-01-08T17:42:39Z</time>
      </trkpt>
      <trkpt lat="50.19374" lon="5.57148">
        <ele>279</ele>
        <time>2019-01-08T17:43:39Z</time>
      </trkpt>
      <trkpt lat="50.19368" lon="5.57175">
        <ele>279</ele>
        <time>2019-01-08T17:44:39Z</time>
      </trkpt>
      <trkpt lat="50.19363" lon="5.57199">
        <ele>280</ele>
        <time>2019-01-08T17:45:39Z</time>
      </trkpt>
      <trkpt lat="50.19317" lon="5.57365">
        <ele>278</ele>
        <time>2019-01-08T17:46:39Z</time>
      </trkpt>
      <trkpt lat="50.19288" lon="5.5746">
        <ele>276</ele>
        <time>2019-01-08T17:47:39Z</time>
      </trkpt>
      <trkpt lat="50.1925" lon="5.57567">
        <ele>275</ele>
        <time>2019-01-08T17:48:39Z</time>
      </trkpt>
      <trkpt lat="50.19225" lon="5.57625">
        <ele>273</ele>
        <time>2019-01-08T17:49:39Z</time>
      </trkpt>
      <trkpt lat="50.19194" lon="5.5768">
        <ele>269</ele>
        <time>2019-01-08T17:50:39Z</time>
      </trkpt>
      <trkpt lat="50.1917" lon="5.57722">
        <ele>266</ele>
        <time>2019-01-08T17:51:39Z</time>
      </trkpt>
      <trkpt lat="50.19143" lon="5.57757">
        <ele>265</ele>
        <time>2019-01-08T17:52:39Z</time>
      </trkpt>
      <trkpt lat="50.19106" lon="5.57793">
        <ele>263</ele>
        <time>2019-01-08T17:53:39Z</time>
      </trkpt>
      <trkpt lat="50.19042" lon="5.57847">
        <ele>259</ele>
        <time>2019-01-08T17:54:39Z</time>
      </trkpt>
      <trkpt lat="50.19025" lon="5.57859">
        <ele>258</ele>
        <time>2019-01-08T17:55:39Z</time>
      </trkpt>
      <trkpt lat="50.18997" lon="5.57873">
        <ele>256</ele>
        <time>2019-01-08T17:56:39Z</time>
      </trkpt>
      <trkpt lat="50.18904" lon="5.57916">
        <ele>250</ele>
        <time>2019-01-08T17:57:39Z</time>
      </trkpt>
      <trkpt lat="50.18868" lon="5.57932">
        <ele>249</ele>
        <time>2019-01-08T17:58:39Z</time>
      </trkpt>
      <trkpt lat="50.18837" lon="5.57948">
        <ele>249</ele>
        <time>2019-01-08T17:59:39Z</time>
      </trkpt>
      <trkpt lat="50.18811" lon="5.5796">
        <ele>250</ele>
        <time>2019-01-08T18:00:39Z</time>
      </trkpt>
      <trkpt lat="50.18792" lon="5.57965">
        <ele>251</ele>
        <time>2019-01-08T18:01:39Z</time>
      </trkpt>
      <trkpt lat="50.18771" lon="5.57965">
        <ele>249</ele>
        <time>2019-01-08T18:02:39Z</time>
      </trkpt>
      <trkpt lat="50.18756" lon="5.57965">
        <ele>248</ele>
        <time>2019-01-08T18:03:39Z</time>
      </trkpt>
      <trkpt lat="50.18741" lon="5.57965">
        <ele>247</ele>
        <time>2019-01-08T18:04:39Z</time>
      </trkpt>
      <trkpt lat="50.18711" lon="5.57969">
        <ele>248</ele>
        <time>2019-01-08T18:05:39Z</time>
      </trkpt>
      <trkpt lat="50.18695" lon="5.57971">
        <ele>249</ele>
        <time>2019-01-08T18:06:39Z</time>
      </trkpt>
      <trkpt lat="50.18666" lon="5.57967">
        <ele>247</ele>
        <time>2019-01-08T18:07:39Z</time>
      </trkpt>
      <trkpt lat="50.18646" lon="5.57963">
        <ele>248</ele>
        <time>2019-01-08T18:08:39Z</time>
      </trkpt>
      <trkpt lat="50.18623" lon="5.57951">
        <ele>247</ele>
        <time>2019-01-08T18:09:39Z</time>
      </trkpt>
      <trkpt lat="50.18593" lon="5.57922">
        <ele>241</ele>
        <time>2019-01-08T18:10:39Z</time>
      </trkpt>
      <trkpt lat="50.18558" lon="5.57885">
        <ele>240</ele>
        <time>2019-01-08T18:11:39Z</time>
      </trkpt>
      <trkpt lat="50.18506" lon="5.57826">
        <ele>235</ele>
        <time>2019-01-08T18:12:39Z</time>
      </trkpt>
      <trkpt lat="50.18497" lon="5.57813">
        <ele>234</ele>
        <time>2019-01-08T18:13:39Z</time>
      </trkpt>
      <trkpt lat="50.18486" lon="5.57791">
        <ele>232</ele>
        <time>2019-01-08T18:14:39Z</time>
      </trkpt>
      <trkpt lat="50.18479" lon="5.57774">
        <ele>229</ele>
        <time>2019-01-08T18:15:39Z</time>
      </trkpt>
      <trkpt lat="50.18474" lon="5.57759">
        <ele>227</ele>
        <time>2019-01-08T18:16:39Z</time>
      </trkpt>
      <trkpt lat="50.18452" lon="5.57695">
        <ele>224</ele>
        <time>2019-01-08T18:17:39Z</time>
      </trkpt>
      <trkpt lat="50.18421" lon="5.5761">
        <ele>219</ele>
        <time>2019-01-08T18:18:39Z</time>
      </trkpt>
      <trkpt lat="50.18401" lon="5.5757">
        <ele>219</ele>
        <time>2019-01-08T18:19:39Z</time>
      </trkpt>
      <trkpt lat="50.18386" lon="5.57548">
        <ele>219</ele>
        <time>2019-01-08T18:20:39Z</time>
      </trkpt>
      <trkpt lat="50.18371" lon="5.57531">
        <ele>219</ele>
        <time>2019-01-08T18:21:39Z</time>
      </trkpt>
      <trkpt lat="50.18348" lon="5.57514">
        <ele>219</ele>
        <time>2019-01-08T18:22:39Z</time>
      </trkpt>
      <trkpt lat="50.18334" lon="5.57506">
        <ele>219</ele>
        <time>2019-01-08T18:23:39Z</time>
      </trkpt>
      <trkpt lat="50.18267" lon="5.57475">
        <ele>222</ele>
        <time>2019-01-08T18:24:39Z</time>
      </trkpt>
      <trkpt lat="50.18224" lon="5.57454">
        <ele>224</ele>
        <time>2019-01-08T18:25:39Z</time>
      </trkpt>
      <trkpt lat="50.1817" lon="5.57425">
        <ele>222</ele>
        <time>2019-01-08T18:26:39Z</time>
      </trkpt>
      <trkpt lat="50.18153" lon="5.57423">
        <ele>222</ele>
        <time>2019-01-08T18:27:39Z</time>
      </trkpt>
      <trkpt lat="50.18142" lon="5.57423">
        <ele>222</ele>
        <time>2019-01-08T18:28:39Z</time>
      </trkpt>
      <trkpt lat="50.18127" lon="5.57431">
        <ele>222</ele>
        <time>2019-01-08T18:29:39Z</time>
      </trkpt>
      <trkpt lat="50.18117" lon="5.57441">
        <ele>222</ele>
        <time>2019-01-08T18:30:39Z</time>
      </trkpt>
      <trkpt lat="50.18109" lon="5.57457">
        <ele>222</ele>
        <time>2019-01-08T18:31:39Z</time>
      </trkpt>
      <trkpt lat="50.18103" lon="5.57501">
        <ele>220</ele>
        <time>2019-01-08T18:32:39Z</time>
      </trkpt>
      <trkpt lat="50.18106" lon="5.57547">
        <ele>221</ele>
        <time>2019-01-08T18:33:39Z</time>
      </trkpt>
      <trkpt lat="50.18107" lon="5.57568">
        <ele>222</ele>
        <time>2019-01-08T18:34:39Z</time>
      </trkpt>
      <trkpt lat="50.18084" lon="5.57582">
        <ele>221</ele>
        <time>2019-01-08T18:35:39Z</time>
      </trkpt>
      <trkpt lat="50.18063" lon="5.57595">
        <ele>221</ele>
        <time>2019-01-08T18:36:39Z</time>
      </trkpt>
      <trkpt lat="50.18043" lon="5.57605">
        <ele>221</ele>
        <time>2019-01-08T18:37:39Z</time>
      </trkpt>
      <trkpt lat="50.17997" lon="5.57605">
        <ele>222</ele>
        <time>2019-01-08T18:38:39Z</time>
      </trkpt>
      <trkpt lat="50.18001" lon="5.57617">
        <ele>222</ele>
        <time>2019-01-08T18:39:39Z</time>
      </trkpt>
      <trkpt lat="50.18002" lon="5.57629">
        <ele>222</ele>
        <time>2019-01-08T18:40:39Z</time>
      </trkpt>
      <trkpt lat="50.18004" lon="5.57642">
        <ele>222</ele>
        <time>2019-01-08T18:41:39Z</time>
      </trkpt>
      <trkpt lat="50.18004" lon="5.5766">
        <ele>222</ele>
        <time>2019-01-08T18:42:39Z</time>
      </trkpt>
      <trkpt lat="50.18002" lon="5.57666">
        <ele>222</ele>
        <time>2019-01-08T18:43:39Z</time>
      </trkpt>
      <trkpt lat="50.18" lon="5.57671">
        <ele>222</ele>
        <time>2019-01-08T18:44:39Z</time>
      </trkpt>
      <trkpt lat="50.17996" lon="5.57676">
        <ele>223</ele>
        <time>2019-01-08T18:45:39Z</time>
      </trkpt>
      <trkpt lat="50.17992" lon="5.57681">
        <ele>224</ele>
        <time>2019-01-08T18:46:39Z</time>
      </trkpt>
      <trkpt lat="50.17972" lon="5.577">
        <ele>226</ele>
        <time>2019-01-08T18:47:39Z</time>
      </trkpt>
      <trkpt lat="50.17952" lon="5.57717">
        <ele>228</ele>
        <time>2019-01-08T18:48:39Z</time>
      </trkpt>
      <trkpt lat="50.17924" lon="5.57733">
        <ele>230</ele>
        <time>2019-01-08T18:49:39Z</time>
      </trkpt>
      <trkpt lat="50.179" lon="5.57744">
        <ele>231</ele>
        <time>2019-01-08T18:50:39Z</time>
      </trkpt>
      <trkpt lat="50.1787" lon="5.5775">
        <ele>232</ele>
        <time>2019-01-08T18:51:39Z</time>
      </trkpt>
      <trkpt lat="50.1784" lon="5.57749">
        <ele>233</ele>
        <time>2019-01-08T18:52:39Z</time>
      </trkpt>
      <trkpt lat="50.17814" lon="5.57746">
        <ele>234</ele>
        <time>2019-01-08T18:53:39Z</time>
      </trkpt>
      <trkpt lat="50.17755" lon="5.57737">
        <ele>236</ele>
        <time>2019-01-08T18:54:39Z</time>
      </trkpt>
      <trkpt lat="50.17718" lon="5.5774">
        <ele>236</ele>
        <time>2019-01-08T18:55:39Z</time>
      </trkpt>
      <trkpt lat="50.17706" lon="5.57743">
        <ele>236</ele>
        <time>2019-01-08T18:56:39Z</time>
      </trkpt>
      <trkpt lat="50.17691" lon="5.57752">
        <ele>237</ele>
        <time>2019-01-08T18:57:39Z</time>
      </trkpt>
      <trkpt lat="50.17678" lon="5.5776">
        <ele>238</ele>
        <time>2019-01-08T18:58:39Z</time>
      </trkpt>
      <trkpt lat="50.17664" lon="5.57772">
        <ele>240</ele>
        <time>2019-01-08T18:59:39Z</time>
      </trkpt>
      <trkpt lat="50.17654" lon="5.57782">
        <ele>241</ele>
        <time>2019-01-08T19:00:39Z</time>
      </trkpt>
      <trkpt lat="50.17644" lon="5.57797">
        <ele>242</ele>
        <time>2019-01-08T19:01:39Z</time>
      </trkpt>
      <trkpt lat="50.17633" lon="5.57815">
        <ele>243</ele>
        <time>2019-01-08T19:02:39Z</time>
      </trkpt>
      <trkpt lat="50.17625" lon="5.57829">
        <ele>244</ele>
        <time>2019-01-08T19:03:39Z</time>
      </trkpt>
      <trkpt lat="50.17612" lon="5.5786">
        <ele>246</ele>
        <time>2019-01-08T19:04:39Z</time>
      </trkpt>
      <trkpt lat="50.17601" lon="5.57889">
        <ele>248</ele>
        <time>2019-01-08T19:05:39Z</time>
      </trkpt>
      <trkpt lat="50.17587" lon="5.57926">
        <ele>251</ele>
        <time>2019-01-08T19:06:39Z</time>
      </trkpt>
      <trkpt lat="50.17571" lon="5.5798">
        <ele>256</ele>
        <time>2019-01-08T19:07:39Z</time>
      </trkpt>
      <trkpt lat="50.17552" lon="5.58054">
        <ele>262</ele>
        <time>2019-01-08T19:08:39Z</time>
      </trkpt>
      <trkpt lat="50.1754" lon="5.58094">
        <ele>264</ele>
        <time>2019-01-08T19:09:39Z</time>
      </trkpt>
      <trkpt lat="50.17525" lon="5.58137">
        <ele>268</ele>
        <time>2019-01-08T19:10:39Z</time>
      </trkpt>
      <trkpt lat="50.17511" lon="5.58159">
        <ele>271</ele>
        <time>2019-01-08T19:11:39Z</time>
      </trkpt>
      <trkpt lat="50.17497" lon="5.58175">
        <ele>273</ele>
        <time>2019-01-08T19:12:39Z</time>
      </trkpt>
      <trkpt lat="50.17476" lon="5.58198">
        <ele>274</ele>
        <time>2019-01-08T19:13:39Z</time>
      </trkpt>
      <trkpt lat="50.17464" lon="5.5821">
        <ele>275</ele>
        <time>2019-01-08T19:14:39Z</time>
      </trkpt>
      <trkpt lat="50.17435" lon="5.58222">
        <ele>275</ele>
        <time>2019-01-08T19:15:39Z</time>
      </trkpt>
      <trkpt lat="50.17416" lon="5.5823">
        <ele>275</ele>
        <time>2019-01-08T19:16:39Z</time>
      </trkpt>
      <trkpt lat="50.17397" lon="5.58234">
        <ele>278</ele>
        <time>2019-01-08T19:17:39Z</time>
      </trkpt>
      <trkpt lat="50.1736" lon="5.58244">
        <ele>284</ele>
        <time>2019-01-08T19:18:39Z</time>
      </trkpt>
      <trkpt lat="50.17285" lon="5.58256">
        <ele>287</ele>
        <time>2019-01-08T19:19:39Z</time>
      </trkpt>
      <trkpt lat="50.17267" lon="5.58259">
        <ele>287</ele>
        <time>2019-01-08T19:20:39Z</time>
      </trkpt>
      <trkpt lat="50.17233" lon="5.5827">
        <ele>288</ele>
        <time>2019-01-08T19:21:39Z</time>
      </trkpt>
      <trkpt lat="50.17197" lon="5.58288">
        <ele>288</ele>
        <time>2019-01-08T19:22:39Z</time>
      </trkpt>
      <trkpt lat="50.17146" lon="5.58336">
        <ele>292</ele>
        <time>2019-01-08T19:23:39Z</time>
      </trkpt>
      <trkpt lat="50.17087" lon="5.58392">
        <ele>302</ele>
        <time>2019-01-08T19:24:39Z</time>
      </trkpt>
      <trkpt lat="50.17066" lon="5.58404">
        <ele>301</ele>
        <time>2019-01-08T19:25:39Z</time>
      </trkpt>
      <trkpt lat="50.17047" lon="5.58409">
        <ele>298</ele>
        <time>2019-01-08T19:26:39Z</time>
      </trkpt>
      <trkpt lat="50.17024" lon="5.58424">
        <ele>297</ele>
        <time>2019-01-08T19:27:39Z</time>
      </trkpt>
      <trkpt lat="50.1701" lon="5.5844">
        <ele>297</ele>
        <time>2019-01-08T19:28:39Z</time>
      </trkpt>
      <trkpt lat="50.16975" lon="5.58508">
        <ele>304</ele>
        <time>2019-01-08T19:29:39Z</time>
      </trkpt>
      <trkpt lat="50.16906" lon="5.58607">
        <ele>308</ele>
        <time>2019-01-08T19:30:39Z</time>
      </trkpt>
      <trkpt lat="50.16893" lon="5.58631">
        <ele>313</ele>
        <time>2019-01-08T19:31:39Z</time>
      </trkpt>
      <trkpt lat="50.16881" lon="5.58641">
        <ele>314</ele>
        <time>2019-01-08T19:32:39Z</time>
      </trkpt>
      <trkpt lat="50.16868" lon="5.58648">
        <ele>314</ele>
        <time>2019-01-08T19:33:39Z</time>
      </trkpt>
      <trkpt lat="50.16854" lon="5.58648">
        <ele>313</ele>
        <time>2019-01-08T19:34:39Z</time>
      </trkpt>
      <trkpt lat="50.1683" lon="5.58655">
        <ele>312</ele>
        <time>2019-01-08T19:35:39Z</time>
      </trkpt>
      <trkpt lat="50.1681" lon="5.58669">
        <ele>311</ele>
        <time>2019-01-08T19:36:39Z</time>
      </trkpt>
      <trkpt lat="50.16795" lon="5.58682">
        <ele>309</ele>
        <time>2019-01-08T19:37:39Z</time>
      </trkpt>
      <trkpt lat="50.16781" lon="5.58703">
        <ele>310</ele>
        <time>2019-01-08T19:38:39Z</time>
      </trkpt>
      <trkpt lat="50.16771" lon="5.58727">
        <ele>311</ele>
        <time>2019-01-08T19:39:39Z</time>
      </trkpt>
      <trkpt lat="50.16763" lon="5.58755">
        <ele>314</ele>
        <time>2019-01-08T19:40:39Z</time>
      </trkpt>
      <trkpt lat="50.16756" lon="5.58785">
        <ele>317</ele>
        <time>2019-01-08T19:41:39Z</time>
      </trkpt>
      <trkpt lat="50.16755" lon="5.5881">
        <ele>320</ele>
        <time>2019-01-08T19:42:39Z</time>
      </trkpt>
      <trkpt lat="50.16755" lon="5.58835">
        <ele>324</ele>
        <time>2019-01-08T19:43:39Z</time>
      </trkpt>
      <trkpt lat="50.16756" lon="5.58861">
        <ele>325</ele>
        <time>2019-01-08T19:44:39Z</time>
      </trkpt>
      <trkpt lat="50.16759" lon="5.58886">
        <ele>326</ele>
        <time>2019-01-08T19:45:39Z</time>
      </trkpt>
      <trkpt lat="50.16763" lon="5.58911">
        <ele>328</ele>
        <time>2019-01-08T19:46:39Z</time>
      </trkpt>
      <trkpt lat="50.16768" lon="5.58936">
        <ele>330</ele>
        <time>2019-01-08T19:47:39Z</time>
      </trkpt>
      <trkpt lat="50.16774" lon="5.5896">
        <ele>332</ele>
        <time>2019-01-08T19:48:39Z</time>
      </trkpt>
      <trkpt lat="50.16777" lon="5.58983">
        <ele>333</ele>
        <time>2019-01-08T19:49:39Z</time>
      </trkpt>
      <trkpt lat="50.16775" lon="5.59019">
        <ele>336</ele>
        <time>2019-01-08T19:50:39Z</time>
      </trkpt>
      <trkpt lat="50.16766" lon="5.59056">
        <ele>339</ele>
        <time>2019-01-08T19:51:39Z</time>
      </trkpt>
      <trkpt lat="50.16753" lon="5.5909">
        <ele>343</ele>
        <time>2019-01-08T19:52:39Z</time>
      </trkpt>
      <trkpt lat="50.16744" lon="5.5911">
        <ele>346</ele>
        <time>2019-01-08T19:53:39Z</time>
      </trkpt>
      <trkpt lat="50.16737" lon="5.59119">
        <ele>348</ele>
        <time>2019-01-08T19:54:39Z</time>
      </trkpt>
      <trkpt lat="50.1673" lon="5.59125">
        <ele>348</ele>
        <time>2019-01-08T19:55:39Z</time>
      </trkpt>
      <trkpt lat="50.16719" lon="5.59127">
        <ele>347</ele>
        <time>2019-01-08T19:56:39Z</time>
      </trkpt>
      <trkpt lat="50.167" lon="5.59125">
        <ele>345</ele>
        <time>2019-01-08T19:57:39Z</time>
      </trkpt>
      <trkpt lat="50.16655" lon="5.59123">
        <ele>340</ele>
        <time>2019-01-08T19:58:39Z</time>
      </trkpt>
      <trkpt lat="50.16635" lon="5.59134">
        <ele>342</ele>
        <time>2019-01-08T19:59:39Z</time>
      </trkpt>
      <trkpt lat="50.1662" lon="5.59146">
        <ele>344</ele>
        <time>2019-01-08T20:00:39Z</time>
      </trkpt>
      <trkpt lat="50.16589" lon="5.59181">
        <ele>348</ele>
        <time>2019-01-08T20:01:39Z</time>
      </trkpt>
      <trkpt lat="50.16551" lon="5.59246">
        <ele>354</ele>
        <time>2019-01-08T20:02:39Z</time>
      </trkpt>
      <trkpt lat="50.16545" lon="5.59268">
        <ele>355</ele>
        <time>2019-01-08T20:03:39Z</time>
      </trkpt>
      <trkpt lat="50.16546" lon="5.59294">
        <ele>355</ele>
        <time>2019-01-08T20:04:39Z</time>
      </trkpt>
      <trkpt lat="50.16552" lon="5.59317">
        <ele>357</ele>
        <time>2019-01-08T20:05:39Z</time>
      </trkpt>
      <trkpt lat="50.16559" lon="5.59336">
        <ele>358</ele>
        <time>2019-01-08T20:06:39Z</time>
      </trkpt>
      <trkpt lat="50.16568" lon="5.59353">
        <ele>359</ele>
        <time>2019-01-08T20:07:39Z</time>
      </trkpt>
      <trkpt lat="50.16577" lon="5.59368">
        <ele>361</ele>
        <time>2019-01-08T20:08:39Z</time>
      </trkpt>
      <trkpt lat="50.16585" lon="5.59384">
        <ele>362</ele>
        <time>2019-01-08T20:09:39Z</time>
      </trkpt>
      <trkpt lat="50.16596" lon="5.59401">
        <ele>364</ele>
        <time>2019-01-08T20:10:39Z</time>
      </trkpt>
      <trkpt lat="50.16603" lon="5.5942">
        <ele>365</ele>
        <time>2019-01-08T20:11:39Z</time>
      </trkpt>
      <trkpt lat="50.16623" lon="5.59475">
        <ele>372</ele>
        <time>2019-01-08T20:12:39Z</time>
      </trkpt>
      <trkpt lat="50.1663" lon="5.59508">
        <ele>375</ele>
        <time>2019-01-08T20:13:39Z</time>
      </trkpt>
      <trkpt lat="50.1663" lon="5.5953">
        <ele>377</ele>
        <time>2019-01-08T20:14:39Z</time>
      </trkpt>
      <trkpt lat="50.16626" lon="5.59553">
        <ele>379</ele>
        <time>2019-01-08T20:15:39Z</time>
      </trkpt>
      <trkpt lat="50.16619" lon="5.59574">
        <ele>381</ele>
        <time>2019-01-08T20:16:39Z</time>
      </trkpt>
      <trkpt lat="50.1661" lon="5.59594">
        <ele>382</ele>
        <time>2019-01-08T20:17:39Z</time>
      </trkpt>
      <trkpt lat="50.16598" lon="5.59615">
        <ele>383</ele>
        <time>2019-01-08T20:18:39Z</time>
      </trkpt>
      <trkpt lat="50.16587" lon="5.59627">
        <ele>383</ele>
        <time>2019-01-08T20:19:39Z</time>
      </trkpt>
      <trkpt lat="50.16574" lon="5.59638">
        <ele>384</ele>
        <time>2019-01-08T20:20:39Z</time>
      </trkpt>
      <trkpt lat="50.16557" lon="5.59648">
        <ele>386</ele>
        <time>2019-01-08T20:21:39Z</time>
      </trkpt>
      <trkpt lat="50.1654" lon="5.59654">
        <ele>387</ele>
        <time>2019-01-08T20:22:39Z</time>
      </trkpt>
      <trkpt lat="50.16532" lon="5.59659">
        <ele>387</ele>
        <time>2019-01-08T20:23:39Z</time>
      </trkpt>
      <trkpt lat="50.16519" lon="5.59671">
        <ele>388</ele>
        <time>2019-01-08T20:24:39Z</time>
      </trkpt>
      <trkpt lat="50.16506" lon="5.59684">
        <ele>389</ele>
        <time>2019-01-08T20:25:39Z</time>
      </trkpt>
      <trkpt lat="50.16486" lon="5.59712">
        <ele>390</ele>
        <time>2019-01-08T20:26:39Z</time>
      </trkpt>
      <trkpt lat="50.16434" lon="5.59792">
        <ele>396</ele>
        <time>2019-01-08T20:27:39Z</time>
      </trkpt>
      <trkpt lat="50.16367" lon="5.5989">
        <ele>398</ele>
        <time>2019-01-08T20:28:39Z</time>
      </trkpt>
      <trkpt lat="50.16275" lon="5.60034">
        <ele>390</ele>
        <time>2019-01-08T20:29:39Z</time>
      </trkpt>
      <trkpt lat="50.16206" lon="5.60153">
        <ele>383</ele>
        <time>2019-01-08T20:30:39Z</time>
      </trkpt>
      <trkpt lat="50.16172" lon="5.60202">
        <ele>384</ele>
        <time>2019-01-08T20:31:39Z</time>
      </trkpt>
      <trkpt lat="50.16129" lon="5.60249">
        <ele>387</ele>
        <time>2019-01-08T20:32:39Z</time>
      </trkpt>
      <trkpt lat="50.161" lon="5.60285">
        <ele>388</ele>
        <time>2019-01-08T20:33:39Z</time>
      </trkpt>
      <trkpt lat="50.16065" lon="5.60346">
        <ele>388</ele>
        <time>2019-01-08T20:34:39Z</time>
      </trkpt>
      <trkpt lat="50.15996" lon="5.60474">
        <ele>385</ele>
        <time>2019-01-08T20:35:39Z</time>
      </trkpt>
      <trkpt lat="50.15952" lon="5.60559">
        <ele>380</ele>
        <time>2019-01-08T20:36:39Z</time>
      </trkpt>
      <trkpt lat="50.15889" lon="5.60726">
        <ele>378</ele>
        <time>2019-01-08T20:37:39Z</time>
      </trkpt>
      <trkpt lat="50.1587" lon="5.60768">
        <ele>378</ele>
        <time>2019-01-08T20:38:39Z</time>
      </trkpt>
      <trkpt lat="50.15858" lon="5.60789">
        <ele>378</ele>
        <time>2019-01-08T20:39:39Z</time>
      </trkpt>
      <trkpt lat="50.15844" lon="5.60807">
        <ele>378</ele>
        <time>2019-01-08T20:40:39Z</time>
      </trkpt>
      <trkpt lat="50.15823" lon="5.60828">
        <ele>378</ele>
        <time>2019-01-08T20:41:39Z</time>
      </trkpt>
      <trkpt lat="50.15799" lon="5.6086">
        <ele>378</ele>
        <time>2019-01-08T20:42:39Z</time>
      </trkpt>
      <trkpt lat="50.15776" lon="5.60896">
        <ele>378</ele>
        <time>2019-01-08T20:43:39Z</time>
      </trkpt>
      <trkpt lat="50.15742" lon="5.60964">
        <ele>377</ele>
        <time>2019-01-08T20:44:39Z</time>
      </trkpt>
      <trkpt lat="50.15704" lon="5.61058">
        <ele>377</ele>
        <time>2019-01-08T20:45:39Z</time>
      </trkpt>
      <trkpt lat="50.15692" lon="5.61086">
        <ele>377</ele>
        <time>2019-01-08T20:46:39Z</time>
      </trkpt>
      <trkpt lat="50.15678" lon="5.61105">
        <ele>377</ele>
        <time>2019-01-08T20:47:39Z</time>
      </trkpt>
      <trkpt lat="50.15603" lon="5.61181">
        <ele>380</ele>
        <time>2019-01-08T20:48:39Z</time>
      </trkpt>
      <trkpt lat="50.15524" lon="5.61259">
        <ele>385</ele>
        <time>2019-01-08T20:49:39Z</time>
      </trkpt>
      <trkpt lat="50.15506" lon="5.61277">
        <ele>387</ele>
        <time>2019-01-08T20:50:39Z</time>
      </trkpt>
      <trkpt lat="50.15485" lon="5.61287">
        <ele>388</ele>
        <time>2019-01-08T20:51:39Z</time>
      </trkpt>
      <trkpt lat="50.1545" lon="5.61305">
        <ele>391</ele>
        <time>2019-01-08T20:52:39Z</time>
      </trkpt>
      <trkpt lat="50.15408" lon="5.6133">
        <ele>394</ele>
        <time>2019-01-08T20:53:39Z</time>
      </trkpt>
      <trkpt lat="50.15377" lon="5.61364">
        <ele>397</ele>
        <time>2019-01-08T20:54:39Z</time>
      </trkpt>
      <trkpt lat="50.15331" lon="5.61414">
        <ele>401</ele>
        <time>2019-01-08T20:55:39Z</time>
      </trkpt>
      <trkpt lat="50.15273" lon="5.61477">
        <ele>404</ele>
        <time>2019-01-08T20:56:39Z</time>
      </trkpt>
      <trkpt lat="50.1522" lon="5.61536">
        <ele>404</ele>
        <time>2019-01-08T20:57:39Z</time>
      </trkpt>
      <trkpt lat="50.15202" lon="5.6155">
        <ele>404</ele>
        <time>2019-01-08T20:58:39Z</time>
      </trkpt>
      <trkpt lat="50.15181" lon="5.61559">
        <ele>404</ele>
        <time>2019-01-08T20:59:39Z</time>
      </trkpt>
      <trkpt lat="50.15167" lon="5.61562">
        <ele>404</ele>
        <time>2019-01-08T21:00:39Z</time>
      </trkpt>
      <trkpt lat="50.14992" lon="5.61577">
        <ele>393</ele>
        <time>2019-01-08T21:01:39Z</time>
      </trkpt>
      <trkpt lat="50.14975" lon="5.61581">
        <ele>393</ele>
        <time>2019-01-08T21:02:39Z</time>
      </trkpt>
      <trkpt lat="50.1496" lon="5.61588">
        <ele>392</ele>
        <time>2019-01-08T21:03:39Z</time>
      </trkpt>
      <trkpt lat="50.14944" lon="5.61599">
        <ele>392</ele>
        <time>2019-01-08T21:04:39Z</time>
      </trkpt>
      <trkpt lat="50.14884" lon="5.6164">
        <ele>392</ele>
        <time>2019-01-08T21:05:39Z</time>
      </trkpt>
      <trkpt lat="50.14798" lon="5.61699">
        <ele>393</ele>
        <time>2019-01-08T21:06:39Z</time>
      </trkpt>
      <trkpt lat="50.14717" lon="5.61754">
        <ele>394</ele>
        <time>2019-01-08T21:07:39Z</time>
      </trkpt>
      <trkpt lat="50.1468" lon="5.61774">
        <ele>394</ele>
        <time>2019-01-08T21:08:39Z</time>
      </trkpt>
      <trkpt lat="50.14624" lon="5.61798">
        <ele>394</ele>
        <time>2019-01-08T21:09:39Z</time>
      </trkpt>
      <trkpt lat="50.1453" lon="5.61835">
        <ele>393</ele>
        <time>2019-01-08T21:10:39Z</time>
      </trkpt>
      <trkpt lat="50.14438" lon="5.61889">
        <ele>395</ele>
        <time>2019-01-08T21:11:39Z</time>
      </trkpt>
      <trkpt lat="50.14306" lon="5.61958">
        <ele>403</ele>
        <time>2019-01-08T21:12:39Z</time>
      </trkpt>
      <trkpt lat="50.14176" lon="5.62026">
        <ele>411</ele>
        <time>2019-01-08T21:13:39Z</time>
      </trkpt>
      <trkpt lat="50.14083" lon="5.62074">
        <ele>420</ele>
        <time>2019-01-08T21:14:39Z</time>
      </trkpt>
      <trkpt lat="50.14004" lon="5.62116">
        <ele>424</ele>
        <time>2019-01-08T21:15:39Z</time>
      </trkpt>
      <trkpt lat="50.13906" lon="5.62165">
        <ele>422</ele>
        <time>2019-01-08T21:16:39Z</time>
      </trkpt>
      <trkpt lat="50.13853" lon="5.62195">
        <ele>423</ele>
        <time>2019-01-08T21:17:39Z</time>
      </trkpt>
      <trkpt lat="50.13829" lon="5.62214">
        <ele>423</ele>
        <time>2019-01-08T21:18:39Z</time>
      </trkpt>
      <trkpt lat="50.13801" lon="5.62243">
        <ele>423</ele>
        <time>2019-01-08T21:19:39Z</time>
      </trkpt>
      <trkpt lat="50.13787" lon="5.62257">
        <ele>424</ele>
        <time>2019-01-08T21:20:39Z</time>
      </trkpt>
      <trkpt lat="50.13768" lon="5.62268">
        <ele>425</ele>
        <time>2019-01-08T21:21:39Z</time>
      </trkpt>
      <trkpt lat="50.13748" lon="5.62275">
        <ele>426</ele>
        <time>2019-01-08T21:22:39Z</time>
      </trkpt>
      <trkpt lat="50.13727" lon="5.62278">
        <ele>428</ele>
        <time>2019-01-08T21:23:39Z</time>
      </trkpt>
      <trkpt lat="50.13706" lon="5.62276">
        <ele>429</ele>
        <time>2019-01-08T21:24:39Z</time>
      </trkpt>
      <trkpt lat="50.13687" lon="5.62266">
        <ele>430</ele>
        <time>2019-01-08T21:25:39Z</time>
      </trkpt>
      <trkpt lat="50.13669" lon="5.62252">
        <ele>432</ele>
        <time>2019-01-08T21:26:39Z</time>
      </trkpt>
      <trkpt lat="50.13652" lon="5.62237">
        <ele>433</ele>
        <time>2019-01-08T21:27:39Z</time>
      </trkpt>
      <trkpt lat="50.13636" lon="5.62219">
        <ele>433</ele>
        <time>2019-01-08T21:28:39Z</time>
      </trkpt>
      <trkpt lat="50.1362" lon="5.622">
        <ele>434</ele>
        <time>2019-01-08T21:29:39Z</time>
      </trkpt>
      <trkpt lat="50.13517" lon="5.62088">
        <ele>436</ele>
        <time>2019-01-08T21:30:39Z</time>
      </trkpt>
      <trkpt lat="50.13445" lon="5.62032">
        <ele>436</ele>
        <time>2019-01-08T21:31:39Z</time>
      </trkpt>
      <trkpt lat="50.13352" lon="5.61959">
        <ele>435</ele>
        <time>2019-01-08T21:32:39Z</time>
      </trkpt>
      <trkpt lat="50.13285" lon="5.61907">
        <ele>434</ele>
        <time>2019-01-08T21:33:39Z</time>
      </trkpt>
      <trkpt lat="50.13228" lon="5.61869">
        <ele>434</ele>
        <time>2019-01-08T21:34:39Z</time>
      </trkpt>
      <trkpt lat="50.13181" lon="5.61852">
        <ele>434</ele>
        <time>2019-01-08T21:35:39Z</time>
      </trkpt>
      <trkpt lat="50.13116" lon="5.61835">
        <ele>433</ele>
        <time>2019-01-08T21:36:39Z</time>
      </trkpt>
      <trkpt lat="50.12986" lon="5.61807">
        <ele>434</ele>
        <time>2019-01-08T21:37:39Z</time>
      </trkpt>
      <trkpt lat="50.12949" lon="5.61795">
        <ele>433</ele>
        <time>2019-01-08T21:38:39Z</time>
      </trkpt>
      <trkpt lat="50.1293" lon="5.61786">
        <ele>433</ele>
        <time>2019-01-08T21:39:39Z</time>
      </trkpt>
      <trkpt lat="50.12913" lon="5.61773">
        <ele>433</ele>
        <time>2019-01-08T21:40:39Z</time>
      </trkpt>
      <trkpt lat="50.12896" lon="5.61759">
        <ele>432</ele>
        <time>2019-01-08T21:41:39Z</time>
      </trkpt>
      <trkpt lat="50.12821" lon="5.61697">
        <ele>430</ele>
        <time>2019-01-08T21:42:39Z</time>
      </trkpt>
      <trkpt lat="50.12775" lon="5.61654">
        <ele>427</ele>
        <time>2019-01-08T21:43:39Z</time>
      </trkpt>
      <trkpt lat="50.12702" lon="5.61565">
        <ele>423</ele>
        <time>2019-01-08T21:44:39Z</time>
      </trkpt>
      <trkpt lat="50.12681" lon="5.61538">
        <ele>421</ele>
        <time>2019-01-08T21:45:39Z</time>
      </trkpt>
      <trkpt lat="50.12653" lon="5.61514">
        <ele>420</ele>
        <time>2019-01-08T21:46:39Z</time>
      </trkpt>
      <trkpt lat="50.12644" lon="5.6151">
        <ele>419</ele>
        <time>2019-01-08T21:47:39Z</time>
      </trkpt>
      <trkpt lat="50.12627" lon="5.61503">
        <ele>419</ele>
        <time>2019-01-08T21:48:39Z</time>
      </trkpt>
      <trkpt lat="50.12602" lon="5.61495">
        <ele>418</ele>
        <time>2019-01-08T21:49:39Z</time>
      </trkpt>
      <trkpt lat="50.12587" lon="5.61492">
        <ele>417</ele>
        <time>2019-01-08T21:50:39Z</time>
      </trkpt>
      <trkpt lat="50.12568" lon="5.61493">
        <ele>416</ele>
        <time>2019-01-08T21:51:39Z</time>
      </trkpt>
      <trkpt lat="50.12545" lon="5.61497">
        <ele>416</ele>
        <time>2019-01-08T21:52:39Z</time>
      </trkpt>
      <trkpt lat="50.12526" lon="5.61503">
        <ele>415</ele>
        <time>2019-01-08T21:53:39Z</time>
      </trkpt>
      <trkpt lat="50.1252" lon="5.61497">
        <ele>415</ele>
        <time>2019-01-08T21:54:39Z</time>
      </trkpt>
      <trkpt lat="50.12515" lon="5.61494">
        <ele>415</ele>
        <time>2019-01-08T21:55:39Z</time>
      </trkpt>
      <trkpt lat="50.12509" lon="5.61496">
        <ele>414</ele>
        <time>2019-01-08T21:56:39Z</time>
      </trkpt>
      <trkpt lat="50.12505" lon="5.61505">
        <ele>414</ele>
        <time>2019-01-08T21:57:39Z</time>
      </trkpt>
      <trkpt lat="50.12504" lon="5.61518">
        <ele>414</ele>
        <time>2019-01-08T21:58:39Z</time>
      </trkpt>
      <trkpt lat="50.12493" lon="5.61527">
        <ele>413</ele>
        <time>2019-01-08T21:59:39Z</time>
      </trkpt>
      <trkpt lat="50.12473" lon="5.61547">
        <ele>411</ele>
        <time>2019-01-08T22:00:39Z</time>
      </trkpt>
      <trkpt lat="50.12439" lon="5.61598">
        <ele>407</ele>
        <time>2019-01-08T22:01:39Z</time>
      </trkpt>
      <trkpt lat="50.12396" lon="5.61683">
        <ele>405</ele>
        <time>2019-01-08T22:02:39Z</time>
      </trkpt>
      <trkpt lat="50.12339" lon="5.618">
        <ele>403</ele>
        <time>2019-01-08T22:03:39Z</time>
      </trkpt>
      <trkpt lat="50.12298" lon="5.61885">
        <ele>405</ele>
        <time>2019-01-08T22:04:39Z</time>
      </trkpt>
      <trkpt lat="50.12282" lon="5.61912">
        <ele>407</ele>
        <time>2019-01-08T22:05:39Z</time>
      </trkpt>
      <trkpt lat="50.12267" lon="5.61941">
        <ele>408</ele>
        <time>2019-01-08T22:06:39Z</time>
      </trkpt>
      <trkpt lat="50.12251" lon="5.61965">
        <ele>409</ele>
        <time>2019-01-08T22:07:39Z</time>
      </trkpt>
      <trkpt lat="50.12234" lon="5.61985">
        <ele>410</ele>
        <time>2019-01-08T22:08:39Z</time>
      </trkpt>
      <trkpt lat="50.12214" lon="5.62003">
        <ele>410</ele>
        <time>2019-01-08T22:09:39Z</time>
      </trkpt>
      <trkpt lat="50.12196" lon="5.62019">
        <ele>410</ele>
        <time>2019-01-08T22:10:39Z</time>
      </trkpt>
      <trkpt lat="50.12177" lon="5.62034">
        <ele>410</ele>
        <time>2019-01-08T22:11:39Z</time>
      </trkpt>
      <trkpt lat="50.12086" lon="5.62088">
        <ele>407</ele>
        <time>2019-01-08T22:12:39Z</time>
      </trkpt>
      <trkpt lat="50.11999" lon="5.62141">
        <ele>400</ele>
        <time>2019-01-08T22:13:39Z</time>
      </trkpt>
      <trkpt lat="50.11882" lon="5.6221">
        <ele>393</ele>
        <time>2019-01-08T22:14:39Z</time>
      </trkpt>
      <trkpt lat="50.11855" lon="5.62228">
        <ele>392</ele>
        <time>2019-01-08T22:15:39Z</time>
      </trkpt>
      <trkpt lat="50.11836" lon="5.62246">
        <ele>392</ele>
        <time>2019-01-08T22:16:39Z</time>
      </trkpt>
      <trkpt lat="50.11813" lon="5.62271">
        <ele>393</ele>
        <time>2019-01-08T22:17:39Z</time>
      </trkpt>
      <trkpt lat="50.11792" lon="5.62298">
        <ele>393</ele>
        <time>2019-01-08T22:18:39Z</time>
      </trkpt>
      <trkpt lat="50.1176" lon="5.62352">
        <ele>391</ele>
        <time>2019-01-08T22:19:39Z</time>
      </trkpt>
      <trkpt lat="50.11729" lon="5.62409">
        <ele>392</ele>
        <time>2019-01-08T22:20:39Z</time>
      </trkpt>
      <trkpt lat="50.11718" lon="5.62424">
        <ele>392</ele>
        <time>2019-01-08T22:21:39Z</time>
      </trkpt>
      <trkpt lat="50.11701" lon="5.62445">
        <ele>392</ele>
        <time>2019-01-08T22:22:39Z</time>
      </trkpt>
      <trkpt lat="50.11671" lon="5.62477">
        <ele>390</ele>
        <time>2019-01-08T22:23:39Z</time>
      </trkpt>
      <trkpt lat="50.11568" lon="5.62586">
        <ele>387</ele>
        <time>2019-01-08T22:24:39Z</time>
      </trkpt>
      <trkpt lat="50.11536" lon="5.62624">
        <ele>390</ele>
        <time>2019-01-08T22:25:39Z</time>
      </trkpt>
      <trkpt lat="50.11506" lon="5.62664">
        <ele>388</ele>
        <time>2019-01-08T22:26:39Z</time>
      </trkpt>
      <trkpt lat="50.11474" lon="5.62716">
        <ele>386</ele>
        <time>2019-01-08T22:27:39Z</time>
      </trkpt>
      <trkpt lat="50.11422" lon="5.62819">
        <ele>379</ele>
        <time>2019-01-08T22:28:39Z</time>
      </trkpt>
      <trkpt lat="50.11401" lon="5.62855">
        <ele>376</ele>
        <time>2019-01-08T22:29:39Z</time>
      </trkpt>
      <trkpt lat="50.11388" lon="5.62874">
        <ele>375</ele>
        <time>2019-01-08T22:30:39Z</time>
      </trkpt>
      <trkpt lat="50.11377" lon="5.62881">
        <ele>375</ele>
        <time>2019-01-08T22:31:39Z</time>
      </trkpt>
      <trkpt lat="50.11355" lon="5.62894">
        <ele>375</ele>
        <time>2019-01-08T22:32:39Z</time>
      </trkpt>
      <trkpt lat="50.11337" lon="5.62894">
        <ele>376</ele>
        <time>2019-01-08T22:33:39Z</time>
      </trkpt>
      <trkpt lat="50.11319" lon="5.62893">
        <ele>375</ele>
        <time>2019-01-08T22:34:39Z</time>
      </trkpt>
      <trkpt lat="50.11301" lon="5.62889">
        <ele>375</ele>
        <time>2019-01-08T22:35:39Z</time>
      </trkpt>
      <trkpt lat="50.11284" lon="5.62879">
        <ele>375</ele>
        <time>2019-01-08T22:36:39Z</time>
      </trkpt>
      <trkpt lat="50.11268" lon="5.62868">
        <ele>376</ele>
        <time>2019-01-08T22:37:39Z</time>
      </trkpt>
      <trkpt lat="50.11251" lon="5.62857">
        <ele>376</ele>
        <time>2019-01-08T22:38:39Z</time>
      </trkpt>
      <trkpt lat="50.11242" lon="5.62854">
        <ele>376</ele>
        <time>2019-01-08T22:39:39Z</time>
      </trkpt>
      <trkpt lat="50.11223" lon="5.62851">
        <ele>376</ele>
        <time>2019-01-08T22:40:39Z</time>
      </trkpt>
      <trkpt lat="50.11207" lon="5.62852">
        <ele>376</ele>
        <time>2019-01-08T22:41:39Z</time>
      </trkpt>
      <trkpt lat="50.1115" lon="5.62861">
        <ele>374</ele>
        <time>2019-01-08T22:42:39Z</time>
      </trkpt>
      <trkpt lat="50.11027" lon="5.62883">
        <ele>375</ele>
        <time>2019-01-08T22:43:39Z</time>
      </trkpt>
      <trkpt lat="50.11008" lon="5.62889">
        <ele>374</ele>
        <time>2019-01-08T22:44:39Z</time>
      </trkpt>
      <trkpt lat="50.10989" lon="5.62901">
        <ele>372</ele>
        <time>2019-01-08T22:45:39Z</time>
      </trkpt>
      <trkpt lat="50.10971" lon="5.62912">
        <ele>370</ele>
        <time>2019-01-08T22:46:39Z</time>
      </trkpt>
      <trkpt lat="50.10948" lon="5.62932">
        <ele>369</ele>
        <time>2019-01-08T22:47:39Z</time>
      </trkpt>
      <trkpt lat="50.10927" lon="5.62958">
        <ele>367</ele>
        <time>2019-01-08T22:48:39Z</time>
      </trkpt>
      <trkpt lat="50.10909" lon="5.62983">
        <ele>363</ele>
        <time>2019-01-08T22:49:39Z</time>
      </trkpt>
      <trkpt lat="50.10873" lon="5.63033">
        <ele>360</ele>
        <time>2019-01-08T22:50:39Z</time>
      </trkpt>
      <trkpt lat="50.10821" lon="5.63109">
        <ele>357</ele>
        <time>2019-01-08T22:51:39Z</time>
      </trkpt>
      <trkpt lat="50.10763" lon="5.63188">
        <ele>354</ele>
        <time>2019-01-08T22:52:39Z</time>
      </trkpt>
      <trkpt lat="50.10712" lon="5.6327">
        <ele>356</ele>
        <time>2019-01-08T22:53:39Z</time>
      </trkpt>
      <trkpt lat="50.10685" lon="5.63329">
        <ele>352</ele>
        <time>2019-01-08T22:54:39Z</time>
      </trkpt>
      <trkpt lat="50.10653" lon="5.63407">
        <ele>349</ele>
        <time>2019-01-08T22:55:39Z</time>
      </trkpt>
      <trkpt lat="50.10619" lon="5.63495">
        <ele>352</ele>
        <time>2019-01-08T22:56:39Z</time>
      </trkpt>
      <trkpt lat="50.10581" lon="5.63598">
        <ele>350</ele>
        <time>2019-01-08T22:57:39Z</time>
      </trkpt>
      <trkpt lat="50.10571" lon="5.63635">
        <ele>350</ele>
        <time>2019-01-08T22:58:39Z</time>
      </trkpt>
      <trkpt lat="50.10566" lon="5.63667">
        <ele>350</ele>
        <time>2019-01-08T22:59:39Z</time>
      </trkpt>
      <trkpt lat="50.10565" lon="5.63702">
        <ele>350</ele>
        <time>2019-01-08T23:00:39Z</time>
      </trkpt>
      <trkpt lat="50.10567" lon="5.63736">
        <ele>350</ele>
        <time>2019-01-08T23:01:39Z</time>
      </trkpt>
      <trkpt lat="50.10571" lon="5.63757">
        <ele>348</ele>
        <time>2019-01-08T23:02:39Z</time>
      </trkpt>
      <trkpt lat="50.10576" lon="5.63779">
        <ele>346</ele>
        <time>2019-01-08T23:03:39Z</time>
      </trkpt>
      <trkpt lat="50.10584" lon="5.6381">
        <ele>344</ele>
        <time>2019-01-08T23:04:39Z</time>
      </trkpt>
      <trkpt lat="50.10593" lon="5.63847">
        <ele>343</ele>
        <time>2019-01-08T23:05:39Z</time>
      </trkpt>
      <trkpt lat="50.10597" lon="5.63875">
        <ele>341</ele>
        <time>2019-01-08T23:06:39Z</time>
      </trkpt>
      <trkpt lat="50.10599" lon="5.63895">
        <ele>340</ele>
        <time>2019-01-08T23:07:39Z</time>
      </trkpt>
      <trkpt lat="50.106" lon="5.63913">
        <ele>339</ele>
        <time>2019-01-08T23:08:39Z</time>
      </trkpt>
      <trkpt lat="50.10599" lon="5.63932">
        <ele>337</ele>
        <time>2019-01-08T23:09:39Z</time>
      </trkpt>
      <trkpt lat="50.10594" lon="5.63949">
        <ele>335</ele>
        <time>2019-01-08T23:10:39Z</time>
      </trkpt>
      <trkpt lat="50.10584" lon="5.6397">
        <ele>333</ele>
        <time>2019-01-08T23:11:39Z</time>
      </trkpt>
      <trkpt lat="50.10576" lon="5.6398">
        <ele>332</ele>
        <time>2019-01-08T23:12:39Z</time>
      </trkpt>
      <trkpt lat="50.10567" lon="5.63991">
        <ele>331</ele>
        <time>2019-01-08T23:13:39Z</time>
      </trkpt>
      <trkpt lat="50.1055" lon="5.64005">
        <ele>330</ele>
        <time>2019-01-08T23:14:39Z</time>
      </trkpt>
      <trkpt lat="50.10482" lon="5.64063">
        <ele>325</ele>
        <time>2019-01-08T23:15:39Z</time>
      </trkpt>
      <trkpt lat="50.10432" lon="5.64099">
        <ele>323</ele>
        <time>2019-01-08T23:16:39Z</time>
      </trkpt>
      <trkpt lat="50.10396" lon="5.64123">
        <ele>322</ele>
        <time>2019-01-08T23:17:39Z</time>
      </trkpt>
      <trkpt lat="50.10349" lon="5.64147">
        <ele>320</ele>
        <time>2019-01-08T23:18:39Z</time>
      </trkpt>
      <trkpt lat="50.10328" lon="5.64159">
        <ele>319</ele>
        <time>2019-01-08T23:19:39Z</time>
      </trkpt>
      <trkpt lat="50.10313" lon="5.64172">
        <ele>319</ele>
        <time>2019-01-08T23:20:39Z</time>
      </trkpt>
      <trkpt lat="50.10299" lon="5.64194">
        <ele>320</ele>
        <time>2019-01-08T23:21:39Z</time>
      </trkpt>
      <trkpt lat="50.10287" lon="5.64215">
        <ele>319</ele>
        <time>2019-01-08T23:22:39Z</time>
      </trkpt>
      <trkpt lat="50.10277" lon="5.64242">
        <ele>316</ele>
        <time>2019-01-08T23:23:39Z</time>
      </trkpt>
      <trkpt lat="50.10271" lon="5.64268">
        <ele>315</ele>
        <time>2019-01-08T23:24:39Z</time>
      </trkpt>
      <trkpt lat="50.10266" lon="5.64306">
        <ele>315</ele>
        <time>2019-01-08T23:25:39Z</time>
      </trkpt>
      <trkpt lat="50.10268" lon="5.64334">
        <ele>315</ele>
        <time>2019-01-08T23:26:39Z</time>
      </trkpt>
      <trkpt lat="50.10271" lon="5.64362">
        <ele>314</ele>
        <time>2019-01-08T23:27:39Z</time>
      </trkpt>
      <trkpt lat="50.10276" lon="5.64387">
        <ele>313</ele>
        <time>2019-01-08T23:28:39Z</time>
      </trkpt>
      <trkpt lat="50.10285" lon="5.6441">
        <ele>313</ele>
        <time>2019-01-08T23:29:39Z</time>
      </trkpt>
      <trkpt lat="50.10294" lon="5.64432">
        <ele>312</ele>
        <time>2019-01-08T23:30:39Z</time>
      </trkpt>
      <trkpt lat="50.10305" lon="5.64451">
        <ele>310</ele>
        <time>2019-01-08T23:31:39Z</time>
      </trkpt>
      <trkpt lat="50.10317" lon="5.64468">
        <ele>309</ele>
        <time>2019-01-08T23:32:39Z</time>
      </trkpt>
      <trkpt lat="50.10327" lon="5.64476">
        <ele>309</ele>
        <time>2019-01-08T23:33:39Z</time>
      </trkpt>
      <trkpt lat="50.10351" lon="5.6449">
        <ele>308</ele>
        <time>2019-01-08T23:34:39Z</time>
      </trkpt>
      <trkpt lat="50.1038" lon="5.64498">
        <ele>309</ele>
        <time>2019-01-08T23:35:39Z</time>
      </trkpt>
      <trkpt lat="50.10455" lon="5.64499">
        <ele>309</ele>
        <time>2019-01-08T23:36:39Z</time>
      </trkpt>
      <trkpt lat="50.10556" lon="5.64502">
        <ele>306</ele>
        <time>2019-01-08T23:37:39Z</time>
      </trkpt>
      <trkpt lat="50.1058" lon="5.64505">
        <ele>306</ele>
        <time>2019-01-08T23:38:39Z</time>
      </trkpt>
      <trkpt lat="50.10603" lon="5.64516">
        <ele>308</ele>
        <time>2019-01-08T23:39:39Z</time>
      </trkpt>
      <trkpt lat="50.10628" lon="5.64538">
        <ele>310</ele>
        <time>2019-01-08T23:40:39Z</time>
      </trkpt>
      <trkpt lat="50.10644" lon="5.64556">
        <ele>310</ele>
        <time>2019-01-08T23:41:39Z</time>
      </trkpt>
      <trkpt lat="50.10651" lon="5.64569">
        <ele>308</ele>
        <time>2019-01-08T23:42:39Z</time>
      </trkpt>
      <trkpt lat="50.10667" lon="5.64601">
        <ele>308</ele>
        <time>2019-01-08T23:43:39Z</time>
      </trkpt>
      <trkpt lat="50.1069" lon="5.6464">
        <ele>311</ele>
        <time>2019-01-08T23:44:39Z</time>
      </trkpt>
      <trkpt lat="50.10759" lon="5.64759">
        <ele>307</ele>
        <time>2019-01-08T23:45:39Z</time>
      </trkpt>
      <trkpt lat="50.10802" lon="5.64838">
        <ele>310</ele>
        <time>2019-01-08T23:46:39Z</time>
      </trkpt>
      <trkpt lat="50.10815" lon="5.64867">
        <ele>309</ele>
        <time>2019-01-08T23:47:39Z</time>
      </trkpt>
      <trkpt lat="50.10824" lon="5.64897">
        <ele>308</ele>
        <time>2019-01-08T23:48:39Z</time>
      </trkpt>
      <trkpt lat="50.1083" lon="5.64925">
        <ele>307</ele>
        <time>2019-01-08T23:49:39Z</time>
      </trkpt>
      <trkpt lat="50.10834" lon="5.64955">
        <ele>307</ele>
        <time>2019-01-08T23:50:39Z</time>
      </trkpt>
      <trkpt lat="50.10836" lon="5.64981">
        <ele>308</ele>
        <time>2019-01-08T23:51:39Z</time>
      </trkpt>
      <trkpt lat="50.10835" lon="5.65008">
        <ele>308</ele>
        <time>2019-01-08T23:52:39Z</time>
      </trkpt>
      <trkpt lat="50.10833" lon="5.65035">
        <ele>308</ele>
        <time>2019-01-08T23:53:39Z</time>
      </trkpt>
      <trkpt lat="50.10829" lon="5.65062">
        <ele>308</ele>
        <time>2019-01-08T23:54:39Z</time>
      </trkpt>
      <trkpt lat="50.10816" lon="5.65107">
        <ele>308</ele>
        <time>2019-01-08T23:55:39Z</time>
      </trkpt>
      <trkpt lat="50.10822" lon="5.65085">
        <ele>308</ele>
        <time>2019-01-08T23:56:39Z</time>
      </trkpt>
      <trkpt lat="50.10807" lon="5.65129">
        <ele>308</ele>
        <time>2019-01-08T23:57:39Z</time>
      </trkpt>
      <trkpt lat="50.10796" lon="5.65149">
        <ele>307</ele>
        <time>2019-01-08T23:58:39Z</time>
      </trkpt>
      <trkpt lat="50.10781" lon="5.65175">
        <ele>307</ele>
        <time>2019-01-08T23:59:39Z</time>
      </trkpt>
      <trkpt lat="50.10764" lon="5.65193">
        <ele>307</ele>
        <time>2019-01-09T00:00:39Z</time>
      </trkpt>
      <trkpt lat="50.10748" lon="5.65208">
        <ele>307</ele>
        <time>2019-01-09T00:01:39Z</time>
      </trkpt>
      <trkpt lat="50.1073" lon="5.65219">
        <ele>306</ele>
        <time>2019-01-09T00:02:39Z</time>
      </trkpt>
      <trkpt lat="50.10709" lon="5.65226">
        <ele>306</ele>
        <time>2019-01-09T00:03:39Z</time>
      </trkpt>
      <trkpt lat="50.10686" lon="5.65231">
        <ele>305</ele>
        <time>2019-01-09T00:04:39Z</time>
      </trkpt>
      <trkpt lat="50.10672" lon="5.65233">
        <ele>305</ele>
        <time>2019-01-09T00:05:39Z</time>
      </trkpt>
      <trkpt lat="50.10628" lon="5.65224">
        <ele>308</ele>
        <time>2019-01-09T00:06:39Z</time>
      </trkpt>
      <trkpt lat="50.10608" lon="5.65219">
        <ele>310</ele>
        <time>2019-01-09T00:07:39Z</time>
      </trkpt>
      <trkpt lat="50.10535" lon="5.65204">
        <ele>313</ele>
        <time>2019-01-09T00:08:39Z</time>
      </trkpt>
      <trkpt lat="50.10495" lon="5.65197">
        <ele>313</ele>
        <time>2019-01-09T00:09:39Z</time>
      </trkpt>
      <trkpt lat="50.10433" lon="5.65195">
        <ele>319</ele>
        <time>2019-01-09T00:10:39Z</time>
      </trkpt>
      <trkpt lat="50.10413" lon="5.65202">
        <ele>320</ele>
        <time>2019-01-09T00:11:39Z</time>
      </trkpt>
      <trkpt lat="50.10387" lon="5.65223">
        <ele>322</ele>
        <time>2019-01-09T00:12:39Z</time>
      </trkpt>
      <trkpt lat="50.10344" lon="5.65262">
        <ele>324</ele>
        <time>2019-01-09T00:13:39Z</time>
      </trkpt>
      <trkpt lat="50.10326" lon="5.65285">
        <ele>325</ele>
        <time>2019-01-09T00:14:39Z</time>
      </trkpt>
      <trkpt lat="50.10312" lon="5.65307">
        <ele>326</ele>
        <time>2019-01-09T00:15:39Z</time>
      </trkpt>
      <trkpt lat="50.10303" lon="5.65325">
        <ele>327</ele>
        <time>2019-01-09T00:16:39Z</time>
      </trkpt>
      <trkpt lat="50.10295" lon="5.65348">
        <ele>328</ele>
        <time>2019-01-09T00:17:39Z</time>
      </trkpt>
      <trkpt lat="50.10285" lon="5.6537">
        <ele>331</ele>
        <time>2019-01-09T00:18:39Z</time>
      </trkpt>
      <trkpt lat="50.10279" lon="5.65393">
        <ele>332</ele>
        <time>2019-01-09T00:19:39Z</time>
      </trkpt>
      <trkpt lat="50.10273" lon="5.65417">
        <ele>333</ele>
        <time>2019-01-09T00:20:39Z</time>
      </trkpt>
      <trkpt lat="50.10271" lon="5.65441">
        <ele>334</ele>
        <time>2019-01-09T00:21:39Z</time>
      </trkpt>
      <trkpt lat="50.1027" lon="5.65468">
        <ele>333</ele>
        <time>2019-01-09T00:22:39Z</time>
      </trkpt>
      <trkpt lat="50.10271" lon="5.65494">
        <ele>332</ele>
        <time>2019-01-09T00:23:39Z</time>
      </trkpt>
      <trkpt lat="50.10276" lon="5.65543">
        <ele>332</ele>
        <time>2019-01-09T00:24:39Z</time>
      </trkpt>
      <trkpt lat="50.10283" lon="5.6558">
        <ele>330</ele>
        <time>2019-01-09T00:25:39Z</time>
      </trkpt>
      <trkpt lat="50.103" lon="5.65634">
        <ele>328</ele>
        <time>2019-01-09T00:26:39Z</time>
      </trkpt>
      <trkpt lat="50.1033" lon="5.65702">
        <ele>323</ele>
        <time>2019-01-09T00:27:39Z</time>
      </trkpt>
      <trkpt lat="50.10368" lon="5.65761">
        <ele>324</ele>
        <time>2019-01-09T00:28:39Z</time>
      </trkpt>
      <trkpt lat="50.10393" lon="5.658">
        <ele>324</ele>
        <time>2019-01-09T00:29:39Z</time>
      </trkpt>
      <trkpt lat="50.1042" lon="5.65829">
        <ele>318</ele>
        <time>2019-01-09T00:30:39Z</time>
      </trkpt>
      <trkpt lat="50.10455" lon="5.65862">
        <ele>321</ele>
        <time>2019-01-09T00:31:39Z</time>
      </trkpt>
      <trkpt lat="50.10489" lon="5.65887">
        <ele>319</ele>
        <time>2019-01-09T00:32:39Z</time>
      </trkpt>
      <trkpt lat="50.10518" lon="5.65901">
        <ele>316</ele>
        <time>2019-01-09T00:33:39Z</time>
      </trkpt>
      <trkpt lat="50.10539" lon="5.65903">
        <ele>312</ele>
        <time>2019-01-09T00:34:39Z</time>
      </trkpt>
      <trkpt lat="50.10551" lon="5.65908">
        <ele>311</ele>
        <time>2019-01-09T00:35:39Z</time>
      </trkpt>
      <trkpt lat="50.10562" lon="5.65921">
        <ele>310</ele>
        <time>2019-01-09T00:36:39Z</time>
      </trkpt>
      <trkpt lat="50.10566" lon="5.65943">
        <ele>312</ele>
        <time>2019-01-09T00:37:39Z</time>
      </trkpt>
      <trkpt lat="50.1057" lon="5.65968">
        <ele>314</ele>
        <time>2019-01-09T00:38:39Z</time>
      </trkpt>
      <trkpt lat="50.10572" lon="5.65989">
        <ele>316</ele>
        <time>2019-01-09T00:39:39Z</time>
      </trkpt>
      <trkpt lat="50.10573" lon="5.66011">
        <ele>317</ele>
        <time>2019-01-09T00:40:39Z</time>
      </trkpt>
      <trkpt lat="50.1057" lon="5.6605">
        <ele>319</ele>
        <time>2019-01-09T00:41:39Z</time>
      </trkpt>
      <trkpt lat="50.10554" lon="5.66126">
        <ele>326</ele>
        <time>2019-01-09T00:42:39Z</time>
      </trkpt>
      <trkpt lat="50.10518" lon="5.66286">
        <ele>334</ele>
        <time>2019-01-09T00:43:39Z</time>
      </trkpt>
      <trkpt lat="50.10502" lon="5.66332">
        <ele>331</ele>
        <time>2019-01-09T00:44:39Z</time>
      </trkpt>
      <trkpt lat="50.10484" lon="5.66372">
        <ele>334</ele>
        <time>2019-01-09T00:45:39Z</time>
      </trkpt>
      <trkpt lat="50.10461" lon="5.66411">
        <ele>336</ele>
        <time>2019-01-09T00:46:39Z</time>
      </trkpt>
      <trkpt lat="50.10435" lon="5.66465">
        <ele>339</ele>
        <time>2019-01-09T00:47:39Z</time>
      </trkpt>
      <trkpt lat="50.10417" lon="5.66507">
        <ele>337</ele>
        <time>2019-01-09T00:48:39Z</time>
      </trkpt>
      <trkpt lat="50.10398" lon="5.66564">
        <ele>346</ele>
        <time>2019-01-09T00:49:39Z</time>
      </trkpt>
      <trkpt lat="50.1039" lon="5.66611">
        <ele>349</ele>
        <time>2019-01-09T00:50:39Z</time>
      </trkpt>
      <trkpt lat="50.10387" lon="5.66666">
        <ele>352</ele>
        <time>2019-01-09T00:51:39Z</time>
      </trkpt>
      <trkpt lat="50.10383" lon="5.66775">
        <ele>356</ele>
        <time>2019-01-09T00:52:39Z</time>
      </trkpt>
      <trkpt lat="50.10384" lon="5.66869">
        <ele>360</ele>
        <time>2019-01-09T00:53:39Z</time>
      </trkpt>
      <trkpt lat="50.10385" lon="5.66902">
        <ele>360</ele>
        <time>2019-01-09T00:54:39Z</time>
      </trkpt>
      <trkpt lat="50.1038" lon="5.66945">
        <ele>360</ele>
        <time>2019-01-09T00:55:39Z</time>
      </trkpt>
      <trkpt lat="50.10371" lon="5.66985">
        <ele>361</ele>
        <time>2019-01-09T00:56:39Z</time>
      </trkpt>
      <trkpt lat="50.10357" lon="5.67036">
        <ele>361</ele>
        <time>2019-01-09T00:57:39Z</time>
      </trkpt>
      <trkpt lat="50.10329" lon="5.67133">
        <ele>357</ele>
        <time>2019-01-09T00:58:39Z</time>
      </trkpt>
      <trkpt lat="50.10319" lon="5.67154">
        <ele>357</ele>
        <time>2019-01-09T00:59:39Z</time>
      </trkpt>
      <trkpt lat="50.10304" lon="5.67169">
        <ele>359</ele>
        <time>2019-01-09T01:00:39Z</time>
      </trkpt>
      <trkpt lat="50.10205" lon="5.67246">
        <ele>367</ele>
        <time>2019-01-09T01:01:39Z</time>
      </trkpt>
      <trkpt lat="50.10187" lon="5.67265">
        <ele>370</ele>
        <time>2019-01-09T01:02:39Z</time>
      </trkpt>
      <trkpt lat="50.10163" lon="5.67303">
        <ele>370</ele>
        <time>2019-01-09T01:03:39Z</time>
      </trkpt>
      <trkpt lat="50.10148" lon="5.67328">
        <ele>369</ele>
        <time>2019-01-09T01:04:39Z</time>
      </trkpt>
      <trkpt lat="50.10132" lon="5.67347">
        <ele>371</ele>
        <time>2019-01-09T01:05:39Z</time>
      </trkpt>
      <trkpt lat="50.10116" lon="5.67358">
        <ele>374</ele>
        <time>2019-01-09T01:06:39Z</time>
      </trkpt>
      <trkpt lat="50.10101" lon="5.67363">
        <ele>375</ele>
        <time>2019-01-09T01:07:39Z</time>
      </trkpt>
      <trkpt lat="50.10084" lon="5.67363">
        <ele>376</ele>
        <time>2019-01-09T01:08:39Z</time>
      </trkpt>
      <trkpt lat="50.10066" lon="5.67354">
        <ele>376</ele>
        <time>2019-01-09T01:09:39Z</time>
      </trkpt>
      <trkpt lat="50.1005" lon="5.67345">
        <ele>375</ele>
        <time>2019-01-09T01:10:39Z</time>
      </trkpt>
      <trkpt lat="50.10025" lon="5.67332">
        <ele>374</ele>
        <time>2019-01-09T01:11:39Z</time>
      </trkpt>
      <trkpt lat="50.09979" lon="5.6732">
        <ele>377</ele>
        <time>2019-01-09T01:12:39Z</time>
      </trkpt>
      <trkpt lat="50.09949" lon="5.6732">
        <ele>379</ele>
        <time>2019-01-09T01:13:39Z</time>
      </trkpt>
      <trkpt lat="50.09919" lon="5.67324">
        <ele>380</ele>
        <time>2019-01-09T01:14:39Z</time>
      </trkpt>
      <trkpt lat="50.09904" lon="5.67327">
        <ele>382</ele>
        <time>2019-01-09T01:15:39Z</time>
      </trkpt>
      <trkpt lat="50.0989" lon="5.67336">
        <ele>383</ele>
        <time>2019-01-09T01:16:39Z</time>
      </trkpt>
      <trkpt lat="50.09865" lon="5.67356">
        <ele>385</ele>
        <time>2019-01-09T01:17:39Z</time>
      </trkpt>
      <trkpt lat="50.09847" lon="5.67378">
        <ele>383</ele>
        <time>2019-01-09T01:18:39Z</time>
      </trkpt>
      <trkpt lat="50.09829" lon="5.67407">
        <ele>379</ele>
        <time>2019-01-09T01:19:39Z</time>
      </trkpt>
      <trkpt lat="50.09819" lon="5.67427">
        <ele>379</ele>
        <time>2019-01-09T01:20:39Z</time>
      </trkpt>
      <trkpt lat="50.09809" lon="5.67448">
        <ele>379</ele>
        <time>2019-01-09T01:21:39Z</time>
      </trkpt>
      <trkpt lat="50.09799" lon="5.67475">
        <ele>379</ele>
        <time>2019-01-09T01:22:39Z</time>
      </trkpt>
      <trkpt lat="50.09794" lon="5.67498">
        <ele>379</ele>
        <time>2019-01-09T01:23:39Z</time>
      </trkpt>
      <trkpt lat="50.09791" lon="5.67525">
        <ele>379</ele>
        <time>2019-01-09T01:24:39Z</time>
      </trkpt>
      <trkpt lat="50.0979" lon="5.67565">
        <ele>378</ele>
        <time>2019-01-09T01:25:39Z</time>
      </trkpt>
      <trkpt lat="50.09787" lon="5.67582">
        <ele>378</ele>
        <time>2019-01-09T01:26:39Z</time>
      </trkpt>
      <trkpt lat="50.09775" lon="5.67602">
        <ele>379</ele>
        <time>2019-01-09T01:27:39Z</time>
      </trkpt>
      <trkpt lat="50.09767" lon="5.67609">
        <ele>379</ele>
        <time>2019-01-09T01:28:39Z</time>
      </trkpt>
      <trkpt lat="50.09757" lon="5.67614">
        <ele>379</ele>
        <time>2019-01-09T01:29:39Z</time>
      </trkpt>
      <trkpt lat="50.09742" lon="5.67608">
        <ele>380</ele>
        <time>2019-01-09T01:30:39Z</time>
      </trkpt>
      <trkpt lat="50.09728" lon="5.67595">
        <ele>381</ele>
        <time>2019-01-09T01:31:39Z</time>
      </trkpt>
      <trkpt lat="50.09707" lon="5.67574">
        <ele>383</ele>
        <time>2019-01-09T01:32:39Z</time>
      </trkpt>
      <trkpt lat="50.09684" lon="5.6755">
        <ele>388</ele>
        <time>2019-01-09T01:33:39Z</time>
      </trkpt>
      <trkpt lat="50.09654" lon="5.67529">
        <ele>393</ele>
        <time>2019-01-09T01:34:39Z</time>
      </trkpt>
      <trkpt lat="50.09627" lon="5.67517">
        <ele>394</ele>
        <time>2019-01-09T01:35:39Z</time>
      </trkpt>
      <trkpt lat="50.09599" lon="5.67504">
        <ele>394</ele>
        <time>2019-01-09T01:36:39Z</time>
      </trkpt>
      <trkpt lat="50.09553" lon="5.6749">
        <ele>396</ele>
        <time>2019-01-09T01:37:39Z</time>
      </trkpt>
      <trkpt lat="50.09512" lon="5.6748">
        <ele>397</ele>
        <time>2019-01-09T01:38:39Z</time>
      </trkpt>
      <trkpt lat="50.09488" lon="5.67475">
        <ele>397</ele>
        <time>2019-01-09T01:39:39Z</time>
      </trkpt>
      <trkpt lat="50.09447" lon="5.67453">
        <ele>399</ele>
        <time>2019-01-09T01:40:39Z</time>
      </trkpt>
      <trkpt lat="50.09429" lon="5.67445">
        <ele>399</ele>
        <time>2019-01-09T01:41:39Z</time>
      </trkpt>
      <trkpt lat="50.09407" lon="5.67438">
        <ele>398</ele>
        <time>2019-01-09T01:42:39Z</time>
      </trkpt>
      <trkpt lat="50.09386" lon="5.67431">
        <ele>398</ele>
        <time>2019-01-09T01:43:39Z</time>
      </trkpt>
      <trkpt lat="50.09371" lon="5.6743">
        <ele>397</ele>
        <time>2019-01-09T01:44:39Z</time>
      </trkpt>
      <trkpt lat="50.0935" lon="5.67432">
        <ele>396</ele>
        <time>2019-01-09T01:45:39Z</time>
      </trkpt>
      <trkpt lat="50.09331" lon="5.67438">
        <ele>394</ele>
        <time>2019-01-09T01:46:39Z</time>
      </trkpt>
      <trkpt lat="50.09316" lon="5.67445">
        <ele>395</ele>
        <time>2019-01-09T01:47:39Z</time>
      </trkpt>
      <trkpt lat="50.09292" lon="5.67466">
        <ele>394</ele>
        <time>2019-01-09T01:48:39Z</time>
      </trkpt>
      <trkpt lat="50.09274" lon="5.67485">
        <ele>393</ele>
        <time>2019-01-09T01:49:39Z</time>
      </trkpt>
      <trkpt lat="50.0926" lon="5.67499">
        <ele>392</ele>
        <time>2019-01-09T01:50:39Z</time>
      </trkpt>
      <trkpt lat="50.09245" lon="5.67509">
        <ele>391</ele>
        <time>2019-01-09T01:51:39Z</time>
      </trkpt>
      <trkpt lat="50.09226" lon="5.67513">
        <ele>391</ele>
        <time>2019-01-09T01:52:39Z</time>
      </trkpt>
      <trkpt lat="50.09212" lon="5.67513">
        <ele>391</ele>
        <time>2019-01-09T01:53:39Z</time>
      </trkpt>
      <trkpt lat="50.09193" lon="5.67506">
        <ele>391</ele>
        <time>2019-01-09T01:54:39Z</time>
      </trkpt>
      <trkpt lat="50.09169" lon="5.67497">
        <ele>391</ele>
        <time>2019-01-09T01:55:39Z</time>
      </trkpt>
      <trkpt lat="50.09152" lon="5.67488">
        <ele>392</ele>
        <time>2019-01-09T01:56:39Z</time>
      </trkpt>
      <trkpt lat="50.09136" lon="5.67477">
        <ele>392</ele>
        <time>2019-01-09T01:57:39Z</time>
      </trkpt>
      <trkpt lat="50.0912" lon="5.67462">
        <ele>393</ele>
        <time>2019-01-09T01:58:39Z</time>
      </trkpt>
      <trkpt lat="50.09109" lon="5.67447">
        <ele>393</ele>
        <time>2019-01-09T01:59:39Z</time>
      </trkpt>
      <trkpt lat="50.09098" lon="5.67428">
        <ele>392</ele>
        <time>2019-01-09T02:00:39Z</time>
      </trkpt>
      <trkpt lat="50.09072" lon="5.67383">
        <ele>393</ele>
        <time>2019-01-09T02:01:39Z</time>
      </trkpt>
      <trkpt lat="50.09034" lon="5.6731">
        <ele>395</ele>
        <time>2019-01-09T02:02:39Z</time>
      </trkpt>
      <trkpt lat="50.09014" lon="5.67258">
        <ele>396</ele>
        <time>2019-01-09T02:03:39Z</time>
      </trkpt>
      <trkpt lat="50.08999" lon="5.67226">
        <ele>397</ele>
        <time>2019-01-09T02:04:39Z</time>
      </trkpt>
      <trkpt lat="50.08984" lon="5.67207">
        <ele>399</ele>
        <time>2019-01-09T02:05:39Z</time>
      </trkpt>
      <trkpt lat="50.08964" lon="5.67182">
        <ele>399</ele>
        <time>2019-01-09T02:06:39Z</time>
      </trkpt>
      <trkpt lat="50.08897" lon="5.67101">
        <ele>404</ele>
        <time>2019-01-09T02:07:39Z</time>
      </trkpt>
      <trkpt lat="50.08868" lon="5.67063">
        <ele>405</ele>
        <time>2019-01-09T02:08:39Z</time>
      </trkpt>
      <trkpt lat="50.08835" lon="5.67017">
        <ele>405</ele>
        <time>2019-01-09T02:09:39Z</time>
      </trkpt>
      <trkpt lat="50.08818" lon="5.67">
        <ele>406</ele>
        <time>2019-01-09T02:10:39Z</time>
      </trkpt>
      <trkpt lat="50.08807" lon="5.66991">
        <ele>407</ele>
        <time>2019-01-09T02:11:39Z</time>
      </trkpt>
      <trkpt lat="50.08793" lon="5.6698">
        <ele>408</ele>
        <time>2019-01-09T02:12:39Z</time>
      </trkpt>
      <trkpt lat="50.0876" lon="5.66963">
        <ele>408</ele>
        <time>2019-01-09T02:13:39Z</time>
      </trkpt>
      <trkpt lat="50.08722" lon="5.66951">
        <ele>409</ele>
        <time>2019-01-09T02:14:39Z</time>
      </trkpt>
      <trkpt lat="50.08708" lon="5.6695">
        <ele>410</ele>
        <time>2019-01-09T02:15:39Z</time>
      </trkpt>
      <trkpt lat="50.08699" lon="5.6695">
        <ele>410</ele>
        <time>2019-01-09T02:16:39Z</time>
      </trkpt>
      <trkpt lat="50.08688" lon="5.66952">
        <ele>410</ele>
        <time>2019-01-09T02:17:39Z</time>
      </trkpt>
      <trkpt lat="50.08672" lon="5.66954">
        <ele>410</ele>
        <time>2019-01-09T02:18:39Z</time>
      </trkpt>
      <trkpt lat="50.08657" lon="5.66958">
        <ele>411</ele>
        <time>2019-01-09T02:19:39Z</time>
      </trkpt>
      <trkpt lat="50.08646" lon="5.66964">
        <ele>412</ele>
        <time>2019-01-09T02:20:39Z</time>
      </trkpt>
      <trkpt lat="50.08631" lon="5.66975">
        <ele>413</ele>
        <time>2019-01-09T02:21:39Z</time>
      </trkpt>
      <trkpt lat="50.08609" lon="5.67006">
        <ele>413</ele>
        <time>2019-01-09T02:22:39Z</time>
      </trkpt>
      <trkpt lat="50.08601" lon="5.6702">
        <ele>413</ele>
        <time>2019-01-09T02:23:39Z</time>
      </trkpt>
      <trkpt lat="50.08592" lon="5.67034">
        <ele>414</ele>
        <time>2019-01-09T02:24:39Z</time>
      </trkpt>
      <trkpt lat="50.08582" lon="5.67043">
        <ele>414</ele>
        <time>2019-01-09T02:25:39Z</time>
      </trkpt>
      <trkpt lat="50.08574" lon="5.67044">
        <ele>414</ele>
        <time>2019-01-09T02:26:39Z</time>
      </trkpt>
      <trkpt lat="50.08564" lon="5.67042">
        <ele>415</ele>
        <time>2019-01-09T02:27:39Z</time>
      </trkpt>
      <trkpt lat="50.08557" lon="5.67035">
        <ele>415</ele>
        <time>2019-01-09T02:28:39Z</time>
      </trkpt>
      <trkpt lat="50.08549" lon="5.67023">
        <ele>416</ele>
        <time>2019-01-09T02:29:39Z</time>
      </trkpt>
      <trkpt lat="50.08541" lon="5.67008">
        <ele>417</ele>
        <time>2019-01-09T02:30:39Z</time>
      </trkpt>
      <trkpt lat="50.08537" lon="5.66993">
        <ele>417</ele>
        <time>2019-01-09T02:31:39Z</time>
      </trkpt>
      <trkpt lat="50.08534" lon="5.66977">
        <ele>418</ele>
        <time>2019-01-09T02:32:39Z</time>
      </trkpt>
      <trkpt lat="50.0853" lon="5.66942">
        <ele>420</ele>
        <time>2019-01-09T02:33:39Z</time>
      </trkpt>
      <trkpt lat="50.08522" lon="5.6691">
        <ele>422</ele>
        <time>2019-01-09T02:34:39Z</time>
      </trkpt>
      <trkpt lat="50.08514" lon="5.66887">
        <ele>422</ele>
        <time>2019-01-09T02:35:39Z</time>
      </trkpt>
      <trkpt lat="50.08506" lon="5.66867">
        <ele>423</ele>
        <time>2019-01-09T02:36:39Z</time>
      </trkpt>
      <trkpt lat="50.08493" lon="5.66838">
        <ele>424</ele>
        <time>2019-01-09T02:37:39Z</time>
      </trkpt>
      <trkpt lat="50.08479" lon="5.66812">
        <ele>423</ele>
        <time>2019-01-09T02:38:39Z</time>
      </trkpt>
      <trkpt lat="50.08468" lon="5.66799">
        <ele>423</ele>
        <time>2019-01-09T02:39:39Z</time>
      </trkpt>
      <trkpt lat="50.08456" lon="5.66791">
        <ele>423</ele>
        <time>2019-01-09T02:40:39Z</time>
      </trkpt>
      <trkpt lat="50.08434" lon="5.66779">
        <ele>423</ele>
        <time>2019-01-09T02:41:39Z</time>
      </trkpt>
      <trkpt lat="50.0839" lon="5.66756">
        <ele>424</ele>
        <time>2019-01-09T02:42:39Z</time>
      </trkpt>
      <trkpt lat="50.08362" lon="5.66742">
        <ele>425</ele>
        <time>2019-01-09T02:43:39Z</time>
      </trkpt>
      <trkpt lat="50.08333" lon="5.66724">
        <ele>427</ele>
        <time>2019-01-09T02:44:39Z</time>
      </trkpt>
      <trkpt lat="50.08307" lon="5.66703">
        <ele>428</ele>
        <time>2019-01-09T02:45:39Z</time>
      </trkpt>
      <trkpt lat="50.08282" lon="5.66679">
        <ele>430</ele>
        <time>2019-01-09T02:46:39Z</time>
      </trkpt>
      <trkpt lat="50.0814" lon="5.6653">
        <ele>435</ele>
        <time>2019-01-09T02:47:39Z</time>
      </trkpt>
      <trkpt lat="50.08127" lon="5.66516">
        <ele>435</ele>
        <time>2019-01-09T02:48:39Z</time>
      </trkpt>
      <trkpt lat="50.08092" lon="5.66493">
        <ele>435</ele>
        <time>2019-01-09T02:49:39Z</time>
      </trkpt>
      <trkpt lat="50.08075" lon="5.66488">
        <ele>435</ele>
        <time>2019-01-09T02:50:39Z</time>
      </trkpt>
      <trkpt lat="50.08063" lon="5.66487">
        <ele>435</ele>
        <time>2019-01-09T02:51:39Z</time>
      </trkpt>
      <trkpt lat="50.08058" lon="5.66474">
        <ele>435</ele>
        <time>2019-01-09T02:52:39Z</time>
      </trkpt>
      <trkpt lat="50.0805" lon="5.6647">
        <ele>435</ele>
        <time>2019-01-09T02:53:39Z</time>
      </trkpt>
      <trkpt lat="50.08039" lon="5.66474">
        <ele>435</ele>
        <time>2019-01-09T02:54:39Z</time>
      </trkpt>
      <trkpt lat="50.08037" lon="5.66488">
        <ele>435</ele>
        <time>2019-01-09T02:55:39Z</time>
      </trkpt>
      <trkpt lat="50.0801" lon="5.66492">
        <ele>435</ele>
        <time>2019-01-09T02:56:39Z</time>
      </trkpt>
      <trkpt lat="50.0799" lon="5.66505">
        <ele>435</ele>
        <time>2019-01-09T02:57:39Z</time>
      </trkpt>
      <trkpt lat="50.07979" lon="5.66515">
        <ele>435</ele>
        <time>2019-01-09T02:58:39Z</time>
      </trkpt>
      <trkpt lat="50.07966" lon="5.66527">
        <ele>435</ele>
        <time>2019-01-09T02:59:39Z</time>
      </trkpt>
      <trkpt lat="50.07957" lon="5.66538">
        <ele>436</ele>
        <time>2019-01-09T03:00:39Z</time>
      </trkpt>
      <trkpt lat="50.07946" lon="5.66557">
        <ele>436</ele>
        <time>2019-01-09T03:01:39Z</time>
      </trkpt>
      <trkpt lat="50.07907" lon="5.66625">
        <ele>437</ele>
        <time>2019-01-09T03:02:39Z</time>
      </trkpt>
      <trkpt lat="50.07866" lon="5.66699">
        <ele>438</ele>
        <time>2019-01-09T03:03:39Z</time>
      </trkpt>
      <trkpt lat="50.07825" lon="5.66773">
        <ele>438</ele>
        <time>2019-01-09T03:04:39Z</time>
      </trkpt>
      <trkpt lat="50.07778" lon="5.66856">
        <ele>435</ele>
        <time>2019-01-09T03:05:39Z</time>
      </trkpt>
      <trkpt lat="50.07705" lon="5.66983">
        <ele>434</ele>
        <time>2019-01-09T03:06:39Z</time>
      </trkpt>
      <trkpt lat="50.07678" lon="5.67019">
        <ele>435</ele>
        <time>2019-01-09T03:07:39Z</time>
      </trkpt>
      <trkpt lat="50.07646" lon="5.67053">
        <ele>437</ele>
        <time>2019-01-09T03:08:39Z</time>
      </trkpt>
      <trkpt lat="50.07599" lon="5.67095">
        <ele>440</ele>
        <time>2019-01-09T03:09:39Z</time>
      </trkpt>
      <trkpt lat="50.07516" lon="5.67169">
        <ele>445</ele>
        <time>2019-01-09T03:10:39Z</time>
      </trkpt>
      <trkpt lat="50.07443" lon="5.67232">
        <ele>448</ele>
        <time>2019-01-09T03:11:39Z</time>
      </trkpt>
      <trkpt lat="50.07386" lon="5.6729">
        <ele>452</ele>
        <time>2019-01-09T03:12:39Z</time>
      </trkpt>
      <trkpt lat="50.07256" lon="5.67463">
        <ele>452</ele>
        <time>2019-01-09T03:13:39Z</time>
      </trkpt>
      <trkpt lat="50.0718" lon="5.67567">
        <ele>455</ele>
        <time>2019-01-09T03:14:39Z</time>
      </trkpt>
      <trkpt lat="50.07152" lon="5.67603">
        <ele>456</ele>
        <time>2019-01-09T03:15:39Z</time>
      </trkpt>
      <trkpt lat="50.07121" lon="5.6764">
        <ele>458</ele>
        <time>2019-01-09T03:16:39Z</time>
      </trkpt>
      <trkpt lat="50.07078" lon="5.67686">
        <ele>460</ele>
        <time>2019-01-09T03:17:39Z</time>
      </trkpt>
      <trkpt lat="50.07035" lon="5.67726">
        <ele>462</ele>
        <time>2019-01-09T03:18:39Z</time>
      </trkpt>
      <trkpt lat="50.06994" lon="5.67762">
        <ele>464</ele>
        <time>2019-01-09T03:19:39Z</time>
      </trkpt>
      <trkpt lat="50.06889" lon="5.67843">
        <ele>467</ele>
        <time>2019-01-09T03:20:39Z</time>
      </trkpt>
      <trkpt lat="50.06804" lon="5.67909">
        <ele>472</ele>
        <time>2019-01-09T03:21:39Z</time>
      </trkpt>
      <trkpt lat="50.0672" lon="5.67974">
        <ele>479</ele>
        <time>2019-01-09T03:22:39Z</time>
      </trkpt>
      <trkpt lat="50.0669" lon="5.68">
        <ele>480</ele>
        <time>2019-01-09T03:23:39Z</time>
      </trkpt>
      <trkpt lat="50.06667" lon="5.68021">
        <ele>480</ele>
        <time>2019-01-09T03:24:39Z</time>
      </trkpt>
      <trkpt lat="50.06629" lon="5.68082">
        <ele>478</ele>
        <time>2019-01-09T03:25:39Z</time>
      </trkpt>
      <trkpt lat="50.06611" lon="5.68114">
        <ele>476</ele>
        <time>2019-01-09T03:26:39Z</time>
      </trkpt>
      <trkpt lat="50.06567" lon="5.68187">
        <ele>470</ele>
        <time>2019-01-09T03:27:39Z</time>
      </trkpt>
      <trkpt lat="50.06548" lon="5.68211">
        <ele>468</ele>
        <time>2019-01-09T03:28:39Z</time>
      </trkpt>
      <trkpt lat="50.06509" lon="5.68252">
        <ele>464</ele>
        <time>2019-01-09T03:29:39Z</time>
      </trkpt>
      <trkpt lat="50.06424" lon="5.68326">
        <ele>458</ele>
        <time>2019-01-09T03:30:39Z</time>
      </trkpt>
      <trkpt lat="50.06387" lon="5.68357">
        <ele>458</ele>
        <time>2019-01-09T03:31:39Z</time>
      </trkpt>
      <trkpt lat="50.06337" lon="5.684">
        <ele>460</ele>
        <time>2019-01-09T03:32:39Z</time>
      </trkpt>
      <trkpt lat="50.06257" lon="5.68459">
        <ele>457</ele>
        <time>2019-01-09T03:33:39Z</time>
      </trkpt>
      <trkpt lat="50.06193" lon="5.68506">
        <ele>455</ele>
        <time>2019-01-09T03:34:39Z</time>
      </trkpt>
      <trkpt lat="50.0613" lon="5.68552">
        <ele>454</ele>
        <time>2019-01-09T03:35:39Z</time>
      </trkpt>
      <trkpt lat="50.06067" lon="5.68596">
        <ele>453</ele>
        <time>2019-01-09T03:36:39Z</time>
      </trkpt>
      <trkpt lat="50.05949" lon="5.68684">
        <ele>445</ele>
        <time>2019-01-09T03:37:39Z</time>
      </trkpt>
      <trkpt lat="50.05925" lon="5.68705">
        <ele>445</ele>
        <time>2019-01-09T03:38:39Z</time>
      </trkpt>
      <trkpt lat="50.05903" lon="5.68726">
        <ele>446</ele>
        <time>2019-01-09T03:39:39Z</time>
      </trkpt>
      <trkpt lat="50.05879" lon="5.68755">
        <ele>449</ele>
        <time>2019-01-09T03:40:39Z</time>
      </trkpt>
      <trkpt lat="50.0585" lon="5.68798">
        <ele>454</ele>
        <time>2019-01-09T03:41:39Z</time>
      </trkpt>
      <trkpt lat="50.05821" lon="5.68858">
        <ele>459</ele>
        <time>2019-01-09T03:42:39Z</time>
      </trkpt>
      <trkpt lat="50.05807" lon="5.68892">
        <ele>461</ele>
        <time>2019-01-09T03:43:39Z</time>
      </trkpt>
      <trkpt lat="50.05782" lon="5.68966">
        <ele>465</ele>
        <time>2019-01-09T03:44:39Z</time>
      </trkpt>
      <trkpt lat="50.05747" lon="5.69065">
        <ele>470</ele>
        <time>2019-01-09T03:45:39Z</time>
      </trkpt>
      <trkpt lat="50.05732" lon="5.69103">
        <ele>473</ele>
        <time>2019-01-09T03:46:39Z</time>
      </trkpt>
      <trkpt lat="50.05722" lon="5.69124">
        <ele>474</ele>
        <time>2019-01-09T03:47:39Z</time>
      </trkpt>
      <trkpt lat="50.05713" lon="5.69135">
        <ele>475</ele>
        <time>2019-01-09T03:48:39Z</time>
      </trkpt>
      <trkpt lat="50.05701" lon="5.69154">
        <ele>476</ele>
        <time>2019-01-09T03:49:39Z</time>
      </trkpt>
      <trkpt lat="50.05689" lon="5.69167">
        <ele>477</ele>
        <time>2019-01-09T03:50:39Z</time>
      </trkpt>
      <trkpt lat="50.05674" lon="5.69175">
        <ele>478</ele>
        <time>2019-01-09T03:51:39Z</time>
      </trkpt>
      <trkpt lat="50.05659" lon="5.69181">
        <ele>477</ele>
        <time>2019-01-09T03:52:39Z</time>
      </trkpt>
      <trkpt lat="50.05643" lon="5.69181">
        <ele>476</ele>
        <time>2019-01-09T03:53:39Z</time>
      </trkpt>
      <trkpt lat="50.05627" lon="5.69177">
        <ele>475</ele>
        <time>2019-01-09T03:54:39Z</time>
      </trkpt>
      <trkpt lat="50.05611" lon="5.6917">
        <ele>474</ele>
        <time>2019-01-09T03:55:39Z</time>
      </trkpt>
      <trkpt lat="50.05595" lon="5.69162">
        <ele>473</ele>
        <time>2019-01-09T03:56:39Z</time>
      </trkpt>
      <trkpt lat="50.05576" lon="5.69152">
        <ele>472</ele>
        <time>2019-01-09T03:57:39Z</time>
      </trkpt>
      <trkpt lat="50.05518" lon="5.6913">
        <ele>467</ele>
        <time>2019-01-09T03:58:39Z</time>
      </trkpt>
      <trkpt lat="50.05417" lon="5.69103">
        <ele>457</ele>
        <time>2019-01-09T03:59:39Z</time>
      </trkpt>
      <trkpt lat="50.05396" lon="5.69098">
        <ele>455</ele>
        <time>2019-01-09T04:00:39Z</time>
      </trkpt>
      <trkpt lat="50.05378" lon="5.69083">
        <ele>455</ele>
        <time>2019-01-09T04:01:39Z</time>
      </trkpt>
      <trkpt lat="50.05366" lon="5.69072">
        <ele>454</ele>
        <time>2019-01-09T04:02:39Z</time>
      </trkpt>
      <trkpt lat="50.05344" lon="5.6904">
        <ele>454</ele>
        <time>2019-01-09T04:03:39Z</time>
      </trkpt>
      <trkpt lat="50.05334" lon="5.69024">
        <ele>454</ele>
        <time>2019-01-09T04:04:39Z</time>
      </trkpt>
      <trkpt lat="50.05324" lon="5.69017">
        <ele>453</ele>
        <time>2019-01-09T04:05:39Z</time>
      </trkpt>
      <trkpt lat="50.05312" lon="5.69009">
        <ele>452</ele>
        <time>2019-01-09T04:06:39Z</time>
      </trkpt>
      <trkpt lat="50.05286" lon="5.69006">
        <ele>450</ele>
        <time>2019-01-09T04:07:39Z</time>
      </trkpt>
      <trkpt lat="50.05255" lon="5.68993">
        <ele>447</ele>
        <time>2019-01-09T04:08:39Z</time>
      </trkpt>
      <trkpt lat="50.05241" lon="5.68985">
        <ele>445</ele>
        <time>2019-01-09T04:09:39Z</time>
      </trkpt>
      <trkpt lat="50.05227" lon="5.68972">
        <ele>444</ele>
        <time>2019-01-09T04:10:39Z</time>
      </trkpt>
      <trkpt lat="50.05197" lon="5.68927">
        <ele>442</ele>
        <time>2019-01-09T04:11:39Z</time>
      </trkpt>
      <trkpt lat="50.05171" lon="5.68886">
        <ele>440</ele>
        <time>2019-01-09T04:12:39Z</time>
      </trkpt>
      <trkpt lat="50.05145" lon="5.68854">
        <ele>438</ele>
        <time>2019-01-09T04:13:39Z</time>
      </trkpt>
      <trkpt lat="50.0513" lon="5.68844">
        <ele>437</ele>
        <time>2019-01-09T04:14:39Z</time>
      </trkpt>
      <trkpt lat="50.05108" lon="5.68838">
        <ele>435</ele>
        <time>2019-01-09T04:15:39Z</time>
      </trkpt>
      <trkpt lat="50.05013" lon="5.68805">
        <ele>425</ele>
        <time>2019-01-09T04:16:39Z</time>
      </trkpt>
      <trkpt lat="50.04963" lon="5.68789">
        <ele>422</ele>
        <time>2019-01-09T04:17:39Z</time>
      </trkpt>
      <trkpt lat="50.04939" lon="5.68781">
        <ele>421</ele>
        <time>2019-01-09T04:18:39Z</time>
      </trkpt>
      <trkpt lat="50.04907" lon="5.68774">
        <ele>421</ele>
        <time>2019-01-09T04:19:39Z</time>
      </trkpt>
      <trkpt lat="50.04884" lon="5.68775">
        <ele>423</ele>
        <time>2019-01-09T04:20:39Z</time>
      </trkpt>
      <trkpt lat="50.04836" lon="5.68778">
        <ele>427</ele>
        <time>2019-01-09T04:21:39Z</time>
      </trkpt>
      <trkpt lat="50.04808" lon="5.68773">
        <ele>430</ele>
        <time>2019-01-09T04:22:39Z</time>
      </trkpt>
      <trkpt lat="50.04791" lon="5.68766">
        <ele>432</ele>
        <time>2019-01-09T04:23:39Z</time>
      </trkpt>
      <trkpt lat="50.04757" lon="5.68748">
        <ele>437</ele>
        <time>2019-01-09T04:24:39Z</time>
      </trkpt>
      <trkpt lat="50.04727" lon="5.68723">
        <ele>440</ele>
        <time>2019-01-09T04:25:39Z</time>
      </trkpt>
      <trkpt lat="50.04706" lon="5.68705">
        <ele>441</ele>
        <time>2019-01-09T04:26:39Z</time>
      </trkpt>
      <trkpt lat="50.04687" lon="5.68683">
        <ele>442</ele>
        <time>2019-01-09T04:27:39Z</time>
      </trkpt>
      <trkpt lat="50.04673" lon="5.68663">
        <ele>443</ele>
        <time>2019-01-09T04:28:39Z</time>
      </trkpt>
      <trkpt lat="50.04659" lon="5.68637">
        <ele>442</ele>
        <time>2019-01-09T04:29:39Z</time>
      </trkpt>
      <trkpt lat="50.0465" lon="5.68619">
        <ele>441</ele>
        <time>2019-01-09T04:30:39Z</time>
      </trkpt>
      <trkpt lat="50.04637" lon="5.68602">
        <ele>441</ele>
        <time>2019-01-09T04:31:39Z</time>
      </trkpt>
      <trkpt lat="50.0462" lon="5.68592">
        <ele>442</ele>
        <time>2019-01-09T04:32:39Z</time>
      </trkpt>
      <trkpt lat="50.04607" lon="5.68587">
        <ele>443</ele>
        <time>2019-01-09T04:33:39Z</time>
      </trkpt>
      <trkpt lat="50.046" lon="5.68588">
        <ele>444</ele>
        <time>2019-01-09T04:34:39Z</time>
      </trkpt>
      <trkpt lat="50.04585" lon="5.68594">
        <ele>445</ele>
        <time>2019-01-09T04:35:39Z</time>
      </trkpt>
      <trkpt lat="50.04573" lon="5.68605">
        <ele>447</ele>
        <time>2019-01-09T04:36:39Z</time>
      </trkpt>
      <trkpt lat="50.04559" lon="5.68624">
        <ele>450</ele>
        <time>2019-01-09T04:37:39Z</time>
      </trkpt>
      <trkpt lat="50.04553" lon="5.68638">
        <ele>451</ele>
        <time>2019-01-09T04:38:39Z</time>
      </trkpt>
      <trkpt lat="50.04545" lon="5.68666">
        <ele>454</ele>
        <time>2019-01-09T04:39:39Z</time>
      </trkpt>
      <trkpt lat="50.04545" lon="5.68709">
        <ele>456</ele>
        <time>2019-01-09T04:40:39Z</time>
      </trkpt>
      <trkpt lat="50.04544" lon="5.68748">
        <ele>459</ele>
        <time>2019-01-09T04:41:39Z</time>
      </trkpt>
      <trkpt lat="50.04538" lon="5.68785">
        <ele>461</ele>
        <time>2019-01-09T04:42:39Z</time>
      </trkpt>
      <trkpt lat="50.04531" lon="5.68804">
        <ele>462</ele>
        <time>2019-01-09T04:43:39Z</time>
      </trkpt>
      <trkpt lat="50.04518" lon="5.68824">
        <ele>464</ele>
        <time>2019-01-09T04:44:39Z</time>
      </trkpt>
      <trkpt lat="50.04508" lon="5.68837">
        <ele>465</ele>
        <time>2019-01-09T04:45:39Z</time>
      </trkpt>
      <trkpt lat="50.0449" lon="5.6885">
        <ele>467</ele>
        <time>2019-01-09T04:46:39Z</time>
      </trkpt>
      <trkpt lat="50.04468" lon="5.68861">
        <ele>468</ele>
        <time>2019-01-09T04:47:39Z</time>
      </trkpt>
      <trkpt lat="50.04457" lon="5.68867">
        <ele>468</ele>
        <time>2019-01-09T04:48:39Z</time>
      </trkpt>
      <trkpt lat="50.04297" lon="5.68941">
        <ele>470</ele>
        <time>2019-01-09T04:49:39Z</time>
      </trkpt>
      <trkpt lat="50.04239" lon="5.68979">
        <ele>469</ele>
        <time>2019-01-09T04:50:39Z</time>
      </trkpt>
      <trkpt lat="50.04142" lon="5.69039">
        <ele>468</ele>
        <time>2019-01-09T04:51:39Z</time>
      </trkpt>
      <trkpt lat="50.04113" lon="5.69057">
        <ele>468</ele>
        <time>2019-01-09T04:52:39Z</time>
      </trkpt>
      <trkpt lat="50.04091" lon="5.69068">
        <ele>468</ele>
        <time>2019-01-09T04:53:39Z</time>
      </trkpt>
      <trkpt lat="50.04061" lon="5.69081">
        <ele>467</ele>
        <time>2019-01-09T04:54:39Z</time>
      </trkpt>
      <trkpt lat="50.04006" lon="5.69103">
        <ele>461</ele>
        <time>2019-01-09T04:55:39Z</time>
      </trkpt>
      <trkpt lat="50.03972" lon="5.6912">
        <ele>458</ele>
        <time>2019-01-09T04:56:39Z</time>
      </trkpt>
      <trkpt lat="50.03856" lon="5.69192">
        <ele>454</ele>
        <time>2019-01-09T04:57:39Z</time>
      </trkpt>
      <trkpt lat="50.03817" lon="5.69218">
        <ele>455</ele>
        <time>2019-01-09T04:58:39Z</time>
      </trkpt>
      <trkpt lat="50.03779" lon="5.69246">
        <ele>455</ele>
        <time>2019-01-09T04:59:39Z</time>
      </trkpt>
      <trkpt lat="50.03752" lon="5.69272">
        <ele>455</ele>
        <time>2019-01-09T05:00:39Z</time>
      </trkpt>
      <trkpt lat="50.03731" lon="5.69294">
        <ele>456</ele>
        <time>2019-01-09T05:01:39Z</time>
      </trkpt>
      <trkpt lat="50.03711" lon="5.69318">
        <ele>456</ele>
        <time>2019-01-09T05:02:39Z</time>
      </trkpt>
      <trkpt lat="50.03687" lon="5.69354">
        <ele>458</ele>
        <time>2019-01-09T05:03:39Z</time>
      </trkpt>
      <trkpt lat="50.03599" lon="5.69492">
        <ele>460</ele>
        <time>2019-01-09T05:04:39Z</time>
      </trkpt>
      <trkpt lat="50.03552" lon="5.69564">
        <ele>459</ele>
        <time>2019-01-09T05:05:39Z</time>
      </trkpt>
      <trkpt lat="50.03522" lon="5.69608">
        <ele>459</ele>
        <time>2019-01-09T05:06:39Z</time>
      </trkpt>
      <trkpt lat="50.03492" lon="5.69649">
        <ele>460</ele>
        <time>2019-01-09T05:07:39Z</time>
      </trkpt>
      <trkpt lat="50.03476" lon="5.69666">
        <ele>461</ele>
        <time>2019-01-09T05:08:39Z</time>
      </trkpt>
      <trkpt lat="50.03456" lon="5.69684">
        <ele>462</ele>
        <time>2019-01-09T05:09:39Z</time>
      </trkpt>
      <trkpt lat="50.03437" lon="5.69698">
        <ele>462</ele>
        <time>2019-01-09T05:10:39Z</time>
      </trkpt>
      <trkpt lat="50.03422" lon="5.69702">
        <ele>463</ele>
        <time>2019-01-09T05:11:39Z</time>
      </trkpt>
      <trkpt lat="50.03375" lon="5.69724">
        <ele>466</ele>
        <time>2019-01-09T05:12:39Z</time>
      </trkpt>
      <trkpt lat="50.03354" lon="5.69731">
        <ele>467</ele>
        <time>2019-01-09T05:13:39Z</time>
      </trkpt>
      <trkpt lat="50.03323" lon="5.6974">
        <ele>469</ele>
        <time>2019-01-09T05:14:39Z</time>
      </trkpt>
      <trkpt lat="50.03305" lon="5.69747">
        <ele>470</ele>
        <time>2019-01-09T05:15:39Z</time>
      </trkpt>
      <trkpt lat="50.03266" lon="5.69754">
        <ele>472</ele>
        <time>2019-01-09T05:16:39Z</time>
      </trkpt>
      <trkpt lat="50.03189" lon="5.69752">
        <ele>470</ele>
        <time>2019-01-09T05:17:39Z</time>
      </trkpt>
      <trkpt lat="50.03134" lon="5.69761">
        <ele>465</ele>
        <time>2019-01-09T05:18:39Z</time>
      </trkpt>
      <trkpt lat="50.03078" lon="5.69791">
        <ele>459</ele>
        <time>2019-01-09T05:19:39Z</time>
      </trkpt>
      <trkpt lat="50.03048" lon="5.69814">
        <ele>459</ele>
        <time>2019-01-09T05:20:39Z</time>
      </trkpt>
      <trkpt lat="50.03022" lon="5.69841">
        <ele>459</ele>
        <time>2019-01-09T05:21:39Z</time>
      </trkpt>
      <trkpt lat="50.03004" lon="5.69865">
        <ele>460</ele>
        <time>2019-01-09T05:22:39Z</time>
      </trkpt>
      <trkpt lat="50.0299" lon="5.69886">
        <ele>461</ele>
        <time>2019-01-09T05:23:39Z</time>
      </trkpt>
      <trkpt lat="50.02968" lon="5.69924">
        <ele>463</ele>
        <time>2019-01-09T05:24:39Z</time>
      </trkpt>
      <trkpt lat="50.02956" lon="5.69954">
        <ele>465</ele>
        <time>2019-01-09T05:25:39Z</time>
      </trkpt>
      <trkpt lat="50.0295" lon="5.69982">
        <ele>467</ele>
        <time>2019-01-09T05:26:39Z</time>
      </trkpt>
      <trkpt lat="50.02927" lon="5.70071">
        <ele>471</ele>
        <time>2019-01-09T05:27:39Z</time>
      </trkpt>
      <trkpt lat="50.02903" lon="5.70159">
        <ele>473</ele>
        <time>2019-01-09T05:28:39Z</time>
      </trkpt>
      <trkpt lat="50.02893" lon="5.70186">
        <ele>474</ele>
        <time>2019-01-09T05:29:39Z</time>
      </trkpt>
      <trkpt lat="50.02883" lon="5.70202">
        <ele>475</ele>
        <time>2019-01-09T05:30:39Z</time>
      </trkpt>
      <trkpt lat="50.0287" lon="5.70226">
        <ele>476</ele>
        <time>2019-01-09T05:31:39Z</time>
      </trkpt>
      <trkpt lat="50.02834" lon="5.70282">
        <ele>479</ele>
        <time>2019-01-09T05:32:39Z</time>
      </trkpt>
      <trkpt lat="50.02806" lon="5.70321">
        <ele>481</ele>
        <time>2019-01-09T05:33:39Z</time>
      </trkpt>
      <trkpt lat="50.02778" lon="5.70351">
        <ele>483</ele>
        <time>2019-01-09T05:34:39Z</time>
      </trkpt>
      <trkpt lat="50.0276" lon="5.70365">
        <ele>484</ele>
        <time>2019-01-09T05:35:39Z</time>
      </trkpt>
      <trkpt lat="50.0274" lon="5.70375">
        <ele>485</ele>
        <time>2019-01-09T05:36:39Z</time>
      </trkpt>
      <trkpt lat="50.02713" lon="5.70381">
        <ele>487</ele>
        <time>2019-01-09T05:37:39Z</time>
      </trkpt>
      <trkpt lat="50.02639" lon="5.70405">
        <ele>492</ele>
        <time>2019-01-09T05:38:39Z</time>
      </trkpt>
      <trkpt lat="50.02444" lon="5.70471">
        <ele>505</ele>
        <time>2019-01-09T05:39:39Z</time>
      </trkpt>
      <trkpt lat="50.02331" lon="5.70509">
        <ele>511</ele>
        <time>2019-01-09T05:40:39Z</time>
      </trkpt>
      <trkpt lat="50.02259" lon="5.70534">
        <ele>511</ele>
        <time>2019-01-09T05:41:39Z</time>
      </trkpt>
      <trkpt lat="50.02212" lon="5.70551">
        <ele>511</ele>
        <time>2019-01-09T05:42:39Z</time>
      </trkpt>
      <trkpt lat="50.02169" lon="5.70575">
        <ele>511</ele>
        <time>2019-01-09T05:43:39Z</time>
      </trkpt>
      <trkpt lat="50.02101" lon="5.70609">
        <ele>508</ele>
        <time>2019-01-09T05:44:39Z</time>
      </trkpt>
      <trkpt lat="50.01935" lon="5.70696">
        <ele>501</ele>
        <time>2019-01-09T05:45:39Z</time>
      </trkpt>
      <trkpt lat="50.01881" lon="5.70723">
        <ele>501</ele>
        <time>2019-01-09T05:46:39Z</time>
      </trkpt>
      <trkpt lat="50.01835" lon="5.70746">
        <ele>502</ele>
        <time>2019-01-09T05:47:39Z</time>
      </trkpt>
      <trkpt lat="50.01786" lon="5.70771">
        <ele>503</ele>
        <time>2019-01-09T05:48:39Z</time>
      </trkpt>
      <trkpt lat="50.01711" lon="5.70806">
        <ele>502</ele>
        <time>2019-01-09T05:49:39Z</time>
      </trkpt>
      <trkpt lat="50.01656" lon="5.70833">
        <ele>501</ele>
        <time>2019-01-09T05:50:39Z</time>
      </trkpt>
      <trkpt lat="50.0157" lon="5.70872">
        <ele>498</ele>
        <time>2019-01-09T05:51:39Z</time>
      </trkpt>
      <trkpt lat="50.01507" lon="5.70904">
        <ele>496</ele>
        <time>2019-01-09T05:52:39Z</time>
      </trkpt>
      <trkpt lat="50.01452" lon="5.70931">
        <ele>496</ele>
        <time>2019-01-09T05:53:39Z</time>
      </trkpt>
      <trkpt lat="50.01423" lon="5.70953">
        <ele>496</ele>
        <time>2019-01-09T05:54:39Z</time>
      </trkpt>
      <trkpt lat="50.0139" lon="5.70979">
        <ele>494</ele>
        <time>2019-01-09T05:55:39Z</time>
      </trkpt>
      <trkpt lat="50.01356" lon="5.71016">
        <ele>493</ele>
        <time>2019-01-09T05:56:39Z</time>
      </trkpt>
      <trkpt lat="50.01305" lon="5.71069">
        <ele>494</ele>
        <time>2019-01-09T05:57:39Z</time>
      </trkpt>
      <trkpt lat="50.01274" lon="5.71099">
        <ele>496</ele>
        <time>2019-01-09T05:58:39Z</time>
      </trkpt>
      <trkpt lat="50.01247" lon="5.71125">
        <ele>496</ele>
        <time>2019-01-09T05:59:39Z</time>
      </trkpt>
      <trkpt lat="50.01215" lon="5.71165">
        <ele>497</ele>
        <time>2019-01-09T06:00:39Z</time>
      </trkpt>
      <trkpt lat="50.01189" lon="5.712">
        <ele>497</ele>
        <time>2019-01-09T06:01:39Z</time>
      </trkpt>
      <trkpt lat="50.01162" lon="5.71247">
        <ele>497</ele>
        <time>2019-01-09T06:02:39Z</time>
      </trkpt>
      <trkpt lat="50.01148" lon="5.71276">
        <ele>497</ele>
        <time>2019-01-09T06:03:39Z</time>
      </trkpt>
      <trkpt lat="50.01125" lon="5.71325">
        <ele>497</ele>
        <time>2019-01-09T06:04:39Z</time>
      </trkpt>
      <trkpt lat="50.01116" lon="5.71349">
        <ele>498</ele>
        <time>2019-01-09T06:05:39Z</time>
      </trkpt>
      <trkpt lat="50.01107" lon="5.71378">
        <ele>498</ele>
        <time>2019-01-09T06:06:39Z</time>
      </trkpt>
      <trkpt lat="50.01097" lon="5.71418">
        <ele>499</ele>
        <time>2019-01-09T06:07:39Z</time>
      </trkpt>
      <trkpt lat="50.01094" lon="5.71448">
        <ele>499</ele>
        <time>2019-01-09T06:08:39Z</time>
      </trkpt>
      <trkpt lat="50.01091" lon="5.71473">
        <ele>499</ele>
        <time>2019-01-09T06:09:39Z</time>
      </trkpt>
      <trkpt lat="50.01088" lon="5.71506">
        <ele>499</ele>
        <time>2019-01-09T06:10:39Z</time>
      </trkpt>
      <trkpt lat="50.01081" lon="5.71539">
        <ele>499</ele>
        <time>2019-01-09T06:11:39Z</time>
      </trkpt>
      <trkpt lat="50.01071" lon="5.71572">
        <ele>499</ele>
        <time>2019-01-09T06:12:39Z</time>
      </trkpt>
      <trkpt lat="50.01062" lon="5.71592">
        <ele>499</ele>
        <time>2019-01-09T06:13:39Z</time>
      </trkpt>
      <trkpt lat="50.01052" lon="5.7161">
        <ele>499</ele>
        <time>2019-01-09T06:14:39Z</time>
      </trkpt>
      <trkpt lat="50.01041" lon="5.71626">
        <ele>499</ele>
        <time>2019-01-09T06:15:39Z</time>
      </trkpt>
      <trkpt lat="50.01029" lon="5.7164">
        <ele>499</ele>
        <time>2019-01-09T06:16:39Z</time>
      </trkpt>
      <trkpt lat="50.01016" lon="5.71651">
        <ele>500</ele>
        <time>2019-01-09T06:17:39Z</time>
      </trkpt>
      <trkpt lat="50.01003" lon="5.71661">
        <ele>500</ele>
        <time>2019-01-09T06:18:39Z</time>
      </trkpt>
      <trkpt lat="50.00989" lon="5.71669">
        <ele>500</ele>
        <time>2019-01-09T06:19:39Z</time>
      </trkpt>
      <trkpt lat="50.00957" lon="5.71685">
        <ele>501</ele>
        <time>2019-01-09T06:20:39Z</time>
      </trkpt>
      <trkpt lat="50.00932" lon="5.71702">
        <ele>501</ele>
        <time>2019-01-09T06:21:39Z</time>
      </trkpt>
      <trkpt lat="50.00906" lon="5.7173">
        <ele>503</ele>
        <time>2019-01-09T06:22:39Z</time>
      </trkpt>
      <trkpt lat="50.00862" lon="5.71783">
        <ele>505</ele>
        <time>2019-01-09T06:23:39Z</time>
      </trkpt>
      <trkpt lat="50.00821" lon="5.71836">
        <ele>506</ele>
        <time>2019-01-09T06:24:39Z</time>
      </trkpt>
      <trkpt lat="50.0081" lon="5.7185">
        <ele>507</ele>
        <time>2019-01-09T06:25:39Z</time>
      </trkpt>
      <trkpt lat="50.00754" lon="5.71908">
        <ele>508</ele>
        <time>2019-01-09T06:26:39Z</time>
      </trkpt>
      <trkpt lat="50.0074" lon="5.71925">
        <ele>508</ele>
        <time>2019-01-09T06:27:39Z</time>
      </trkpt>
      <trkpt lat="50.0073" lon="5.71945">
        <ele>508</ele>
        <time>2019-01-09T06:28:39Z</time>
      </trkpt>
      <trkpt lat="50.0068" lon="5.72037">
        <ele>508</ele>
        <time>2019-01-09T06:29:39Z</time>
      </trkpt>
      <trkpt lat="50.00667" lon="5.72059">
        <ele>508</ele>
        <time>2019-01-09T06:30:39Z</time>
      </trkpt>
      <trkpt lat="50.00656" lon="5.72078">
        <ele>507</ele>
        <time>2019-01-09T06:31:39Z</time>
      </trkpt>
      <trkpt lat="50.00645" lon="5.72081">
        <ele>507</ele>
        <time>2019-01-09T06:32:39Z</time>
      </trkpt>
      <trkpt lat="50.0064" lon="5.72093">
        <ele>507</ele>
        <time>2019-01-09T06:33:39Z</time>
      </trkpt>
      <trkpt lat="50.00643" lon="5.72105">
        <ele>507</ele>
        <time>2019-01-09T06:34:39Z</time>
      </trkpt>
      <trkpt lat="50.00651" lon="5.72109">
        <ele>507</ele>
        <time>2019-01-09T06:35:39Z</time>
      </trkpt>
      <trkpt lat="50.00658" lon="5.72104">
        <ele>507</ele>
        <time>2019-01-09T06:36:39Z</time>
      </trkpt>
      <trkpt lat="50.00662" lon="5.72093">
        <ele>508</ele>
        <time>2019-01-09T06:37:39Z</time>
      </trkpt>
      <trkpt lat="50.00672" lon="5.72093">
        <ele>508</ele>
        <time>2019-01-09T06:38:39Z</time>
      </trkpt>
      <trkpt lat="50.0069" lon="5.72094">
        <ele>508</ele>
        <time>2019-01-09T06:39:39Z</time>
      </trkpt>
      <trkpt lat="50.00699" lon="5.72094">
        <ele>508</ele>
        <time>2019-01-09T06:40:39Z</time>
      </trkpt>
      <trkpt lat="50.00721" lon="5.72105">
        <ele>508</ele>
        <time>2019-01-09T06:41:39Z</time>
      </trkpt>
      <trkpt lat="50.00767" lon="5.72127">
        <ele>508</ele>
        <time>2019-01-09T06:42:39Z</time>
      </trkpt>
      <trkpt lat="50.0082" lon="5.72149">
        <ele>509</ele>
        <time>2019-01-09T06:43:39Z</time>
      </trkpt>
      <trkpt lat="50.00897" lon="5.7218">
        <ele>509</ele>
        <time>2019-01-09T06:44:39Z</time>
      </trkpt>
      <trkpt lat="50.00941" lon="5.72197">
        <ele>509</ele>
        <time>2019-01-09T06:45:39Z</time>
      </trkpt>
      <trkpt lat="50.01004" lon="5.72228">
        <ele>513</ele>
        <time>2019-01-09T06:46:39Z</time>
      </trkpt>
      <trkpt lat="50.01171" lon="5.72311">
        <ele>515</ele>
        <time>2019-01-09T06:47:39Z</time>
      </trkpt>
      <trkpt lat="50.01282" lon="5.72362">
        <ele>517</ele>
        <time>2019-01-09T06:48:39Z</time>
      </trkpt>
      <trkpt lat="50.01385" lon="5.7241">
        <ele>519</ele>
        <time>2019-01-09T06:49:39Z</time>
      </trkpt>
      <trkpt lat="50.01513" lon="5.7247">
        <ele>525</ele>
        <time>2019-01-09T06:50:39Z</time>
      </trkpt>
      <trkpt lat="50.01538" lon="5.72488">
        <ele>525</ele>
        <time>2019-01-09T06:51:39Z</time>
      </trkpt>
      <trkpt lat="50.01597" lon="5.72535">
        <ele>523</ele>
        <time>2019-01-09T06:52:39Z</time>
      </trkpt>
      <trkpt lat="50.0169" lon="5.72615">
        <ele>519</ele>
        <time>2019-01-09T06:53:39Z</time>
      </trkpt>
      <trkpt lat="50.01782" lon="5.72693">
        <ele>517</ele>
        <time>2019-01-09T06:54:39Z</time>
      </trkpt>
      <trkpt lat="50.01997" lon="5.72884">
        <ele>524</ele>
        <time>2019-01-09T06:55:39Z</time>
      </trkpt>
      <trkpt lat="50.02032" lon="5.72916">
        <ele>525</ele>
        <time>2019-01-09T06:56:39Z</time>
      </trkpt>
      <trkpt lat="50.02127" lon="5.72997">
        <ele>526</ele>
        <time>2019-01-09T06:57:39Z</time>
      </trkpt>
      <trkpt lat="50.02287" lon="5.7314">
        <ele>532</ele>
        <time>2019-01-09T06:58:39Z</time>
      </trkpt>
      <trkpt lat="50.02866" lon="5.7365">
        <ele>532</ele>
        <time>2019-01-09T06:59:39Z</time>
      </trkpt>
      <trkpt lat="50.02948" lon="5.73722">
        <ele>530</ele>
        <time>2019-01-09T07:00:39Z</time>
      </trkpt>
      <trkpt lat="50.02996" lon="5.73767">
        <ele>526</ele>
        <time>2019-01-09T07:01:39Z</time>
      </trkpt>
      <trkpt lat="50.0316" lon="5.73909">
        <ele>526</ele>
        <time>2019-01-09T07:02:39Z</time>
      </trkpt>
      <trkpt lat="50.0361" lon="5.74305">
        <ele>526</ele>
        <time>2019-01-09T07:03:39Z</time>
      </trkpt>
      <trkpt lat="50.03825" lon="5.74495">
        <ele>532</ele>
        <time>2019-01-09T07:04:39Z</time>
      </trkpt>
      <trkpt lat="50.04039" lon="5.74631">
        <ele>523</ele>
        <time>2019-01-09T07:05:39Z</time>
      </trkpt>
      <trkpt lat="50.04143" lon="5.74697">
        <ele>519</ele>
        <time>2019-01-09T07:06:39Z</time>
      </trkpt>
      <trkpt lat="50.04751" lon="5.75075">
        <ele>495</ele>
        <time>2019-01-09T07:07:39Z</time>
      </trkpt>
      <trkpt lat="50.05505" lon="5.75539">
        <ele>483</ele>
        <time>2019-01-09T07:08:39Z</time>
      </trkpt>
      <trkpt lat="50.06164" lon="5.75951">
        <ele>467</ele>
        <time>2019-01-09T07:09:39Z</time>
      </trkpt>
      <trkpt lat="50.06632" lon="5.76241">
        <ele>465</ele>
        <time>2019-01-09T07:10:39Z</time>
      </trkpt>
      <trkpt lat="50.07313" lon="5.76663">
        <ele>466</ele>
        <time>2019-01-09T07:11:39Z</time>
      </trkpt>
      <trkpt lat="50.07606" lon="5.76841">
        <ele>456</ele>
        <time>2019-01-09T07:12:39Z</time>
      </trkpt>
      <trkpt lat="50.07763" lon="5.76939">
        <ele>458</ele>
        <time>2019-01-09T07:13:39Z</time>
      </trkpt>
      <trkpt lat="50.07864" lon="5.77003">
        <ele>462</ele>
        <time>2019-01-09T07:14:39Z</time>
      </trkpt>
      <trkpt lat="50.07954" lon="5.77063">
        <ele>464</ele>
        <time>2019-01-09T07:15:39Z</time>
      </trkpt>
      <trkpt lat="50.08123" lon="5.77161">
        <ele>460</ele>
        <time>2019-01-09T07:16:39Z</time>
      </trkpt>
      <trkpt lat="50.08212" lon="5.77219">
        <ele>454</ele>
        <time>2019-01-09T07:17:39Z</time>
      </trkpt>
      <trkpt lat="50.08265" lon="5.77249">
        <ele>452</ele>
        <time>2019-01-09T07:18:39Z</time>
      </trkpt>
      <trkpt lat="50.08301" lon="5.7727">
        <ele>452</ele>
        <time>2019-01-09T07:19:39Z</time>
      </trkpt>
      <trkpt lat="50.084" lon="5.77336">
        <ele>454</ele>
        <time>2019-01-09T07:20:39Z</time>
      </trkpt>
      <trkpt lat="50.08484" lon="5.7739">
        <ele>460</ele>
        <time>2019-01-09T07:21:39Z</time>
      </trkpt>
      <trkpt lat="50.08612" lon="5.7747">
        <ele>461</ele>
        <time>2019-01-09T07:22:39Z</time>
      </trkpt>
      <trkpt lat="50.08709" lon="5.77528">
        <ele>457</ele>
        <time>2019-01-09T07:23:39Z</time>
      </trkpt>
      <trkpt lat="50.09295" lon="5.77894">
        <ele>425</ele>
        <time>2019-01-09T07:24:39Z</time>
      </trkpt>
      <trkpt lat="50.09749" lon="5.78176">
        <ele>411</ele>
        <time>2019-01-09T07:25:39Z</time>
      </trkpt>
      <trkpt lat="50.09983" lon="5.7832">
        <ele>415</ele>
        <time>2019-01-09T07:26:39Z</time>
      </trkpt>
      <trkpt lat="50.10097" lon="5.78392">
        <ele>417</ele>
        <time>2019-01-09T07:27:39Z</time>
      </trkpt>
      <trkpt lat="50.10341" lon="5.78541">
        <ele>428</ele>
        <time>2019-01-09T07:28:39Z</time>
      </trkpt>
      <trkpt lat="50.10422" lon="5.78592">
        <ele>433</ele>
        <time>2019-01-09T07:29:39Z</time>
      </trkpt>
      <trkpt lat="50.10538" lon="5.78665">
        <ele>440</ele>
        <time>2019-01-09T07:30:39Z</time>
      </trkpt>
      <trkpt lat="50.10659" lon="5.7874">
        <ele>449</ele>
        <time>2019-01-09T07:31:39Z</time>
      </trkpt>
      <trkpt lat="50.10712" lon="5.78773">
        <ele>451</ele>
        <time>2019-01-09T07:32:39Z</time>
      </trkpt>
      <trkpt lat="50.10791" lon="5.7882">
        <ele>453</ele>
        <time>2019-01-09T07:33:39Z</time>
      </trkpt>
      <trkpt lat="50.1082" lon="5.78833">
        <ele>453</ele>
        <time>2019-01-09T07:34:39Z</time>
      </trkpt>
      <trkpt lat="50.10846" lon="5.78844">
        <ele>455</ele>
        <time>2019-01-09T07:35:39Z</time>
      </trkpt>
      <trkpt lat="50.10934" lon="5.78875">
        <ele>455</ele>
        <time>2019-01-09T07:36:39Z</time>
      </trkpt>
      <trkpt lat="50.1111" lon="5.78935">
        <ele>447</ele>
        <time>2019-01-09T07:37:39Z</time>
      </trkpt>
      <trkpt lat="50.11261" lon="5.78987">
        <ele>447</ele>
        <time>2019-01-09T07:38:39Z</time>
      </trkpt>
      <trkpt lat="50.11386" lon="5.79032">
        <ele>443</ele>
        <time>2019-01-09T07:39:39Z</time>
      </trkpt>
      <trkpt lat="50.1142" lon="5.79044">
        <ele>442</ele>
        <time>2019-01-09T07:40:39Z</time>
      </trkpt>
      <trkpt lat="50.11528" lon="5.7908">
        <ele>442</ele>
        <time>2019-01-09T07:41:39Z</time>
      </trkpt>
      <trkpt lat="50.11612" lon="5.79108">
        <ele>439</ele>
        <time>2019-01-09T07:42:39Z</time>
      </trkpt>
      <trkpt lat="50.11771" lon="5.79165">
        <ele>433</ele>
        <time>2019-01-09T07:43:39Z</time>
      </trkpt>
      <trkpt lat="50.11782" lon="5.79169">
        <ele>433</ele>
        <time>2019-01-09T07:44:39Z</time>
      </trkpt>
      <trkpt lat="50.11823" lon="5.79213">
        <ele>432</ele>
        <time>2019-01-09T07:45:39Z</time>
      </trkpt>
      <trkpt lat="50.1183" lon="5.79226">
        <ele>432</ele>
        <time>2019-01-09T07:46:39Z</time>
      </trkpt>
      <trkpt lat="50.11842" lon="5.79254">
        <ele>431</ele>
        <time>2019-01-09T07:47:39Z</time>
      </trkpt>
      <trkpt lat="50.11864" lon="5.79311">
        <ele>430</ele>
        <time>2019-01-09T07:48:39Z</time>
      </trkpt>
      <trkpt lat="50.1195" lon="5.79543">
        <ele>429</ele>
        <time>2019-01-09T07:49:39Z</time>
      </trkpt>
      <trkpt lat="50.12007" lon="5.79699">
        <ele>426</ele>
        <time>2019-01-09T07:50:39Z</time>
      </trkpt>
      <trkpt lat="50.12025" lon="5.79728">
        <ele>425</ele>
        <time>2019-01-09T07:51:39Z</time>
      </trkpt>
      <trkpt lat="50.12034" lon="5.79739">
        <ele>425</ele>
        <time>2019-01-09T07:52:39Z</time>
      </trkpt>
      <trkpt lat="50.12048" lon="5.79751">
        <ele>425</ele>
        <time>2019-01-09T07:53:39Z</time>
      </trkpt>
      <trkpt lat="50.12067" lon="5.79763">
        <ele>425</ele>
        <time>2019-01-09T07:54:39Z</time>
      </trkpt>
      <trkpt lat="50.12086" lon="5.79775">
        <ele>426</ele>
        <time>2019-01-09T07:55:39Z</time>
      </trkpt>
      <trkpt lat="50.12105" lon="5.7978">
        <ele>427</ele>
        <time>2019-01-09T07:56:39Z</time>
      </trkpt>
      <trkpt lat="50.12125" lon="5.79784">
        <ele>429</ele>
        <time>2019-01-09T07:57:39Z</time>
      </trkpt>
      <trkpt lat="50.12143" lon="5.79792">
        <ele>430</ele>
        <time>2019-01-09T07:58:39Z</time>
      </trkpt>
      <trkpt lat="50.1217" lon="5.79808">
        <ele>431</ele>
        <time>2019-01-09T07:59:39Z</time>
      </trkpt>
      <trkpt lat="50.12193" lon="5.79832">
        <ele>431</ele>
        <time>2019-01-09T08:00:39Z</time>
      </trkpt>
      <trkpt lat="50.12208" lon="5.79864">
        <ele>429</ele>
        <time>2019-01-09T08:01:39Z</time>
      </trkpt>
      <trkpt lat="50.12228" lon="5.79908">
        <ele>427</ele>
        <time>2019-01-09T08:02:39Z</time>
      </trkpt>
      <trkpt lat="50.12239" lon="5.79934">
        <ele>425</ele>
        <time>2019-01-09T08:03:39Z</time>
      </trkpt>
      <trkpt lat="50.12253" lon="5.79961">
        <ele>423</ele>
        <time>2019-01-09T08:04:39Z</time>
      </trkpt>
      <trkpt lat="50.12268" lon="5.7999">
        <ele>422</ele>
        <time>2019-01-09T08:05:39Z</time>
      </trkpt>
      <trkpt lat="50.12291" lon="5.80031">
        <ele>418</ele>
        <time>2019-01-09T08:06:39Z</time>
      </trkpt>
      <trkpt lat="50.1235" lon="5.80111">
        <ele>415</ele>
        <time>2019-01-09T08:07:39Z</time>
      </trkpt>
      <trkpt lat="50.12363" lon="5.80133">
        <ele>413</ele>
        <time>2019-01-09T08:08:39Z</time>
      </trkpt>
      <trkpt lat="50.12392" lon="5.80167">
        <ele>410</ele>
        <time>2019-01-09T08:09:39Z</time>
      </trkpt>
      <trkpt lat="50.12409" lon="5.8018">
        <ele>410</ele>
        <time>2019-01-09T08:10:39Z</time>
      </trkpt>
      <trkpt lat="50.12433" lon="5.80183">
        <ele>409</ele>
        <time>2019-01-09T08:11:39Z</time>
      </trkpt>
      <trkpt lat="50.12427" lon="5.80207">
        <ele>404</ele>
        <time>2019-01-09T08:12:39Z</time>
      </trkpt>
      <trkpt lat="50.1241" lon="5.80211">
        <ele>404</ele>
        <time>2019-01-09T08:13:39Z</time>
      </trkpt>
      <trkpt lat="50.12394" lon="5.80199">
        <ele>404</ele>
        <time>2019-01-09T08:14:39Z</time>
      </trkpt>
      <trkpt lat="50.12379" lon="5.80183">
        <ele>405</ele>
        <time>2019-01-09T08:15:39Z</time>
      </trkpt>
      <trkpt lat="50.12348" lon="5.80145">
        <ele>407</ele>
        <time>2019-01-09T08:16:39Z</time>
      </trkpt>
      <trkpt lat="50.12333" lon="5.80133">
        <ele>407</ele>
        <time>2019-01-09T08:17:39Z</time>
      </trkpt>
      <trkpt lat="50.1229" lon="5.80107">
        <ele>404</ele>
        <time>2019-01-09T08:18:39Z</time>
      </trkpt>
      <trkpt lat="50.12233" lon="5.80067">
        <ele>401</ele>
        <time>2019-01-09T08:19:39Z</time>
      </trkpt>
      <trkpt lat="50.12164" lon="5.80023">
        <ele>397</ele>
        <time>2019-01-09T08:20:39Z</time>
      </trkpt>
      <trkpt lat="50.12108" lon="5.7997">
        <ele>400</ele>
        <time>2019-01-09T08:21:39Z</time>
      </trkpt>
      <trkpt lat="50.12075" lon="5.79975">
        <ele>395</ele>
        <time>2019-01-09T08:22:39Z</time>
      </trkpt>
      <trkpt lat="50.12054" lon="5.79971">
        <ele>395</ele>
        <time>2019-01-09T08:23:39Z</time>
      </trkpt>
      <trkpt lat="50.12046" lon="5.79967">
        <ele>396</ele>
        <time>2019-01-09T08:24:39Z</time>
      </trkpt>
      <trkpt lat="50.12039" lon="5.79969">
        <ele>395</ele>
        <time>2019-01-09T08:25:39Z</time>
      </trkpt>
      <trkpt lat="50.12021" lon="5.79983">
        <ele>392</ele>
        <time>2019-01-09T08:26:39Z</time>
      </trkpt>
      <trkpt lat="50.12002" lon="5.79994">
        <ele>389</ele>
        <time>2019-01-09T08:27:39Z</time>
      </trkpt>
      <trkpt lat="50.11981" lon="5.80004">
        <ele>389</ele>
        <time>2019-01-09T08:28:39Z</time>
      </trkpt>
      <trkpt lat="50.11931" lon="5.80041">
        <ele>386</ele>
        <time>2019-01-09T08:29:39Z</time>
      </trkpt>
      <trkpt lat="50.11916" lon="5.80044">
        <ele>386</ele>
        <time>2019-01-09T08:30:39Z</time>
      </trkpt>
      <trkpt lat="50.11882" lon="5.80045">
        <ele>386</ele>
        <time>2019-01-09T08:31:39Z</time>
      </trkpt>
      <trkpt lat="50.11866" lon="5.80049">
        <ele>386</ele>
        <time>2019-01-09T08:32:39Z</time>
      </trkpt>
      <trkpt lat="50.11833" lon="5.80081">
        <ele>382</ele>
        <time>2019-01-09T08:33:39Z</time>
      </trkpt>
      <trkpt lat="50.11761" lon="5.80144">
        <ele>385</ele>
        <time>2019-01-09T08:34:39Z</time>
      </trkpt>
      <trkpt lat="50.11748" lon="5.80169">
        <ele>383</ele>
        <time>2019-01-09T08:35:39Z</time>
      </trkpt>
      <trkpt lat="50.1174" lon="5.80203">
        <ele>386</ele>
        <time>2019-01-09T08:36:39Z</time>
      </trkpt>
      <trkpt lat="50.11736" lon="5.80245">
        <ele>390</ele>
        <time>2019-01-09T08:37:39Z</time>
      </trkpt>
      <trkpt lat="50.11739" lon="5.80285">
        <ele>391</ele>
        <time>2019-01-09T08:38:39Z</time>
      </trkpt>
      <trkpt lat="50.11743" lon="5.8032">
        <ele>392</ele>
        <time>2019-01-09T08:39:39Z</time>
      </trkpt>
      <trkpt lat="50.11757" lon="5.80402">
        <ele>392</ele>
        <time>2019-01-09T08:40:39Z</time>
      </trkpt>
      <trkpt lat="50.11759" lon="5.80435">
        <ele>392</ele>
        <time>2019-01-09T08:41:39Z</time>
      </trkpt>
      <trkpt lat="50.11756" lon="5.80455">
        <ele>391</ele>
        <time>2019-01-09T08:42:39Z</time>
      </trkpt>
      <trkpt lat="50.11752" lon="5.80466">
        <ele>390</ele>
        <time>2019-01-09T08:43:39Z</time>
      </trkpt>
      <trkpt lat="50.11742" lon="5.80476">
        <ele>389</ele>
        <time>2019-01-09T08:44:39Z</time>
      </trkpt>
      <trkpt lat="50.11729" lon="5.80481">
        <ele>388</ele>
        <time>2019-01-09T08:45:39Z</time>
      </trkpt>
      <trkpt lat="50.11718" lon="5.80482">
        <ele>388</ele>
        <time>2019-01-09T08:46:39Z</time>
      </trkpt>
      <trkpt lat="50.11685" lon="5.80475">
        <ele>386</ele>
        <time>2019-01-09T08:47:39Z</time>
      </trkpt>
      <trkpt lat="50.11669" lon="5.80475">
        <ele>385</ele>
        <time>2019-01-09T08:48:39Z</time>
      </trkpt>
      <trkpt lat="50.11655" lon="5.80481">
        <ele>386</ele>
        <time>2019-01-09T08:49:39Z</time>
      </trkpt>
      <trkpt lat="50.11633" lon="5.80501">
        <ele>387</ele>
        <time>2019-01-09T08:50:39Z</time>
      </trkpt>
      <trkpt lat="50.11592" lon="5.8054">
        <ele>396</ele>
        <time>2019-01-09T08:51:39Z</time>
      </trkpt>
      <trkpt lat="50.11558" lon="5.80563">
        <ele>402</ele>
        <time>2019-01-09T08:52:39Z</time>
      </trkpt>
      <trkpt lat="50.11533" lon="5.80567">
        <ele>403</ele>
        <time>2019-01-09T08:53:39Z</time>
      </trkpt>
      <trkpt lat="50.11503" lon="5.80561">
        <ele>403</ele>
        <time>2019-01-09T08:54:39Z</time>
      </trkpt>
      <trkpt lat="50.1149" lon="5.80556">
        <ele>402</ele>
        <time>2019-01-09T08:55:39Z</time>
      </trkpt>
      <trkpt lat="50.1144" lon="5.80537">
        <ele>398</ele>
        <time>2019-01-09T08:56:39Z</time>
      </trkpt>
      <trkpt lat="50.11408" lon="5.80544">
        <ele>396</ele>
        <time>2019-01-09T08:57:39Z</time>
      </trkpt>
      <trkpt lat="50.11383" lon="5.80558">
        <ele>394</ele>
        <time>2019-01-09T08:58:39Z</time>
      </trkpt>
      <trkpt lat="50.11358" lon="5.8059">
        <ele>392</ele>
        <time>2019-01-09T08:59:39Z</time>
      </trkpt>
      <trkpt lat="50.11338" lon="5.80634">
        <ele>390</ele>
        <time>2019-01-09T09:00:39Z</time>
      </trkpt>
      <trkpt lat="50.11319" lon="5.80696">
        <ele>394</ele>
        <time>2019-01-09T09:01:39Z</time>
      </trkpt>
      <trkpt lat="50.11297" lon="5.80836">
        <ele>398</ele>
        <time>2019-01-09T09:02:39Z</time>
      </trkpt>
      <trkpt lat="50.11293" lon="5.80856">
        <ele>397</ele>
        <time>2019-01-09T09:03:39Z</time>
      </trkpt>
      <trkpt lat="50.11284" lon="5.80882">
        <ele>396</ele>
        <time>2019-01-09T09:04:39Z</time>
      </trkpt>
      <trkpt lat="50.11267" lon="5.80921">
        <ele>393</ele>
        <time>2019-01-09T09:05:39Z</time>
      </trkpt>
      <trkpt lat="50.11246" lon="5.80953">
        <ele>391</ele>
        <time>2019-01-09T09:06:39Z</time>
      </trkpt>
      <trkpt lat="50.11218" lon="5.80993">
        <ele>391</ele>
        <time>2019-01-09T09:07:39Z</time>
      </trkpt>
      <trkpt lat="50.1121" lon="5.81008">
        <ele>391</ele>
        <time>2019-01-09T09:08:39Z</time>
      </trkpt>
      <trkpt lat="50.11203" lon="5.81034">
        <ele>392</ele>
        <time>2019-01-09T09:09:39Z</time>
      </trkpt>
      <trkpt lat="50.112" lon="5.81064">
        <ele>393</ele>
        <time>2019-01-09T09:10:39Z</time>
      </trkpt>
      <trkpt lat="50.112" lon="5.81118">
        <ele>395</ele>
        <time>2019-01-09T09:11:39Z</time>
      </trkpt>
      <trkpt lat="50.11203" lon="5.81158">
        <ele>396</ele>
        <time>2019-01-09T09:12:39Z</time>
      </trkpt>
      <trkpt lat="50.11211" lon="5.81186">
        <ele>398</ele>
        <time>2019-01-09T09:13:39Z</time>
      </trkpt>
      <trkpt lat="50.11233" lon="5.81249">
        <ele>402</ele>
        <time>2019-01-09T09:14:39Z</time>
      </trkpt>
      <trkpt lat="50.11249" lon="5.81299">
        <ele>403</ele>
        <time>2019-01-09T09:15:39Z</time>
      </trkpt>
      <trkpt lat="50.1126" lon="5.81345">
        <ele>405</ele>
        <time>2019-01-09T09:16:39Z</time>
      </trkpt>
      <trkpt lat="50.11265" lon="5.81413">
        <ele>408</ele>
        <time>2019-01-09T09:17:39Z</time>
      </trkpt>
      <trkpt lat="50.11264" lon="5.81466">
        <ele>409</ele>
        <time>2019-01-09T09:18:39Z</time>
      </trkpt>
      <trkpt lat="50.11251" lon="5.8156">
        <ele>409</ele>
        <time>2019-01-09T09:19:39Z</time>
      </trkpt>
      <trkpt lat="50.1126" lon="5.81645">
        <ele>413</ele>
        <time>2019-01-09T09:20:39Z</time>
      </trkpt>
      <trkpt lat="50.11278" lon="5.81704">
        <ele>416</ele>
        <time>2019-01-09T09:21:39Z</time>
      </trkpt>
      <trkpt lat="50.11299" lon="5.81771">
        <ele>420</ele>
        <time>2019-01-09T09:22:39Z</time>
      </trkpt>
      <trkpt lat="50.11306" lon="5.81794">
        <ele>422</ele>
        <time>2019-01-09T09:23:39Z</time>
      </trkpt>
      <trkpt lat="50.11308" lon="5.81826">
        <ele>424</ele>
        <time>2019-01-09T09:24:39Z</time>
      </trkpt>
      <trkpt lat="50.11308" lon="5.81848">
        <ele>425</ele>
        <time>2019-01-09T09:25:39Z</time>
      </trkpt>
      <trkpt lat="50.11304" lon="5.81874">
        <ele>425</ele>
        <time>2019-01-09T09:26:39Z</time>
      </trkpt>
      <trkpt lat="50.11296" lon="5.81943">
        <ele>427</ele>
        <time>2019-01-09T09:27:39Z</time>
      </trkpt>
      <trkpt lat="50.11293" lon="5.82002">
        <ele>428</ele>
        <time>2019-01-09T09:28:39Z</time>
      </trkpt>
      <trkpt lat="50.11296" lon="5.82052">
        <ele>430</ele>
        <time>2019-01-09T09:29:39Z</time>
      </trkpt>
      <trkpt lat="50.11309" lon="5.82262">
        <ele>437</ele>
        <time>2019-01-09T09:30:39Z</time>
      </trkpt>
      <trkpt lat="50.11315" lon="5.82382">
        <ele>441</ele>
        <time>2019-01-09T09:31:39Z</time>
      </trkpt>
      <trkpt lat="50.11314" lon="5.82392">
        <ele>442</ele>
        <time>2019-01-09T09:32:39Z</time>
      </trkpt>
      <trkpt lat="50.11308" lon="5.82427">
        <ele>443</ele>
        <time>2019-01-09T09:33:39Z</time>
      </trkpt>
      <trkpt lat="50.11301" lon="5.82449">
        <ele>444</ele>
        <time>2019-01-09T09:34:39Z</time>
      </trkpt>
      <trkpt lat="50.11293" lon="5.82468">
        <ele>445</ele>
        <time>2019-01-09T09:35:39Z</time>
      </trkpt>
      <trkpt lat="50.11282" lon="5.82487">
        <ele>445</ele>
        <time>2019-01-09T09:36:39Z</time>
      </trkpt>
      <trkpt lat="50.11267" lon="5.82512">
        <ele>447</ele>
        <time>2019-01-09T09:37:39Z</time>
      </trkpt>
      <trkpt lat="50.11245" lon="5.82546">
        <ele>449</ele>
        <time>2019-01-09T09:38:39Z</time>
      </trkpt>
      <trkpt lat="50.1118" lon="5.82641">
        <ele>453</ele>
        <time>2019-01-09T09:39:39Z</time>
      </trkpt>
      <trkpt lat="50.11123" lon="5.8273">
        <ele>455</ele>
        <time>2019-01-09T09:40:39Z</time>
      </trkpt>
      <trkpt lat="50.11113" lon="5.82745">
        <ele>455</ele>
        <time>2019-01-09T09:41:39Z</time>
      </trkpt>
      <trkpt lat="50.11104" lon="5.82763">
        <ele>455</ele>
        <time>2019-01-09T09:42:39Z</time>
      </trkpt>
      <trkpt lat="50.11096" lon="5.82782">
        <ele>455</ele>
        <time>2019-01-09T09:43:39Z</time>
      </trkpt>
      <trkpt lat="50.11089" lon="5.82808">
        <ele>456</ele>
        <time>2019-01-09T09:44:39Z</time>
      </trkpt>
      <trkpt lat="50.11083" lon="5.8284">
        <ele>456</ele>
        <time>2019-01-09T09:45:39Z</time>
      </trkpt>
      <trkpt lat="50.11082" lon="5.82877">
        <ele>455</ele>
        <time>2019-01-09T09:46:39Z</time>
      </trkpt>
      <trkpt lat="50.11082" lon="5.82921">
        <ele>455</ele>
        <time>2019-01-09T09:47:39Z</time>
      </trkpt>
      <trkpt lat="50.11089" lon="5.83093">
        <ele>455</ele>
        <time>2019-01-09T09:48:39Z</time>
      </trkpt>
      <trkpt lat="50.11093" lon="5.83221">
        <ele>450</ele>
        <time>2019-01-09T09:49:39Z</time>
      </trkpt>
      <trkpt lat="50.11086" lon="5.83299">
        <ele>446</ele>
        <time>2019-01-09T09:50:39Z</time>
      </trkpt>
      <trkpt lat="50.11051" lon="5.83411">
        <ele>443</ele>
        <time>2019-01-09T09:51:39Z</time>
      </trkpt>
      <trkpt lat="50.1102" lon="5.83495">
        <ele>439</ele>
        <time>2019-01-09T09:52:39Z</time>
      </trkpt>
      <trkpt lat="50.10988" lon="5.83579">
        <ele>436</ele>
        <time>2019-01-09T09:53:39Z</time>
      </trkpt>
      <trkpt lat="50.1097" lon="5.83632">
        <ele>436</ele>
        <time>2019-01-09T09:54:39Z</time>
      </trkpt>
      <trkpt lat="50.10936" lon="5.83688">
        <ele>434</ele>
        <time>2019-01-09T09:55:39Z</time>
      </trkpt>
      <trkpt lat="50.10879" lon="5.83757">
        <ele>429</ele>
        <time>2019-01-09T09:56:39Z</time>
      </trkpt>
      <trkpt lat="50.10843" lon="5.83792">
        <ele>427</ele>
        <time>2019-01-09T09:57:39Z</time>
      </trkpt>
      <trkpt lat="50.10864" lon="5.83862">
        <ele>428</ele>
        <time>2019-01-09T09:58:39Z</time>
      </trkpt>
      <trkpt lat="50.10887" lon="5.83936">
        <ele>430</ele>
        <time>2019-01-09T09:59:39Z</time>
      </trkpt>
      <trkpt lat="50.10897" lon="5.83941">
        <ele>431</ele>
        <time>2019-01-09T10:00:39Z</time>
      </trkpt>
      <trkpt lat="50.10923" lon="5.83925">
        <ele>432</ele>
        <time>2019-01-09T10:01:39Z</time>
      </trkpt>
      <trkpt lat="50.10931" lon="5.8392">
        <ele>433</ele>
        <time>2019-01-09T10:02:39Z</time>
      </trkpt>
      <trkpt lat="50.1094" lon="5.83932">
        <ele>434</ele>
        <time>2019-01-09T10:03:39Z</time>
      </trkpt>
      <trkpt lat="50.10944" lon="5.83946">
        <ele>434</ele>
        <time>2019-01-09T10:04:39Z</time>
      </trkpt>
      <trkpt lat="50.10951" lon="5.83966">
        <ele>434</ele>
        <time>2019-01-09T10:05:39Z</time>
      </trkpt>
      <trkpt lat="50.10963" lon="5.84">
        <ele>435</ele>
        <time>2019-01-09T10:06:39Z</time>
      </trkpt>
      <trkpt lat="50.1097" lon="5.84013">
        <ele>435</ele>
        <time>2019-01-09T10:07:39Z</time>
      </trkpt>
      <trkpt lat="50.11038" lon="5.84055">
        <ele>437</ele>
        <time>2019-01-09T10:08:39Z</time>
      </trkpt>
      <trkpt lat="50.11074" lon="5.84066">
        <ele>437</ele>
        <time>2019-01-09T10:09:39Z</time>
      </trkpt>
      <trkpt lat="50.11151" lon="5.84073">
        <ele>436</ele>
        <time>2019-01-09T10:10:39Z</time>
      </trkpt>
      <trkpt lat="50.11211" lon="5.84097">
        <ele>432</ele>
        <time>2019-01-09T10:11:39Z</time>
      </trkpt>
      <trkpt lat="50.11229" lon="5.8411">
        <ele>430</ele>
        <time>2019-01-09T10:12:39Z</time>
      </trkpt>
      <trkpt lat="50.11298" lon="5.84157">
        <ele>427</ele>
        <time>2019-01-09T10:13:39Z</time>
      </trkpt>
      <trkpt lat="50.11328" lon="5.84183">
        <ele>425</ele>
        <time>2019-01-09T10:14:39Z</time>
      </trkpt>
      <trkpt lat="50.11344" lon="5.842">
        <ele>425</ele>
        <time>2019-01-09T10:15:39Z</time>
      </trkpt>
      <trkpt lat="50.11356" lon="5.84212">
        <ele>425</ele>
        <time>2019-01-09T10:16:39Z</time>
      </trkpt>
      <trkpt lat="50.11367" lon="5.84233">
        <ele>425</ele>
        <time>2019-01-09T10:17:39Z</time>
      </trkpt>
      <trkpt lat="50.11384" lon="5.84269">
        <ele>424</ele>
        <time>2019-01-09T10:18:39Z</time>
      </trkpt>
      <trkpt lat="50.11396" lon="5.84282">
        <ele>423</ele>
        <time>2019-01-09T10:19:39Z</time>
      </trkpt>
      <trkpt lat="50.11402" lon="5.84286">
        <ele>423</ele>
        <time>2019-01-09T10:20:39Z</time>
      </trkpt>
      <trkpt lat="50.11417" lon="5.84289">
        <ele>424</ele>
        <time>2019-01-09T10:21:39Z</time>
      </trkpt>
      <trkpt lat="50.11429" lon="5.84288">
        <ele>422</ele>
        <time>2019-01-09T10:22:39Z</time>
      </trkpt>
      <trkpt lat="50.11442" lon="5.84282">
        <ele>420</ele>
        <time>2019-01-09T10:23:39Z</time>
      </trkpt>
      <trkpt lat="50.11453" lon="5.84269">
        <ele>419</ele>
        <time>2019-01-09T10:24:39Z</time>
      </trkpt>
      <trkpt lat="50.11475" lon="5.84234">
        <ele>419</ele>
        <time>2019-01-09T10:25:39Z</time>
      </trkpt>
      <trkpt lat="50.11491" lon="5.84209">
        <ele>420</ele>
        <time>2019-01-09T10:26:39Z</time>
      </trkpt>
      <trkpt lat="50.11514" lon="5.8418">
        <ele>421</ele>
        <time>2019-01-09T10:27:39Z</time>
      </trkpt>
      <trkpt lat="50.11537" lon="5.84167">
        <ele>420</ele>
        <time>2019-01-09T10:28:39Z</time>
      </trkpt>
      <trkpt lat="50.11553" lon="5.84159">
        <ele>420</ele>
        <time>2019-01-09T10:29:39Z</time>
      </trkpt>
      <trkpt lat="50.1157" lon="5.84152">
        <ele>419</ele>
        <time>2019-01-09T10:30:39Z</time>
      </trkpt>
      <trkpt lat="50.11588" lon="5.84147">
        <ele>418</ele>
        <time>2019-01-09T10:31:39Z</time>
      </trkpt>
      <trkpt lat="50.11607" lon="5.84142">
        <ele>418</ele>
        <time>2019-01-09T10:32:39Z</time>
      </trkpt>
      <trkpt lat="50.11697" lon="5.84134">
        <ele>412</ele>
        <time>2019-01-09T10:33:39Z</time>
      </trkpt>
      <trkpt lat="50.11734" lon="5.84131">
        <ele>409</ele>
        <time>2019-01-09T10:34:39Z</time>
      </trkpt>
      <trkpt lat="50.11817" lon="5.84117">
        <ele>408</ele>
        <time>2019-01-09T10:35:39Z</time>
      </trkpt>
      <trkpt lat="50.11853" lon="5.84123">
        <ele>408</ele>
        <time>2019-01-09T10:36:39Z</time>
      </trkpt>
      <trkpt lat="50.11865" lon="5.84129">
        <ele>408</ele>
        <time>2019-01-09T10:37:39Z</time>
      </trkpt>
      <trkpt lat="50.11881" lon="5.84137">
        <ele>407</ele>
        <time>2019-01-09T10:38:39Z</time>
      </trkpt>
      <trkpt lat="50.11897" lon="5.84148">
        <ele>407</ele>
        <time>2019-01-09T10:39:39Z</time>
      </trkpt>
      <trkpt lat="50.11912" lon="5.84161">
        <ele>406</ele>
        <time>2019-01-09T10:40:39Z</time>
      </trkpt>
      <trkpt lat="50.11944" lon="5.84195">
        <ele>409</ele>
        <time>2019-01-09T10:41:39Z</time>
      </trkpt>
      <trkpt lat="50.11963" lon="5.84214">
        <ele>411</ele>
        <time>2019-01-09T10:42:39Z</time>
      </trkpt>
      <trkpt lat="50.11972" lon="5.84218">
        <ele>412</ele>
        <time>2019-01-09T10:43:39Z</time>
      </trkpt>
      <trkpt lat="50.11983" lon="5.84216">
        <ele>412</ele>
        <time>2019-01-09T10:44:39Z</time>
      </trkpt>
      <trkpt lat="50.11993" lon="5.8421">
        <ele>412</ele>
        <time>2019-01-09T10:45:39Z</time>
      </trkpt>
      <trkpt lat="50.12" lon="5.84199">
        <ele>411</ele>
        <time>2019-01-09T10:46:39Z</time>
      </trkpt>
      <trkpt lat="50.12005" lon="5.84174">
        <ele>409</ele>
        <time>2019-01-09T10:47:39Z</time>
      </trkpt>
      <trkpt lat="50.12005" lon="5.84152">
        <ele>408</ele>
        <time>2019-01-09T10:48:39Z</time>
      </trkpt>
      <trkpt lat="50.12005" lon="5.84132">
        <ele>407</ele>
        <time>2019-01-09T10:49:39Z</time>
      </trkpt>
      <trkpt lat="50.12004" lon="5.84062">
        <ele>406</ele>
        <time>2019-01-09T10:50:39Z</time>
      </trkpt>
      <trkpt lat="50.12005" lon="5.83985">
        <ele>404</ele>
        <time>2019-01-09T10:51:39Z</time>
      </trkpt>
      <trkpt lat="50.12007" lon="5.83968">
        <ele>403</ele>
        <time>2019-01-09T10:52:39Z</time>
      </trkpt>
      <trkpt lat="50.12009" lon="5.83952">
        <ele>402</ele>
        <time>2019-01-09T10:53:39Z</time>
      </trkpt>
      <trkpt lat="50.12014" lon="5.83938">
        <ele>402</ele>
        <time>2019-01-09T10:54:39Z</time>
      </trkpt>
      <trkpt lat="50.12021" lon="5.83926">
        <ele>401</ele>
        <time>2019-01-09T10:55:39Z</time>
      </trkpt>
      <trkpt lat="50.12031" lon="5.83917">
        <ele>400</ele>
        <time>2019-01-09T10:56:39Z</time>
      </trkpt>
      <trkpt lat="50.12043" lon="5.83915">
        <ele>400</ele>
        <time>2019-01-09T10:57:39Z</time>
      </trkpt>
      <trkpt lat="50.12056" lon="5.83919">
        <ele>399</ele>
        <time>2019-01-09T10:58:39Z</time>
      </trkpt>
      <trkpt lat="50.12066" lon="5.83927">
        <ele>399</ele>
        <time>2019-01-09T10:59:39Z</time>
      </trkpt>
      <trkpt lat="50.12075" lon="5.83939">
        <ele>399</ele>
        <time>2019-01-09T11:00:39Z</time>
      </trkpt>
      <trkpt lat="50.12083" lon="5.83952">
        <ele>400</ele>
        <time>2019-01-09T11:01:39Z</time>
      </trkpt>
      <trkpt lat="50.12115" lon="5.84019">
        <ele>402</ele>
        <time>2019-01-09T11:02:39Z</time>
      </trkpt>
      <trkpt lat="50.12134" lon="5.84029">
        <ele>402</ele>
        <time>2019-01-09T11:03:39Z</time>
      </trkpt>
      <trkpt lat="50.12158" lon="5.84039">
        <ele>402</ele>
        <time>2019-01-09T11:04:39Z</time>
      </trkpt>
      <trkpt lat="50.12189" lon="5.84061">
        <ele>405</ele>
        <time>2019-01-09T11:05:39Z</time>
      </trkpt>
      <trkpt lat="50.1222" lon="5.8409">
        <ele>408</ele>
        <time>2019-01-09T11:06:39Z</time>
      </trkpt>
      <trkpt lat="50.12276" lon="5.84148">
        <ele>415</ele>
        <time>2019-01-09T11:07:39Z</time>
      </trkpt>
      <trkpt lat="50.12328" lon="5.84203">
        <ele>414</ele>
        <time>2019-01-09T11:08:39Z</time>
      </trkpt>
      <trkpt lat="50.12349" lon="5.84215">
        <ele>415</ele>
        <time>2019-01-09T11:09:39Z</time>
      </trkpt>
      <trkpt lat="50.12385" lon="5.84236">
        <ele>417</ele>
        <time>2019-01-09T11:10:39Z</time>
      </trkpt>
      <trkpt lat="50.1244" lon="5.84263">
        <ele>418</ele>
        <time>2019-01-09T11:11:39Z</time>
      </trkpt>
      <trkpt lat="50.12469" lon="5.84264">
        <ele>417</ele>
        <time>2019-01-09T11:12:39Z</time>
      </trkpt>
      <trkpt lat="50.12565" lon="5.8427">
        <ele>415</ele>
        <time>2019-01-09T11:13:39Z</time>
      </trkpt>
      <trkpt lat="50.12621" lon="5.84357">
        <ele>426</ele>
        <time>2019-01-09T11:14:39Z</time>
      </trkpt>
      <trkpt lat="50.12691" lon="5.8446">
        <ele>426</ele>
        <time>2019-01-09T11:15:39Z</time>
      </trkpt>
      <trkpt lat="50.12749" lon="5.84549">
        <ele>426</ele>
        <time>2019-01-09T11:16:39Z</time>
      </trkpt>
      <trkpt lat="50.12756" lon="5.84558">
        <ele>427</ele>
        <time>2019-01-09T11:17:39Z</time>
      </trkpt>
      <trkpt lat="50.12771" lon="5.84568">
        <ele>428</ele>
        <time>2019-01-09T11:18:39Z</time>
      </trkpt>
      <trkpt lat="50.12789" lon="5.84585">
        <ele>428</ele>
        <time>2019-01-09T11:19:39Z</time>
      </trkpt>
      <trkpt lat="50.12806" lon="5.84602">
        <ele>429</ele>
        <time>2019-01-09T11:20:39Z</time>
      </trkpt>
      <trkpt lat="50.1282" lon="5.84623">
        <ele>430</ele>
        <time>2019-01-09T11:21:39Z</time>
      </trkpt>
      <trkpt lat="50.12831" lon="5.84636">
        <ele>431</ele>
        <time>2019-01-09T11:22:39Z</time>
      </trkpt>
      <trkpt lat="50.12835" lon="5.84641">
        <ele>432</ele>
        <time>2019-01-09T11:23:39Z</time>
      </trkpt>
      <trkpt lat="50.12842" lon="5.84647">
        <ele>432</ele>
        <time>2019-01-09T11:24:39Z</time>
      </trkpt>
      <trkpt lat="50.12854" lon="5.8465">
        <ele>433</ele>
        <time>2019-01-09T11:25:39Z</time>
      </trkpt>
      <trkpt lat="50.12865" lon="5.84651">
        <ele>434</ele>
        <time>2019-01-09T11:26:39Z</time>
      </trkpt>
      <trkpt lat="50.12879" lon="5.84653">
        <ele>434</ele>
        <time>2019-01-09T11:27:39Z</time>
      </trkpt>
      <trkpt lat="50.12891" lon="5.84648">
        <ele>434</ele>
        <time>2019-01-09T11:28:39Z</time>
      </trkpt>
      <trkpt lat="50.129" lon="5.84637">
        <ele>435</ele>
        <time>2019-01-09T11:29:39Z</time>
      </trkpt>
      <trkpt lat="50.12904" lon="5.84614">
        <ele>435</ele>
        <time>2019-01-09T11:30:39Z</time>
      </trkpt>
      <trkpt lat="50.12903" lon="5.84596">
        <ele>434</ele>
        <time>2019-01-09T11:31:39Z</time>
      </trkpt>
      <trkpt lat="50.12894" lon="5.84573">
        <ele>434</ele>
        <time>2019-01-09T11:32:39Z</time>
      </trkpt>
      <trkpt lat="50.12885" lon="5.84552">
        <ele>433</ele>
        <time>2019-01-09T11:33:39Z</time>
      </trkpt>
      <trkpt lat="50.12878" lon="5.84534">
        <ele>433</ele>
        <time>2019-01-09T11:34:39Z</time>
      </trkpt>
      <trkpt lat="50.12871" lon="5.84517">
        <ele>432</ele>
        <time>2019-01-09T11:35:39Z</time>
      </trkpt>
      <trkpt lat="50.12866" lon="5.84504">
        <ele>432</ele>
        <time>2019-01-09T11:36:39Z</time>
      </trkpt>
      <trkpt lat="50.12861" lon="5.84486">
        <ele>431</ele>
        <time>2019-01-09T11:37:39Z</time>
      </trkpt>
      <trkpt lat="50.12857" lon="5.84467">
        <ele>431</ele>
        <time>2019-01-09T11:38:39Z</time>
      </trkpt>
      <trkpt lat="50.1286" lon="5.84455">
        <ele>432</ele>
        <time>2019-01-09T11:39:39Z</time>
      </trkpt>
      <trkpt lat="50.12864" lon="5.84429">
        <ele>433</ele>
        <time>2019-01-09T11:40:39Z</time>
      </trkpt>
      <trkpt lat="50.12865" lon="5.84408">
        <ele>433</ele>
        <time>2019-01-09T11:41:39Z</time>
      </trkpt>
      <trkpt lat="50.12864" lon="5.84396">
        <ele>433</ele>
        <time>2019-01-09T11:42:39Z</time>
      </trkpt>
      <trkpt lat="50.12863" lon="5.84376">
        <ele>433</ele>
        <time>2019-01-09T11:43:39Z</time>
      </trkpt>
      <trkpt lat="50.12863" lon="5.84361">
        <ele>433</ele>
        <time>2019-01-09T11:44:39Z</time>
      </trkpt>
      <trkpt lat="50.12862" lon="5.84346">
        <ele>434</ele>
        <time>2019-01-09T11:45:39Z</time>
      </trkpt>
      <trkpt lat="50.12861" lon="5.84328">
        <ele>434</ele>
        <time>2019-01-09T11:46:39Z</time>
      </trkpt>
      <trkpt lat="50.12864" lon="5.8431">
        <ele>435</ele>
        <time>2019-01-09T11:47:39Z</time>
      </trkpt>
      <trkpt lat="50.12872" lon="5.843">
        <ele>436</ele>
        <time>2019-01-09T11:48:39Z</time>
      </trkpt>
      <trkpt lat="50.12886" lon="5.84296">
        <ele>438</ele>
        <time>2019-01-09T11:49:39Z</time>
      </trkpt>
      <trkpt lat="50.12891" lon="5.84305">
        <ele>438</ele>
        <time>2019-01-09T11:50:39Z</time>
      </trkpt>
      <trkpt lat="50.12897" lon="5.84314">
        <ele>439</ele>
        <time>2019-01-09T11:51:39Z</time>
      </trkpt>
      <trkpt lat="50.12909" lon="5.84371">
        <ele>440</ele>
        <time>2019-01-09T11:52:39Z</time>
      </trkpt>
      <trkpt lat="50.12921" lon="5.84394">
        <ele>442</ele>
        <time>2019-01-09T11:53:39Z</time>
      </trkpt>
      <trkpt lat="50.12928" lon="5.84407">
        <ele>443</ele>
        <time>2019-01-09T11:54:39Z</time>
      </trkpt>
      <trkpt lat="50.12978" lon="5.84476">
        <ele>448</ele>
        <time>2019-01-09T11:55:39Z</time>
      </trkpt>
      <trkpt lat="50.13014" lon="5.84531">
        <ele>450</ele>
        <time>2019-01-09T11:56:39Z</time>
      </trkpt>
      <trkpt lat="50.13215" lon="5.84802">
        <ele>464</ele>
        <time>2019-01-09T11:57:39Z</time>
      </trkpt>
      <trkpt lat="50.13291" lon="5.84907">
        <ele>469</ele>
        <time>2019-01-09T11:58:39Z</time>
      </trkpt>
      <trkpt lat="50.13313" lon="5.84945">
        <ele>471</ele>
        <time>2019-01-09T11:59:39Z</time>
      </trkpt>
      <trkpt lat="50.13324" lon="5.84972">
        <ele>472</ele>
        <time>2019-01-09T12:00:39Z</time>
      </trkpt>
      <trkpt lat="50.13332" lon="5.84995">
        <ele>473</ele>
        <time>2019-01-09T12:01:39Z</time>
      </trkpt>
      <trkpt lat="50.13339" lon="5.85021">
        <ele>473</ele>
        <time>2019-01-09T12:02:39Z</time>
      </trkpt>
      <trkpt lat="50.13347" lon="5.85064">
        <ele>473</ele>
        <time>2019-01-09T12:03:39Z</time>
      </trkpt>
      <trkpt lat="50.13368" lon="5.85223">
        <ele>473</ele>
        <time>2019-01-09T12:04:39Z</time>
      </trkpt>
      <trkpt lat="50.13381" lon="5.85328">
        <ele>473</ele>
        <time>2019-01-09T12:05:39Z</time>
      </trkpt>
      <trkpt lat="50.13396" lon="5.85461">
        <ele>476</ele>
        <time>2019-01-09T12:06:39Z</time>
      </trkpt>
      <trkpt lat="50.13398" lon="5.85531">
        <ele>477</ele>
        <time>2019-01-09T12:07:39Z</time>
      </trkpt>
      <trkpt lat="50.13394" lon="5.85614">
        <ele>475</ele>
        <time>2019-01-09T12:08:39Z</time>
      </trkpt>
      <trkpt lat="50.13389" lon="5.85706">
        <ele>474</ele>
        <time>2019-01-09T12:09:39Z</time>
      </trkpt>
      <trkpt lat="50.13387" lon="5.85756">
        <ele>473</ele>
        <time>2019-01-09T12:10:39Z</time>
      </trkpt>
      <trkpt lat="50.13397" lon="5.85838">
        <ele>474</ele>
        <time>2019-01-09T12:11:39Z</time>
      </trkpt>
      <trkpt lat="50.13438" lon="5.86015">
        <ele>474</ele>
        <time>2019-01-09T12:12:39Z</time>
      </trkpt>
      <trkpt lat="50.13468" lon="5.86137">
        <ele>476</ele>
        <time>2019-01-09T12:13:39Z</time>
      </trkpt>
      <trkpt lat="50.13532" lon="5.86431">
        <ele>486</ele>
        <time>2019-01-09T12:14:39Z</time>
      </trkpt>
      <trkpt lat="50.13571" lon="5.86666">
        <ele>492</ele>
        <time>2019-01-09T12:15:39Z</time>
      </trkpt>
      <trkpt lat="50.13612" lon="5.86915">
        <ele>494</ele>
        <time>2019-01-09T12:16:39Z</time>
      </trkpt>
      <trkpt lat="50.13626" lon="5.86994">
        <ele>496</ele>
        <time>2019-01-09T12:17:39Z</time>
      </trkpt>
      <trkpt lat="50.13634" lon="5.8706">
        <ele>496</ele>
        <time>2019-01-09T12:18:39Z</time>
      </trkpt>
      <trkpt lat="50.13637" lon="5.87139">
        <ele>496</ele>
        <time>2019-01-09T12:19:39Z</time>
      </trkpt>
      <trkpt lat="50.13637" lon="5.87359">
        <ele>497</ele>
        <time>2019-01-09T12:20:39Z</time>
      </trkpt>
      <trkpt lat="50.13638" lon="5.87497">
        <ele>497</ele>
        <time>2019-01-09T12:21:39Z</time>
      </trkpt>
      <trkpt lat="50.13636" lon="5.8759">
        <ele>502</ele>
        <time>2019-01-09T12:22:39Z</time>
      </trkpt>
      <trkpt lat="50.13632" lon="5.87623">
        <ele>506</ele>
        <time>2019-01-09T12:23:39Z</time>
      </trkpt>
      <trkpt lat="50.13588" lon="5.87849">
        <ele>511</ele>
        <time>2019-01-09T12:24:39Z</time>
      </trkpt>
      <trkpt lat="50.13584" lon="5.87874">
        <ele>510</ele>
        <time>2019-01-09T12:25:39Z</time>
      </trkpt>
      <trkpt lat="50.13581" lon="5.87918">
        <ele>509</ele>
        <time>2019-01-09T12:26:39Z</time>
      </trkpt>
      <trkpt lat="50.13582" lon="5.87941">
        <ele>508</ele>
        <time>2019-01-09T12:27:39Z</time>
      </trkpt>
      <trkpt lat="50.13583" lon="5.87963">
        <ele>508</ele>
        <time>2019-01-09T12:28:39Z</time>
      </trkpt>
      <trkpt lat="50.13587" lon="5.87985">
        <ele>508</ele>
        <time>2019-01-09T12:29:39Z</time>
      </trkpt>
      <trkpt lat="50.13592" lon="5.88005">
        <ele>507</ele>
        <time>2019-01-09T12:30:39Z</time>
      </trkpt>
      <trkpt lat="50.13598" lon="5.88026">
        <ele>506</ele>
        <time>2019-01-09T12:31:39Z</time>
      </trkpt>
      <trkpt lat="50.13696" lon="5.88351">
        <ele>489</ele>
        <time>2019-01-09T12:32:39Z</time>
      </trkpt>
      <trkpt lat="50.13723" lon="5.88436">
        <ele>488</ele>
        <time>2019-01-09T12:33:39Z</time>
      </trkpt>
      <trkpt lat="50.13732" lon="5.88458">
        <ele>487</ele>
        <time>2019-01-09T12:34:39Z</time>
      </trkpt>
      <trkpt lat="50.13746" lon="5.88476">
        <ele>488</ele>
        <time>2019-01-09T12:35:39Z</time>
      </trkpt>
      <trkpt lat="50.13772" lon="5.88511">
        <ele>486</ele>
        <time>2019-01-09T12:36:39Z</time>
      </trkpt>
      <trkpt lat="50.13851" lon="5.88607">
        <ele>483</ele>
        <time>2019-01-09T12:37:39Z</time>
      </trkpt>
      <trkpt lat="50.13874" lon="5.88646">
        <ele>482</ele>
        <time>2019-01-09T12:38:39Z</time>
      </trkpt>
      <trkpt lat="50.13898" lon="5.88702">
        <ele>481</ele>
        <time>2019-01-09T12:39:39Z</time>
      </trkpt>
      <trkpt lat="50.13919" lon="5.88747">
        <ele>480</ele>
        <time>2019-01-09T12:40:39Z</time>
      </trkpt>
      <trkpt lat="50.13937" lon="5.88794">
        <ele>482</ele>
        <time>2019-01-09T12:41:39Z</time>
      </trkpt>
      <trkpt lat="50.14004" lon="5.88988">
        <ele>472</ele>
        <time>2019-01-09T12:42:39Z</time>
      </trkpt>
      <trkpt lat="50.14046" lon="5.89095">
        <ele>471</ele>
        <time>2019-01-09T12:43:39Z</time>
      </trkpt>
      <trkpt lat="50.14118" lon="5.89233">
        <ele>472</ele>
        <time>2019-01-09T12:44:39Z</time>
      </trkpt>
      <trkpt lat="50.14173" lon="5.89338">
        <ele>475</ele>
        <time>2019-01-09T12:45:39Z</time>
      </trkpt>
      <trkpt lat="50.14237" lon="5.89454">
        <ele>476</ele>
        <time>2019-01-09T12:46:39Z</time>
      </trkpt>
      <trkpt lat="50.14324" lon="5.89619">
        <ele>478</ele>
        <time>2019-01-09T12:47:39Z</time>
      </trkpt>
      <trkpt lat="50.14368" lon="5.897">
        <ele>480</ele>
        <time>2019-01-09T12:48:39Z</time>
      </trkpt>
      <trkpt lat="50.14389" lon="5.89764">
        <ele>481</ele>
        <time>2019-01-09T12:49:39Z</time>
      </trkpt>
      <trkpt lat="50.14449" lon="5.9002">
        <ele>484</ele>
        <time>2019-01-09T12:50:39Z</time>
      </trkpt>
      <trkpt lat="50.14455" lon="5.90082">
        <ele>485</ele>
        <time>2019-01-09T12:51:39Z</time>
      </trkpt>
      <trkpt lat="50.14458" lon="5.90117">
        <ele>485</ele>
        <time>2019-01-09T12:52:39Z</time>
      </trkpt>
      <trkpt lat="50.14462" lon="5.90149">
        <ele>484</ele>
        <time>2019-01-09T12:53:39Z</time>
      </trkpt>
      <trkpt lat="50.14454" lon="5.90217">
        <ele>483</ele>
        <time>2019-01-09T12:54:39Z</time>
      </trkpt>
      <trkpt lat="50.1444" lon="5.90219">
        <ele>483</ele>
        <time>2019-01-09T12:55:39Z</time>
      </trkpt>
      <trkpt lat="50.14441" lon="5.90243">
        <ele>483</ele>
        <time>2019-01-09T12:56:39Z</time>
      </trkpt>
      <trkpt lat="50.14444" lon="5.90261">
        <ele>482</ele>
        <time>2019-01-09T12:57:39Z</time>
      </trkpt>
      <trkpt lat="50.14451" lon="5.90272">
        <ele>482</ele>
        <time>2019-01-09T12:58:39Z</time>
      </trkpt>
      <trkpt lat="50.14459" lon="5.9028">
        <ele>481</ele>
        <time>2019-01-09T12:59:39Z</time>
      </trkpt>
      <trkpt lat="50.14449" lon="5.90335">
        <ele>479</ele>
        <time>2019-01-09T13:00:39Z</time>
      </trkpt>
      <trkpt lat="50.14459" lon="5.90394">
        <ele>479</ele>
        <time>2019-01-09T13:01:39Z</time>
      </trkpt>
      <trkpt lat="50.14478" lon="5.90446">
        <ele>480</ele>
        <time>2019-01-09T13:02:39Z</time>
      </trkpt>
      <trkpt lat="50.1455" lon="5.90582">
        <ele>484</ele>
        <time>2019-01-09T13:03:39Z</time>
      </trkpt>
      <trkpt lat="50.14587" lon="5.9065">
        <ele>485</ele>
        <time>2019-01-09T13:04:39Z</time>
      </trkpt>
      <trkpt lat="50.1461" lon="5.90702">
        <ele>486</ele>
        <time>2019-01-09T13:05:39Z</time>
      </trkpt>
      <trkpt lat="50.14625" lon="5.9076">
        <ele>487</ele>
        <time>2019-01-09T13:06:39Z</time>
      </trkpt>
      <trkpt lat="50.14633" lon="5.90808">
        <ele>488</ele>
        <time>2019-01-09T13:07:39Z</time>
      </trkpt>
      <trkpt lat="50.14651" lon="5.9099">
        <ele>493</ele>
        <time>2019-01-09T13:08:39Z</time>
      </trkpt>
      <trkpt lat="50.14661" lon="5.91091">
        <ele>496</ele>
        <time>2019-01-09T13:09:39Z</time>
      </trkpt>
      <trkpt lat="50.14663" lon="5.91131">
        <ele>497</ele>
        <time>2019-01-09T13:10:39Z</time>
      </trkpt>
      <trkpt lat="50.14664" lon="5.91169">
        <ele>497</ele>
        <time>2019-01-09T13:11:39Z</time>
      </trkpt>
      <trkpt lat="50.14646" lon="5.91237">
        <ele>499</ele>
        <time>2019-01-09T13:12:39Z</time>
      </trkpt>
      <trkpt lat="50.14544" lon="5.91574">
        <ele>495</ele>
        <time>2019-01-09T13:13:39Z</time>
      </trkpt>
      <trkpt lat="50.14539" lon="5.91604">
        <ele>495</ele>
        <time>2019-01-09T13:14:39Z</time>
      </trkpt>
      <trkpt lat="50.14536" lon="5.91644">
        <ele>494</ele>
        <time>2019-01-09T13:15:39Z</time>
      </trkpt>
      <trkpt lat="50.1454" lon="5.9167">
        <ele>493</ele>
        <time>2019-01-09T13:16:39Z</time>
      </trkpt>
      <trkpt lat="50.14546" lon="5.91705">
        <ele>493</ele>
        <time>2019-01-09T13:17:39Z</time>
      </trkpt>
      <trkpt lat="50.14577" lon="5.91799">
        <ele>493</ele>
        <time>2019-01-09T13:18:39Z</time>
      </trkpt>
      <trkpt lat="50.14615" lon="5.91909">
        <ele>493</ele>
        <time>2019-01-09T13:19:39Z</time>
      </trkpt>
      <trkpt lat="50.14685" lon="5.92123">
        <ele>496</ele>
        <time>2019-01-09T13:20:39Z</time>
      </trkpt>
      <trkpt lat="50.14697" lon="5.92162">
        <ele>497</ele>
        <time>2019-01-09T13:21:39Z</time>
      </trkpt>
      <trkpt lat="50.14711" lon="5.92197">
        <ele>497</ele>
        <time>2019-01-09T13:22:39Z</time>
      </trkpt>
      <trkpt lat="50.1474" lon="5.92245">
        <ele>497</ele>
        <time>2019-01-09T13:23:39Z</time>
      </trkpt>
      <trkpt lat="50.14785" lon="5.92301">
        <ele>497</ele>
        <time>2019-01-09T13:24:39Z</time>
      </trkpt>
      <trkpt lat="50.14823" lon="5.92347">
        <ele>497</ele>
        <time>2019-01-09T13:25:39Z</time>
      </trkpt>
      <trkpt lat="50.14865" lon="5.9236">
        <ele>497</ele>
        <time>2019-01-09T13:26:39Z</time>
      </trkpt>
      <trkpt lat="50.14931" lon="5.92378">
        <ele>498</ele>
        <time>2019-01-09T13:27:39Z</time>
      </trkpt>
      <trkpt lat="50.1507" lon="5.92447">
        <ele>500</ele>
        <time>2019-01-09T13:28:39Z</time>
      </trkpt>
      <trkpt lat="50.15082" lon="5.92456">
        <ele>500</ele>
        <time>2019-01-09T13:29:39Z</time>
      </trkpt>
      <trkpt lat="50.151" lon="5.92473">
        <ele>499</ele>
        <time>2019-01-09T13:30:39Z</time>
      </trkpt>
      <trkpt lat="50.15115" lon="5.9248">
        <ele>498</ele>
        <time>2019-01-09T13:31:39Z</time>
      </trkpt>
      <trkpt lat="50.15149" lon="5.92494">
        <ele>496</ele>
        <time>2019-01-09T13:32:39Z</time>
      </trkpt>
      <trkpt lat="50.15319" lon="5.92547">
        <ele>498</ele>
        <time>2019-01-09T13:33:39Z</time>
      </trkpt>
      <trkpt lat="50.15418" lon="5.92581">
        <ele>499</ele>
        <time>2019-01-09T13:34:39Z</time>
      </trkpt>
      <trkpt lat="50.1544" lon="5.9258">
        <ele>498</ele>
        <time>2019-01-09T13:35:39Z</time>
      </trkpt>
      <trkpt lat="50.15468" lon="5.92573">
        <ele>496</ele>
        <time>2019-01-09T13:36:39Z</time>
      </trkpt>
      <trkpt lat="50.15554" lon="5.92535">
        <ele>489</ele>
        <time>2019-01-09T13:37:39Z</time>
      </trkpt>
      <trkpt lat="50.15698" lon="5.92457">
        <ele>474</ele>
        <time>2019-01-09T13:38:39Z</time>
      </trkpt>
      <trkpt lat="50.1578" lon="5.92405">
        <ele>469</ele>
        <time>2019-01-09T13:39:39Z</time>
      </trkpt>
      <trkpt lat="50.15818" lon="5.92387">
        <ele>467</ele>
        <time>2019-01-09T13:40:39Z</time>
      </trkpt>
      <trkpt lat="50.15866" lon="5.9237">
        <ele>466</ele>
        <time>2019-01-09T13:41:39Z</time>
      </trkpt>
      <trkpt lat="50.15945" lon="5.92339">
        <ele>470</ele>
        <time>2019-01-09T13:42:39Z</time>
      </trkpt>
      <trkpt lat="50.16003" lon="5.92314">
        <ele>477</ele>
        <time>2019-01-09T13:43:39Z</time>
      </trkpt>
      <trkpt lat="50.16088" lon="5.9238">
        <ele>480</ele>
        <time>2019-01-09T13:44:39Z</time>
      </trkpt>
      <trkpt lat="50.16178" lon="5.92467">
        <ele>480</ele>
        <time>2019-01-09T13:45:39Z</time>
      </trkpt>
      <trkpt lat="50.1622" lon="5.92517">
        <ele>479</ele>
        <time>2019-01-09T13:46:39Z</time>
      </trkpt>
      <trkpt lat="50.16264" lon="5.92574">
        <ele>480</ele>
        <time>2019-01-09T13:47:39Z</time>
      </trkpt>
      <trkpt lat="50.16297" lon="5.92607">
        <ele>482</ele>
        <time>2019-01-09T13:48:39Z</time>
      </trkpt>
      <trkpt lat="50.16342" lon="5.92651">
        <ele>483</ele>
        <time>2019-01-09T13:49:39Z</time>
      </trkpt>
      <trkpt lat="50.16414" lon="5.92695">
        <ele>486</ele>
        <time>2019-01-09T13:50:39Z</time>
      </trkpt>
      <trkpt lat="50.16498" lon="5.92774">
        <ele>487</ele>
        <time>2019-01-09T13:51:39Z</time>
      </trkpt>
      <trkpt lat="50.16539" lon="5.92819">
        <ele>487</ele>
        <time>2019-01-09T13:52:39Z</time>
      </trkpt>
      <trkpt lat="50.16552" lon="5.92835">
        <ele>486</ele>
        <time>2019-01-09T13:53:39Z</time>
      </trkpt>
      <trkpt lat="50.16568" lon="5.92848">
        <ele>486</ele>
        <time>2019-01-09T13:54:39Z</time>
      </trkpt>
      <trkpt lat="50.16605" lon="5.92875">
        <ele>484</ele>
        <time>2019-01-09T13:55:39Z</time>
      </trkpt>
      <trkpt lat="50.16647" lon="5.92895">
        <ele>483</ele>
        <time>2019-01-09T13:56:39Z</time>
      </trkpt>
      <trkpt lat="50.16693" lon="5.92908">
        <ele>482</ele>
        <time>2019-01-09T13:57:39Z</time>
      </trkpt>
      <trkpt lat="50.16727" lon="5.92927">
        <ele>480</ele>
        <time>2019-01-09T13:58:39Z</time>
      </trkpt>
      <trkpt lat="50.16823" lon="5.93026">
        <ele>473</ele>
        <time>2019-01-09T13:59:39Z</time>
      </trkpt>
      <trkpt lat="50.1689" lon="5.93084">
        <ele>470</ele>
        <time>2019-01-09T14:00:39Z</time>
      </trkpt>
      <trkpt lat="50.16946" lon="5.93125">
        <ele>468</ele>
        <time>2019-01-09T14:01:39Z</time>
      </trkpt>
      <trkpt lat="50.16988" lon="5.93146">
        <ele>465</ele>
        <time>2019-01-09T14:02:39Z</time>
      </trkpt>
      <trkpt lat="50.17012" lon="5.93159">
        <ele>464</ele>
        <time>2019-01-09T14:03:39Z</time>
      </trkpt>
      <trkpt lat="50.17058" lon="5.93176">
        <ele>462</ele>
        <time>2019-01-09T14:04:39Z</time>
      </trkpt>
      <trkpt lat="50.17111" lon="5.93197">
        <ele>459</ele>
        <time>2019-01-09T14:05:39Z</time>
      </trkpt>
      <trkpt lat="50.17158" lon="5.93213">
        <ele>456</ele>
        <time>2019-01-09T14:06:39Z</time>
      </trkpt>
      <trkpt lat="50.17205" lon="5.93213">
        <ele>455</ele>
        <time>2019-01-09T14:07:39Z</time>
      </trkpt>
      <trkpt lat="50.1724" lon="5.93207">
        <ele>454</ele>
        <time>2019-01-09T14:08:39Z</time>
      </trkpt>
      <trkpt lat="50.17275" lon="5.93195">
        <ele>452</ele>
        <time>2019-01-09T14:09:39Z</time>
      </trkpt>
      <trkpt lat="50.17321" lon="5.93161">
        <ele>449</ele>
        <time>2019-01-09T14:10:39Z</time>
      </trkpt>
      <trkpt lat="50.17358" lon="5.93119">
        <ele>447</ele>
        <time>2019-01-09T14:11:39Z</time>
      </trkpt>
      <trkpt lat="50.17396" lon="5.93062">
        <ele>443</ele>
        <time>2019-01-09T14:12:39Z</time>
      </trkpt>
      <trkpt lat="50.17494" lon="5.92907">
        <ele>430</ele>
        <time>2019-01-09T14:13:39Z</time>
      </trkpt>
      <trkpt lat="50.17511" lon="5.92869">
        <ele>428</ele>
        <time>2019-01-09T14:14:39Z</time>
      </trkpt>
      <trkpt lat="50.17525" lon="5.92811">
        <ele>426</ele>
        <time>2019-01-09T14:15:39Z</time>
      </trkpt>
      <trkpt lat="50.17549" lon="5.9273">
        <ele>421</ele>
        <time>2019-01-09T14:16:39Z</time>
      </trkpt>
      <trkpt lat="50.1757" lon="5.92696">
        <ele>418</ele>
        <time>2019-01-09T14:17:39Z</time>
      </trkpt>
      <trkpt lat="50.17589" lon="5.92672">
        <ele>417</ele>
        <time>2019-01-09T14:18:39Z</time>
      </trkpt>
      <trkpt lat="50.17619" lon="5.92645">
        <ele>418</ele>
        <time>2019-01-09T14:19:39Z</time>
      </trkpt>
      <trkpt lat="50.17638" lon="5.9264">
        <ele>420</ele>
        <time>2019-01-09T14:20:39Z</time>
      </trkpt>
      <trkpt lat="50.17658" lon="5.92639">
        <ele>421</ele>
        <time>2019-01-09T14:21:39Z</time>
      </trkpt>
      <trkpt lat="50.17723" lon="5.92667">
        <ele>426</ele>
        <time>2019-01-09T14:22:39Z</time>
      </trkpt>
      <trkpt lat="50.17781" lon="5.9269">
        <ele>432</ele>
        <time>2019-01-09T14:23:39Z</time>
      </trkpt>
      <trkpt lat="50.17817" lon="5.92708">
        <ele>435</ele>
        <time>2019-01-09T14:24:39Z</time>
      </trkpt>
      <trkpt lat="50.17834" lon="5.92719">
        <ele>436</ele>
        <time>2019-01-09T14:25:39Z</time>
      </trkpt>
      <trkpt lat="50.17848" lon="5.92734">
        <ele>437</ele>
        <time>2019-01-09T14:26:39Z</time>
      </trkpt>
      <trkpt lat="50.17875" lon="5.92773">
        <ele>439</ele>
        <time>2019-01-09T14:27:39Z</time>
      </trkpt>
      <trkpt lat="50.17928" lon="5.92854">
        <ele>440</ele>
        <time>2019-01-09T14:28:39Z</time>
      </trkpt>
      <trkpt lat="50.17972" lon="5.92918">
        <ele>440</ele>
        <time>2019-01-09T14:29:39Z</time>
      </trkpt>
      <trkpt lat="50.18005" lon="5.92959">
        <ele>441</ele>
        <time>2019-01-09T14:30:39Z</time>
      </trkpt>
      <trkpt lat="50.18022" lon="5.92988">
        <ele>441</ele>
        <time>2019-01-09T14:31:39Z</time>
      </trkpt>
      <trkpt lat="50.18068" lon="5.9313">
        <ele>439</ele>
        <time>2019-01-09T14:32:39Z</time>
      </trkpt>
      <trkpt lat="50.18094" lon="5.93191">
        <ele>438</ele>
        <time>2019-01-09T14:33:39Z</time>
      </trkpt>
      <trkpt lat="50.18119" lon="5.93241">
        <ele>438</ele>
        <time>2019-01-09T14:34:39Z</time>
      </trkpt>
      <trkpt lat="50.18178" lon="5.93292">
        <ele>441</ele>
        <time>2019-01-09T14:35:39Z</time>
      </trkpt>
      <trkpt lat="50.18217" lon="5.93339">
        <ele>443</ele>
        <time>2019-01-09T14:36:39Z</time>
      </trkpt>
      <trkpt lat="50.18229" lon="5.93377">
        <ele>444</ele>
        <time>2019-01-09T14:37:39Z</time>
      </trkpt>
      <trkpt lat="50.18303" lon="5.93571">
        <ele>451</ele>
        <time>2019-01-09T14:38:39Z</time>
      </trkpt>
      <trkpt lat="50.18322" lon="5.93645">
        <ele>453</ele>
        <time>2019-01-09T14:39:39Z</time>
      </trkpt>
      <trkpt lat="50.18329" lon="5.93682">
        <ele>454</ele>
        <time>2019-01-09T14:40:39Z</time>
      </trkpt>
      <trkpt lat="50.1834" lon="5.93722">
        <ele>455</ele>
        <time>2019-01-09T14:41:39Z</time>
      </trkpt>
      <trkpt lat="50.18349" lon="5.93746">
        <ele>455</ele>
        <time>2019-01-09T14:42:39Z</time>
      </trkpt>
      <trkpt lat="50.18397" lon="5.93836">
        <ele>448</ele>
        <time>2019-01-09T14:43:39Z</time>
      </trkpt>
      <trkpt lat="50.18431" lon="5.93924">
        <ele>444</ele>
        <time>2019-01-09T14:44:39Z</time>
      </trkpt>
      <trkpt lat="50.18442" lon="5.93952">
        <ele>443</ele>
        <time>2019-01-09T14:45:39Z</time>
      </trkpt>
      <trkpt lat="50.18445" lon="5.93966">
        <ele>443</ele>
        <time>2019-01-09T14:46:39Z</time>
      </trkpt>
      <trkpt lat="50.18455" lon="5.93988">
        <ele>442</ele>
        <time>2019-01-09T14:47:39Z</time>
      </trkpt>
      <trkpt lat="50.18469" lon="5.94015">
        <ele>442</ele>
        <time>2019-01-09T14:48:39Z</time>
      </trkpt>
      <trkpt lat="50.18477" lon="5.94022">
        <ele>441</ele>
        <time>2019-01-09T14:49:39Z</time>
      </trkpt>
      <trkpt lat="50.18488" lon="5.94022">
        <ele>441</ele>
        <time>2019-01-09T14:50:39Z</time>
      </trkpt>
      <trkpt lat="50.18496" lon="5.94019">
        <ele>441</ele>
        <time>2019-01-09T14:51:39Z</time>
      </trkpt>
      <trkpt lat="50.18509" lon="5.94">
        <ele>441</ele>
        <time>2019-01-09T14:52:39Z</time>
      </trkpt>
      <trkpt lat="50.18523" lon="5.93952">
        <ele>442</ele>
        <time>2019-01-09T14:53:39Z</time>
      </trkpt>
      <trkpt lat="50.18539" lon="5.93919">
        <ele>443</ele>
        <time>2019-01-09T14:54:39Z</time>
      </trkpt>
      <trkpt lat="50.18556" lon="5.93893">
        <ele>443</ele>
        <time>2019-01-09T14:55:39Z</time>
      </trkpt>
      <trkpt lat="50.18568" lon="5.93879">
        <ele>442</ele>
        <time>2019-01-09T14:56:39Z</time>
      </trkpt>
      <trkpt lat="50.18578" lon="5.93871">
        <ele>442</ele>
        <time>2019-01-09T14:57:39Z</time>
      </trkpt>
      <trkpt lat="50.1859" lon="5.93865">
        <ele>442</ele>
        <time>2019-01-09T14:58:39Z</time>
      </trkpt>
      <trkpt lat="50.18598" lon="5.93872">
        <ele>443</ele>
        <time>2019-01-09T14:59:39Z</time>
      </trkpt>
      <trkpt lat="50.18633" lon="5.93922">
        <ele>444</ele>
        <time>2019-01-09T15:00:39Z</time>
      </trkpt>
      <trkpt lat="50.18687" lon="5.93822">
        <ele>448</ele>
        <time>2019-01-09T15:01:39Z</time>
      </trkpt>
      <trkpt lat="50.18702" lon="5.93798">
        <ele>449</ele>
        <time>2019-01-09T15:02:39Z</time>
      </trkpt>
      <trkpt lat="50.18812" lon="5.93641">
        <ele>455</ele>
        <time>2019-01-09T15:03:39Z</time>
      </trkpt>
      <trkpt lat="50.18827" lon="5.93616">
        <ele>454</ele>
        <time>2019-01-09T15:04:39Z</time>
      </trkpt>
      <trkpt lat="50.18842" lon="5.93586">
        <ele>453</ele>
        <time>2019-01-09T15:05:39Z</time>
      </trkpt>
      <trkpt lat="50.18867" lon="5.93537">
        <ele>453</ele>
        <time>2019-01-09T15:06:39Z</time>
      </trkpt>
      <trkpt lat="50.18903" lon="5.93493">
        <ele>454</ele>
        <time>2019-01-09T15:07:39Z</time>
      </trkpt>
      <trkpt lat="50.18917" lon="5.93464">
        <ele>454</ele>
        <time>2019-01-09T15:08:39Z</time>
      </trkpt>
      <trkpt lat="50.18922" lon="5.93445">
        <ele>455</ele>
        <time>2019-01-09T15:09:39Z</time>
      </trkpt>
      <trkpt lat="50.18929" lon="5.93399">
        <ele>456</ele>
        <time>2019-01-09T15:10:39Z</time>
      </trkpt>
      <trkpt lat="50.18934" lon="5.93355">
        <ele>456</ele>
        <time>2019-01-09T15:11:39Z</time>
      </trkpt>
      <trkpt lat="50.18945" lon="5.9329">
        <ele>457</ele>
        <time>2019-01-09T15:12:39Z</time>
      </trkpt>
      <trkpt lat="50.1896" lon="5.93223">
        <ele>458</ele>
        <time>2019-01-09T15:13:39Z</time>
      </trkpt>
      <trkpt lat="50.18966" lon="5.93199">
        <ele>459</ele>
        <time>2019-01-09T15:14:39Z</time>
      </trkpt>
      <trkpt lat="50.18978" lon="5.93171">
        <ele>460</ele>
        <time>2019-01-09T15:15:39Z</time>
      </trkpt>
      <trkpt lat="50.19002" lon="5.93125">
        <ele>460</ele>
        <time>2019-01-09T15:16:39Z</time>
      </trkpt>
      <trkpt lat="50.19014" lon="5.93094">
        <ele>460</ele>
        <time>2019-01-09T15:17:39Z</time>
      </trkpt>
      <trkpt lat="50.19052" lon="5.92914">
        <ele>459</ele>
        <time>2019-01-09T15:18:39Z</time>
      </trkpt>
      <trkpt lat="50.19124" lon="5.92549">
        <ele>460</ele>
        <time>2019-01-09T15:19:39Z</time>
      </trkpt>
      <trkpt lat="50.19127" lon="5.92505">
        <ele>461</ele>
        <time>2019-01-09T15:20:39Z</time>
      </trkpt>
      <trkpt lat="50.19121" lon="5.92378">
        <ele>464</ele>
        <time>2019-01-09T15:21:39Z</time>
      </trkpt>
      <trkpt lat="50.19105" lon="5.92046">
        <ele>467</ele>
        <time>2019-01-09T15:22:39Z</time>
      </trkpt>
      <trkpt lat="50.19105" lon="5.92009">
        <ele>467</ele>
        <time>2019-01-09T15:23:39Z</time>
      </trkpt>
      <trkpt lat="50.19115" lon="5.92012">
        <ele>467</ele>
        <time>2019-01-09T15:24:39Z</time>
      </trkpt>
      <trkpt lat="50.1913" lon="5.92024">
        <ele>466</ele>
        <time>2019-01-09T15:25:39Z</time>
      </trkpt>
      <trkpt lat="50.19154" lon="5.92049">
        <ele>465</ele>
        <time>2019-01-09T15:26:39Z</time>
      </trkpt>
      <trkpt lat="50.1936" lon="5.92257">
        <ele>463</ele>
        <time>2019-01-09T15:27:39Z</time>
      </trkpt>
      <trkpt lat="50.19403" lon="5.92303">
        <ele>468</ele>
        <time>2019-01-09T15:28:39Z</time>
      </trkpt>
      <trkpt lat="50.1942" lon="5.92326">
        <ele>470</ele>
        <time>2019-01-09T15:29:39Z</time>
      </trkpt>
      <trkpt lat="50.19433" lon="5.92349">
        <ele>472</ele>
        <time>2019-01-09T15:30:39Z</time>
      </trkpt>
      <trkpt lat="50.19446" lon="5.9236">
        <ele>473</ele>
        <time>2019-01-09T15:31:39Z</time>
      </trkpt>
      <trkpt lat="50.19476" lon="5.92386">
        <ele>477</ele>
        <time>2019-01-09T15:32:39Z</time>
      </trkpt>
      <trkpt lat="50.195" lon="5.92399">
        <ele>480</ele>
        <time>2019-01-09T15:33:39Z</time>
      </trkpt>
      <trkpt lat="50.19522" lon="5.92401">
        <ele>481</ele>
        <time>2019-01-09T15:34:39Z</time>
      </trkpt>
      <trkpt lat="50.19584" lon="5.92377">
        <ele>483</ele>
        <time>2019-01-09T15:35:39Z</time>
      </trkpt>
      <trkpt lat="50.19604" lon="5.92373">
        <ele>483</ele>
        <time>2019-01-09T15:36:39Z</time>
      </trkpt>
      <trkpt lat="50.19697" lon="5.92378">
        <ele>484</ele>
        <time>2019-01-09T15:37:39Z</time>
      </trkpt>
      <trkpt lat="50.19764" lon="5.92373">
        <ele>484</ele>
        <time>2019-01-09T15:38:39Z</time>
      </trkpt>
      <trkpt lat="50.1981" lon="5.92368">
        <ele>487</ele>
        <time>2019-01-09T15:39:39Z</time>
      </trkpt>
      <trkpt lat="50.19842" lon="5.92359">
        <ele>488</ele>
        <time>2019-01-09T15:40:39Z</time>
      </trkpt>
      <trkpt lat="50.19892" lon="5.92336">
        <ele>487</ele>
        <time>2019-01-09T15:41:39Z</time>
      </trkpt>
      <trkpt lat="50.19959" lon="5.92303">
        <ele>486</ele>
        <time>2019-01-09T15:42:39Z</time>
      </trkpt>
      <trkpt lat="50.20076" lon="5.92242">
        <ele>482</ele>
        <time>2019-01-09T15:43:39Z</time>
      </trkpt>
      <trkpt lat="50.20221" lon="5.92169">
        <ele>482</ele>
        <time>2019-01-09T15:44:39Z</time>
      </trkpt>
      <trkpt lat="50.20306" lon="5.92128">
        <ele>485</ele>
        <time>2019-01-09T15:45:39Z</time>
      </trkpt>
      <trkpt lat="50.20464" lon="5.92043">
        <ele>490</ele>
        <time>2019-01-09T15:46:39Z</time>
      </trkpt>
      <trkpt lat="50.20594" lon="5.91976">
        <ele>496</ele>
        <time>2019-01-09T15:47:39Z</time>
      </trkpt>
      <trkpt lat="50.20608" lon="5.91995">
        <ele>496</ele>
        <time>2019-01-09T15:48:39Z</time>
      </trkpt>
      <trkpt lat="50.20626" lon="5.91986">
        <ele>496</ele>
        <time>2019-01-09T15:49:39Z</time>
      </trkpt>
      <trkpt lat="50.20633" lon="5.9196">
        <ele>497</ele>
        <time>2019-01-09T15:50:39Z</time>
      </trkpt>
      <trkpt lat="50.20666" lon="5.91942">
        <ele>498</ele>
        <time>2019-01-09T15:51:39Z</time>
      </trkpt>
      <trkpt lat="50.20851" lon="5.91852">
        <ele>495</ele>
        <time>2019-01-09T15:52:39Z</time>
      </trkpt>
      <trkpt lat="50.20938" lon="5.91794">
        <ele>491</ele>
        <time>2019-01-09T15:53:39Z</time>
      </trkpt>
      <trkpt lat="50.20961" lon="5.91772">
        <ele>490</ele>
        <time>2019-01-09T15:54:39Z</time>
      </trkpt>
      <trkpt lat="50.2102" lon="5.91725">
        <ele>486</ele>
        <time>2019-01-09T15:55:39Z</time>
      </trkpt>
      <trkpt lat="50.21171" lon="5.91512">
        <ele>476</ele>
        <time>2019-01-09T15:56:39Z</time>
      </trkpt>
      <trkpt lat="50.21186" lon="5.91491">
        <ele>477</ele>
        <time>2019-01-09T15:57:39Z</time>
      </trkpt>
      <trkpt lat="50.212" lon="5.91478">
        <ele>477</ele>
        <time>2019-01-09T15:58:39Z</time>
      </trkpt>
      <trkpt lat="50.21222" lon="5.91465">
        <ele>478</ele>
        <time>2019-01-09T15:59:39Z</time>
      </trkpt>
      <trkpt lat="50.2124" lon="5.91455">
        <ele>479</ele>
        <time>2019-01-09T16:00:39Z</time>
      </trkpt>
      <trkpt lat="50.21279" lon="5.91437">
        <ele>480</ele>
        <time>2019-01-09T16:01:39Z</time>
      </trkpt>
      <trkpt lat="50.21295" lon="5.91426">
        <ele>480</ele>
        <time>2019-01-09T16:02:39Z</time>
      </trkpt>
      <trkpt lat="50.2131" lon="5.91406">
        <ele>481</ele>
        <time>2019-01-09T16:03:39Z</time>
      </trkpt>
      <trkpt lat="50.21316" lon="5.9139">
        <ele>481</ele>
        <time>2019-01-09T16:04:39Z</time>
      </trkpt>
      <trkpt lat="50.2132" lon="5.91376">
        <ele>481</ele>
        <time>2019-01-09T16:05:39Z</time>
      </trkpt>
      <trkpt lat="50.21331" lon="5.91367">
        <ele>481</ele>
        <time>2019-01-09T16:06:39Z</time>
      </trkpt>
      <trkpt lat="50.21343" lon="5.91359">
        <ele>481</ele>
        <time>2019-01-09T16:07:39Z</time>
      </trkpt>
      <trkpt lat="50.21365" lon="5.9136">
        <ele>480</ele>
        <time>2019-01-09T16:08:39Z</time>
      </trkpt>
      <trkpt lat="50.21374" lon="5.91349">
        <ele>480</ele>
        <time>2019-01-09T16:09:39Z</time>
      </trkpt>
      <trkpt lat="50.21379" lon="5.9134">
        <ele>480</ele>
        <time>2019-01-09T16:10:39Z</time>
      </trkpt>
      <trkpt lat="50.21381" lon="5.91325">
        <ele>480</ele>
        <time>2019-01-09T16:11:39Z</time>
      </trkpt>
      <trkpt lat="50.21385" lon="5.91314">
        <ele>480</ele>
        <time>2019-01-09T16:12:39Z</time>
      </trkpt>
      <trkpt lat="50.21391" lon="5.91301">
        <ele>480</ele>
        <time>2019-01-09T16:13:39Z</time>
      </trkpt>
      <trkpt lat="50.21399" lon="5.91294">
        <ele>480</ele>
        <time>2019-01-09T16:14:39Z</time>
      </trkpt>
      <trkpt lat="50.21415" lon="5.91283">
        <ele>479</ele>
        <time>2019-01-09T16:15:39Z</time>
      </trkpt>
      <trkpt lat="50.21425" lon="5.91277">
        <ele>478</ele>
        <time>2019-01-09T16:16:39Z</time>
      </trkpt>
      <trkpt lat="50.21433" lon="5.91292">
        <ele>478</ele>
        <time>2019-01-09T16:17:39Z</time>
      </trkpt>
      <trkpt lat="50.21443" lon="5.91297">
        <ele>478</ele>
        <time>2019-01-09T16:18:39Z</time>
      </trkpt>
      <trkpt lat="50.21456" lon="5.913">
        <ele>477</ele>
        <time>2019-01-09T16:19:39Z</time>
      </trkpt>
      <trkpt lat="50.21531" lon="5.91327">
        <ele>476</ele>
        <time>2019-01-09T16:20:39Z</time>
      </trkpt>
      <trkpt lat="50.21585" lon="5.91365">
        <ele>476</ele>
        <time>2019-01-09T16:21:39Z</time>
      </trkpt>
      <trkpt lat="50.21643" lon="5.91399">
        <ele>477</ele>
        <time>2019-01-09T16:22:39Z</time>
      </trkpt>
      <trkpt lat="50.21655" lon="5.91398">
        <ele>477</ele>
        <time>2019-01-09T16:23:39Z</time>
      </trkpt>
      <trkpt lat="50.21682" lon="5.914">
        <ele>476</ele>
        <time>2019-01-09T16:24:39Z</time>
      </trkpt>
      <trkpt lat="50.21714" lon="5.91411">
        <ele>474</ele>
        <time>2019-01-09T16:25:39Z</time>
      </trkpt>
      <trkpt lat="50.21802" lon="5.9148">
        <ele>467</ele>
        <time>2019-01-09T16:26:39Z</time>
      </trkpt>
      <trkpt lat="50.21908" lon="5.91567">
        <ele>462</ele>
        <time>2019-01-09T16:27:39Z</time>
      </trkpt>
      <trkpt lat="50.21925" lon="5.91581">
        <ele>462</ele>
        <time>2019-01-09T16:28:39Z</time>
      </trkpt>
      <trkpt lat="50.21954" lon="5.91594">
        <ele>461</ele>
        <time>2019-01-09T16:29:39Z</time>
      </trkpt>
      <trkpt lat="50.21999" lon="5.91608">
        <ele>459</ele>
        <time>2019-01-09T16:30:39Z</time>
      </trkpt>
      <trkpt lat="50.22102" lon="5.91642">
        <ele>456</ele>
        <time>2019-01-09T16:31:39Z</time>
      </trkpt>
      <trkpt lat="50.22216" lon="5.91677">
        <ele>453</ele>
        <time>2019-01-09T16:32:39Z</time>
      </trkpt>
      <trkpt lat="50.22285" lon="5.91705">
        <ele>451</ele>
        <time>2019-01-09T16:33:39Z</time>
      </trkpt>
      <trkpt lat="50.22444" lon="5.91856">
        <ele>449</ele>
        <time>2019-01-09T16:34:39Z</time>
      </trkpt>
      <trkpt lat="50.22477" lon="5.91887">
        <ele>449</ele>
        <time>2019-01-09T16:35:39Z</time>
      </trkpt>
      <trkpt lat="50.2251" lon="5.91927">
        <ele>450</ele>
        <time>2019-01-09T16:36:39Z</time>
      </trkpt>
      <trkpt lat="50.22523" lon="5.9195">
        <ele>451</ele>
        <time>2019-01-09T16:37:39Z</time>
      </trkpt>
      <trkpt lat="50.22529" lon="5.91969">
        <ele>451</ele>
        <time>2019-01-09T16:38:39Z</time>
      </trkpt>
      <trkpt lat="50.22544" lon="5.91994">
        <ele>451</ele>
        <time>2019-01-09T16:39:39Z</time>
      </trkpt>
      <trkpt lat="50.2256" lon="5.92016">
        <ele>451</ele>
        <time>2019-01-09T16:40:39Z</time>
      </trkpt>
      <trkpt lat="50.22565" lon="5.92032">
        <ele>451</ele>
        <time>2019-01-09T16:41:39Z</time>
      </trkpt>
      <trkpt lat="50.22565" lon="5.92049">
        <ele>450</ele>
        <time>2019-01-09T16:42:39Z</time>
      </trkpt>
      <trkpt lat="50.22567" lon="5.92064">
        <ele>449</ele>
        <time>2019-01-09T16:43:39Z</time>
      </trkpt>
      <trkpt lat="50.22573" lon="5.92081">
        <ele>449</ele>
        <time>2019-01-09T16:44:39Z</time>
      </trkpt>
      <trkpt lat="50.22592" lon="5.92121">
        <ele>448</ele>
        <time>2019-01-09T16:45:39Z</time>
      </trkpt>
      <trkpt lat="50.22598" lon="5.92134">
        <ele>448</ele>
        <time>2019-01-09T16:46:39Z</time>
      </trkpt>
      <trkpt lat="50.22605" lon="5.92144">
        <ele>448</ele>
        <time>2019-01-09T16:47:39Z</time>
      </trkpt>
      <trkpt lat="50.2261" lon="5.92151">
        <ele>448</ele>
        <time>2019-01-09T16:48:39Z</time>
      </trkpt>
      <trkpt lat="50.22616" lon="5.92156">
        <ele>448</ele>
        <time>2019-01-09T16:49:39Z</time>
      </trkpt>
      <trkpt lat="50.22623" lon="5.92159">
        <ele>448</ele>
        <time>2019-01-09T16:50:39Z</time>
      </trkpt>
      <trkpt lat="50.22637" lon="5.92169">
        <ele>448</ele>
        <time>2019-01-09T16:51:39Z</time>
      </trkpt>
      <trkpt lat="50.2267" lon="5.92182">
        <ele>448</ele>
        <time>2019-01-09T16:52:39Z</time>
      </trkpt>
      <trkpt lat="50.22678" lon="5.92183">
        <ele>448</ele>
        <time>2019-01-09T16:53:39Z</time>
      </trkpt>
      <trkpt lat="50.2269" lon="5.92181">
        <ele>449</ele>
        <time>2019-01-09T16:54:39Z</time>
      </trkpt>
      <trkpt lat="50.22713" lon="5.92177">
        <ele>450</ele>
        <time>2019-01-09T16:55:39Z</time>
      </trkpt>
      <trkpt lat="50.22726" lon="5.92175">
        <ele>451</ele>
        <time>2019-01-09T16:56:39Z</time>
      </trkpt>
      <trkpt lat="50.22734" lon="5.92182">
        <ele>451</ele>
        <time>2019-01-09T16:57:39Z</time>
      </trkpt>
      <trkpt lat="50.22788" lon="5.92237">
        <ele>448</ele>
        <time>2019-01-09T16:58:39Z</time>
      </trkpt>
      <trkpt lat="50.22806" lon="5.92243">
        <ele>448</ele>
        <time>2019-01-09T16:59:39Z</time>
      </trkpt>
      <trkpt lat="50.22828" lon="5.92242">
        <ele>447</ele>
        <time>2019-01-09T17:00:39Z</time>
      </trkpt>
      <trkpt lat="50.22851" lon="5.92237">
        <ele>445</ele>
        <time>2019-01-09T17:01:39Z</time>
      </trkpt>
      <trkpt lat="50.22874" lon="5.92222">
        <ele>443</ele>
        <time>2019-01-09T17:02:39Z</time>
      </trkpt>
      <trkpt lat="50.22932" lon="5.92177">
        <ele>439</ele>
        <time>2019-01-09T17:03:39Z</time>
      </trkpt>
      <trkpt lat="50.22977" lon="5.92154">
        <ele>436</ele>
        <time>2019-01-09T17:04:39Z</time>
      </trkpt>
      <trkpt lat="50.22996" lon="5.92144">
        <ele>435</ele>
        <time>2019-01-09T17:05:39Z</time>
      </trkpt>
      <trkpt lat="50.23027" lon="5.92106">
        <ele>435</ele>
        <time>2019-01-09T17:06:39Z</time>
      </trkpt>
      <trkpt lat="50.23057" lon="5.92084">
        <ele>435</ele>
        <time>2019-01-09T17:07:39Z</time>
      </trkpt>
      <trkpt lat="50.23076" lon="5.92075">
        <ele>435</ele>
        <time>2019-01-09T17:08:39Z</time>
      </trkpt>
      <trkpt lat="50.2309" lon="5.92072">
        <ele>435</ele>
        <time>2019-01-09T17:09:39Z</time>
      </trkpt>
      <trkpt lat="50.23109" lon="5.92073">
        <ele>434</ele>
        <time>2019-01-09T17:10:39Z</time>
      </trkpt>
      <trkpt lat="50.23127" lon="5.92074">
        <ele>434</ele>
        <time>2019-01-09T17:11:39Z</time>
      </trkpt>
      <trkpt lat="50.2315" lon="5.92079">
        <ele>433</ele>
        <time>2019-01-09T17:12:39Z</time>
      </trkpt>
      <trkpt lat="50.23379" lon="5.92146">
        <ele>431</ele>
        <time>2019-01-09T17:13:39Z</time>
      </trkpt>
      <trkpt lat="50.23662" lon="5.92232">
        <ele>432</ele>
        <time>2019-01-09T17:14:39Z</time>
      </trkpt>
      <trkpt lat="50.23765" lon="5.9226">
        <ele>430</ele>
        <time>2019-01-09T17:15:39Z</time>
      </trkpt>
      <trkpt lat="50.23789" lon="5.92264">
        <ele>430</ele>
        <time>2019-01-09T17:16:39Z</time>
      </trkpt>
      <trkpt lat="50.23812" lon="5.92264">
        <ele>430</ele>
        <time>2019-01-09T17:17:39Z</time>
      </trkpt>
      <trkpt lat="50.23859" lon="5.92253">
        <ele>431</ele>
        <time>2019-01-09T17:18:39Z</time>
      </trkpt>
      <trkpt lat="50.23936" lon="5.92229">
        <ele>432</ele>
        <time>2019-01-09T17:19:39Z</time>
      </trkpt>
      <trkpt lat="50.24031" lon="5.92199">
        <ele>430</ele>
        <time>2019-01-09T17:20:39Z</time>
      </trkpt>
      <trkpt lat="50.2408" lon="5.92168">
        <ele>427</ele>
        <time>2019-01-09T17:21:39Z</time>
      </trkpt>
      <trkpt lat="50.24146" lon="5.92114">
        <ele>427</ele>
        <time>2019-01-09T17:22:39Z</time>
      </trkpt>
      <trkpt lat="50.24209" lon="5.92091">
        <ele>426</ele>
        <time>2019-01-09T17:23:39Z</time>
      </trkpt>
      <trkpt lat="50.24289" lon="5.92062">
        <ele>425</ele>
        <time>2019-01-09T17:24:39Z</time>
      </trkpt>
      <trkpt lat="50.24317" lon="5.92056">
        <ele>425</ele>
        <time>2019-01-09T17:25:39Z</time>
      </trkpt>
      <trkpt lat="50.24354" lon="5.92058">
        <ele>425</ele>
        <time>2019-01-09T17:26:39Z</time>
      </trkpt>
      <trkpt lat="50.24378" lon="5.92065">
        <ele>425</ele>
        <time>2019-01-09T17:27:39Z</time>
      </trkpt>
      <trkpt lat="50.24403" lon="5.9208">
        <ele>424</ele>
        <time>2019-01-09T17:28:39Z</time>
      </trkpt>
      <trkpt lat="50.24447" lon="5.92109">
        <ele>424</ele>
        <time>2019-01-09T17:29:39Z</time>
      </trkpt>
      <trkpt lat="50.24471" lon="5.92123">
        <ele>424</ele>
        <time>2019-01-09T17:30:39Z</time>
      </trkpt>
      <trkpt lat="50.24495" lon="5.92132">
        <ele>424</ele>
        <time>2019-01-09T17:31:39Z</time>
      </trkpt>
      <trkpt lat="50.24514" lon="5.92135">
        <ele>424</ele>
        <time>2019-01-09T17:32:39Z</time>
      </trkpt>
      <trkpt lat="50.24535" lon="5.92135">
        <ele>425</ele>
        <time>2019-01-09T17:33:39Z</time>
      </trkpt>
      <trkpt lat="50.24553" lon="5.92131">
        <ele>425</ele>
        <time>2019-01-09T17:34:39Z</time>
      </trkpt>
      <trkpt lat="50.2457" lon="5.92123">
        <ele>426</ele>
        <time>2019-01-09T17:35:39Z</time>
      </trkpt>
      <trkpt lat="50.24605" lon="5.92097">
        <ele>426</ele>
        <time>2019-01-09T17:36:39Z</time>
      </trkpt>
      <trkpt lat="50.2464" lon="5.92047">
        <ele>427</ele>
        <time>2019-01-09T17:37:39Z</time>
      </trkpt>
      <trkpt lat="50.24754" lon="5.91872">
        <ele>424</ele>
        <time>2019-01-09T17:38:39Z</time>
      </trkpt>
      <trkpt lat="50.24834" lon="5.91748">
        <ele>422</ele>
        <time>2019-01-09T17:39:39Z</time>
      </trkpt>
      <trkpt lat="50.2487" lon="5.9169">
        <ele>426</ele>
        <time>2019-01-09T17:40:39Z</time>
      </trkpt>
      <trkpt lat="50.24893" lon="5.91648">
        <ele>421</ele>
        <time>2019-01-09T17:41:39Z</time>
      </trkpt>
      <trkpt lat="50.24923" lon="5.9159">
        <ele>414</ele>
        <time>2019-01-09T17:42:39Z</time>
      </trkpt>
      <trkpt lat="50.24945" lon="5.91547">
        <ele>417</ele>
        <time>2019-01-09T17:43:39Z</time>
      </trkpt>
      <trkpt lat="50.24963" lon="5.91516">
        <ele>416</ele>
        <time>2019-01-09T17:44:39Z</time>
      </trkpt>
      <trkpt lat="50.24992" lon="5.91474">
        <ele>413</ele>
        <time>2019-01-09T17:45:39Z</time>
      </trkpt>
      <trkpt lat="50.25018" lon="5.91439">
        <ele>409</ele>
        <time>2019-01-09T17:46:39Z</time>
      </trkpt>
      <trkpt lat="50.25046" lon="5.91408">
        <ele>406</ele>
        <time>2019-01-09T17:47:39Z</time>
      </trkpt>
      <trkpt lat="50.25081" lon="5.91376">
        <ele>407</ele>
        <time>2019-01-09T17:48:39Z</time>
      </trkpt>
      <trkpt lat="50.2512" lon="5.91342">
        <ele>408</ele>
        <time>2019-01-09T17:49:39Z</time>
      </trkpt>
      <trkpt lat="50.25216" lon="5.91258">
        <ele>409</ele>
        <time>2019-01-09T17:50:39Z</time>
      </trkpt>
      <trkpt lat="50.25232" lon="5.91237">
        <ele>407</ele>
        <time>2019-01-09T17:51:39Z</time>
      </trkpt>
      <trkpt lat="50.2524" lon="5.91224">
        <ele>407</ele>
        <time>2019-01-09T17:52:39Z</time>
      </trkpt>
      <trkpt lat="50.25251" lon="5.91204">
        <ele>406</ele>
        <time>2019-01-09T17:53:39Z</time>
      </trkpt>
      <trkpt lat="50.25258" lon="5.91183">
        <ele>406</ele>
        <time>2019-01-09T17:54:39Z</time>
      </trkpt>
      <trkpt lat="50.25264" lon="5.91158">
        <ele>406</ele>
        <time>2019-01-09T17:55:39Z</time>
      </trkpt>
      <trkpt lat="50.25269" lon="5.91133">
        <ele>407</ele>
        <time>2019-01-09T17:56:39Z</time>
      </trkpt>
      <trkpt lat="50.25271" lon="5.91105">
        <ele>407</ele>
        <time>2019-01-09T17:57:39Z</time>
      </trkpt>
      <trkpt lat="50.25276" lon="5.91054">
        <ele>408</ele>
        <time>2019-01-09T17:58:39Z</time>
      </trkpt>
      <trkpt lat="50.25286" lon="5.91008">
        <ele>409</ele>
        <time>2019-01-09T17:59:39Z</time>
      </trkpt>
      <trkpt lat="50.25297" lon="5.90979">
        <ele>411</ele>
        <time>2019-01-09T18:00:39Z</time>
      </trkpt>
      <trkpt lat="50.25314" lon="5.90954">
        <ele>412</ele>
        <time>2019-01-09T18:01:39Z</time>
      </trkpt>
      <trkpt lat="50.25326" lon="5.90936">
        <ele>414</ele>
        <time>2019-01-09T18:02:39Z</time>
      </trkpt>
      <trkpt lat="50.25338" lon="5.90921">
        <ele>414</ele>
        <time>2019-01-09T18:03:39Z</time>
      </trkpt>
      <trkpt lat="50.25353" lon="5.90909">
        <ele>414</ele>
        <time>2019-01-09T18:04:39Z</time>
      </trkpt>
      <trkpt lat="50.25383" lon="5.90887">
        <ele>413</ele>
        <time>2019-01-09T18:05:39Z</time>
      </trkpt>
      <trkpt lat="50.2541" lon="5.90868">
        <ele>412</ele>
        <time>2019-01-09T18:06:39Z</time>
      </trkpt>
      <trkpt lat="50.25427" lon="5.90854">
        <ele>412</ele>
        <time>2019-01-09T18:07:39Z</time>
      </trkpt>
      <trkpt lat="50.25443" lon="5.90838">
        <ele>412</ele>
        <time>2019-01-09T18:08:39Z</time>
      </trkpt>
      <trkpt lat="50.25456" lon="5.90821">
        <ele>411</ele>
        <time>2019-01-09T18:09:39Z</time>
      </trkpt>
      <trkpt lat="50.25468" lon="5.90802">
        <ele>411</ele>
        <time>2019-01-09T18:10:39Z</time>
      </trkpt>
      <trkpt lat="50.25478" lon="5.90782">
        <ele>411</ele>
        <time>2019-01-09T18:11:39Z</time>
      </trkpt>
      <trkpt lat="50.25487" lon="5.9076">
        <ele>411</ele>
        <time>2019-01-09T18:12:39Z</time>
      </trkpt>
      <trkpt lat="50.25514" lon="5.907">
        <ele>413</ele>
        <time>2019-01-09T18:13:39Z</time>
      </trkpt>
      <trkpt lat="50.25535" lon="5.90657">
        <ele>413</ele>
        <time>2019-01-09T18:14:39Z</time>
      </trkpt>
      <trkpt lat="50.25551" lon="5.90629">
        <ele>413</ele>
        <time>2019-01-09T18:15:39Z</time>
      </trkpt>
      <trkpt lat="50.25566" lon="5.90607">
        <ele>412</ele>
        <time>2019-01-09T18:16:39Z</time>
      </trkpt>
      <trkpt lat="50.25579" lon="5.9059">
        <ele>410</ele>
        <time>2019-01-09T18:17:39Z</time>
      </trkpt>
      <trkpt lat="50.25594" lon="5.90574">
        <ele>410</ele>
        <time>2019-01-09T18:18:39Z</time>
      </trkpt>
      <trkpt lat="50.2561" lon="5.9056">
        <ele>411</ele>
        <time>2019-01-09T18:19:39Z</time>
      </trkpt>
      <trkpt lat="50.25635" lon="5.90547">
        <ele>411</ele>
        <time>2019-01-09T18:20:39Z</time>
      </trkpt>
      <trkpt lat="50.25654" lon="5.90539">
        <ele>410</ele>
        <time>2019-01-09T18:21:39Z</time>
      </trkpt>
      <trkpt lat="50.25673" lon="5.90535">
        <ele>409</ele>
        <time>2019-01-09T18:22:39Z</time>
      </trkpt>
      <trkpt lat="50.25689" lon="5.90531">
        <ele>409</ele>
        <time>2019-01-09T18:23:39Z</time>
      </trkpt>
      <trkpt lat="50.25708" lon="5.90528">
        <ele>408</ele>
        <time>2019-01-09T18:24:39Z</time>
      </trkpt>
      <trkpt lat="50.25727" lon="5.90524">
        <ele>407</ele>
        <time>2019-01-09T18:25:39Z</time>
      </trkpt>
      <trkpt lat="50.25744" lon="5.90519">
        <ele>407</ele>
        <time>2019-01-09T18:26:39Z</time>
      </trkpt>
      <trkpt lat="50.25771" lon="5.90498">
        <ele>405</ele>
        <time>2019-01-09T18:27:39Z</time>
      </trkpt>
      <trkpt lat="50.25801" lon="5.9047">
        <ele>402</ele>
        <time>2019-01-09T18:28:39Z</time>
      </trkpt>
      <trkpt lat="50.25819" lon="5.90454">
        <ele>399</ele>
        <time>2019-01-09T18:29:39Z</time>
      </trkpt>
      <trkpt lat="50.25842" lon="5.90436">
        <ele>399</ele>
        <time>2019-01-09T18:30:39Z</time>
      </trkpt>
      <trkpt lat="50.25867" lon="5.9043">
        <ele>401</ele>
        <time>2019-01-09T18:31:39Z</time>
      </trkpt>
      <trkpt lat="50.25883" lon="5.90428">
        <ele>402</ele>
        <time>2019-01-09T18:32:39Z</time>
      </trkpt>
      <trkpt lat="50.25899" lon="5.90427">
        <ele>402</ele>
        <time>2019-01-09T18:33:39Z</time>
      </trkpt>
      <trkpt lat="50.25915" lon="5.90427">
        <ele>403</ele>
        <time>2019-01-09T18:34:39Z</time>
      </trkpt>
      <trkpt lat="50.25954" lon="5.9043">
        <ele>402</ele>
        <time>2019-01-09T18:35:39Z</time>
      </trkpt>
      <trkpt lat="50.26011" lon="5.90418">
        <ele>400</ele>
        <time>2019-01-09T18:36:39Z</time>
      </trkpt>
      <trkpt lat="50.26103" lon="5.90401">
        <ele>394</ele>
        <time>2019-01-09T18:37:39Z</time>
      </trkpt>
      <trkpt lat="50.26174" lon="5.90385">
        <ele>395</ele>
        <time>2019-01-09T18:38:39Z</time>
      </trkpt>
      <trkpt lat="50.26231" lon="5.9038">
        <ele>393</ele>
        <time>2019-01-09T18:39:39Z</time>
      </trkpt>
      <trkpt lat="50.26276" lon="5.90392">
        <ele>389</ele>
        <time>2019-01-09T18:40:39Z</time>
      </trkpt>
      <trkpt lat="50.26305" lon="5.90406">
        <ele>386</ele>
        <time>2019-01-09T18:41:39Z</time>
      </trkpt>
      <trkpt lat="50.26338" lon="5.9042">
        <ele>385</ele>
        <time>2019-01-09T18:42:39Z</time>
      </trkpt>
      <trkpt lat="50.2637" lon="5.90423">
        <ele>384</ele>
        <time>2019-01-09T18:43:39Z</time>
      </trkpt>
      <trkpt lat="50.26384" lon="5.90422">
        <ele>384</ele>
        <time>2019-01-09T18:44:39Z</time>
      </trkpt>
      <trkpt lat="50.26405" lon="5.90413">
        <ele>384</ele>
        <time>2019-01-09T18:45:39Z</time>
      </trkpt>
      <trkpt lat="50.26417" lon="5.90406">
        <ele>385</ele>
        <time>2019-01-09T18:46:39Z</time>
      </trkpt>
      <trkpt lat="50.26452" lon="5.90376">
        <ele>386</ele>
        <time>2019-01-09T18:47:39Z</time>
      </trkpt>
      <trkpt lat="50.26482" lon="5.90364">
        <ele>386</ele>
        <time>2019-01-09T18:48:39Z</time>
      </trkpt>
      <trkpt lat="50.26504" lon="5.90366">
        <ele>385</ele>
        <time>2019-01-09T18:49:39Z</time>
      </trkpt>
      <trkpt lat="50.26516" lon="5.90371">
        <ele>385</ele>
        <time>2019-01-09T18:50:39Z</time>
      </trkpt>
      <trkpt lat="50.26541" lon="5.90389">
        <ele>383</ele>
        <time>2019-01-09T18:51:39Z</time>
      </trkpt>
      <trkpt lat="50.2656" lon="5.9041">
        <ele>380</ele>
        <time>2019-01-09T18:52:39Z</time>
      </trkpt>
      <trkpt lat="50.26612" lon="5.90448">
        <ele>376</ele>
        <time>2019-01-09T18:53:39Z</time>
      </trkpt>
      <trkpt lat="50.2659" lon="5.90518">
        <ele>376</ele>
        <time>2019-01-09T18:54:39Z</time>
      </trkpt>
      <trkpt lat="50.26588" lon="5.90537">
        <ele>376</ele>
        <time>2019-01-09T18:55:39Z</time>
      </trkpt>
      <trkpt lat="50.26589" lon="5.90555">
        <ele>376</ele>
        <time>2019-01-09T18:56:39Z</time>
      </trkpt>
      <trkpt lat="50.26595" lon="5.90574">
        <ele>376</ele>
        <time>2019-01-09T18:57:39Z</time>
      </trkpt>
      <trkpt lat="50.26609" lon="5.90596">
        <ele>376</ele>
        <time>2019-01-09T18:58:39Z</time>
      </trkpt>
      <trkpt lat="50.26672" lon="5.90684">
        <ele>377</ele>
        <time>2019-01-09T18:59:39Z</time>
      </trkpt>
      <trkpt lat="50.26685" lon="5.90701">
        <ele>378</ele>
        <time>2019-01-09T19:00:39Z</time>
      </trkpt>
      <trkpt lat="50.26699" lon="5.90716">
        <ele>379</ele>
        <time>2019-01-09T19:01:39Z</time>
      </trkpt>
      <trkpt lat="50.26719" lon="5.90735">
        <ele>378</ele>
        <time>2019-01-09T19:02:39Z</time>
      </trkpt>
      <trkpt lat="50.26738" lon="5.90764">
        <ele>378</ele>
        <time>2019-01-09T19:03:39Z</time>
      </trkpt>
      <trkpt lat="50.2675" lon="5.90792">
        <ele>379</ele>
        <time>2019-01-09T19:04:39Z</time>
      </trkpt>
      <trkpt lat="50.26766" lon="5.90833">
        <ele>380</ele>
        <time>2019-01-09T19:05:39Z</time>
      </trkpt>
      <trkpt lat="50.2678" lon="5.9086">
        <ele>385</ele>
        <time>2019-01-09T19:06:39Z</time>
      </trkpt>
      <trkpt lat="50.26792" lon="5.90878">
        <ele>387</ele>
        <time>2019-01-09T19:07:39Z</time>
      </trkpt>
      <trkpt lat="50.26805" lon="5.90894">
        <ele>388</ele>
        <time>2019-01-09T19:08:39Z</time>
      </trkpt>
      <trkpt lat="50.26817" lon="5.90902">
        <ele>388</ele>
        <time>2019-01-09T19:09:39Z</time>
      </trkpt>
      <trkpt lat="50.26829" lon="5.90909">
        <ele>387</ele>
        <time>2019-01-09T19:10:39Z</time>
      </trkpt>
      <trkpt lat="50.26845" lon="5.90914">
        <ele>387</ele>
        <time>2019-01-09T19:11:39Z</time>
      </trkpt>
      <trkpt lat="50.2686" lon="5.90916">
        <ele>387</ele>
        <time>2019-01-09T19:12:39Z</time>
      </trkpt>
      <trkpt lat="50.26888" lon="5.90914">
        <ele>386</ele>
        <time>2019-01-09T19:13:39Z</time>
      </trkpt>
      <trkpt lat="50.26915" lon="5.90905">
        <ele>385</ele>
        <time>2019-01-09T19:14:39Z</time>
      </trkpt>
      <trkpt lat="50.26956" lon="5.90886">
        <ele>385</ele>
        <time>2019-01-09T19:15:39Z</time>
      </trkpt>
      <trkpt lat="50.2698" lon="5.90871">
        <ele>383</ele>
        <time>2019-01-09T19:16:39Z</time>
      </trkpt>
      <trkpt lat="50.27011" lon="5.90849">
        <ele>381</ele>
        <time>2019-01-09T19:17:39Z</time>
      </trkpt>
      <trkpt lat="50.27044" lon="5.90818">
        <ele>380</ele>
        <time>2019-01-09T19:18:39Z</time>
      </trkpt>
      <trkpt lat="50.27089" lon="5.90784">
        <ele>379</ele>
        <time>2019-01-09T19:19:39Z</time>
      </trkpt>
      <trkpt lat="50.27112" lon="5.90769">
        <ele>378</ele>
        <time>2019-01-09T19:20:39Z</time>
      </trkpt>
      <trkpt lat="50.27161" lon="5.90745">
        <ele>376</ele>
        <time>2019-01-09T19:21:39Z</time>
      </trkpt>
      <trkpt lat="50.27185" lon="5.90735">
        <ele>375</ele>
        <time>2019-01-09T19:22:39Z</time>
      </trkpt>
      <trkpt lat="50.27202" lon="5.90732">
        <ele>375</ele>
        <time>2019-01-09T19:23:39Z</time>
      </trkpt>
      <trkpt lat="50.27222" lon="5.90734">
        <ele>375</ele>
        <time>2019-01-09T19:24:39Z</time>
      </trkpt>
      <trkpt lat="50.27239" lon="5.90735">
        <ele>375</ele>
        <time>2019-01-09T19:25:39Z</time>
      </trkpt>
      <trkpt lat="50.27257" lon="5.90742">
        <ele>375</ele>
        <time>2019-01-09T19:26:39Z</time>
      </trkpt>
      <trkpt lat="50.27272" lon="5.90752">
        <ele>374</ele>
        <time>2019-01-09T19:27:39Z</time>
      </trkpt>
      <trkpt lat="50.27289" lon="5.90769">
        <ele>376</ele>
        <time>2019-01-09T19:28:39Z</time>
      </trkpt>
      <trkpt lat="50.27393" lon="5.90881">
        <ele>374</ele>
        <time>2019-01-09T19:29:39Z</time>
      </trkpt>
      <trkpt lat="50.27473" lon="5.90964">
        <ele>372</ele>
        <time>2019-01-09T19:30:39Z</time>
      </trkpt>
      <trkpt lat="50.27576" lon="5.91076">
        <ele>366</ele>
        <time>2019-01-09T19:31:39Z</time>
      </trkpt>
      <trkpt lat="50.27586" lon="5.91084">
        <ele>365</ele>
        <time>2019-01-09T19:32:39Z</time>
      </trkpt>
      <trkpt lat="50.27609" lon="5.91092">
        <ele>367</ele>
        <time>2019-01-09T19:33:39Z</time>
      </trkpt>
      <trkpt lat="50.27629" lon="5.91093">
        <ele>367</ele>
        <time>2019-01-09T19:34:39Z</time>
      </trkpt>
      <trkpt lat="50.27707" lon="5.91093">
        <ele>367</ele>
        <time>2019-01-09T19:35:39Z</time>
      </trkpt>
      <trkpt lat="50.2782" lon="5.91096">
        <ele>366</ele>
        <time>2019-01-09T19:36:39Z</time>
      </trkpt>
      <trkpt lat="50.27867" lon="5.91106">
        <ele>366</ele>
        <time>2019-01-09T19:37:39Z</time>
      </trkpt>
      <trkpt lat="50.279" lon="5.91117">
        <ele>366</ele>
        <time>2019-01-09T19:38:39Z</time>
      </trkpt>
      <trkpt lat="50.27919" lon="5.91126">
        <ele>366</ele>
        <time>2019-01-09T19:39:39Z</time>
      </trkpt>
      <trkpt lat="50.27947" lon="5.91142">
        <ele>366</ele>
        <time>2019-01-09T19:40:39Z</time>
      </trkpt>
      <trkpt lat="50.28004" lon="5.91174">
        <ele>367</ele>
        <time>2019-01-09T19:41:39Z</time>
      </trkpt>
      <trkpt lat="50.28044" lon="5.91195">
        <ele>368</ele>
        <time>2019-01-09T19:42:39Z</time>
      </trkpt>
      <trkpt lat="50.28082" lon="5.91217">
        <ele>371</ele>
        <time>2019-01-09T19:43:39Z</time>
      </trkpt>
      <trkpt lat="50.28114" lon="5.91238">
        <ele>373</ele>
        <time>2019-01-09T19:44:39Z</time>
      </trkpt>
      <trkpt lat="50.28197" lon="5.91305">
        <ele>374</ele>
        <time>2019-01-09T19:45:39Z</time>
      </trkpt>
      <trkpt lat="50.28278" lon="5.91372">
        <ele>369</ele>
        <time>2019-01-09T19:46:39Z</time>
      </trkpt>
      <trkpt lat="50.2834" lon="5.91423">
        <ele>366</ele>
        <time>2019-01-09T19:47:39Z</time>
      </trkpt>
      <trkpt lat="50.28368" lon="5.91457">
        <ele>367</ele>
        <time>2019-01-09T19:48:39Z</time>
      </trkpt>
      <trkpt lat="50.28388" lon="5.91486">
        <ele>367</ele>
        <time>2019-01-09T19:49:39Z</time>
      </trkpt>
      <trkpt lat="50.28408" lon="5.91511">
        <ele>368</ele>
        <time>2019-01-09T19:50:39Z</time>
      </trkpt>
      <trkpt lat="50.28439" lon="5.91549">
        <ele>370</ele>
        <time>2019-01-09T19:51:39Z</time>
      </trkpt>
      <trkpt lat="50.28504" lon="5.91628">
        <ele>374</ele>
        <time>2019-01-09T19:52:39Z</time>
      </trkpt>
      <trkpt lat="50.28524" lon="5.91654">
        <ele>375</ele>
        <time>2019-01-09T19:53:39Z</time>
      </trkpt>
      <trkpt lat="50.28544" lon="5.91676">
        <ele>376</ele>
        <time>2019-01-09T19:54:39Z</time>
      </trkpt>
      <trkpt lat="50.28574" lon="5.91729">
        <ele>377</ele>
        <time>2019-01-09T19:55:39Z</time>
      </trkpt>
      <trkpt lat="50.2866" lon="5.91656">
        <ele>377</ele>
        <time>2019-01-09T19:56:39Z</time>
      </trkpt>
      <trkpt lat="50.28705" lon="5.91618">
        <ele>375</ele>
        <time>2019-01-09T19:57:39Z</time>
      </trkpt>
      <trkpt lat="50.28718" lon="5.91603">
        <ele>374</ele>
        <time>2019-01-09T19:58:39Z</time>
      </trkpt>
      <trkpt lat="50.28723" lon="5.91596">
        <ele>374</ele>
        <time>2019-01-09T19:59:39Z</time>
      </trkpt>
      <trkpt lat="50.28728" lon="5.91576">
        <ele>373</ele>
        <time>2019-01-09T20:00:39Z</time>
      </trkpt>
      <trkpt lat="50.2873" lon="5.91558">
        <ele>371</ele>
        <time>2019-01-09T20:01:39Z</time>
      </trkpt>
      <trkpt lat="50.2873" lon="5.91538">
        <ele>369</ele>
        <time>2019-01-09T20:02:39Z</time>
      </trkpt>
      <trkpt lat="50.28728" lon="5.91515">
        <ele>366</ele>
        <time>2019-01-09T20:03:39Z</time>
      </trkpt>
      <trkpt lat="50.28749" lon="5.91497">
        <ele>365</ele>
        <time>2019-01-09T20:04:39Z</time>
      </trkpt>
      <trkpt lat="50.28761" lon="5.91479">
        <ele>362</ele>
        <time>2019-01-09T20:05:39Z</time>
      </trkpt>
      <trkpt lat="50.28773" lon="5.91455">
        <ele>359</ele>
        <time>2019-01-09T20:06:39Z</time>
      </trkpt>
      <trkpt lat="50.28781" lon="5.91443">
        <ele>357</ele>
        <time>2019-01-09T20:07:39Z</time>
      </trkpt>
      <trkpt lat="50.28797" lon="5.91433">
        <ele>357</ele>
        <time>2019-01-09T20:08:39Z</time>
      </trkpt>
      <trkpt lat="50.28812" lon="5.91437">
        <ele>357</ele>
        <time>2019-01-09T20:09:39Z</time>
      </trkpt>
      <trkpt lat="50.28827" lon="5.91443">
        <ele>357</ele>
        <time>2019-01-09T20:10:39Z</time>
      </trkpt>
      <trkpt lat="50.28887" lon="5.91492">
        <ele>355</ele>
        <time>2019-01-09T20:11:39Z</time>
      </trkpt>
      <trkpt lat="50.28937" lon="5.9153">
        <ele>354</ele>
        <time>2019-01-09T20:12:39Z</time>
      </trkpt>
      <trkpt lat="50.28956" lon="5.9154">
        <ele>356</ele>
        <time>2019-01-09T20:13:39Z</time>
      </trkpt>
      <trkpt lat="50.28967" lon="5.91543">
        <ele>357</ele>
        <time>2019-01-09T20:14:39Z</time>
      </trkpt>
      <trkpt lat="50.28978" lon="5.91543">
        <ele>358</ele>
        <time>2019-01-09T20:15:39Z</time>
      </trkpt>
      <trkpt lat="50.29002" lon="5.91541">
        <ele>359</ele>
        <time>2019-01-09T20:16:39Z</time>
      </trkpt>
      <trkpt lat="50.29034" lon="5.91528">
        <ele>357</ele>
        <time>2019-01-09T20:17:39Z</time>
      </trkpt>
      <trkpt lat="50.29051" lon="5.9152">
        <ele>356</ele>
        <time>2019-01-09T20:18:39Z</time>
      </trkpt>
      <trkpt lat="50.29072" lon="5.91506">
        <ele>355</ele>
        <time>2019-01-09T20:19:39Z</time>
      </trkpt>
      <trkpt lat="50.29086" lon="5.9149">
        <ele>354</ele>
        <time>2019-01-09T20:20:39Z</time>
      </trkpt>
      <trkpt lat="50.29096" lon="5.91476">
        <ele>355</ele>
        <time>2019-01-09T20:21:39Z</time>
      </trkpt>
      <trkpt lat="50.29106" lon="5.91461">
        <ele>355</ele>
        <time>2019-01-09T20:22:39Z</time>
      </trkpt>
      <trkpt lat="50.2917" lon="5.91312">
        <ele>353</ele>
        <time>2019-01-09T20:23:39Z</time>
      </trkpt>
      <trkpt lat="50.29199" lon="5.9124">
        <ele>354</ele>
        <time>2019-01-09T20:24:39Z</time>
      </trkpt>
      <trkpt lat="50.2921" lon="5.91201">
        <ele>356</ele>
        <time>2019-01-09T20:25:39Z</time>
      </trkpt>
      <trkpt lat="50.29219" lon="5.91139">
        <ele>357</ele>
        <time>2019-01-09T20:26:39Z</time>
      </trkpt>
      <trkpt lat="50.29231" lon="5.91056">
        <ele>358</ele>
        <time>2019-01-09T20:27:39Z</time>
      </trkpt>
      <trkpt lat="50.29244" lon="5.90975">
        <ele>356</ele>
        <time>2019-01-09T20:28:39Z</time>
      </trkpt>
      <trkpt lat="50.29263" lon="5.90895">
        <ele>354</ele>
        <time>2019-01-09T20:29:39Z</time>
      </trkpt>
      <trkpt lat="50.29279" lon="5.90839">
        <ele>354</ele>
        <time>2019-01-09T20:30:39Z</time>
      </trkpt>
      <trkpt lat="50.29291" lon="5.90798">
        <ele>355</ele>
        <time>2019-01-09T20:31:39Z</time>
      </trkpt>
      <trkpt lat="50.293" lon="5.90765">
        <ele>355</ele>
        <time>2019-01-09T20:32:39Z</time>
      </trkpt>
      <trkpt lat="50.29311" lon="5.90709">
        <ele>354</ele>
        <time>2019-01-09T20:33:39Z</time>
      </trkpt>
      <trkpt lat="50.29324" lon="5.90659">
        <ele>352</ele>
        <time>2019-01-09T20:34:39Z</time>
      </trkpt>
      <trkpt lat="50.29341" lon="5.90629">
        <ele>350</ele>
        <time>2019-01-09T20:35:39Z</time>
      </trkpt>
      <trkpt lat="50.29359" lon="5.90609">
        <ele>350</ele>
        <time>2019-01-09T20:36:39Z</time>
      </trkpt>
      <trkpt lat="50.29388" lon="5.90584">
        <ele>349</ele>
        <time>2019-01-09T20:37:39Z</time>
      </trkpt>
      <trkpt lat="50.29413" lon="5.90563">
        <ele>348</ele>
        <time>2019-01-09T20:38:39Z</time>
      </trkpt>
      <trkpt lat="50.2948" lon="5.9051">
        <ele>347</ele>
        <time>2019-01-09T20:39:39Z</time>
      </trkpt>
      <trkpt lat="50.29542" lon="5.90458">
        <ele>351</ele>
        <time>2019-01-09T20:40:39Z</time>
      </trkpt>
      <trkpt lat="50.29567" lon="5.90433">
        <ele>352</ele>
        <time>2019-01-09T20:41:39Z</time>
      </trkpt>
      <trkpt lat="50.29593" lon="5.90399">
        <ele>352</ele>
        <time>2019-01-09T20:42:39Z</time>
      </trkpt>
      <trkpt lat="50.29631" lon="5.90348">
        <ele>352</ele>
        <time>2019-01-09T20:43:39Z</time>
      </trkpt>
      <trkpt lat="50.29662" lon="5.90317">
        <ele>351</ele>
        <time>2019-01-09T20:44:39Z</time>
      </trkpt>
      <trkpt lat="50.29691" lon="5.90294">
        <ele>350</ele>
        <time>2019-01-09T20:45:39Z</time>
      </trkpt>
      <trkpt lat="50.29719" lon="5.90276">
        <ele>348</ele>
        <time>2019-01-09T20:46:39Z</time>
      </trkpt>
      <trkpt lat="50.29747" lon="5.90261">
        <ele>346</ele>
        <time>2019-01-09T20:47:39Z</time>
      </trkpt>
      <trkpt lat="50.29775" lon="5.90252">
        <ele>344</ele>
        <time>2019-01-09T20:48:39Z</time>
      </trkpt>
      <trkpt lat="50.29802" lon="5.90251">
        <ele>344</ele>
        <time>2019-01-09T20:49:39Z</time>
      </trkpt>
      <trkpt lat="50.29818" lon="5.90252">
        <ele>344</ele>
        <time>2019-01-09T20:50:39Z</time>
      </trkpt>
      <trkpt lat="50.29832" lon="5.9026">
        <ele>346</ele>
        <time>2019-01-09T20:51:39Z</time>
      </trkpt>
      <trkpt lat="50.29846" lon="5.90273">
        <ele>348</ele>
        <time>2019-01-09T20:52:39Z</time>
      </trkpt>
      <trkpt lat="50.29861" lon="5.90295">
        <ele>350</ele>
        <time>2019-01-09T20:53:39Z</time>
      </trkpt>
      <trkpt lat="50.29868" lon="5.90316">
        <ele>352</ele>
        <time>2019-01-09T20:54:39Z</time>
      </trkpt>
      <trkpt lat="50.29881" lon="5.90357">
        <ele>352</ele>
        <time>2019-01-09T20:55:39Z</time>
      </trkpt>
      <trkpt lat="50.29891" lon="5.904">
        <ele>352</ele>
        <time>2019-01-09T20:56:39Z</time>
      </trkpt>
      <trkpt lat="50.29903" lon="5.90462">
        <ele>350</ele>
        <time>2019-01-09T20:57:39Z</time>
      </trkpt>
      <trkpt lat="50.29934" lon="5.90659">
        <ele>353</ele>
        <time>2019-01-09T20:58:39Z</time>
      </trkpt>
      <trkpt lat="50.29969" lon="5.90871">
        <ele>352</ele>
        <time>2019-01-09T20:59:39Z</time>
      </trkpt>
      <trkpt lat="50.29986" lon="5.90939">
        <ele>349</ele>
        <time>2019-01-09T21:00:39Z</time>
      </trkpt>
      <trkpt lat="50.30001" lon="5.90976">
        <ele>346</ele>
        <time>2019-01-09T21:01:39Z</time>
      </trkpt>
      <trkpt lat="50.30019" lon="5.91013">
        <ele>345</ele>
        <time>2019-01-09T21:02:39Z</time>
      </trkpt>
      <trkpt lat="50.30051" lon="5.91058">
        <ele>342</ele>
        <time>2019-01-09T21:03:39Z</time>
      </trkpt>
      <trkpt lat="50.3008" lon="5.91094">
        <ele>339</ele>
        <time>2019-01-09T21:04:39Z</time>
      </trkpt>
      <trkpt lat="50.30097" lon="5.91114">
        <ele>340</ele>
        <time>2019-01-09T21:05:39Z</time>
      </trkpt>
      <trkpt lat="50.30112" lon="5.91126">
        <ele>340</ele>
        <time>2019-01-09T21:06:39Z</time>
      </trkpt>
      <trkpt lat="50.30141" lon="5.91151">
        <ele>341</ele>
        <time>2019-01-09T21:07:39Z</time>
      </trkpt>
      <trkpt lat="50.30188" lon="5.91162">
        <ele>339</ele>
        <time>2019-01-09T21:08:39Z</time>
      </trkpt>
      <trkpt lat="50.30242" lon="5.91154">
        <ele>338</ele>
        <time>2019-01-09T21:09:39Z</time>
      </trkpt>
      <trkpt lat="50.30291" lon="5.91143">
        <ele>336</ele>
        <time>2019-01-09T21:10:39Z</time>
      </trkpt>
      <trkpt lat="50.3035" lon="5.91129">
        <ele>334</ele>
        <time>2019-01-09T21:11:39Z</time>
      </trkpt>
      <trkpt lat="50.30418" lon="5.91111">
        <ele>334</ele>
        <time>2019-01-09T21:12:39Z</time>
      </trkpt>
      <trkpt lat="50.3046" lon="5.91082">
        <ele>335</ele>
        <time>2019-01-09T21:13:39Z</time>
      </trkpt>
      <trkpt lat="50.30492" lon="5.9106">
        <ele>336</ele>
        <time>2019-01-09T21:14:39Z</time>
      </trkpt>
      <trkpt lat="50.30515" lon="5.9105">
        <ele>336</ele>
        <time>2019-01-09T21:15:39Z</time>
      </trkpt>
      <trkpt lat="50.30553" lon="5.9105">
        <ele>338</ele>
        <time>2019-01-09T21:16:39Z</time>
      </trkpt>
      <trkpt lat="50.30571" lon="5.91055">
        <ele>338</ele>
        <time>2019-01-09T21:17:39Z</time>
      </trkpt>
      <trkpt lat="50.30587" lon="5.91062">
        <ele>339</ele>
        <time>2019-01-09T21:18:39Z</time>
      </trkpt>
      <trkpt lat="50.30607" lon="5.9107">
        <ele>338</ele>
        <time>2019-01-09T21:19:39Z</time>
      </trkpt>
      <trkpt lat="50.30656" lon="5.91092">
        <ele>339</ele>
        <time>2019-01-09T21:20:39Z</time>
      </trkpt>
      <trkpt lat="50.30695" lon="5.91105">
        <ele>341</ele>
        <time>2019-01-09T21:21:39Z</time>
      </trkpt>
      <trkpt lat="50.3072" lon="5.91111">
        <ele>342</ele>
        <time>2019-01-09T21:22:39Z</time>
      </trkpt>
      <trkpt lat="50.30743" lon="5.9111">
        <ele>341</ele>
        <time>2019-01-09T21:23:39Z</time>
      </trkpt>
      <trkpt lat="50.30764" lon="5.91106">
        <ele>341</ele>
        <time>2019-01-09T21:24:39Z</time>
      </trkpt>
      <trkpt lat="50.30782" lon="5.91097">
        <ele>340</ele>
        <time>2019-01-09T21:25:39Z</time>
      </trkpt>
      <trkpt lat="50.308" lon="5.91086">
        <ele>338</ele>
        <time>2019-01-09T21:26:39Z</time>
      </trkpt>
      <trkpt lat="50.30817" lon="5.91073">
        <ele>338</ele>
        <time>2019-01-09T21:27:39Z</time>
      </trkpt>
      <trkpt lat="50.30837" lon="5.91054">
        <ele>337</ele>
        <time>2019-01-09T21:28:39Z</time>
      </trkpt>
      <trkpt lat="50.3089" lon="5.90997">
        <ele>335</ele>
        <time>2019-01-09T21:29:39Z</time>
      </trkpt>
      <trkpt lat="50.30941" lon="5.9094">
        <ele>336</ele>
        <time>2019-01-09T21:30:39Z</time>
      </trkpt>
      <trkpt lat="50.3096" lon="5.90916">
        <ele>337</ele>
        <time>2019-01-09T21:31:39Z</time>
      </trkpt>
      <trkpt lat="50.30966" lon="5.90901">
        <ele>337</ele>
        <time>2019-01-09T21:32:39Z</time>
      </trkpt>
      <trkpt lat="50.30976" lon="5.90872">
        <ele>338</ele>
        <time>2019-01-09T21:33:39Z</time>
      </trkpt>
      <trkpt lat="50.30981" lon="5.90845">
        <ele>338</ele>
        <time>2019-01-09T21:34:39Z</time>
      </trkpt>
      <trkpt lat="50.30997" lon="5.90766">
        <ele>335</ele>
        <time>2019-01-09T21:35:39Z</time>
      </trkpt>
      <trkpt lat="50.31009" lon="5.90701">
        <ele>331</ele>
        <time>2019-01-09T21:36:39Z</time>
      </trkpt>
      <trkpt lat="50.31021" lon="5.90657">
        <ele>328</ele>
        <time>2019-01-09T21:37:39Z</time>
      </trkpt>
      <trkpt lat="50.31033" lon="5.9064">
        <ele>327</ele>
        <time>2019-01-09T21:38:39Z</time>
      </trkpt>
      <trkpt lat="50.31045" lon="5.90624">
        <ele>326</ele>
        <time>2019-01-09T21:39:39Z</time>
      </trkpt>
      <trkpt lat="50.31055" lon="5.90616">
        <ele>326</ele>
        <time>2019-01-09T21:40:39Z</time>
      </trkpt>
      <trkpt lat="50.31068" lon="5.90606">
        <ele>325</ele>
        <time>2019-01-09T21:41:39Z</time>
      </trkpt>
      <trkpt lat="50.31084" lon="5.90596">
        <ele>324</ele>
        <time>2019-01-09T21:42:39Z</time>
      </trkpt>
      <trkpt lat="50.31101" lon="5.90593">
        <ele>324</ele>
        <time>2019-01-09T21:43:39Z</time>
      </trkpt>
      <trkpt lat="50.31121" lon="5.90593">
        <ele>324</ele>
        <time>2019-01-09T21:44:39Z</time>
      </trkpt>
      <trkpt lat="50.31138" lon="5.90597">
        <ele>324</ele>
        <time>2019-01-09T21:45:39Z</time>
      </trkpt>
      <trkpt lat="50.31157" lon="5.90605">
        <ele>325</ele>
        <time>2019-01-09T21:46:39Z</time>
      </trkpt>
      <trkpt lat="50.31167" lon="5.90611">
        <ele>326</ele>
        <time>2019-01-09T21:47:39Z</time>
      </trkpt>
      <trkpt lat="50.31258" lon="5.90683">
        <ele>327</ele>
        <time>2019-01-09T21:48:39Z</time>
      </trkpt>
      <trkpt lat="50.31302" lon="5.90714">
        <ele>325</ele>
        <time>2019-01-09T21:49:39Z</time>
      </trkpt>
      <trkpt lat="50.31342" lon="5.90732">
        <ele>324</ele>
        <time>2019-01-09T21:50:39Z</time>
      </trkpt>
      <trkpt lat="50.31446" lon="5.90775">
        <ele>327</ele>
        <time>2019-01-09T21:51:39Z</time>
      </trkpt>
      <trkpt lat="50.31544" lon="5.90817">
        <ele>329</ele>
        <time>2019-01-09T21:52:39Z</time>
      </trkpt>
      <trkpt lat="50.31636" lon="5.90858">
        <ele>330</ele>
        <time>2019-01-09T21:53:39Z</time>
      </trkpt>
      <trkpt lat="50.31664" lon="5.90862">
        <ele>330</ele>
        <time>2019-01-09T21:54:39Z</time>
      </trkpt>
      <trkpt lat="50.31676" lon="5.90861">
        <ele>330</ele>
        <time>2019-01-09T21:55:39Z</time>
      </trkpt>
      <trkpt lat="50.31697" lon="5.90857">
        <ele>329</ele>
        <time>2019-01-09T21:56:39Z</time>
      </trkpt>
      <trkpt lat="50.31734" lon="5.90845">
        <ele>327</ele>
        <time>2019-01-09T21:57:39Z</time>
      </trkpt>
      <trkpt lat="50.31762" lon="5.90841">
        <ele>326</ele>
        <time>2019-01-09T21:58:39Z</time>
      </trkpt>
      <trkpt lat="50.31788" lon="5.90842">
        <ele>325</ele>
        <time>2019-01-09T21:59:39Z</time>
      </trkpt>
      <trkpt lat="50.31801" lon="5.90849">
        <ele>325</ele>
        <time>2019-01-09T22:00:39Z</time>
      </trkpt>
      <trkpt lat="50.31816" lon="5.90856">
        <ele>326</ele>
        <time>2019-01-09T22:01:39Z</time>
      </trkpt>
      <trkpt lat="50.31831" lon="5.90865">
        <ele>327</ele>
        <time>2019-01-09T22:02:39Z</time>
      </trkpt>
      <trkpt lat="50.31846" lon="5.90876">
        <ele>328</ele>
        <time>2019-01-09T22:03:39Z</time>
      </trkpt>
      <trkpt lat="50.31893" lon="5.90905">
        <ele>331</ele>
        <time>2019-01-09T22:04:39Z</time>
      </trkpt>
      <trkpt lat="50.31928" lon="5.9092">
        <ele>332</ele>
        <time>2019-01-09T22:05:39Z</time>
      </trkpt>
      <trkpt lat="50.31972" lon="5.90938">
        <ele>332</ele>
        <time>2019-01-09T22:06:39Z</time>
      </trkpt>
      <trkpt lat="50.32007" lon="5.90942">
        <ele>331</ele>
        <time>2019-01-09T22:07:39Z</time>
      </trkpt>
      <trkpt lat="50.32063" lon="5.9094">
        <ele>331</ele>
        <time>2019-01-09T22:08:39Z</time>
      </trkpt>
      <trkpt lat="50.32196" lon="5.90935">
        <ele>326</ele>
        <time>2019-01-09T22:09:39Z</time>
      </trkpt>
      <trkpt lat="50.3228" lon="5.90931">
        <ele>323</ele>
        <time>2019-01-09T22:10:39Z</time>
      </trkpt>
      <trkpt lat="50.32337" lon="5.90931">
        <ele>323</ele>
        <time>2019-01-09T22:11:39Z</time>
      </trkpt>
      <trkpt lat="50.3238" lon="5.90926">
        <ele>323</ele>
        <time>2019-01-09T22:12:39Z</time>
      </trkpt>
      <trkpt lat="50.324" lon="5.90917">
        <ele>322</ele>
        <time>2019-01-09T22:13:39Z</time>
      </trkpt>
      <trkpt lat="50.3241" lon="5.90912">
        <ele>322</ele>
        <time>2019-01-09T22:14:39Z</time>
      </trkpt>
      <trkpt lat="50.32424" lon="5.90896">
        <ele>320</ele>
        <time>2019-01-09T22:15:39Z</time>
      </trkpt>
      <trkpt lat="50.32447" lon="5.90869">
        <ele>318</ele>
        <time>2019-01-09T22:16:39Z</time>
      </trkpt>
      <trkpt lat="50.3247" lon="5.90844">
        <ele>317</ele>
        <time>2019-01-09T22:17:39Z</time>
      </trkpt>
      <trkpt lat="50.32498" lon="5.90823">
        <ele>315</ele>
        <time>2019-01-09T22:18:39Z</time>
      </trkpt>
      <trkpt lat="50.32517" lon="5.9081">
        <ele>316</ele>
        <time>2019-01-09T22:19:39Z</time>
      </trkpt>
      <trkpt lat="50.32527" lon="5.90796">
        <ele>316</ele>
        <time>2019-01-09T22:20:39Z</time>
      </trkpt>
      <trkpt lat="50.32544" lon="5.90764">
        <ele>315</ele>
        <time>2019-01-09T22:21:39Z</time>
      </trkpt>
      <trkpt lat="50.32581" lon="5.90689">
        <ele>312</ele>
        <time>2019-01-09T22:22:39Z</time>
      </trkpt>
      <trkpt lat="50.32598" lon="5.90663">
        <ele>311</ele>
        <time>2019-01-09T22:23:39Z</time>
      </trkpt>
      <trkpt lat="50.32716" lon="5.90589">
        <ele>314</ele>
        <time>2019-01-09T22:24:39Z</time>
      </trkpt>
      <trkpt lat="50.32746" lon="5.90569">
        <ele>315</ele>
        <time>2019-01-09T22:25:39Z</time>
      </trkpt>
      <trkpt lat="50.32765" lon="5.90552">
        <ele>317</ele>
        <time>2019-01-09T22:26:39Z</time>
      </trkpt>
      <trkpt lat="50.32781" lon="5.90527">
        <ele>318</ele>
        <time>2019-01-09T22:27:39Z</time>
      </trkpt>
      <trkpt lat="50.32792" lon="5.90496">
        <ele>317</ele>
        <time>2019-01-09T22:28:39Z</time>
      </trkpt>
      <trkpt lat="50.32807" lon="5.90447">
        <ele>314</ele>
        <time>2019-01-09T22:29:39Z</time>
      </trkpt>
      <trkpt lat="50.32825" lon="5.90388">
        <ele>311</ele>
        <time>2019-01-09T22:30:39Z</time>
      </trkpt>
      <trkpt lat="50.32841" lon="5.90344">
        <ele>310</ele>
        <time>2019-01-09T22:31:39Z</time>
      </trkpt>
      <trkpt lat="50.32856" lon="5.90322">
        <ele>310</ele>
        <time>2019-01-09T22:32:39Z</time>
      </trkpt>
      <trkpt lat="50.32869" lon="5.9031">
        <ele>310</ele>
        <time>2019-01-09T22:33:39Z</time>
      </trkpt>
      <trkpt lat="50.32891" lon="5.9029">
        <ele>311</ele>
        <time>2019-01-09T22:34:39Z</time>
      </trkpt>
      <trkpt lat="50.32929" lon="5.90269">
        <ele>311</ele>
        <time>2019-01-09T22:35:39Z</time>
      </trkpt>
      <trkpt lat="50.3297" lon="5.90259">
        <ele>311</ele>
        <time>2019-01-09T22:36:39Z</time>
      </trkpt>
      <trkpt lat="50.33035" lon="5.90243">
        <ele>311</ele>
        <time>2019-01-09T22:37:39Z</time>
      </trkpt>
      <trkpt lat="50.33077" lon="5.90228">
        <ele>312</ele>
        <time>2019-01-09T22:38:39Z</time>
      </trkpt>
      <trkpt lat="50.33167" lon="5.90185">
        <ele>314</ele>
        <time>2019-01-09T22:39:39Z</time>
      </trkpt>
      <trkpt lat="50.33197" lon="5.90173">
        <ele>315</ele>
        <time>2019-01-09T22:40:39Z</time>
      </trkpt>
      <trkpt lat="50.33219" lon="5.90167">
        <ele>315</ele>
        <time>2019-01-09T22:41:39Z</time>
      </trkpt>
      <trkpt lat="50.33302" lon="5.90151">
        <ele>314</ele>
        <time>2019-01-09T22:42:39Z</time>
      </trkpt>
      <trkpt lat="50.33401" lon="5.90132">
        <ele>311</ele>
        <time>2019-01-09T22:43:39Z</time>
      </trkpt>
      <trkpt lat="50.3343" lon="5.90127">
        <ele>310</ele>
        <time>2019-01-09T22:44:39Z</time>
      </trkpt>
      <trkpt lat="50.33452" lon="5.90128">
        <ele>310</ele>
        <time>2019-01-09T22:45:39Z</time>
      </trkpt>
      <trkpt lat="50.33482" lon="5.90133">
        <ele>311</ele>
        <time>2019-01-09T22:46:39Z</time>
      </trkpt>
      <trkpt lat="50.33513" lon="5.90149">
        <ele>313</ele>
        <time>2019-01-09T22:47:39Z</time>
      </trkpt>
      <trkpt lat="50.33589" lon="5.90197">
        <ele>313</ele>
        <time>2019-01-09T22:48:39Z</time>
      </trkpt>
      <trkpt lat="50.33677" lon="5.90247">
        <ele>311</ele>
        <time>2019-01-09T22:49:39Z</time>
      </trkpt>
      <trkpt lat="50.3376" lon="5.90297">
        <ele>302</ele>
        <time>2019-01-09T22:50:39Z</time>
      </trkpt>
      <trkpt lat="50.33842" lon="5.90341">
        <ele>297</ele>
        <time>2019-01-09T22:51:39Z</time>
      </trkpt>
      <trkpt lat="50.33891" lon="5.90368">
        <ele>299</ele>
        <time>2019-01-09T22:52:39Z</time>
      </trkpt>
      <trkpt lat="50.33909" lon="5.90377">
        <ele>300</ele>
        <time>2019-01-09T22:53:39Z</time>
      </trkpt>
      <trkpt lat="50.33934" lon="5.90384">
        <ele>300</ele>
        <time>2019-01-09T22:54:39Z</time>
      </trkpt>
      <trkpt lat="50.33967" lon="5.90388">
        <ele>301</ele>
        <time>2019-01-09T22:55:39Z</time>
      </trkpt>
      <trkpt lat="50.33993" lon="5.90386">
        <ele>301</ele>
        <time>2019-01-09T22:56:39Z</time>
      </trkpt>
      <trkpt lat="50.3402" lon="5.90379">
        <ele>302</ele>
        <time>2019-01-09T22:57:39Z</time>
      </trkpt>
      <trkpt lat="50.3404" lon="5.9037">
        <ele>303</ele>
        <time>2019-01-09T22:58:39Z</time>
      </trkpt>
      <trkpt lat="50.34058" lon="5.90354">
        <ele>303</ele>
        <time>2019-01-09T22:59:39Z</time>
      </trkpt>
      <trkpt lat="50.3407" lon="5.90341">
        <ele>303</ele>
        <time>2019-01-09T23:00:39Z</time>
      </trkpt>
      <trkpt lat="50.34081" lon="5.90326">
        <ele>302</ele>
        <time>2019-01-09T23:01:39Z</time>
      </trkpt>
      <trkpt lat="50.34094" lon="5.90309">
        <ele>303</ele>
        <time>2019-01-09T23:02:39Z</time>
      </trkpt>
      <trkpt lat="50.34102" lon="5.90293">
        <ele>303</ele>
        <time>2019-01-09T23:03:39Z</time>
      </trkpt>
      <trkpt lat="50.34121" lon="5.90252">
        <ele>304</ele>
        <time>2019-01-09T23:04:39Z</time>
      </trkpt>
      <trkpt lat="50.3413" lon="5.90222">
        <ele>305</ele>
        <time>2019-01-09T23:05:39Z</time>
      </trkpt>
      <trkpt lat="50.34136" lon="5.90194">
        <ele>305</ele>
        <time>2019-01-09T23:06:39Z</time>
      </trkpt>
      <trkpt lat="50.34152" lon="5.90119">
        <ele>305</ele>
        <time>2019-01-09T23:07:39Z</time>
      </trkpt>
      <trkpt lat="50.34169" lon="5.90051">
        <ele>303</ele>
        <time>2019-01-09T23:08:39Z</time>
      </trkpt>
      <trkpt lat="50.34178" lon="5.9003">
        <ele>302</ele>
        <time>2019-01-09T23:09:39Z</time>
      </trkpt>
      <trkpt lat="50.34193" lon="5.90009">
        <ele>301</ele>
        <time>2019-01-09T23:10:39Z</time>
      </trkpt>
      <trkpt lat="50.34205" lon="5.89995">
        <ele>301</ele>
        <time>2019-01-09T23:11:39Z</time>
      </trkpt>
      <trkpt lat="50.34217" lon="5.89987">
        <ele>301</ele>
        <time>2019-01-09T23:12:39Z</time>
      </trkpt>
      <trkpt lat="50.34245" lon="5.89966">
        <ele>300</ele>
        <time>2019-01-09T23:13:39Z</time>
      </trkpt>
      <trkpt lat="50.34305" lon="5.89936">
        <ele>297</ele>
        <time>2019-01-09T23:14:39Z</time>
      </trkpt>
      <trkpt lat="50.34378" lon="5.89922">
        <ele>297</ele>
        <time>2019-01-09T23:15:39Z</time>
      </trkpt>
      <trkpt lat="50.34439" lon="5.89922">
        <ele>300</ele>
        <time>2019-01-09T23:16:39Z</time>
      </trkpt>
      <trkpt lat="50.34503" lon="5.89921">
        <ele>305</ele>
        <time>2019-01-09T23:17:39Z</time>
      </trkpt>
      <trkpt lat="50.34523" lon="5.89912">
        <ele>306</ele>
        <time>2019-01-09T23:18:39Z</time>
      </trkpt>
      <trkpt lat="50.34538" lon="5.89903">
        <ele>307</ele>
        <time>2019-01-09T23:19:39Z</time>
      </trkpt>
      <trkpt lat="50.34557" lon="5.89878">
        <ele>306</ele>
        <time>2019-01-09T23:20:39Z</time>
      </trkpt>
      <trkpt lat="50.34568" lon="5.89861">
        <ele>305</ele>
        <time>2019-01-09T23:21:39Z</time>
      </trkpt>
      <trkpt lat="50.34581" lon="5.89838">
        <ele>303</ele>
        <time>2019-01-09T23:22:39Z</time>
      </trkpt>
      <trkpt lat="50.34591" lon="5.89816">
        <ele>304</ele>
        <time>2019-01-09T23:23:39Z</time>
      </trkpt>
      <trkpt lat="50.346" lon="5.89791">
        <ele>306</ele>
        <time>2019-01-09T23:24:39Z</time>
      </trkpt>
      <trkpt lat="50.34609" lon="5.89764">
        <ele>308</ele>
        <time>2019-01-09T23:25:39Z</time>
      </trkpt>
      <trkpt lat="50.34615" lon="5.89734">
        <ele>309</ele>
        <time>2019-01-09T23:26:39Z</time>
      </trkpt>
      <trkpt lat="50.34621" lon="5.89705">
        <ele>310</ele>
        <time>2019-01-09T23:27:39Z</time>
      </trkpt>
      <trkpt lat="50.34629" lon="5.89534">
        <ele>309</ele>
        <time>2019-01-09T23:28:39Z</time>
      </trkpt>
      <trkpt lat="50.34635" lon="5.89376">
        <ele>306</ele>
        <time>2019-01-09T23:29:39Z</time>
      </trkpt>
      <trkpt lat="50.3464" lon="5.89292">
        <ele>300</ele>
        <time>2019-01-09T23:30:39Z</time>
      </trkpt>
      <trkpt lat="50.34652" lon="5.89218">
        <ele>294</ele>
        <time>2019-01-09T23:31:39Z</time>
      </trkpt>
      <trkpt lat="50.34667" lon="5.89183">
        <ele>290</ele>
        <time>2019-01-09T23:32:39Z</time>
      </trkpt>
      <trkpt lat="50.34679" lon="5.89158">
        <ele>290</ele>
        <time>2019-01-09T23:33:39Z</time>
      </trkpt>
      <trkpt lat="50.34691" lon="5.89143">
        <ele>292</ele>
        <time>2019-01-09T23:34:39Z</time>
      </trkpt>
      <trkpt lat="50.34706" lon="5.89124">
        <ele>293</ele>
        <time>2019-01-09T23:35:39Z</time>
      </trkpt>
      <trkpt lat="50.34721" lon="5.89106">
        <ele>293</ele>
        <time>2019-01-09T23:36:39Z</time>
      </trkpt>
      <trkpt lat="50.34739" lon="5.89091">
        <ele>292</ele>
        <time>2019-01-09T23:37:39Z</time>
      </trkpt>
      <trkpt lat="50.34807" lon="5.89049">
        <ele>294</ele>
        <time>2019-01-09T23:38:39Z</time>
      </trkpt>
      <trkpt lat="50.34849" lon="5.89037">
        <ele>294</ele>
        <time>2019-01-09T23:39:39Z</time>
      </trkpt>
      <trkpt lat="50.34875" lon="5.89034">
        <ele>295</ele>
        <time>2019-01-09T23:40:39Z</time>
      </trkpt>
      <trkpt lat="50.34978" lon="5.89031">
        <ele>298</ele>
        <time>2019-01-09T23:41:39Z</time>
      </trkpt>
      <trkpt lat="50.35075" lon="5.89029">
        <ele>294</ele>
        <time>2019-01-09T23:42:39Z</time>
      </trkpt>
      <trkpt lat="50.35142" lon="5.89038">
        <ele>296</ele>
        <time>2019-01-09T23:43:39Z</time>
      </trkpt>
      <trkpt lat="50.35211" lon="5.89047">
        <ele>296</ele>
        <time>2019-01-09T23:44:39Z</time>
      </trkpt>
      <trkpt lat="50.35265" lon="5.89045">
        <ele>292</ele>
        <time>2019-01-09T23:45:39Z</time>
      </trkpt>
      <trkpt lat="50.35312" lon="5.89033">
        <ele>289</ele>
        <time>2019-01-09T23:46:39Z</time>
      </trkpt>
      <trkpt lat="50.35344" lon="5.89021">
        <ele>288</ele>
        <time>2019-01-09T23:47:39Z</time>
      </trkpt>
      <trkpt lat="50.354" lon="5.88997">
        <ele>289</ele>
        <time>2019-01-09T23:48:39Z</time>
      </trkpt>
      <trkpt lat="50.35481" lon="5.88954">
        <ele>290</ele>
        <time>2019-01-09T23:49:39Z</time>
      </trkpt>
      <trkpt lat="50.35523" lon="5.8892">
        <ele>289</ele>
        <time>2019-01-09T23:50:39Z</time>
      </trkpt>
      <trkpt lat="50.35586" lon="5.88847">
        <ele>287</ele>
        <time>2019-01-09T23:51:39Z</time>
      </trkpt>
      <trkpt lat="50.35675" lon="5.88767">
        <ele>285</ele>
        <time>2019-01-09T23:52:39Z</time>
      </trkpt>
      <trkpt lat="50.35751" lon="5.88738">
        <ele>288</ele>
        <time>2019-01-09T23:53:39Z</time>
      </trkpt>
      <trkpt lat="50.35786" lon="5.88733">
        <ele>289</ele>
        <time>2019-01-09T23:54:39Z</time>
      </trkpt>
      <trkpt lat="50.35818" lon="5.88745">
        <ele>290</ele>
        <time>2019-01-09T23:55:39Z</time>
      </trkpt>
      <trkpt lat="50.35864" lon="5.88763">
        <ele>289</ele>
        <time>2019-01-09T23:56:39Z</time>
      </trkpt>
      <trkpt lat="50.359" lon="5.88784">
        <ele>289</ele>
        <time>2019-01-09T23:57:39Z</time>
      </trkpt>
      <trkpt lat="50.36004" lon="5.88845">
        <ele>285</ele>
        <time>2019-01-09T23:58:39Z</time>
      </trkpt>
      <trkpt lat="50.3608" lon="5.88878">
        <ele>282</ele>
        <time>2019-01-09T23:59:39Z</time>
      </trkpt>
      <trkpt lat="50.36125" lon="5.88895">
        <ele>286</ele>
        <time>2019-01-10T00:00:39Z</time>
      </trkpt>
      <trkpt lat="50.36147" lon="5.88898">
        <ele>287</ele>
        <time>2019-01-10T00:01:39Z</time>
      </trkpt>
      <trkpt lat="50.36169" lon="5.88898">
        <ele>287</ele>
        <time>2019-01-10T00:02:39Z</time>
      </trkpt>
      <trkpt lat="50.36194" lon="5.88891">
        <ele>288</ele>
        <time>2019-01-10T00:03:39Z</time>
      </trkpt>
      <trkpt lat="50.36218" lon="5.8888">
        <ele>288</ele>
        <time>2019-01-10T00:04:39Z</time>
      </trkpt>
      <trkpt lat="50.36251" lon="5.88855">
        <ele>283</ele>
        <time>2019-01-10T00:05:39Z</time>
      </trkpt>
      <trkpt lat="50.36288" lon="5.88812">
        <ele>281</ele>
        <time>2019-01-10T00:06:39Z</time>
      </trkpt>
      <trkpt lat="50.36322" lon="5.8877">
        <ele>280</ele>
        <time>2019-01-10T00:07:39Z</time>
      </trkpt>
      <trkpt lat="50.3635" lon="5.88734">
        <ele>281</ele>
        <time>2019-01-10T00:08:39Z</time>
      </trkpt>
      <trkpt lat="50.36366" lon="5.88709">
        <ele>283</ele>
        <time>2019-01-10T00:09:39Z</time>
      </trkpt>
      <trkpt lat="50.36374" lon="5.88689">
        <ele>282</ele>
        <time>2019-01-10T00:10:39Z</time>
      </trkpt>
      <trkpt lat="50.36379" lon="5.88666">
        <ele>281</ele>
        <time>2019-01-10T00:11:39Z</time>
      </trkpt>
      <trkpt lat="50.36382" lon="5.88643">
        <ele>280</ele>
        <time>2019-01-10T00:12:39Z</time>
      </trkpt>
      <trkpt lat="50.36382" lon="5.88614">
        <ele>278</ele>
        <time>2019-01-10T00:13:39Z</time>
      </trkpt>
      <trkpt lat="50.36381" lon="5.88588">
        <ele>277</ele>
        <time>2019-01-10T00:14:39Z</time>
      </trkpt>
      <trkpt lat="50.36378" lon="5.88563">
        <ele>276</ele>
        <time>2019-01-10T00:15:39Z</time>
      </trkpt>
      <trkpt lat="50.36372" lon="5.88541">
        <ele>275</ele>
        <time>2019-01-10T00:16:39Z</time>
      </trkpt>
      <trkpt lat="50.36365" lon="5.88523">
        <ele>274</ele>
        <time>2019-01-10T00:17:39Z</time>
      </trkpt>
      <trkpt lat="50.36271" lon="5.88417">
        <ele>275</ele>
        <time>2019-01-10T00:18:39Z</time>
      </trkpt>
      <trkpt lat="50.36244" lon="5.88387">
        <ele>276</ele>
        <time>2019-01-10T00:19:39Z</time>
      </trkpt>
      <trkpt lat="50.3622" lon="5.88353">
        <ele>278</ele>
        <time>2019-01-10T00:20:39Z</time>
      </trkpt>
      <trkpt lat="50.36191" lon="5.88296">
        <ele>278</ele>
        <time>2019-01-10T00:21:39Z</time>
      </trkpt>
      <trkpt lat="50.36161" lon="5.88227">
        <ele>277</ele>
        <time>2019-01-10T00:22:39Z</time>
      </trkpt>
      <trkpt lat="50.3613" lon="5.88109">
        <ele>278</ele>
        <time>2019-01-10T00:23:39Z</time>
      </trkpt>
      <trkpt lat="50.36095" lon="5.87925">
        <ele>276</ele>
        <time>2019-01-10T00:24:39Z</time>
      </trkpt>
      <trkpt lat="50.36077" lon="5.87823">
        <ele>277</ele>
        <time>2019-01-10T00:25:39Z</time>
      </trkpt>
      <trkpt lat="50.36073" lon="5.87772">
        <ele>276</ele>
        <time>2019-01-10T00:26:39Z</time>
      </trkpt>
      <trkpt lat="50.36079" lon="5.87722">
        <ele>273</ele>
        <time>2019-01-10T00:27:39Z</time>
      </trkpt>
      <trkpt lat="50.36084" lon="5.87693">
        <ele>272</ele>
        <time>2019-01-10T00:28:39Z</time>
      </trkpt>
      <trkpt lat="50.36088" lon="5.87666">
        <ele>271</ele>
        <time>2019-01-10T00:29:39Z</time>
      </trkpt>
      <trkpt lat="50.36097" lon="5.87625">
        <ele>271</ele>
        <time>2019-01-10T00:30:39Z</time>
      </trkpt>
      <trkpt lat="50.36119" lon="5.87563">
        <ele>271</ele>
        <time>2019-01-10T00:31:39Z</time>
      </trkpt>
      <trkpt lat="50.36141" lon="5.87507">
        <ele>271</ele>
        <time>2019-01-10T00:32:39Z</time>
      </trkpt>
      <trkpt lat="50.36164" lon="5.87463">
        <ele>270</ele>
        <time>2019-01-10T00:33:39Z</time>
      </trkpt>
      <trkpt lat="50.36182" lon="5.87435">
        <ele>270</ele>
        <time>2019-01-10T00:34:39Z</time>
      </trkpt>
      <trkpt lat="50.36209" lon="5.87404">
        <ele>270</ele>
        <time>2019-01-10T00:35:39Z</time>
      </trkpt>
      <trkpt lat="50.36226" lon="5.87388">
        <ele>270</ele>
        <time>2019-01-10T00:36:39Z</time>
      </trkpt>
      <trkpt lat="50.36244" lon="5.87374">
        <ele>270</ele>
        <time>2019-01-10T00:37:39Z</time>
      </trkpt>
      <trkpt lat="50.36259" lon="5.87367">
        <ele>270</ele>
        <time>2019-01-10T00:38:39Z</time>
      </trkpt>
      <trkpt lat="50.36276" lon="5.87365">
        <ele>271</ele>
        <time>2019-01-10T00:39:39Z</time>
      </trkpt>
      <trkpt lat="50.36305" lon="5.87371">
        <ele>271</ele>
        <time>2019-01-10T00:40:39Z</time>
      </trkpt>
      <trkpt lat="50.36382" lon="5.87406">
        <ele>267</ele>
        <time>2019-01-10T00:41:39Z</time>
      </trkpt>
      <trkpt lat="50.36479" lon="5.87453">
        <ele>264</ele>
        <time>2019-01-10T00:42:39Z</time>
      </trkpt>
      <trkpt lat="50.36524" lon="5.87474">
        <ele>263</ele>
        <time>2019-01-10T00:43:39Z</time>
      </trkpt>
      <trkpt lat="50.36545" lon="5.8748">
        <ele>262</ele>
        <time>2019-01-10T00:44:39Z</time>
      </trkpt>
      <trkpt lat="50.36558" lon="5.87481">
        <ele>262</ele>
        <time>2019-01-10T00:45:39Z</time>
      </trkpt>
      <trkpt lat="50.36572" lon="5.87481">
        <ele>262</ele>
        <time>2019-01-10T00:46:39Z</time>
      </trkpt>
      <trkpt lat="50.36586" lon="5.87478">
        <ele>262</ele>
        <time>2019-01-10T00:47:39Z</time>
      </trkpt>
      <trkpt lat="50.36603" lon="5.87468">
        <ele>263</ele>
        <time>2019-01-10T00:48:39Z</time>
      </trkpt>
      <trkpt lat="50.36621" lon="5.87458">
        <ele>263</ele>
        <time>2019-01-10T00:49:39Z</time>
      </trkpt>
      <trkpt lat="50.36633" lon="5.87442">
        <ele>262</ele>
        <time>2019-01-10T00:50:39Z</time>
      </trkpt>
      <trkpt lat="50.36643" lon="5.87422">
        <ele>262</ele>
        <time>2019-01-10T00:51:39Z</time>
      </trkpt>
      <trkpt lat="50.36662" lon="5.87353">
        <ele>264</ele>
        <time>2019-01-10T00:52:39Z</time>
      </trkpt>
      <trkpt lat="50.36678" lon="5.87302">
        <ele>268</ele>
        <time>2019-01-10T00:53:39Z</time>
      </trkpt>
      <trkpt lat="50.36689" lon="5.87277">
        <ele>269</ele>
        <time>2019-01-10T00:54:39Z</time>
      </trkpt>
      <trkpt lat="50.36701" lon="5.87254">
        <ele>268</ele>
        <time>2019-01-10T00:55:39Z</time>
      </trkpt>
      <trkpt lat="50.36727" lon="5.87208">
        <ele>268</ele>
        <time>2019-01-10T00:56:39Z</time>
      </trkpt>
      <trkpt lat="50.3675" lon="5.87173">
        <ele>265</ele>
        <time>2019-01-10T00:57:39Z</time>
      </trkpt>
      <trkpt lat="50.36772" lon="5.87147">
        <ele>271</ele>
        <time>2019-01-10T00:58:39Z</time>
      </trkpt>
      <trkpt lat="50.36788" lon="5.87138">
        <ele>272</ele>
        <time>2019-01-10T00:59:39Z</time>
      </trkpt>
      <trkpt lat="50.36812" lon="5.87131">
        <ele>271</ele>
        <time>2019-01-10T01:00:39Z</time>
      </trkpt>
      <trkpt lat="50.36826" lon="5.8713">
        <ele>270</ele>
        <time>2019-01-10T01:01:39Z</time>
      </trkpt>
      <trkpt lat="50.36851" lon="5.87138">
        <ele>266</ele>
        <time>2019-01-10T01:02:39Z</time>
      </trkpt>
      <trkpt lat="50.36915" lon="5.87158">
        <ele>261</ele>
        <time>2019-01-10T01:03:39Z</time>
      </trkpt>
      <trkpt lat="50.36951" lon="5.87165">
        <ele>258</ele>
        <time>2019-01-10T01:04:39Z</time>
      </trkpt>
      <trkpt lat="50.36981" lon="5.87167">
        <ele>256</ele>
        <time>2019-01-10T01:05:39Z</time>
      </trkpt>
      <trkpt lat="50.3701" lon="5.87163">
        <ele>255</ele>
        <time>2019-01-10T01:06:39Z</time>
      </trkpt>
      <trkpt lat="50.37093" lon="5.87141">
        <ele>255</ele>
        <time>2019-01-10T01:07:39Z</time>
      </trkpt>
      <trkpt lat="50.37199" lon="5.87113">
        <ele>252</ele>
        <time>2019-01-10T01:08:39Z</time>
      </trkpt>
      <trkpt lat="50.3722" lon="5.87108">
        <ele>251</ele>
        <time>2019-01-10T01:09:39Z</time>
      </trkpt>
      <trkpt lat="50.37231" lon="5.87176">
        <ele>251</ele>
        <time>2019-01-10T01:10:39Z</time>
      </trkpt>
      <trkpt lat="50.37236" lon="5.87199">
        <ele>254</ele>
        <time>2019-01-10T01:11:39Z</time>
      </trkpt>
      <trkpt lat="50.37221" lon="5.87206">
        <ele>255</ele>
        <time>2019-01-10T01:12:39Z</time>
      </trkpt>
      <trkpt lat="50.37211" lon="5.87209">
        <ele>255</ele>
        <time>2019-01-10T01:13:39Z</time>
      </trkpt>
      <trkpt lat="50.37197" lon="5.87211">
        <ele>256</ele>
        <time>2019-01-10T01:14:39Z</time>
      </trkpt>
      <trkpt lat="50.37106" lon="5.87222">
        <ele>257</ele>
        <time>2019-01-10T01:15:39Z</time>
      </trkpt>
      <trkpt lat="50.36961" lon="5.87265">
        <ele>259</ele>
        <time>2019-01-10T01:16:39Z</time>
      </trkpt>
      <trkpt lat="50.36886" lon="5.87288">
        <ele>261</ele>
        <time>2019-01-10T01:17:39Z</time>
      </trkpt>
      <trkpt lat="50.36826" lon="5.873">
        <ele>261</ele>
        <time>2019-01-10T01:18:39Z</time>
      </trkpt>
      <trkpt lat="50.36816" lon="5.87305">
        <ele>260</ele>
        <time>2019-01-10T01:19:39Z</time>
      </trkpt>
      <trkpt lat="50.36806" lon="5.87313">
        <ele>260</ele>
        <time>2019-01-10T01:20:39Z</time>
      </trkpt>
      <trkpt lat="50.36788" lon="5.87333">
        <ele>260</ele>
        <time>2019-01-10T01:21:39Z</time>
      </trkpt>
      <trkpt lat="50.36752" lon="5.87377">
        <ele>263</ele>
        <time>2019-01-10T01:22:39Z</time>
      </trkpt>
      <trkpt lat="50.36749" lon="5.87403">
        <ele>265</ele>
        <time>2019-01-10T01:23:39Z</time>
      </trkpt>
      <trkpt lat="50.36748" lon="5.87431">
        <ele>269</ele>
        <time>2019-01-10T01:24:39Z</time>
      </trkpt>
      <trkpt lat="50.36735" lon="5.87461">
        <ele>273</ele>
        <time>2019-01-10T01:25:39Z</time>
      </trkpt>
      <trkpt lat="50.36713" lon="5.87494">
        <ele>273</ele>
        <time>2019-01-10T01:26:39Z</time>
      </trkpt>
      <trkpt lat="50.36711" lon="5.87514">
        <ele>276</ele>
        <time>2019-01-10T01:27:39Z</time>
      </trkpt>
      <trkpt lat="50.36718" lon="5.87522">
        <ele>279</ele>
        <time>2019-01-10T01:28:39Z</time>
      </trkpt>
      <trkpt lat="50.36725" lon="5.87525">
        <ele>282</ele>
        <time>2019-01-10T01:29:39Z</time>
      </trkpt>
      <trkpt lat="50.36732" lon="5.87521">
        <ele>283</ele>
        <time>2019-01-10T01:30:39Z</time>
      </trkpt>
      <trkpt lat="50.36738" lon="5.87513">
        <ele>282</ele>
        <time>2019-01-10T01:31:39Z</time>
      </trkpt>
      <trkpt lat="50.36746" lon="5.87492">
        <ele>280</ele>
        <time>2019-01-10T01:32:39Z</time>
      </trkpt>
      <trkpt lat="50.36756" lon="5.87478">
        <ele>279</ele>
        <time>2019-01-10T01:33:39Z</time>
      </trkpt>
      <trkpt lat="50.36765" lon="5.87468">
        <ele>279</ele>
        <time>2019-01-10T01:34:39Z</time>
      </trkpt>
      <trkpt lat="50.36773" lon="5.8746">
        <ele>279</ele>
        <time>2019-01-10T01:35:39Z</time>
      </trkpt>
      <trkpt lat="50.36789" lon="5.87452">
        <ele>280</ele>
        <time>2019-01-10T01:36:39Z</time>
      </trkpt>
      <trkpt lat="50.36812" lon="5.87445">
        <ele>282</ele>
        <time>2019-01-10T01:37:39Z</time>
      </trkpt>
      <trkpt lat="50.36834" lon="5.87444">
        <ele>286</ele>
        <time>2019-01-10T01:38:39Z</time>
      </trkpt>
      <trkpt lat="50.36883" lon="5.87437">
        <ele>287</ele>
        <time>2019-01-10T01:39:39Z</time>
      </trkpt>
      <trkpt lat="50.36956" lon="5.87425">
        <ele>290</ele>
        <time>2019-01-10T01:40:39Z</time>
      </trkpt>
      <trkpt lat="50.37009" lon="5.87419">
        <ele>295</ele>
        <time>2019-01-10T01:41:39Z</time>
      </trkpt>
      <trkpt lat="50.37034" lon="5.87414">
        <ele>298</ele>
        <time>2019-01-10T01:42:39Z</time>
      </trkpt>
      <trkpt lat="50.3705" lon="5.87407">
        <ele>299</ele>
        <time>2019-01-10T01:43:39Z</time>
      </trkpt>
      <trkpt lat="50.37069" lon="5.87393">
        <ele>298</ele>
        <time>2019-01-10T01:44:39Z</time>
      </trkpt>
      <trkpt lat="50.37088" lon="5.87376">
        <ele>296</ele>
        <time>2019-01-10T01:45:39Z</time>
      </trkpt>
      <trkpt lat="50.37105" lon="5.8737">
        <ele>296</ele>
        <time>2019-01-10T01:46:39Z</time>
      </trkpt>
      <trkpt lat="50.37121" lon="5.8737">
        <ele>298</ele>
        <time>2019-01-10T01:47:39Z</time>
      </trkpt>
      <trkpt lat="50.37134" lon="5.87371">
        <ele>300</ele>
        <time>2019-01-10T01:48:39Z</time>
      </trkpt>
      <trkpt lat="50.37169" lon="5.87383">
        <ele>310</ele>
        <time>2019-01-10T01:49:39Z</time>
      </trkpt>
      <trkpt lat="50.37235" lon="5.87397">
        <ele>316</ele>
        <time>2019-01-10T01:50:39Z</time>
      </trkpt>
      <trkpt lat="50.37255" lon="5.87411">
        <ele>322</ele>
        <time>2019-01-10T01:51:39Z</time>
      </trkpt>
      <trkpt lat="50.37287" lon="5.87437">
        <ele>323</ele>
        <time>2019-01-10T01:52:39Z</time>
      </trkpt>
      <trkpt lat="50.37311" lon="5.87458">
        <ele>323</ele>
        <time>2019-01-10T01:53:39Z</time>
      </trkpt>
      <trkpt lat="50.37334" lon="5.87479">
        <ele>324</ele>
        <time>2019-01-10T01:54:39Z</time>
      </trkpt>
      <trkpt lat="50.37344" lon="5.87498">
        <ele>326</ele>
        <time>2019-01-10T01:55:39Z</time>
      </trkpt>
      <trkpt lat="50.3735" lon="5.87531">
        <ele>329</ele>
        <time>2019-01-10T01:56:39Z</time>
      </trkpt>
      <trkpt lat="50.37345" lon="5.87556">
        <ele>333</ele>
        <time>2019-01-10T01:57:39Z</time>
      </trkpt>
      <trkpt lat="50.37249" lon="5.87805">
        <ele>344</ele>
        <time>2019-01-10T01:58:39Z</time>
      </trkpt>
      <trkpt lat="50.37206" lon="5.87913">
        <ele>352</ele>
        <time>2019-01-10T01:59:39Z</time>
      </trkpt>
      <trkpt lat="50.37187" lon="5.87967">
        <ele>356</ele>
        <time>2019-01-10T02:00:39Z</time>
      </trkpt>
      <trkpt lat="50.37183" lon="5.87987">
        <ele>357</ele>
        <time>2019-01-10T02:01:39Z</time>
      </trkpt>
      <trkpt lat="50.37181" lon="5.88014">
        <ele>358</ele>
        <time>2019-01-10T02:02:39Z</time>
      </trkpt>
      <trkpt lat="50.37178" lon="5.88051">
        <ele>361</ele>
        <time>2019-01-10T02:03:39Z</time>
      </trkpt>
      <trkpt lat="50.3716" lon="5.88335">
        <ele>362</ele>
        <time>2019-01-10T02:04:39Z</time>
      </trkpt>
      <trkpt lat="50.37141" lon="5.88633">
        <ele>372</ele>
        <time>2019-01-10T02:05:39Z</time>
      </trkpt>
      <trkpt lat="50.37133" lon="5.88674">
        <ele>375</ele>
        <time>2019-01-10T02:06:39Z</time>
      </trkpt>
      <trkpt lat="50.37124" lon="5.88689">
        <ele>376</ele>
        <time>2019-01-10T02:07:39Z</time>
      </trkpt>
      <trkpt lat="50.37113" lon="5.88702">
        <ele>377</ele>
        <time>2019-01-10T02:08:39Z</time>
      </trkpt>
      <trkpt lat="50.371" lon="5.88706">
        <ele>377</ele>
        <time>2019-01-10T02:09:39Z</time>
      </trkpt>
      <trkpt lat="50.37076" lon="5.88699">
        <ele>378</ele>
        <time>2019-01-10T02:10:39Z</time>
      </trkpt>
      <trkpt lat="50.37051" lon="5.88682">
        <ele>379</ele>
        <time>2019-01-10T02:11:39Z</time>
      </trkpt>
      <trkpt lat="50.36997" lon="5.88647">
        <ele>381</ele>
        <time>2019-01-10T02:12:39Z</time>
      </trkpt>
      <trkpt lat="50.36974" lon="5.88641">
        <ele>383</ele>
        <time>2019-01-10T02:13:39Z</time>
      </trkpt>
      <trkpt lat="50.36952" lon="5.88653">
        <ele>385</ele>
        <time>2019-01-10T02:14:39Z</time>
      </trkpt>
      <trkpt lat="50.36934" lon="5.88683">
        <ele>387</ele>
        <time>2019-01-10T02:15:39Z</time>
      </trkpt>
      <trkpt lat="50.369" lon="5.88762">
        <ele>390</ele>
        <time>2019-01-10T02:16:39Z</time>
      </trkpt>
      <trkpt lat="50.36815" lon="5.88959">
        <ele>400</ele>
        <time>2019-01-10T02:17:39Z</time>
      </trkpt>
      <trkpt lat="50.3681" lon="5.88976">
        <ele>401</ele>
        <time>2019-01-10T02:18:39Z</time>
      </trkpt>
      <trkpt lat="50.36805" lon="5.89023">
        <ele>403</ele>
        <time>2019-01-10T02:19:39Z</time>
      </trkpt>
      <trkpt lat="50.36794" lon="5.89303">
        <ele>416</ele>
        <time>2019-01-10T02:20:39Z</time>
      </trkpt>
      <trkpt lat="50.36791" lon="5.89336">
        <ele>417</ele>
        <time>2019-01-10T02:21:39Z</time>
      </trkpt>
      <trkpt lat="50.36785" lon="5.89366">
        <ele>417</ele>
        <time>2019-01-10T02:22:39Z</time>
      </trkpt>
      <trkpt lat="50.36777" lon="5.89382">
        <ele>418</ele>
        <time>2019-01-10T02:23:39Z</time>
      </trkpt>
      <trkpt lat="50.36769" lon="5.89396">
        <ele>418</ele>
        <time>2019-01-10T02:24:39Z</time>
      </trkpt>
      <trkpt lat="50.36735" lon="5.89437">
        <ele>421</ele>
        <time>2019-01-10T02:25:39Z</time>
      </trkpt>
      <trkpt lat="50.36663" lon="5.89523">
        <ele>426</ele>
        <time>2019-01-10T02:26:39Z</time>
      </trkpt>
      <trkpt lat="50.36628" lon="5.8957">
        <ele>427</ele>
        <time>2019-01-10T02:27:39Z</time>
      </trkpt>
      <trkpt lat="50.36615" lon="5.89604">
        <ele>429</ele>
        <time>2019-01-10T02:28:39Z</time>
      </trkpt>
      <trkpt lat="50.36608" lon="5.89645">
        <ele>432</ele>
        <time>2019-01-10T02:29:39Z</time>
      </trkpt>
      <trkpt lat="50.36604" lon="5.89736">
        <ele>435</ele>
        <time>2019-01-10T02:30:39Z</time>
      </trkpt>
      <trkpt lat="50.36598" lon="5.89868">
        <ele>439</ele>
        <time>2019-01-10T02:31:39Z</time>
      </trkpt>
      <trkpt lat="50.36589" lon="5.90058">
        <ele>442</ele>
        <time>2019-01-10T02:32:39Z</time>
      </trkpt>
      <trkpt lat="50.36577" lon="5.90109">
        <ele>443</ele>
        <time>2019-01-10T02:33:39Z</time>
      </trkpt>
      <trkpt lat="50.36533" lon="5.90262">
        <ele>446</ele>
        <time>2019-01-10T02:34:39Z</time>
      </trkpt>
      <trkpt lat="50.36519" lon="5.90288">
        <ele>446</ele>
        <time>2019-01-10T02:35:39Z</time>
      </trkpt>
      <trkpt lat="50.36497" lon="5.9031">
        <ele>446</ele>
        <time>2019-01-10T02:36:39Z</time>
      </trkpt>
      <trkpt lat="50.36478" lon="5.9032">
        <ele>447</ele>
        <time>2019-01-10T02:37:39Z</time>
      </trkpt>
      <trkpt lat="50.36456" lon="5.90323">
        <ele>449</ele>
        <time>2019-01-10T02:38:39Z</time>
      </trkpt>
      <trkpt lat="50.36431" lon="5.90328">
        <ele>450</ele>
        <time>2019-01-10T02:39:39Z</time>
      </trkpt>
      <trkpt lat="50.36413" lon="5.90338">
        <ele>451</ele>
        <time>2019-01-10T02:40:39Z</time>
      </trkpt>
      <trkpt lat="50.36392" lon="5.90355">
        <ele>452</ele>
        <time>2019-01-10T02:41:39Z</time>
      </trkpt>
      <trkpt lat="50.36366" lon="5.90373">
        <ele>454</ele>
        <time>2019-01-10T02:42:39Z</time>
      </trkpt>
      <trkpt lat="50.36352" lon="5.90384">
        <ele>455</ele>
        <time>2019-01-10T02:43:39Z</time>
      </trkpt>
      <trkpt lat="50.36339" lon="5.90389">
        <ele>456</ele>
        <time>2019-01-10T02:44:39Z</time>
      </trkpt>
      <trkpt lat="50.3633" lon="5.90392">
        <ele>456</ele>
        <time>2019-01-10T02:45:39Z</time>
      </trkpt>
      <trkpt lat="50.3632" lon="5.90394">
        <ele>457</ele>
        <time>2019-01-10T02:46:39Z</time>
      </trkpt>
      <trkpt lat="50.36311" lon="5.90395">
        <ele>457</ele>
        <time>2019-01-10T02:47:39Z</time>
      </trkpt>
      <trkpt lat="50.36232" lon="5.90396">
        <ele>463</ele>
        <time>2019-01-10T02:48:39Z</time>
      </trkpt>
      <trkpt lat="50.36222" lon="5.90399">
        <ele>464</ele>
        <time>2019-01-10T02:49:39Z</time>
      </trkpt>
      <trkpt lat="50.36212" lon="5.90407">
        <ele>465</ele>
        <time>2019-01-10T02:50:39Z</time>
      </trkpt>
      <trkpt lat="50.36185" lon="5.90423">
        <ele>467</ele>
        <time>2019-01-10T02:51:39Z</time>
      </trkpt>
      <trkpt lat="50.3616" lon="5.90443">
        <ele>470</ele>
        <time>2019-01-10T02:52:39Z</time>
      </trkpt>
      <trkpt lat="50.36147" lon="5.90464">
        <ele>471</ele>
        <time>2019-01-10T02:53:39Z</time>
      </trkpt>
      <trkpt lat="50.36139" lon="5.90483">
        <ele>472</ele>
        <time>2019-01-10T02:54:39Z</time>
      </trkpt>
      <trkpt lat="50.36126" lon="5.90527">
        <ele>472</ele>
        <time>2019-01-10T02:55:39Z</time>
      </trkpt>
      <trkpt lat="50.36113" lon="5.90581">
        <ele>473</ele>
        <time>2019-01-10T02:56:39Z</time>
      </trkpt>
      <trkpt lat="50.36083" lon="5.90678">
        <ele>475</ele>
        <time>2019-01-10T02:57:39Z</time>
      </trkpt>
      <trkpt lat="50.36068" lon="5.90727">
        <ele>476</ele>
        <time>2019-01-10T02:58:39Z</time>
      </trkpt>
      <trkpt lat="50.36048" lon="5.90781">
        <ele>478</ele>
        <time>2019-01-10T02:59:39Z</time>
      </trkpt>
      <trkpt lat="50.36018" lon="5.90849">
        <ele>481</ele>
        <time>2019-01-10T03:00:39Z</time>
      </trkpt>
      <trkpt lat="50.35928" lon="5.91058">
        <ele>480</ele>
        <time>2019-01-10T03:01:39Z</time>
      </trkpt>
      <trkpt lat="50.3591" lon="5.91108">
        <ele>481</ele>
        <time>2019-01-10T03:02:39Z</time>
      </trkpt>
      <trkpt lat="50.35895" lon="5.91167">
        <ele>481</ele>
        <time>2019-01-10T03:03:39Z</time>
      </trkpt>
      <trkpt lat="50.35875" lon="5.91253">
        <ele>480</ele>
        <time>2019-01-10T03:04:39Z</time>
      </trkpt>
      <trkpt lat="50.3585" lon="5.91353">
        <ele>483</ele>
        <time>2019-01-10T03:05:39Z</time>
      </trkpt>
      <trkpt lat="50.35832" lon="5.91411">
        <ele>485</ele>
        <time>2019-01-10T03:06:39Z</time>
      </trkpt>
      <trkpt lat="50.358" lon="5.91503">
        <ele>483</ele>
        <time>2019-01-10T03:07:39Z</time>
      </trkpt>
      <trkpt lat="50.35761" lon="5.91603">
        <ele>481</ele>
        <time>2019-01-10T03:08:39Z</time>
      </trkpt>
      <trkpt lat="50.35722" lon="5.91678">
        <ele>482</ele>
        <time>2019-01-10T03:09:39Z</time>
      </trkpt>
      <trkpt lat="50.35645" lon="5.9182">
        <ele>480</ele>
        <time>2019-01-10T03:10:39Z</time>
      </trkpt>
      <trkpt lat="50.35588" lon="5.91921">
        <ele>478</ele>
        <time>2019-01-10T03:11:39Z</time>
      </trkpt>
      <trkpt lat="50.35548" lon="5.92002">
        <ele>476</ele>
        <time>2019-01-10T03:12:39Z</time>
      </trkpt>
      <trkpt lat="50.35541" lon="5.92021">
        <ele>476</ele>
        <time>2019-01-10T03:13:39Z</time>
      </trkpt>
      <trkpt lat="50.35532" lon="5.92032">
        <ele>476</ele>
        <time>2019-01-10T03:14:39Z</time>
      </trkpt>
      <trkpt lat="50.35534" lon="5.92043">
        <ele>476</ele>
        <time>2019-01-10T03:15:39Z</time>
      </trkpt>
      <trkpt lat="50.35539" lon="5.92048">
        <ele>475</ele>
        <time>2019-01-10T03:16:39Z</time>
      </trkpt>
      <trkpt lat="50.35544" lon="5.92045">
        <ele>475</ele>
        <time>2019-01-10T03:17:39Z</time>
      </trkpt>
      <trkpt lat="50.35551" lon="5.92036">
        <ele>475</ele>
        <time>2019-01-10T03:18:39Z</time>
      </trkpt>
      <trkpt lat="50.35605" lon="5.92031">
        <ele>471</ele>
        <time>2019-01-10T03:19:39Z</time>
      </trkpt>
      <trkpt lat="50.3565" lon="5.92025">
        <ele>468</ele>
        <time>2019-01-10T03:20:39Z</time>
      </trkpt>
      <trkpt lat="50.35739" lon="5.91993">
        <ele>460</ele>
        <time>2019-01-10T03:21:39Z</time>
      </trkpt>
      <trkpt lat="50.35756" lon="5.91987">
        <ele>459</ele>
        <time>2019-01-10T03:22:39Z</time>
      </trkpt>
      <trkpt lat="50.35773" lon="5.91984">
        <ele>457</ele>
        <time>2019-01-10T03:23:39Z</time>
      </trkpt>
      <trkpt lat="50.35789" lon="5.91987">
        <ele>455</ele>
        <time>2019-01-10T03:24:39Z</time>
      </trkpt>
      <trkpt lat="50.35831" lon="5.91993">
        <ele>450</ele>
        <time>2019-01-10T03:25:39Z</time>
      </trkpt>
      <trkpt lat="50.35881" lon="5.92003">
        <ele>447</ele>
        <time>2019-01-10T03:26:39Z</time>
      </trkpt>
      <trkpt lat="50.35906" lon="5.92005">
        <ele>446</ele>
        <time>2019-01-10T03:27:39Z</time>
      </trkpt>
      <trkpt lat="50.35921" lon="5.92002">
        <ele>445</ele>
        <time>2019-01-10T03:28:39Z</time>
      </trkpt>
      <trkpt lat="50.35934" lon="5.91994">
        <ele>445</ele>
        <time>2019-01-10T03:29:39Z</time>
      </trkpt>
      <trkpt lat="50.35981" lon="5.91966">
        <ele>445</ele>
        <time>2019-01-10T03:30:39Z</time>
      </trkpt>
      <trkpt lat="50.36031" lon="5.91937">
        <ele>441</ele>
        <time>2019-01-10T03:31:39Z</time>
      </trkpt>
      <trkpt lat="50.361" lon="5.91896">
        <ele>431</ele>
        <time>2019-01-10T03:32:39Z</time>
      </trkpt>
      <trkpt lat="50.3612" lon="5.91883">
        <ele>425</ele>
        <time>2019-01-10T03:33:39Z</time>
      </trkpt>
      <trkpt lat="50.36133" lon="5.91871">
        <ele>421</ele>
        <time>2019-01-10T03:34:39Z</time>
      </trkpt>
      <trkpt lat="50.36142" lon="5.91858">
        <ele>419</ele>
        <time>2019-01-10T03:35:39Z</time>
      </trkpt>
      <trkpt lat="50.36151" lon="5.91844">
        <ele>417</ele>
        <time>2019-01-10T03:36:39Z</time>
      </trkpt>
      <trkpt lat="50.3616" lon="5.91831">
        <ele>414</ele>
        <time>2019-01-10T03:37:39Z</time>
      </trkpt>
      <trkpt lat="50.36169" lon="5.9183">
        <ele>412</ele>
        <time>2019-01-10T03:38:39Z</time>
      </trkpt>
      <trkpt lat="50.36177" lon="5.91848">
        <ele>409</ele>
        <time>2019-01-10T03:39:39Z</time>
      </trkpt>
      <trkpt lat="50.36179" lon="5.91861">
        <ele>408</ele>
        <time>2019-01-10T03:40:39Z</time>
      </trkpt>
      <trkpt lat="50.36174" lon="5.92021">
        <ele>399</ele>
        <time>2019-01-10T03:41:39Z</time>
      </trkpt>
      <trkpt lat="50.36175" lon="5.92034">
        <ele>399</ele>
        <time>2019-01-10T03:42:39Z</time>
      </trkpt>
      <trkpt lat="50.36178" lon="5.92045">
        <ele>398</ele>
        <time>2019-01-10T03:43:39Z</time>
      </trkpt>
      <trkpt lat="50.36185" lon="5.9207">
        <ele>396</ele>
        <time>2019-01-10T03:44:39Z</time>
      </trkpt>
      <trkpt lat="50.36198" lon="5.92104">
        <ele>393</ele>
        <time>2019-01-10T03:45:39Z</time>
      </trkpt>
      <trkpt lat="50.36206" lon="5.92113">
        <ele>391</ele>
        <time>2019-01-10T03:46:39Z</time>
      </trkpt>
      <trkpt lat="50.36213" lon="5.92116">
        <ele>389</ele>
        <time>2019-01-10T03:47:39Z</time>
      </trkpt>
      <trkpt lat="50.36291" lon="5.92102">
        <ele>377</ele>
        <time>2019-01-10T03:48:39Z</time>
      </trkpt>
      <trkpt lat="50.3634" lon="5.92095">
        <ele>372</ele>
        <time>2019-01-10T03:49:39Z</time>
      </trkpt>
      <trkpt lat="50.36392" lon="5.92093">
        <ele>366</ele>
        <time>2019-01-10T03:50:39Z</time>
      </trkpt>
      <trkpt lat="50.36428" lon="5.92102">
        <ele>362</ele>
        <time>2019-01-10T03:51:39Z</time>
      </trkpt>
      <trkpt lat="50.36451" lon="5.9211">
        <ele>359</ele>
        <time>2019-01-10T03:52:39Z</time>
      </trkpt>
      <trkpt lat="50.36468" lon="5.92124">
        <ele>356</ele>
        <time>2019-01-10T03:53:39Z</time>
      </trkpt>
      <trkpt lat="50.36477" lon="5.92135">
        <ele>355</ele>
        <time>2019-01-10T03:54:39Z</time>
      </trkpt>
      <trkpt lat="50.36524" lon="5.9221">
        <ele>347</ele>
        <time>2019-01-10T03:55:39Z</time>
      </trkpt>
      <trkpt lat="50.3653" lon="5.92224">
        <ele>345</ele>
        <time>2019-01-10T03:56:39Z</time>
      </trkpt>
      <trkpt lat="50.36534" lon="5.9224">
        <ele>344</ele>
        <time>2019-01-10T03:57:39Z</time>
      </trkpt>
      <trkpt lat="50.36534" lon="5.92262">
        <ele>342</ele>
        <time>2019-01-10T03:58:39Z</time>
      </trkpt>
      <trkpt lat="50.36531" lon="5.92334">
        <ele>338</ele>
        <time>2019-01-10T03:59:39Z</time>
      </trkpt>
      <trkpt lat="50.3653" lon="5.92356">
        <ele>338</ele>
        <time>2019-01-10T04:00:39Z</time>
      </trkpt>
      <trkpt lat="50.3653" lon="5.92375">
        <ele>338</ele>
        <time>2019-01-10T04:01:39Z</time>
      </trkpt>
      <trkpt lat="50.36539" lon="5.92386">
        <ele>338</ele>
        <time>2019-01-10T04:02:39Z</time>
      </trkpt>
      <trkpt lat="50.36554" lon="5.9238">
        <ele>336</ele>
        <time>2019-01-10T04:03:39Z</time>
      </trkpt>
      <trkpt lat="50.36568" lon="5.92362">
        <ele>335</ele>
        <time>2019-01-10T04:04:39Z</time>
      </trkpt>
      <trkpt lat="50.36584" lon="5.9233">
        <ele>334</ele>
        <time>2019-01-10T04:05:39Z</time>
      </trkpt>
      <trkpt lat="50.36597" lon="5.92306">
        <ele>335</ele>
        <time>2019-01-10T04:06:39Z</time>
      </trkpt>
      <trkpt lat="50.36609" lon="5.92289">
        <ele>335</ele>
        <time>2019-01-10T04:07:39Z</time>
      </trkpt>
      <trkpt lat="50.36622" lon="5.92281">
        <ele>334</ele>
        <time>2019-01-10T04:08:39Z</time>
      </trkpt>
      <trkpt lat="50.36633" lon="5.92275">
        <ele>333</ele>
        <time>2019-01-10T04:09:39Z</time>
      </trkpt>
      <trkpt lat="50.36644" lon="5.9227">
        <ele>332</ele>
        <time>2019-01-10T04:10:39Z</time>
      </trkpt>
      <trkpt lat="50.36665" lon="5.92262">
        <ele>329</ele>
        <time>2019-01-10T04:11:39Z</time>
      </trkpt>
      <trkpt lat="50.3668" lon="5.92255">
        <ele>330</ele>
        <time>2019-01-10T04:12:39Z</time>
      </trkpt>
      <trkpt lat="50.36714" lon="5.9223">
        <ele>332</ele>
        <time>2019-01-10T04:13:39Z</time>
      </trkpt>
      <trkpt lat="50.36756" lon="5.92197">
        <ele>331</ele>
        <time>2019-01-10T04:14:39Z</time>
      </trkpt>
      <trkpt lat="50.36811" lon="5.92167">
        <ele>333</ele>
        <time>2019-01-10T04:15:39Z</time>
      </trkpt>
      <trkpt lat="50.36874" lon="5.92139">
        <ele>336</ele>
        <time>2019-01-10T04:16:39Z</time>
      </trkpt>
      <trkpt lat="50.36944" lon="5.92111">
        <ele>338</ele>
        <time>2019-01-10T04:17:39Z</time>
      </trkpt>
      <trkpt lat="50.36967" lon="5.921">
        <ele>338</ele>
        <time>2019-01-10T04:18:39Z</time>
      </trkpt>
      <trkpt lat="50.36986" lon="5.92079">
        <ele>337</ele>
        <time>2019-01-10T04:19:39Z</time>
      </trkpt>
      <trkpt lat="50.37016" lon="5.92043">
        <ele>338</ele>
        <time>2019-01-10T04:20:39Z</time>
      </trkpt>
      <trkpt lat="50.37044" lon="5.92001">
        <ele>340</ele>
        <time>2019-01-10T04:21:39Z</time>
      </trkpt>
      <trkpt lat="50.37059" lon="5.91968">
        <ele>342</ele>
        <time>2019-01-10T04:22:39Z</time>
      </trkpt>
      <trkpt lat="50.37073" lon="5.91927">
        <ele>342</ele>
        <time>2019-01-10T04:23:39Z</time>
      </trkpt>
      <trkpt lat="50.37099" lon="5.91883">
        <ele>344</ele>
        <time>2019-01-10T04:24:39Z</time>
      </trkpt>
      <trkpt lat="50.37121" lon="5.91856">
        <ele>346</ele>
        <time>2019-01-10T04:25:39Z</time>
      </trkpt>
      <trkpt lat="50.37149" lon="5.91831">
        <ele>348</ele>
        <time>2019-01-10T04:26:39Z</time>
      </trkpt>
      <trkpt lat="50.37184" lon="5.91813">
        <ele>348</ele>
        <time>2019-01-10T04:27:39Z</time>
      </trkpt>
      <trkpt lat="50.37256" lon="5.91803">
        <ele>350</ele>
        <time>2019-01-10T04:28:39Z</time>
      </trkpt>
      <trkpt lat="50.37283" lon="5.91803">
        <ele>348</ele>
        <time>2019-01-10T04:29:39Z</time>
      </trkpt>
      <trkpt lat="50.37326" lon="5.91809">
        <ele>346</ele>
        <time>2019-01-10T04:30:39Z</time>
      </trkpt>
      <trkpt lat="50.37386" lon="5.91815">
        <ele>348</ele>
        <time>2019-01-10T04:31:39Z</time>
      </trkpt>
      <trkpt lat="50.37421" lon="5.91817">
        <ele>348</ele>
        <time>2019-01-10T04:32:39Z</time>
      </trkpt>
      <trkpt lat="50.37479" lon="5.91814">
        <ele>347</ele>
        <time>2019-01-10T04:33:39Z</time>
      </trkpt>
      <trkpt lat="50.37503" lon="5.91818">
        <ele>347</ele>
        <time>2019-01-10T04:34:39Z</time>
      </trkpt>
      <trkpt lat="50.37551" lon="5.91837">
        <ele>351</ele>
        <time>2019-01-10T04:35:39Z</time>
      </trkpt>
      <trkpt lat="50.3759" lon="5.91858">
        <ele>353</ele>
        <time>2019-01-10T04:36:39Z</time>
      </trkpt>
      <trkpt lat="50.37628" lon="5.91886">
        <ele>350</ele>
        <time>2019-01-10T04:37:39Z</time>
      </trkpt>
      <trkpt lat="50.37672" lon="5.91927">
        <ele>346</ele>
        <time>2019-01-10T04:38:39Z</time>
      </trkpt>
      <trkpt lat="50.37744" lon="5.92075">
        <ele>346</ele>
        <time>2019-01-10T04:39:39Z</time>
      </trkpt>
      <trkpt lat="50.37797" lon="5.92183">
        <ele>347</ele>
        <time>2019-01-10T04:40:39Z</time>
      </trkpt>
      <trkpt lat="50.37815" lon="5.92212">
        <ele>347</ele>
        <time>2019-01-10T04:41:39Z</time>
      </trkpt>
      <trkpt lat="50.37844" lon="5.92248">
        <ele>346</ele>
        <time>2019-01-10T04:42:39Z</time>
      </trkpt>
      <trkpt lat="50.3787" lon="5.92274">
        <ele>346</ele>
        <time>2019-01-10T04:43:39Z</time>
      </trkpt>
      <trkpt lat="50.37929" lon="5.92329">
        <ele>346</ele>
        <time>2019-01-10T04:44:39Z</time>
      </trkpt>
      <trkpt lat="50.38114" lon="5.92491">
        <ele>344</ele>
        <time>2019-01-10T04:45:39Z</time>
      </trkpt>
      <trkpt lat="50.3817" lon="5.92539">
        <ele>343</ele>
        <time>2019-01-10T04:46:39Z</time>
      </trkpt>
      <trkpt lat="50.38215" lon="5.92599">
        <ele>341</ele>
        <time>2019-01-10T04:47:39Z</time>
      </trkpt>
      <trkpt lat="50.38231" lon="5.92632">
        <ele>342</ele>
        <time>2019-01-10T04:48:39Z</time>
      </trkpt>
      <trkpt lat="50.38309" lon="5.92782">
        <ele>342</ele>
        <time>2019-01-10T04:49:39Z</time>
      </trkpt>
      <trkpt lat="50.38337" lon="5.92846">
        <ele>339</ele>
        <time>2019-01-10T04:50:39Z</time>
      </trkpt>
      <trkpt lat="50.3835" lon="5.92864">
        <ele>336</ele>
        <time>2019-01-10T04:51:39Z</time>
      </trkpt>
      <trkpt lat="50.38367" lon="5.92877">
        <ele>332</ele>
        <time>2019-01-10T04:52:39Z</time>
      </trkpt>
      <trkpt lat="50.38384" lon="5.92891">
        <ele>328</ele>
        <time>2019-01-10T04:53:39Z</time>
      </trkpt>
      <trkpt lat="50.38393" lon="5.92908">
        <ele>326</ele>
        <time>2019-01-10T04:54:39Z</time>
      </trkpt>
      <trkpt lat="50.384" lon="5.92922">
        <ele>324</ele>
        <time>2019-01-10T04:55:39Z</time>
      </trkpt>
      <trkpt lat="50.38406" lon="5.92939">
        <ele>323</ele>
        <time>2019-01-10T04:56:39Z</time>
      </trkpt>
      <trkpt lat="50.38418" lon="5.9297">
        <ele>320</ele>
        <time>2019-01-10T04:57:39Z</time>
      </trkpt>
      <trkpt lat="50.38423" lon="5.92986">
        <ele>318</ele>
        <time>2019-01-10T04:58:39Z</time>
      </trkpt>
      <trkpt lat="50.38429" lon="5.93016">
        <ele>318</ele>
        <time>2019-01-10T04:59:39Z</time>
      </trkpt>
      <trkpt lat="50.38446" lon="5.93055">
        <ele>317</ele>
        <time>2019-01-10T05:00:39Z</time>
      </trkpt>
      <trkpt lat="50.38467" lon="5.9309">
        <ele>315</ele>
        <time>2019-01-10T05:01:39Z</time>
      </trkpt>
      <trkpt lat="50.3848" lon="5.93102">
        <ele>313</ele>
        <time>2019-01-10T05:02:39Z</time>
      </trkpt>
      <trkpt lat="50.38493" lon="5.931">
        <ele>310</ele>
        <time>2019-01-10T05:03:39Z</time>
      </trkpt>
      <trkpt lat="50.38532" lon="5.9308">
        <ele>300</ele>
        <time>2019-01-10T05:04:39Z</time>
      </trkpt>
      <trkpt lat="50.38543" lon="5.93077">
        <ele>298</ele>
        <time>2019-01-10T05:05:39Z</time>
      </trkpt>
      <trkpt lat="50.38554" lon="5.93079">
        <ele>296</ele>
        <time>2019-01-10T05:06:39Z</time>
      </trkpt>
      <trkpt lat="50.38566" lon="5.93088">
        <ele>296</ele>
        <time>2019-01-10T05:07:39Z</time>
      </trkpt>
      <trkpt lat="50.38576" lon="5.93104">
        <ele>298</ele>
        <time>2019-01-10T05:08:39Z</time>
      </trkpt>
      <trkpt lat="50.3859" lon="5.93126">
        <ele>301</ele>
        <time>2019-01-10T05:09:39Z</time>
      </trkpt>
      <trkpt lat="50.38619" lon="5.9316">
        <ele>303</ele>
        <time>2019-01-10T05:10:39Z</time>
      </trkpt>
      <trkpt lat="50.38632" lon="5.93172">
        <ele>303</ele>
        <time>2019-01-10T05:11:39Z</time>
      </trkpt>
      <trkpt lat="50.38644" lon="5.9318">
        <ele>303</ele>
        <time>2019-01-10T05:12:39Z</time>
      </trkpt>
      <trkpt lat="50.38667" lon="5.93187">
        <ele>299</ele>
        <time>2019-01-10T05:13:39Z</time>
      </trkpt>
      <trkpt lat="50.3871" lon="5.93191">
        <ele>298</ele>
        <time>2019-01-10T05:14:39Z</time>
      </trkpt>
      <trkpt lat="50.38762" lon="5.93186">
        <ele>295</ele>
        <time>2019-01-10T05:15:39Z</time>
      </trkpt>
      <trkpt lat="50.38832" lon="5.9317">
        <ele>291</ele>
        <time>2019-01-10T05:16:39Z</time>
      </trkpt>
      <trkpt lat="50.38871" lon="5.93165">
        <ele>290</ele>
        <time>2019-01-10T05:17:39Z</time>
      </trkpt>
      <trkpt lat="50.38932" lon="5.93169">
        <ele>291</ele>
        <time>2019-01-10T05:18:39Z</time>
      </trkpt>
      <trkpt lat="50.39003" lon="5.93177">
        <ele>289</ele>
        <time>2019-01-10T05:19:39Z</time>
      </trkpt>
      <trkpt lat="50.39023" lon="5.93176">
        <ele>287</ele>
        <time>2019-01-10T05:20:39Z</time>
      </trkpt>
      <trkpt lat="50.39044" lon="5.93181">
        <ele>284</ele>
        <time>2019-01-10T05:21:39Z</time>
      </trkpt>
      <trkpt lat="50.39061" lon="5.93187">
        <ele>283</ele>
        <time>2019-01-10T05:22:39Z</time>
      </trkpt>
      <trkpt lat="50.39095" lon="5.93203">
        <ele>280</ele>
        <time>2019-01-10T05:23:39Z</time>
      </trkpt>
      <trkpt lat="50.39126" lon="5.9323">
        <ele>280</ele>
        <time>2019-01-10T05:24:39Z</time>
      </trkpt>
      <trkpt lat="50.39153" lon="5.93251">
        <ele>279</ele>
        <time>2019-01-10T05:25:39Z</time>
      </trkpt>
      <trkpt lat="50.39159" lon="5.93245">
        <ele>278</ele>
        <time>2019-01-10T05:26:39Z</time>
      </trkpt>
      <trkpt lat="50.39164" lon="5.93235">
        <ele>278</ele>
        <time>2019-01-10T05:27:39Z</time>
      </trkpt>
      <trkpt lat="50.39172" lon="5.93198">
        <ele>277</ele>
        <time>2019-01-10T05:28:39Z</time>
      </trkpt>
      <trkpt lat="50.3918" lon="5.9317">
        <ele>276</ele>
        <time>2019-01-10T05:29:39Z</time>
      </trkpt>
      <trkpt lat="50.39191" lon="5.93156">
        <ele>277</ele>
        <time>2019-01-10T05:30:39Z</time>
      </trkpt>
      <trkpt lat="50.39203" lon="5.93146">
        <ele>277</ele>
        <time>2019-01-10T05:31:39Z</time>
      </trkpt>
      <trkpt lat="50.39223" lon="5.93134">
        <ele>278</ele>
        <time>2019-01-10T05:32:39Z</time>
      </trkpt>
      <trkpt lat="50.39246" lon="5.93099">
        <ele>279</ele>
        <time>2019-01-10T05:33:39Z</time>
      </trkpt>
      <trkpt lat="50.39258" lon="5.93088">
        <ele>279</ele>
        <time>2019-01-10T05:34:39Z</time>
      </trkpt>
      <trkpt lat="50.39273" lon="5.93087">
        <ele>280</ele>
        <time>2019-01-10T05:35:39Z</time>
      </trkpt>
      <trkpt lat="50.3931" lon="5.93082">
        <ele>283</ele>
        <time>2019-01-10T05:36:39Z</time>
      </trkpt>
      <trkpt lat="50.39407" lon="5.93047">
        <ele>291</ele>
        <time>2019-01-10T05:37:39Z</time>
      </trkpt>
      <trkpt lat="50.39412" lon="5.93056">
        <ele>291</ele>
        <time>2019-01-10T05:38:39Z</time>
      </trkpt>
      <trkpt lat="50.39419" lon="5.93065">
        <ele>291</ele>
        <time>2019-01-10T05:39:39Z</time>
      </trkpt>
      <trkpt lat="50.39467" lon="5.93156">
        <ele>292</ele>
        <time>2019-01-10T05:40:39Z</time>
      </trkpt>
      <trkpt lat="50.39475" lon="5.93175">
        <ele>292</ele>
        <time>2019-01-10T05:41:39Z</time>
      </trkpt>
      <trkpt lat="50.39484" lon="5.93195">
        <ele>293</ele>
        <time>2019-01-10T05:42:39Z</time>
      </trkpt>
      <trkpt lat="50.39495" lon="5.93198">
        <ele>294</ele>
        <time>2019-01-10T05:43:39Z</time>
      </trkpt>
      <trkpt lat="50.39503" lon="5.93219">
        <ele>295</ele>
        <time>2019-01-10T05:44:39Z</time>
      </trkpt>
      <trkpt lat="50.39559" lon="5.93322">
        <ele>298</ele>
        <time>2019-01-10T05:45:39Z</time>
      </trkpt>
      <trkpt lat="50.39605" lon="5.93426">
        <ele>300</ele>
        <time>2019-01-10T05:46:39Z</time>
      </trkpt>
      <trkpt lat="50.39614" lon="5.93445">
        <ele>301</ele>
        <time>2019-01-10T05:47:39Z</time>
      </trkpt>
      <trkpt lat="50.39626" lon="5.93468">
        <ele>301</ele>
        <time>2019-01-10T05:48:39Z</time>
      </trkpt>
      <trkpt lat="50.3963" lon="5.93471">
        <ele>302</ele>
        <time>2019-01-10T05:49:39Z</time>
      </trkpt>
      <trkpt lat="50.39635" lon="5.9347">
        <ele>302</ele>
        <time>2019-01-10T05:50:39Z</time>
      </trkpt>
      <trkpt lat="50.3964" lon="5.93462">
        <ele>303</ele>
        <time>2019-01-10T05:51:39Z</time>
      </trkpt>
      <trkpt lat="50.39642" lon="5.93452">
        <ele>303</ele>
        <time>2019-01-10T05:52:39Z</time>
      </trkpt>
      <trkpt lat="50.39641" lon="5.93441">
        <ele>303</ele>
        <time>2019-01-10T05:53:39Z</time>
      </trkpt>
      <trkpt lat="50.39637" lon="5.93419">
        <ele>303</ele>
        <time>2019-01-10T05:54:39Z</time>
      </trkpt>
      <trkpt lat="50.39636" lon="5.93406">
        <ele>303</ele>
        <time>2019-01-10T05:55:39Z</time>
      </trkpt>
      <trkpt lat="50.39637" lon="5.93379">
        <ele>303</ele>
        <time>2019-01-10T05:56:39Z</time>
      </trkpt>
      <trkpt lat="50.39642" lon="5.93305">
        <ele>305</ele>
        <time>2019-01-10T05:57:39Z</time>
      </trkpt>
      <trkpt lat="50.39642" lon="5.93236">
        <ele>307</ele>
        <time>2019-01-10T05:58:39Z</time>
      </trkpt>
      <trkpt lat="50.3964" lon="5.9321">
        <ele>307</ele>
        <time>2019-01-10T05:59:39Z</time>
      </trkpt>
      <trkpt lat="50.39637" lon="5.93173">
        <ele>306</ele>
        <time>2019-01-10T06:00:39Z</time>
      </trkpt>
      <trkpt lat="50.39628" lon="5.93088">
        <ele>304</ele>
        <time>2019-01-10T06:01:39Z</time>
      </trkpt>
      <trkpt lat="50.39622" lon="5.93013">
        <ele>304</ele>
        <time>2019-01-10T06:02:39Z</time>
      </trkpt>
      <trkpt lat="50.39617" lon="5.92975">
        <ele>304</ele>
        <time>2019-01-10T06:03:39Z</time>
      </trkpt>
      <trkpt lat="50.39613" lon="5.92956">
        <ele>305</ele>
        <time>2019-01-10T06:04:39Z</time>
      </trkpt>
      <trkpt lat="50.39608" lon="5.92938">
        <ele>305</ele>
        <time>2019-01-10T06:05:39Z</time>
      </trkpt>
      <trkpt lat="50.39601" lon="5.92921">
        <ele>305</ele>
        <time>2019-01-10T06:06:39Z</time>
      </trkpt>
      <trkpt lat="50.39592" lon="5.92906">
        <ele>305</ele>
        <time>2019-01-10T06:07:39Z</time>
      </trkpt>
      <trkpt lat="50.39573" lon="5.92882">
        <ele>305</ele>
        <time>2019-01-10T06:08:39Z</time>
      </trkpt>
      <trkpt lat="50.39534" lon="5.92826">
        <ele>306</ele>
        <time>2019-01-10T06:09:39Z</time>
      </trkpt>
      <trkpt lat="50.39481" lon="5.92749">
        <ele>308</ele>
        <time>2019-01-10T06:10:39Z</time>
      </trkpt>
      <trkpt lat="50.39448" lon="5.92714">
        <ele>311</ele>
        <time>2019-01-10T06:11:39Z</time>
      </trkpt>
      <trkpt lat="50.39416" lon="5.92682">
        <ele>312</ele>
        <time>2019-01-10T06:12:39Z</time>
      </trkpt>
      <trkpt lat="50.39324" lon="5.92591">
        <ele>314</ele>
        <time>2019-01-10T06:13:39Z</time>
      </trkpt>
      <trkpt lat="50.39269" lon="5.92536">
        <ele>313</ele>
        <time>2019-01-10T06:14:39Z</time>
      </trkpt>
      <trkpt lat="50.39253" lon="5.92526">
        <ele>312</ele>
        <time>2019-01-10T06:15:39Z</time>
      </trkpt>
      <trkpt lat="50.3924" lon="5.92526">
        <ele>311</ele>
        <time>2019-01-10T06:16:39Z</time>
      </trkpt>
      <trkpt lat="50.39221" lon="5.92524">
        <ele>310</ele>
        <time>2019-01-10T06:17:39Z</time>
      </trkpt>
      <trkpt lat="50.39213" lon="5.92515">
        <ele>311</ele>
        <time>2019-01-10T06:18:39Z</time>
      </trkpt>
      <trkpt lat="50.39206" lon="5.92511">
        <ele>311</ele>
        <time>2019-01-10T06:19:39Z</time>
      </trkpt>
      <trkpt lat="50.39199" lon="5.92508">
        <ele>310</ele>
        <time>2019-01-10T06:20:39Z</time>
      </trkpt>
      <trkpt lat="50.39193" lon="5.92507">
        <ele>310</ele>
        <time>2019-01-10T06:21:39Z</time>
      </trkpt>
      <trkpt lat="50.39185" lon="5.92507">
        <ele>310</ele>
        <time>2019-01-10T06:22:39Z</time>
      </trkpt>
      <trkpt lat="50.39177" lon="5.92509">
        <ele>309</ele>
        <time>2019-01-10T06:23:39Z</time>
      </trkpt>
      <trkpt lat="50.39169" lon="5.92507">
        <ele>309</ele>
        <time>2019-01-10T06:24:39Z</time>
      </trkpt>
      <trkpt lat="50.3916" lon="5.92504">
        <ele>309</ele>
        <time>2019-01-10T06:25:39Z</time>
      </trkpt>
      <trkpt lat="50.39151" lon="5.92499">
        <ele>309</ele>
        <time>2019-01-10T06:26:39Z</time>
      </trkpt>
      <trkpt lat="50.39143" lon="5.92491">
        <ele>310</ele>
        <time>2019-01-10T06:27:39Z</time>
      </trkpt>
      <trkpt lat="50.39025" lon="5.92375">
        <ele>317</ele>
        <time>2019-01-10T06:28:39Z</time>
      </trkpt>
      <trkpt lat="50.38993" lon="5.92353">
        <ele>318</ele>
        <time>2019-01-10T06:29:39Z</time>
      </trkpt>
      <trkpt lat="50.38944" lon="5.92327">
        <ele>320</ele>
        <time>2019-01-10T06:30:39Z</time>
      </trkpt>
      <trkpt lat="50.38906" lon="5.92314">
        <ele>321</ele>
        <time>2019-01-10T06:31:39Z</time>
      </trkpt>
      <trkpt lat="50.38866" lon="5.92304">
        <ele>323</ele>
        <time>2019-01-10T06:32:39Z</time>
      </trkpt>
      <trkpt lat="50.38835" lon="5.92284">
        <ele>324</ele>
        <time>2019-01-10T06:33:39Z</time>
      </trkpt>
      <trkpt lat="50.38826" lon="5.92275">
        <ele>323</ele>
        <time>2019-01-10T06:34:39Z</time>
      </trkpt>
      <trkpt lat="50.38818" lon="5.92266">
        <ele>323</ele>
        <time>2019-01-10T06:35:39Z</time>
      </trkpt>
      <trkpt lat="50.38803" lon="5.92245">
        <ele>322</ele>
        <time>2019-01-10T06:36:39Z</time>
      </trkpt>
      <trkpt lat="50.38796" lon="5.92234">
        <ele>323</ele>
        <time>2019-01-10T06:37:39Z</time>
      </trkpt>
      <trkpt lat="50.38734" lon="5.92125">
        <ele>326</ele>
        <time>2019-01-10T06:38:39Z</time>
      </trkpt>
      <trkpt lat="50.3869" lon="5.9204">
        <ele>328</ele>
        <time>2019-01-10T06:39:39Z</time>
      </trkpt>
      <trkpt lat="50.38603" lon="5.91887">
        <ele>322</ele>
        <time>2019-01-10T06:40:39Z</time>
      </trkpt>
      <trkpt lat="50.38454" lon="5.91627">
        <ele>311</ele>
        <time>2019-01-10T06:41:39Z</time>
      </trkpt>
      <trkpt lat="50.38437" lon="5.91585">
        <ele>309</ele>
        <time>2019-01-10T06:42:39Z</time>
      </trkpt>
      <trkpt lat="50.38433" lon="5.91557">
        <ele>308</ele>
        <time>2019-01-10T06:43:39Z</time>
      </trkpt>
      <trkpt lat="50.3843" lon="5.91534">
        <ele>307</ele>
        <time>2019-01-10T06:44:39Z</time>
      </trkpt>
      <trkpt lat="50.38429" lon="5.9151">
        <ele>306</ele>
        <time>2019-01-10T06:45:39Z</time>
      </trkpt>
      <trkpt lat="50.3843" lon="5.91485">
        <ele>305</ele>
        <time>2019-01-10T06:46:39Z</time>
      </trkpt>
      <trkpt lat="50.38431" lon="5.91459">
        <ele>305</ele>
        <time>2019-01-10T06:47:39Z</time>
      </trkpt>
      <trkpt lat="50.3845" lon="5.91083">
        <ele>294</ele>
        <time>2019-01-10T06:48:39Z</time>
      </trkpt>
      <trkpt lat="50.38474" lon="5.90575">
        <ele>287</ele>
        <time>2019-01-10T06:49:39Z</time>
      </trkpt>
      <trkpt lat="50.38482" lon="5.90391">
        <ele>289</ele>
        <time>2019-01-10T06:50:39Z</time>
      </trkpt>
      <trkpt lat="50.38484" lon="5.90323">
        <ele>291</ele>
        <time>2019-01-10T06:51:39Z</time>
      </trkpt>
      <trkpt lat="50.38484" lon="5.90284">
        <ele>293</ele>
        <time>2019-01-10T06:52:39Z</time>
      </trkpt>
      <trkpt lat="50.3848" lon="5.90255">
        <ele>294</ele>
        <time>2019-01-10T06:53:39Z</time>
      </trkpt>
      <trkpt lat="50.38468" lon="5.90214">
        <ele>293</ele>
        <time>2019-01-10T06:54:39Z</time>
      </trkpt>
      <trkpt lat="50.38433" lon="5.90114">
        <ele>291</ele>
        <time>2019-01-10T06:55:39Z</time>
      </trkpt>
      <trkpt lat="50.38407" lon="5.90049">
        <ele>294</ele>
        <time>2019-01-10T06:56:39Z</time>
      </trkpt>
      <trkpt lat="50.38393" lon="5.90024">
        <ele>296</ele>
        <time>2019-01-10T06:57:39Z</time>
      </trkpt>
      <trkpt lat="50.38362" lon="5.89995">
        <ele>296</ele>
        <time>2019-01-10T06:58:39Z</time>
      </trkpt>
      <trkpt lat="50.38333" lon="5.89972">
        <ele>295</ele>
        <time>2019-01-10T06:59:39Z</time>
      </trkpt>
      <trkpt lat="50.38307" lon="5.89957">
        <ele>294</ele>
        <time>2019-01-10T07:00:39Z</time>
      </trkpt>
      <trkpt lat="50.38214" lon="5.899">
        <ele>289</ele>
        <time>2019-01-10T07:01:39Z</time>
      </trkpt>
      <trkpt lat="50.38113" lon="5.89851">
        <ele>282</ele>
        <time>2019-01-10T07:02:39Z</time>
      </trkpt>
      <trkpt lat="50.38083" lon="5.89835">
        <ele>280</ele>
        <time>2019-01-10T07:03:39Z</time>
      </trkpt>
      <trkpt lat="50.37981" lon="5.89792">
        <ele>277</ele>
        <time>2019-01-10T07:04:39Z</time>
      </trkpt>
      <trkpt lat="50.37935" lon="5.89758">
        <ele>274</ele>
        <time>2019-01-10T07:05:39Z</time>
      </trkpt>
      <trkpt lat="50.37903" lon="5.89726">
        <ele>274</ele>
        <time>2019-01-10T07:06:39Z</time>
      </trkpt>
      <trkpt lat="50.37876" lon="5.89679">
        <ele>273</ele>
        <time>2019-01-10T07:07:39Z</time>
      </trkpt>
      <trkpt lat="50.37855" lon="5.8963">
        <ele>270</ele>
        <time>2019-01-10T07:08:39Z</time>
      </trkpt>
      <trkpt lat="50.37842" lon="5.89582">
        <ele>268</ele>
        <time>2019-01-10T07:09:39Z</time>
      </trkpt>
      <trkpt lat="50.37837" lon="5.89552">
        <ele>267</ele>
        <time>2019-01-10T07:10:39Z</time>
      </trkpt>
      <trkpt lat="50.37836" lon="5.89476">
        <ele>267</ele>
        <time>2019-01-10T07:11:39Z</time>
      </trkpt>
      <trkpt lat="50.37836" lon="5.89425">
        <ele>264</ele>
        <time>2019-01-10T07:12:39Z</time>
      </trkpt>
      <trkpt lat="50.37834" lon="5.89067">
        <ele>255</ele>
        <time>2019-01-10T07:13:39Z</time>
      </trkpt>
      <trkpt lat="50.37835" lon="5.88771">
        <ele>253</ele>
        <time>2019-01-10T07:14:39Z</time>
      </trkpt>
      <trkpt lat="50.37833" lon="5.88546">
        <ele>254</ele>
        <time>2019-01-10T07:15:39Z</time>
      </trkpt>
      <trkpt lat="50.37826" lon="5.88471">
        <ele>261</ele>
        <time>2019-01-10T07:16:39Z</time>
      </trkpt>
      <trkpt lat="50.37811" lon="5.88411">
        <ele>267</ele>
        <time>2019-01-10T07:17:39Z</time>
      </trkpt>
      <trkpt lat="50.3779" lon="5.88345">
        <ele>269</ele>
        <time>2019-01-10T07:18:39Z</time>
      </trkpt>
      <trkpt lat="50.37762" lon="5.88286">
        <ele>262</ele>
        <time>2019-01-10T07:19:39Z</time>
      </trkpt>
      <trkpt lat="50.37716" lon="5.88174">
        <ele>265</ele>
        <time>2019-01-10T07:20:39Z</time>
      </trkpt>
      <trkpt lat="50.37682" lon="5.88059">
        <ele>259</ele>
        <time>2019-01-10T07:21:39Z</time>
      </trkpt>
      <trkpt lat="50.37665" lon="5.87999">
        <ele>253</ele>
        <time>2019-01-10T07:22:39Z</time>
      </trkpt>
      <trkpt lat="50.37644" lon="5.87932">
        <ele>256</ele>
        <time>2019-01-10T07:23:39Z</time>
      </trkpt>
      <trkpt lat="50.37628" lon="5.87876">
        <ele>256</ele>
        <time>2019-01-10T07:24:39Z</time>
      </trkpt>
      <trkpt lat="50.37622" lon="5.87833">
        <ele>256</ele>
        <time>2019-01-10T07:25:39Z</time>
      </trkpt>
      <trkpt lat="50.37617" lon="5.87772">
        <ele>255</ele>
        <time>2019-01-10T07:26:39Z</time>
      </trkpt>
      <trkpt lat="50.3761" lon="5.87672">
        <ele>253</ele>
        <time>2019-01-10T07:27:39Z</time>
      </trkpt>
      <trkpt lat="50.37611" lon="5.87646">
        <ele>253</ele>
        <time>2019-01-10T07:28:39Z</time>
      </trkpt>
      <trkpt lat="50.37619" lon="5.87627">
        <ele>253</ele>
        <time>2019-01-10T07:29:39Z</time>
      </trkpt>
      <trkpt lat="50.37626" lon="5.87614">
        <ele>254</ele>
        <time>2019-01-10T07:30:39Z</time>
      </trkpt>
      <trkpt lat="50.37634" lon="5.87602">
        <ele>254</ele>
        <time>2019-01-10T07:31:39Z</time>
      </trkpt>
      <trkpt lat="50.37642" lon="5.87591">
        <ele>254</ele>
        <time>2019-01-10T07:32:39Z</time>
      </trkpt>
      <trkpt lat="50.37672" lon="5.87565">
        <ele>254</ele>
        <time>2019-01-10T07:33:39Z</time>
      </trkpt>
      <trkpt lat="50.37694" lon="5.87511">
        <ele>249</ele>
        <time>2019-01-10T07:34:39Z</time>
      </trkpt>
      <trkpt lat="50.37714" lon="5.8753">
        <ele>249</ele>
        <time>2019-01-10T07:35:39Z</time>
      </trkpt>
      <trkpt lat="50.3774" lon="5.8756">
        <ele>251</ele>
        <time>2019-01-10T07:36:39Z</time>
      </trkpt>
      <trkpt lat="50.37797" lon="5.87611">
        <ele>253</ele>
        <time>2019-01-10T07:37:39Z</time>
      </trkpt>
      <trkpt lat="50.37863" lon="5.87668">
        <ele>255</ele>
        <time>2019-01-10T07:38:39Z</time>
      </trkpt>
      <trkpt lat="50.37891" lon="5.87686">
        <ele>255</ele>
        <time>2019-01-10T07:39:39Z</time>
      </trkpt>
      <trkpt lat="50.37952" lon="5.87729">
        <ele>253</ele>
        <time>2019-01-10T07:40:39Z</time>
      </trkpt>
      <trkpt lat="50.38003" lon="5.87775">
        <ele>254</ele>
        <time>2019-01-10T07:41:39Z</time>
      </trkpt>
      <trkpt lat="50.38082" lon="5.87853">
        <ele>258</ele>
        <time>2019-01-10T07:42:39Z</time>
      </trkpt>
      <trkpt lat="50.38113" lon="5.87878">
        <ele>258</ele>
        <time>2019-01-10T07:43:39Z</time>
      </trkpt>
      <trkpt lat="50.38122" lon="5.87891">
        <ele>259</ele>
        <time>2019-01-10T07:44:39Z</time>
      </trkpt>
      <trkpt lat="50.38129" lon="5.87907">
        <ele>260</ele>
        <time>2019-01-10T07:45:39Z</time>
      </trkpt>
      <trkpt lat="50.38134" lon="5.87923">
        <ele>262</ele>
        <time>2019-01-10T07:46:39Z</time>
      </trkpt>
      <trkpt lat="50.38138" lon="5.87933">
        <ele>264</ele>
        <time>2019-01-10T07:47:39Z</time>
      </trkpt>
      <trkpt lat="50.38143" lon="5.87941">
        <ele>265</ele>
        <time>2019-01-10T07:48:39Z</time>
      </trkpt>
      <trkpt lat="50.38153" lon="5.87948">
        <ele>264</ele>
        <time>2019-01-10T07:49:39Z</time>
      </trkpt>
      <trkpt lat="50.38222" lon="5.87977">
        <ele>259</ele>
        <time>2019-01-10T07:50:39Z</time>
      </trkpt>
      <trkpt lat="50.38242" lon="5.8799">
        <ele>259</ele>
        <time>2019-01-10T07:51:39Z</time>
      </trkpt>
      <trkpt lat="50.3828" lon="5.88013">
        <ele>260</ele>
        <time>2019-01-10T07:52:39Z</time>
      </trkpt>
      <trkpt lat="50.38302" lon="5.8802">
        <ele>260</ele>
        <time>2019-01-10T07:53:39Z</time>
      </trkpt>
      <trkpt lat="50.38333" lon="5.88021">
        <ele>258</ele>
        <time>2019-01-10T07:54:39Z</time>
      </trkpt>
      <trkpt lat="50.38425" lon="5.88039">
        <ele>258</ele>
        <time>2019-01-10T07:55:39Z</time>
      </trkpt>
      <trkpt lat="50.3847" lon="5.88044">
        <ele>258</ele>
        <time>2019-01-10T07:56:39Z</time>
      </trkpt>
      <trkpt lat="50.38509" lon="5.88055">
        <ele>259</ele>
        <time>2019-01-10T07:57:39Z</time>
      </trkpt>
      <trkpt lat="50.38592" lon="5.88076">
        <ele>256</ele>
        <time>2019-01-10T07:58:39Z</time>
      </trkpt>
      <trkpt lat="50.38797" lon="5.88122">
        <ele>253</ele>
        <time>2019-01-10T07:59:39Z</time>
      </trkpt>
      <trkpt lat="50.3888" lon="5.88142">
        <ele>252</ele>
        <time>2019-01-10T08:00:39Z</time>
      </trkpt>
      <trkpt lat="50.3895" lon="5.88155">
        <ele>253</ele>
        <time>2019-01-10T08:01:39Z</time>
      </trkpt>
      <trkpt lat="50.38972" lon="5.88161">
        <ele>254</ele>
        <time>2019-01-10T08:02:39Z</time>
      </trkpt>
      <trkpt lat="50.38991" lon="5.88162">
        <ele>254</ele>
        <time>2019-01-10T08:03:39Z</time>
      </trkpt>
      <trkpt lat="50.39049" lon="5.88148">
        <ele>253</ele>
        <time>2019-01-10T08:04:39Z</time>
      </trkpt>
      <trkpt lat="50.39143" lon="5.88112">
        <ele>252</ele>
        <time>2019-01-10T08:05:39Z</time>
      </trkpt>
      <trkpt lat="50.39165" lon="5.88093">
        <ele>251</ele>
        <time>2019-01-10T08:06:39Z</time>
      </trkpt>
      <trkpt lat="50.39179" lon="5.88075">
        <ele>250</ele>
        <time>2019-01-10T08:07:39Z</time>
      </trkpt>
      <trkpt lat="50.3919" lon="5.88059">
        <ele>249</ele>
        <time>2019-01-10T08:08:39Z</time>
      </trkpt>
      <trkpt lat="50.39207" lon="5.88043">
        <ele>248</ele>
        <time>2019-01-10T08:09:39Z</time>
      </trkpt>
      <trkpt lat="50.39231" lon="5.88026">
        <ele>248</ele>
        <time>2019-01-10T08:10:39Z</time>
      </trkpt>
      <trkpt lat="50.39264" lon="5.87989">
        <ele>249</ele>
        <time>2019-01-10T08:11:39Z</time>
      </trkpt>
      <trkpt lat="50.39299" lon="5.87938">
        <ele>252</ele>
        <time>2019-01-10T08:12:39Z</time>
      </trkpt>
      <trkpt lat="50.39328" lon="5.87879">
        <ele>250</ele>
        <time>2019-01-10T08:13:39Z</time>
      </trkpt>
      <trkpt lat="50.3935" lon="5.87831">
        <ele>245</ele>
        <time>2019-01-10T08:14:39Z</time>
      </trkpt>
      <trkpt lat="50.39359" lon="5.87816">
        <ele>244</ele>
        <time>2019-01-10T08:15:39Z</time>
      </trkpt>
      <trkpt lat="50.39369" lon="5.87806">
        <ele>243</ele>
        <time>2019-01-10T08:16:39Z</time>
      </trkpt>
      <trkpt lat="50.39379" lon="5.87807">
        <ele>243</ele>
        <time>2019-01-10T08:17:39Z</time>
      </trkpt>
      <trkpt lat="50.39387" lon="5.87811">
        <ele>244</ele>
        <time>2019-01-10T08:18:39Z</time>
      </trkpt>
      <trkpt lat="50.39452" lon="5.87865">
        <ele>253</ele>
        <time>2019-01-10T08:19:39Z</time>
      </trkpt>
      <trkpt lat="50.39478" lon="5.87888">
        <ele>254</ele>
        <time>2019-01-10T08:20:39Z</time>
      </trkpt>
      <trkpt lat="50.39497" lon="5.87901">
        <ele>254</ele>
        <time>2019-01-10T08:21:39Z</time>
      </trkpt>
      <trkpt lat="50.39516" lon="5.87914">
        <ele>254</ele>
        <time>2019-01-10T08:22:39Z</time>
      </trkpt>
      <trkpt lat="50.39535" lon="5.87922">
        <ele>253</ele>
        <time>2019-01-10T08:23:39Z</time>
      </trkpt>
      <trkpt lat="50.39553" lon="5.87929">
        <ele>252</ele>
        <time>2019-01-10T08:24:39Z</time>
      </trkpt>
      <trkpt lat="50.3957" lon="5.87934">
        <ele>251</ele>
        <time>2019-01-10T08:25:39Z</time>
      </trkpt>
      <trkpt lat="50.396" lon="5.87934">
        <ele>248</ele>
        <time>2019-01-10T08:26:39Z</time>
      </trkpt>
      <trkpt lat="50.39636" lon="5.87928">
        <ele>246</ele>
        <time>2019-01-10T08:27:39Z</time>
      </trkpt>
      <trkpt lat="50.39676" lon="5.87917">
        <ele>242</ele>
        <time>2019-01-10T08:28:39Z</time>
      </trkpt>
      <trkpt lat="50.39706" lon="5.87905">
        <ele>241</ele>
        <time>2019-01-10T08:29:39Z</time>
      </trkpt>
      <trkpt lat="50.39751" lon="5.87877">
        <ele>237</ele>
        <time>2019-01-10T08:30:39Z</time>
      </trkpt>
      <trkpt lat="50.39791" lon="5.8784">
        <ele>235</ele>
        <time>2019-01-10T08:31:39Z</time>
      </trkpt>
      <trkpt lat="50.3982" lon="5.87805">
        <ele>235</ele>
        <time>2019-01-10T08:32:39Z</time>
      </trkpt>
      <trkpt lat="50.39856" lon="5.87751">
        <ele>237</ele>
        <time>2019-01-10T08:33:39Z</time>
      </trkpt>
      <trkpt lat="50.39884" lon="5.87697">
        <ele>238</ele>
        <time>2019-01-10T08:34:39Z</time>
      </trkpt>
      <trkpt lat="50.39903" lon="5.87651">
        <ele>236</ele>
        <time>2019-01-10T08:35:39Z</time>
      </trkpt>
      <trkpt lat="50.39927" lon="5.87571">
        <ele>234</ele>
        <time>2019-01-10T08:36:39Z</time>
      </trkpt>
      <trkpt lat="50.39938" lon="5.875">
        <ele>235</ele>
        <time>2019-01-10T08:37:39Z</time>
      </trkpt>
      <trkpt lat="50.39942" lon="5.87446">
        <ele>235</ele>
        <time>2019-01-10T08:38:39Z</time>
      </trkpt>
      <trkpt lat="50.39941" lon="5.87394">
        <ele>233</ele>
        <time>2019-01-10T08:39:39Z</time>
      </trkpt>
      <trkpt lat="50.39925" lon="5.87214">
        <ele>228</ele>
        <time>2019-01-10T08:40:39Z</time>
      </trkpt>
      <trkpt lat="50.39913" lon="5.87106">
        <ele>225</ele>
        <time>2019-01-10T08:41:39Z</time>
      </trkpt>
      <trkpt lat="50.3991" lon="5.87043">
        <ele>224</ele>
        <time>2019-01-10T08:42:39Z</time>
      </trkpt>
      <trkpt lat="50.39911" lon="5.87005">
        <ele>223</ele>
        <time>2019-01-10T08:43:39Z</time>
      </trkpt>
      <trkpt lat="50.39916" lon="5.86971">
        <ele>223</ele>
        <time>2019-01-10T08:44:39Z</time>
      </trkpt>
      <trkpt lat="50.39928" lon="5.86932">
        <ele>225</ele>
        <time>2019-01-10T08:45:39Z</time>
      </trkpt>
      <trkpt lat="50.39953" lon="5.86879">
        <ele>227</ele>
        <time>2019-01-10T08:46:39Z</time>
      </trkpt>
      <trkpt lat="50.40032" lon="5.86734">
        <ele>229</ele>
        <time>2019-01-10T08:47:39Z</time>
      </trkpt>
      <trkpt lat="50.40087" lon="5.86634">
        <ele>227</ele>
        <time>2019-01-10T08:48:39Z</time>
      </trkpt>
      <trkpt lat="50.40102" lon="5.86612">
        <ele>227</ele>
        <time>2019-01-10T08:49:39Z</time>
      </trkpt>
      <trkpt lat="50.40163" lon="5.86526">
        <ele>228</ele>
        <time>2019-01-10T08:50:39Z</time>
      </trkpt>
      <trkpt lat="50.40225" lon="5.86445">
        <ele>226</ele>
        <time>2019-01-10T08:51:39Z</time>
      </trkpt>
      <trkpt lat="50.40266" lon="5.86365">
        <ele>225</ele>
        <time>2019-01-10T08:52:39Z</time>
      </trkpt>
      <trkpt lat="50.40279" lon="5.86338">
        <ele>224</ele>
        <time>2019-01-10T08:53:39Z</time>
      </trkpt>
      <trkpt lat="50.40288" lon="5.86328">
        <ele>225</ele>
        <time>2019-01-10T08:54:39Z</time>
      </trkpt>
      <trkpt lat="50.40301" lon="5.86318">
        <ele>225</ele>
        <time>2019-01-10T08:55:39Z</time>
      </trkpt>
      <trkpt lat="50.40312" lon="5.86311">
        <ele>225</ele>
        <time>2019-01-10T08:56:39Z</time>
      </trkpt>
      <trkpt lat="50.40324" lon="5.86312">
        <ele>225</ele>
        <time>2019-01-10T08:57:39Z</time>
      </trkpt>
      <trkpt lat="50.40342" lon="5.86313">
        <ele>225</ele>
        <time>2019-01-10T08:58:39Z</time>
      </trkpt>
      <trkpt lat="50.40355" lon="5.86315">
        <ele>226</ele>
        <time>2019-01-10T08:59:39Z</time>
      </trkpt>
      <trkpt lat="50.40369" lon="5.86315">
        <ele>226</ele>
        <time>2019-01-10T09:00:39Z</time>
      </trkpt>
      <trkpt lat="50.40382" lon="5.86312">
        <ele>226</ele>
        <time>2019-01-10T09:01:39Z</time>
      </trkpt>
      <trkpt lat="50.40396" lon="5.86308">
        <ele>225</ele>
        <time>2019-01-10T09:02:39Z</time>
      </trkpt>
      <trkpt lat="50.4041" lon="5.863">
        <ele>224</ele>
        <time>2019-01-10T09:03:39Z</time>
      </trkpt>
      <trkpt lat="50.40422" lon="5.86291">
        <ele>224</ele>
        <time>2019-01-10T09:04:39Z</time>
      </trkpt>
      <trkpt lat="50.40435" lon="5.86279">
        <ele>222</ele>
        <time>2019-01-10T09:05:39Z</time>
      </trkpt>
      <trkpt lat="50.40519" lon="5.8621">
        <ele>220</ele>
        <time>2019-01-10T09:06:39Z</time>
      </trkpt>
      <trkpt lat="50.40596" lon="5.86145">
        <ele>219</ele>
        <time>2019-01-10T09:07:39Z</time>
      </trkpt>
      <trkpt lat="50.40639" lon="5.86109">
        <ele>220</ele>
        <time>2019-01-10T09:08:39Z</time>
      </trkpt>
      <trkpt lat="50.40666" lon="5.86094">
        <ele>220</ele>
        <time>2019-01-10T09:09:39Z</time>
      </trkpt>
      <trkpt lat="50.40703" lon="5.86082">
        <ele>220</ele>
        <time>2019-01-10T09:10:39Z</time>
      </trkpt>
      <trkpt lat="50.40737" lon="5.86079">
        <ele>221</ele>
        <time>2019-01-10T09:11:39Z</time>
      </trkpt>
      <trkpt lat="50.40794" lon="5.86097">
        <ele>223</ele>
        <time>2019-01-10T09:12:39Z</time>
      </trkpt>
      <trkpt lat="50.40843" lon="5.8611">
        <ele>225</ele>
        <time>2019-01-10T09:13:39Z</time>
      </trkpt>
      <trkpt lat="50.40893" lon="5.86112">
        <ele>225</ele>
        <time>2019-01-10T09:14:39Z</time>
      </trkpt>
      <trkpt lat="50.40915" lon="5.8611">
        <ele>225</ele>
        <time>2019-01-10T09:15:39Z</time>
      </trkpt>
      <trkpt lat="50.40933" lon="5.86103">
        <ele>224</ele>
        <time>2019-01-10T09:16:39Z</time>
      </trkpt>
      <trkpt lat="50.41021" lon="5.86067">
        <ele>224</ele>
        <time>2019-01-10T09:17:39Z</time>
      </trkpt>
      <trkpt lat="50.41084" lon="5.86062">
        <ele>224</ele>
        <time>2019-01-10T09:18:39Z</time>
      </trkpt>
      <trkpt lat="50.41228" lon="5.86053">
        <ele>227</ele>
        <time>2019-01-10T09:19:39Z</time>
      </trkpt>
      <trkpt lat="50.41367" lon="5.86045">
        <ele>235</ele>
        <time>2019-01-10T09:20:39Z</time>
      </trkpt>
      <trkpt lat="50.41384" lon="5.86041">
        <ele>236</ele>
        <time>2019-01-10T09:21:39Z</time>
      </trkpt>
      <trkpt lat="50.41404" lon="5.86032">
        <ele>237</ele>
        <time>2019-01-10T09:22:39Z</time>
      </trkpt>
      <trkpt lat="50.41416" lon="5.86016">
        <ele>238</ele>
        <time>2019-01-10T09:23:39Z</time>
      </trkpt>
      <trkpt lat="50.41427" lon="5.85985">
        <ele>239</ele>
        <time>2019-01-10T09:24:39Z</time>
      </trkpt>
      <trkpt lat="50.41433" lon="5.85958">
        <ele>241</ele>
        <time>2019-01-10T09:25:39Z</time>
      </trkpt>
      <trkpt lat="50.41435" lon="5.85935">
        <ele>242</ele>
        <time>2019-01-10T09:26:39Z</time>
      </trkpt>
      <trkpt lat="50.41433" lon="5.85908">
        <ele>242</ele>
        <time>2019-01-10T09:27:39Z</time>
      </trkpt>
      <trkpt lat="50.4143" lon="5.85888">
        <ele>243</ele>
        <time>2019-01-10T09:28:39Z</time>
      </trkpt>
      <trkpt lat="50.41423" lon="5.85866">
        <ele>244</ele>
        <time>2019-01-10T09:29:39Z</time>
      </trkpt>
      <trkpt lat="50.41412" lon="5.85836">
        <ele>245</ele>
        <time>2019-01-10T09:30:39Z</time>
      </trkpt>
      <trkpt lat="50.41379" lon="5.85759">
        <ele>245</ele>
        <time>2019-01-10T09:31:39Z</time>
      </trkpt>
      <trkpt lat="50.41377" lon="5.85723">
        <ele>246</ele>
        <time>2019-01-10T09:32:39Z</time>
      </trkpt>
      <trkpt lat="50.41378" lon="5.85675">
        <ele>248</ele>
        <time>2019-01-10T09:33:39Z</time>
      </trkpt>
      <trkpt lat="50.41381" lon="5.85599">
        <ele>252</ele>
        <time>2019-01-10T09:34:39Z</time>
      </trkpt>
      <trkpt lat="50.41392" lon="5.85382">
        <ele>263</ele>
        <time>2019-01-10T09:35:39Z</time>
      </trkpt>
      <trkpt lat="50.414" lon="5.852">
        <ele>271</ele>
        <time>2019-01-10T09:36:39Z</time>
      </trkpt>
      <trkpt lat="50.41406" lon="5.85045">
        <ele>280</ele>
        <time>2019-01-10T09:37:39Z</time>
      </trkpt>
      <trkpt lat="50.41396" lon="5.85008">
        <ele>283</ele>
        <time>2019-01-10T09:38:39Z</time>
      </trkpt>
      <trkpt lat="50.41375" lon="5.84981">
        <ele>284</ele>
        <time>2019-01-10T09:39:39Z</time>
      </trkpt>
      <trkpt lat="50.4135" lon="5.84979">
        <ele>282</ele>
        <time>2019-01-10T09:40:39Z</time>
      </trkpt>
      <trkpt lat="50.41321" lon="5.84993">
        <ele>281</ele>
        <time>2019-01-10T09:41:39Z</time>
      </trkpt>
      <trkpt lat="50.4127" lon="5.85068">
        <ele>285</ele>
        <time>2019-01-10T09:42:39Z</time>
      </trkpt>
      <trkpt lat="50.41246" lon="5.85087">
        <ele>286</ele>
        <time>2019-01-10T09:43:39Z</time>
      </trkpt>
      <trkpt lat="50.41219" lon="5.85085">
        <ele>284</ele>
        <time>2019-01-10T09:44:39Z</time>
      </trkpt>
      <trkpt lat="50.41202" lon="5.85065">
        <ele>285</ele>
        <time>2019-01-10T09:45:39Z</time>
      </trkpt>
      <trkpt lat="50.41186" lon="5.85038">
        <ele>286</ele>
        <time>2019-01-10T09:46:39Z</time>
      </trkpt>
      <trkpt lat="50.41157" lon="5.84979">
        <ele>289</ele>
        <time>2019-01-10T09:47:39Z</time>
      </trkpt>
      <trkpt lat="50.41127" lon="5.84911">
        <ele>291</ele>
        <time>2019-01-10T09:48:39Z</time>
      </trkpt>
      <trkpt lat="50.41103" lon="5.84846">
        <ele>295</ele>
        <time>2019-01-10T09:49:39Z</time>
      </trkpt>
      <trkpt lat="50.41097" lon="5.84821">
        <ele>297</ele>
        <time>2019-01-10T09:50:39Z</time>
      </trkpt>
      <trkpt lat="50.41099" lon="5.84788">
        <ele>298</ele>
        <time>2019-01-10T09:51:39Z</time>
      </trkpt>
      <trkpt lat="50.41107" lon="5.84759">
        <ele>300</ele>
        <time>2019-01-10T09:52:39Z</time>
      </trkpt>
      <trkpt lat="50.41113" lon="5.84743">
        <ele>301</ele>
        <time>2019-01-10T09:53:39Z</time>
      </trkpt>
      <trkpt lat="50.41121" lon="5.84722">
        <ele>302</ele>
        <time>2019-01-10T09:54:39Z</time>
      </trkpt>
      <trkpt lat="50.41129" lon="5.84708">
        <ele>302</ele>
        <time>2019-01-10T09:55:39Z</time>
      </trkpt>
      <trkpt lat="50.41149" lon="5.84697">
        <ele>303</ele>
        <time>2019-01-10T09:56:39Z</time>
      </trkpt>
      <trkpt lat="50.4118" lon="5.8468">
        <ele>303</ele>
        <time>2019-01-10T09:57:39Z</time>
      </trkpt>
      <trkpt lat="50.41213" lon="5.84647">
        <ele>304</ele>
        <time>2019-01-10T09:58:39Z</time>
      </trkpt>
      <trkpt lat="50.41244" lon="5.84616">
        <ele>306</ele>
        <time>2019-01-10T09:59:39Z</time>
      </trkpt>
      <trkpt lat="50.41296" lon="5.84588">
        <ele>311</ele>
        <time>2019-01-10T10:00:39Z</time>
      </trkpt>
      <trkpt lat="50.41308" lon="5.84593">
        <ele>312</ele>
        <time>2019-01-10T10:01:39Z</time>
      </trkpt>
      <trkpt lat="50.41316" lon="5.84597">
        <ele>312</ele>
        <time>2019-01-10T10:02:39Z</time>
      </trkpt>
      <trkpt lat="50.4134" lon="5.8461">
        <ele>314</ele>
        <time>2019-01-10T10:03:39Z</time>
      </trkpt>
      <trkpt lat="50.41357" lon="5.84623">
        <ele>315</ele>
        <time>2019-01-10T10:04:39Z</time>
      </trkpt>
      <trkpt lat="50.41397" lon="5.84674">
        <ele>317</ele>
        <time>2019-01-10T10:05:39Z</time>
      </trkpt>
      <trkpt lat="50.41418" lon="5.84706">
        <ele>317</ele>
        <time>2019-01-10T10:06:39Z</time>
      </trkpt>
      <trkpt lat="50.41454" lon="5.84783">
        <ele>315</ele>
        <time>2019-01-10T10:07:39Z</time>
      </trkpt>
      <trkpt lat="50.4149" lon="5.84846">
        <ele>313</ele>
        <time>2019-01-10T10:08:39Z</time>
      </trkpt>
      <trkpt lat="50.415" lon="5.84858">
        <ele>313</ele>
        <time>2019-01-10T10:09:39Z</time>
      </trkpt>
      <trkpt lat="50.41512" lon="5.84867">
        <ele>312</ele>
        <time>2019-01-10T10:10:39Z</time>
      </trkpt>
      <trkpt lat="50.41529" lon="5.84869">
        <ele>313</ele>
        <time>2019-01-10T10:11:39Z</time>
      </trkpt>
      <trkpt lat="50.41545" lon="5.84866">
        <ele>314</ele>
        <time>2019-01-10T10:12:39Z</time>
      </trkpt>
      <trkpt lat="50.41571" lon="5.84858">
        <ele>315</ele>
        <time>2019-01-10T10:13:39Z</time>
      </trkpt>
      <trkpt lat="50.41608" lon="5.84846">
        <ele>316</ele>
        <time>2019-01-10T10:14:39Z</time>
      </trkpt>
      <trkpt lat="50.41631" lon="5.84839">
        <ele>316</ele>
        <time>2019-01-10T10:15:39Z</time>
      </trkpt>
      <trkpt lat="50.41653" lon="5.84839">
        <ele>316</ele>
        <time>2019-01-10T10:16:39Z</time>
      </trkpt>
      <trkpt lat="50.41691" lon="5.84851">
        <ele>317</ele>
        <time>2019-01-10T10:17:39Z</time>
      </trkpt>
      <trkpt lat="50.41725" lon="5.8487">
        <ele>319</ele>
        <time>2019-01-10T10:18:39Z</time>
      </trkpt>
      <trkpt lat="50.4176" lon="5.84898">
        <ele>320</ele>
        <time>2019-01-10T10:19:39Z</time>
      </trkpt>
      <trkpt lat="50.41771" lon="5.84914">
        <ele>320</ele>
        <time>2019-01-10T10:20:39Z</time>
      </trkpt>
      <trkpt lat="50.41782" lon="5.84944">
        <ele>319</ele>
        <time>2019-01-10T10:21:39Z</time>
      </trkpt>
      <trkpt lat="50.41792" lon="5.84973">
        <ele>319</ele>
        <time>2019-01-10T10:22:39Z</time>
      </trkpt>
      <trkpt lat="50.41847" lon="5.85141">
        <ele>321</ele>
        <time>2019-01-10T10:23:39Z</time>
      </trkpt>
      <trkpt lat="50.41896" lon="5.85289">
        <ele>326</ele>
        <time>2019-01-10T10:24:39Z</time>
      </trkpt>
      <trkpt lat="50.4192" lon="5.85362">
        <ele>328</ele>
        <time>2019-01-10T10:25:39Z</time>
      </trkpt>
      <trkpt lat="50.41943" lon="5.85405">
        <ele>329</ele>
        <time>2019-01-10T10:26:39Z</time>
      </trkpt>
      <trkpt lat="50.41974" lon="5.85451">
        <ele>330</ele>
        <time>2019-01-10T10:27:39Z</time>
      </trkpt>
      <trkpt lat="50.42061" lon="5.8553">
        <ele>334</ele>
        <time>2019-01-10T10:28:39Z</time>
      </trkpt>
      <trkpt lat="50.42085" lon="5.85562">
        <ele>333</ele>
        <time>2019-01-10T10:29:39Z</time>
      </trkpt>
      <trkpt lat="50.42099" lon="5.85586">
        <ele>332</ele>
        <time>2019-01-10T10:30:39Z</time>
      </trkpt>
      <trkpt lat="50.42182" lon="5.85726">
        <ele>331</ele>
        <time>2019-01-10T10:31:39Z</time>
      </trkpt>
      <trkpt lat="50.42215" lon="5.8577">
        <ele>331</ele>
        <time>2019-01-10T10:32:39Z</time>
      </trkpt>
      <trkpt lat="50.42239" lon="5.85799">
        <ele>331</ele>
        <time>2019-01-10T10:33:39Z</time>
      </trkpt>
      <trkpt lat="50.42281" lon="5.8584">
        <ele>331</ele>
        <time>2019-01-10T10:34:39Z</time>
      </trkpt>
      <trkpt lat="50.42292" lon="5.85854">
        <ele>331</ele>
        <time>2019-01-10T10:35:39Z</time>
      </trkpt>
      <trkpt lat="50.42301" lon="5.85869">
        <ele>331</ele>
        <time>2019-01-10T10:36:39Z</time>
      </trkpt>
      <trkpt lat="50.42332" lon="5.85922">
        <ele>331</ele>
        <time>2019-01-10T10:37:39Z</time>
      </trkpt>
      <trkpt lat="50.4235" lon="5.85939">
        <ele>331</ele>
        <time>2019-01-10T10:38:39Z</time>
      </trkpt>
      <trkpt lat="50.42414" lon="5.85984">
        <ele>331</ele>
        <time>2019-01-10T10:39:39Z</time>
      </trkpt>
      <trkpt lat="50.42425" lon="5.85991">
        <ele>331</ele>
        <time>2019-01-10T10:40:39Z</time>
      </trkpt>
      <trkpt lat="50.42435" lon="5.8599">
        <ele>331</ele>
        <time>2019-01-10T10:41:39Z</time>
      </trkpt>
      <trkpt lat="50.42489" lon="5.85974">
        <ele>334</ele>
        <time>2019-01-10T10:42:39Z</time>
      </trkpt>
      <trkpt lat="50.42525" lon="5.85973">
        <ele>335</ele>
        <time>2019-01-10T10:43:39Z</time>
      </trkpt>
      <trkpt lat="50.42554" lon="5.85969">
        <ele>337</ele>
        <time>2019-01-10T10:44:39Z</time>
      </trkpt>
      <trkpt lat="50.42572" lon="5.85965">
        <ele>338</ele>
        <time>2019-01-10T10:45:39Z</time>
      </trkpt>
      <trkpt lat="50.42627" lon="5.85939">
        <ele>343</ele>
        <time>2019-01-10T10:46:39Z</time>
      </trkpt>
      <trkpt lat="50.42671" lon="5.85923">
        <ele>347</ele>
        <time>2019-01-10T10:47:39Z</time>
      </trkpt>
      <trkpt lat="50.42791" lon="5.85865">
        <ele>360</ele>
        <time>2019-01-10T10:48:39Z</time>
      </trkpt>
      <trkpt lat="50.42823" lon="5.85855">
        <ele>362</ele>
        <time>2019-01-10T10:49:39Z</time>
      </trkpt>
      <trkpt lat="50.42855" lon="5.85842">
        <ele>366</ele>
        <time>2019-01-10T10:50:39Z</time>
      </trkpt>
      <trkpt lat="50.42869" lon="5.85842">
        <ele>368</ele>
        <time>2019-01-10T10:51:39Z</time>
      </trkpt>
      <trkpt lat="50.42881" lon="5.85847">
        <ele>369</ele>
        <time>2019-01-10T10:52:39Z</time>
      </trkpt>
      <trkpt lat="50.42888" lon="5.85852">
        <ele>370</ele>
        <time>2019-01-10T10:53:39Z</time>
      </trkpt>
      <trkpt lat="50.42902" lon="5.85871">
        <ele>371</ele>
        <time>2019-01-10T10:54:39Z</time>
      </trkpt>
      <trkpt lat="50.42907" lon="5.85886">
        <ele>371</ele>
        <time>2019-01-10T10:55:39Z</time>
      </trkpt>
      <trkpt lat="50.4291" lon="5.85904">
        <ele>370</ele>
        <time>2019-01-10T10:56:39Z</time>
      </trkpt>
      <trkpt lat="50.42912" lon="5.85922">
        <ele>371</ele>
        <time>2019-01-10T10:57:39Z</time>
      </trkpt>
      <trkpt lat="50.4291" lon="5.85944">
        <ele>374</ele>
        <time>2019-01-10T10:58:39Z</time>
      </trkpt>
      <trkpt lat="50.42907" lon="5.85957">
        <ele>376</ele>
        <time>2019-01-10T10:59:39Z</time>
      </trkpt>
      <trkpt lat="50.42895" lon="5.85979">
        <ele>377</ele>
        <time>2019-01-10T11:00:39Z</time>
      </trkpt>
      <trkpt lat="50.42881" lon="5.86002">
        <ele>378</ele>
        <time>2019-01-10T11:01:39Z</time>
      </trkpt>
      <trkpt lat="50.4285" lon="5.86048">
        <ele>380</ele>
        <time>2019-01-10T11:02:39Z</time>
      </trkpt>
      <trkpt lat="50.42836" lon="5.86076">
        <ele>382</ele>
        <time>2019-01-10T11:03:39Z</time>
      </trkpt>
      <trkpt lat="50.42793" lon="5.86177">
        <ele>387</ele>
        <time>2019-01-10T11:04:39Z</time>
      </trkpt>
      <trkpt lat="50.4269" lon="5.86382">
        <ele>392</ele>
        <time>2019-01-10T11:05:39Z</time>
      </trkpt>
      <trkpt lat="50.42671" lon="5.86418">
        <ele>393</ele>
        <time>2019-01-10T11:06:39Z</time>
      </trkpt>
      <trkpt lat="50.42666" lon="5.86432">
        <ele>393</ele>
        <time>2019-01-10T11:07:39Z</time>
      </trkpt>
      <trkpt lat="50.42662" lon="5.86448">
        <ele>394</ele>
        <time>2019-01-10T11:08:39Z</time>
      </trkpt>
      <trkpt lat="50.42659" lon="5.86465">
        <ele>395</ele>
        <time>2019-01-10T11:09:39Z</time>
      </trkpt>
      <trkpt lat="50.42655" lon="5.86504">
        <ele>398</ele>
        <time>2019-01-10T11:10:39Z</time>
      </trkpt>
      <trkpt lat="50.42647" lon="5.86613">
        <ele>399</ele>
        <time>2019-01-10T11:11:39Z</time>
      </trkpt>
      <trkpt lat="50.42649" lon="5.86627">
        <ele>400</ele>
        <time>2019-01-10T11:12:39Z</time>
      </trkpt>
      <trkpt lat="50.42658" lon="5.86654">
        <ele>401</ele>
        <time>2019-01-10T11:13:39Z</time>
      </trkpt>
      <trkpt lat="50.42673" lon="5.86687">
        <ele>404</ele>
        <time>2019-01-10T11:14:39Z</time>
      </trkpt>
      <trkpt lat="50.42717" lon="5.86769">
        <ele>412</ele>
        <time>2019-01-10T11:15:39Z</time>
      </trkpt>
      <trkpt lat="50.42747" lon="5.8682">
        <ele>418</ele>
        <time>2019-01-10T11:16:39Z</time>
      </trkpt>
      <trkpt lat="50.42828" lon="5.86972">
        <ele>431</ele>
        <time>2019-01-10T11:17:39Z</time>
      </trkpt>
      <trkpt lat="50.42868" lon="5.87044">
        <ele>435</ele>
        <time>2019-01-10T11:18:39Z</time>
      </trkpt>
      <trkpt lat="50.42887" lon="5.87077">
        <ele>436</ele>
        <time>2019-01-10T11:19:39Z</time>
      </trkpt>
      <trkpt lat="50.42905" lon="5.87102">
        <ele>438</ele>
        <time>2019-01-10T11:20:39Z</time>
      </trkpt>
      <trkpt lat="50.42931" lon="5.87136">
        <ele>440</ele>
        <time>2019-01-10T11:21:39Z</time>
      </trkpt>
      <trkpt lat="50.42989" lon="5.87184">
        <ele>444</ele>
        <time>2019-01-10T11:22:39Z</time>
      </trkpt>
      <trkpt lat="50.43019" lon="5.87214">
        <ele>444</ele>
        <time>2019-01-10T11:23:39Z</time>
      </trkpt>
      <trkpt lat="50.43087" lon="5.8728">
        <ele>441</ele>
        <time>2019-01-10T11:24:39Z</time>
      </trkpt>
      <trkpt lat="50.43165" lon="5.87326">
        <ele>445</ele>
        <time>2019-01-10T11:25:39Z</time>
      </trkpt>
      <trkpt lat="50.43197" lon="5.87342">
        <ele>446</ele>
        <time>2019-01-10T11:26:39Z</time>
      </trkpt>
      <trkpt lat="50.43209" lon="5.8734">
        <ele>447</ele>
        <time>2019-01-10T11:27:39Z</time>
      </trkpt>
      <trkpt lat="50.43219" lon="5.87333">
        <ele>449</ele>
        <time>2019-01-10T11:28:39Z</time>
      </trkpt>
      <trkpt lat="50.43228" lon="5.8732">
        <ele>450</ele>
        <time>2019-01-10T11:29:39Z</time>
      </trkpt>
      <trkpt lat="50.43233" lon="5.87305">
        <ele>452</ele>
        <time>2019-01-10T11:30:39Z</time>
      </trkpt>
      <trkpt lat="50.43235" lon="5.87285">
        <ele>453</ele>
        <time>2019-01-10T11:31:39Z</time>
      </trkpt>
      <trkpt lat="50.43231" lon="5.87255">
        <ele>455</ele>
        <time>2019-01-10T11:32:39Z</time>
      </trkpt>
      <trkpt lat="50.4322" lon="5.87235">
        <ele>456</ele>
        <time>2019-01-10T11:33:39Z</time>
      </trkpt>
      <trkpt lat="50.43186" lon="5.87171">
        <ele>457</ele>
        <time>2019-01-10T11:34:39Z</time>
      </trkpt>
      <trkpt lat="50.43182" lon="5.87154">
        <ele>458</ele>
        <time>2019-01-10T11:35:39Z</time>
      </trkpt>
      <trkpt lat="50.43183" lon="5.87137">
        <ele>459</ele>
        <time>2019-01-10T11:36:39Z</time>
      </trkpt>
      <trkpt lat="50.43188" lon="5.87122">
        <ele>460</ele>
        <time>2019-01-10T11:37:39Z</time>
      </trkpt>
      <trkpt lat="50.43195" lon="5.87108">
        <ele>462</ele>
        <time>2019-01-10T11:38:39Z</time>
      </trkpt>
      <trkpt lat="50.43207" lon="5.87101">
        <ele>463</ele>
        <time>2019-01-10T11:39:39Z</time>
      </trkpt>
      <trkpt lat="50.43221" lon="5.87099">
        <ele>465</ele>
        <time>2019-01-10T11:40:39Z</time>
      </trkpt>
      <trkpt lat="50.43235" lon="5.871">
        <ele>466</ele>
        <time>2019-01-10T11:41:39Z</time>
      </trkpt>
      <trkpt lat="50.4325" lon="5.87103">
        <ele>467</ele>
        <time>2019-01-10T11:42:39Z</time>
      </trkpt>
      <trkpt lat="50.43275" lon="5.87105">
        <ele>468</ele>
        <time>2019-01-10T11:43:39Z</time>
      </trkpt>
      <trkpt lat="50.43294" lon="5.87103">
        <ele>469</ele>
        <time>2019-01-10T11:44:39Z</time>
      </trkpt>
      <trkpt lat="50.43314" lon="5.87099">
        <ele>471</ele>
        <time>2019-01-10T11:45:39Z</time>
      </trkpt>
      <trkpt lat="50.43344" lon="5.87086">
        <ele>473</ele>
        <time>2019-01-10T11:46:39Z</time>
      </trkpt>
      <trkpt lat="50.43402" lon="5.87044">
        <ele>479</ele>
        <time>2019-01-10T11:47:39Z</time>
      </trkpt>
      <trkpt lat="50.43439" lon="5.87022">
        <ele>481</ele>
        <time>2019-01-10T11:48:39Z</time>
      </trkpt>
      <trkpt lat="50.43459" lon="5.87016">
        <ele>482</ele>
        <time>2019-01-10T11:49:39Z</time>
      </trkpt>
      <trkpt lat="50.4347" lon="5.87001">
        <ele>483</ele>
        <time>2019-01-10T11:50:39Z</time>
      </trkpt>
      <trkpt lat="50.43478" lon="5.86977">
        <ele>485</ele>
        <time>2019-01-10T11:51:39Z</time>
      </trkpt>
      <trkpt lat="50.43483" lon="5.8695">
        <ele>488</ele>
        <time>2019-01-10T11:52:39Z</time>
      </trkpt>
      <trkpt lat="50.43492" lon="5.86925">
        <ele>490</ele>
        <time>2019-01-10T11:53:39Z</time>
      </trkpt>
      <trkpt lat="50.43498" lon="5.86913">
        <ele>491</ele>
        <time>2019-01-10T11:54:39Z</time>
      </trkpt>
      <trkpt lat="50.43504" lon="5.86908">
        <ele>492</ele>
        <time>2019-01-10T11:55:39Z</time>
      </trkpt>
      <trkpt lat="50.43522" lon="5.86916">
        <ele>491</ele>
        <time>2019-01-10T11:56:39Z</time>
      </trkpt>
      <trkpt lat="50.43532" lon="5.86923">
        <ele>491</ele>
        <time>2019-01-10T11:57:39Z</time>
      </trkpt>
      <trkpt lat="50.43552" lon="5.8694">
        <ele>489</ele>
        <time>2019-01-10T11:58:39Z</time>
      </trkpt>
      <trkpt lat="50.43584" lon="5.86967">
        <ele>488</ele>
        <time>2019-01-10T11:59:39Z</time>
      </trkpt>
      <trkpt lat="50.43603" lon="5.86978">
        <ele>488</ele>
        <time>2019-01-10T12:00:39Z</time>
      </trkpt>
      <trkpt lat="50.43623" lon="5.86986">
        <ele>489</ele>
        <time>2019-01-10T12:01:39Z</time>
      </trkpt>
      <trkpt lat="50.4366" lon="5.86995">
        <ele>491</ele>
        <time>2019-01-10T12:02:39Z</time>
      </trkpt>
      <trkpt lat="50.43954" lon="5.87036">
        <ele>504</ele>
        <time>2019-01-10T12:03:39Z</time>
      </trkpt>
      <trkpt lat="50.44067" lon="5.87053">
        <ele>507</ele>
        <time>2019-01-10T12:04:39Z</time>
      </trkpt>
      <trkpt lat="50.44166" lon="5.87073">
        <ele>514</ele>
        <time>2019-01-10T12:05:39Z</time>
      </trkpt>
      <trkpt lat="50.44268" lon="5.87113">
        <ele>519</ele>
        <time>2019-01-10T12:06:39Z</time>
      </trkpt>
      <trkpt lat="50.44344" lon="5.87166">
        <ele>522</ele>
        <time>2019-01-10T12:07:39Z</time>
      </trkpt>
      <trkpt lat="50.44418" lon="5.8722">
        <ele>525</ele>
        <time>2019-01-10T12:08:39Z</time>
      </trkpt>
      <trkpt lat="50.44544" lon="5.87313">
        <ele>536</ele>
        <time>2019-01-10T12:09:39Z</time>
      </trkpt>
      <trkpt lat="50.44583" lon="5.87345">
        <ele>539</ele>
        <time>2019-01-10T12:10:39Z</time>
      </trkpt>
      <trkpt lat="50.44603" lon="5.87366">
        <ele>539</ele>
        <time>2019-01-10T12:11:39Z</time>
      </trkpt>
      <trkpt lat="50.4462" lon="5.87387">
        <ele>539</ele>
        <time>2019-01-10T12:12:39Z</time>
      </trkpt>
      <trkpt lat="50.44641" lon="5.87415">
        <ele>539</ele>
        <time>2019-01-10T12:13:39Z</time>
      </trkpt>
      <trkpt lat="50.44704" lon="5.87527">
        <ele>542</ele>
        <time>2019-01-10T12:14:39Z</time>
      </trkpt>
      <trkpt lat="50.44764" lon="5.87639">
        <ele>547</ele>
        <time>2019-01-10T12:15:39Z</time>
      </trkpt>
      <trkpt lat="50.44793" lon="5.87702">
        <ele>548</ele>
        <time>2019-01-10T12:16:39Z</time>
      </trkpt>
      <trkpt lat="50.44848" lon="5.8781">
        <ele>553</ele>
        <time>2019-01-10T12:17:39Z</time>
      </trkpt>
      <trkpt lat="50.44877" lon="5.87872">
        <ele>556</ele>
        <time>2019-01-10T12:18:39Z</time>
      </trkpt>
      <trkpt lat="50.44908" lon="5.87919">
        <ele>559</ele>
        <time>2019-01-10T12:19:39Z</time>
      </trkpt>
      <trkpt lat="50.44956" lon="5.87974">
        <ele>565</ele>
        <time>2019-01-10T12:20:39Z</time>
      </trkpt>
      <trkpt lat="50.44995" lon="5.88011">
        <ele>569</ele>
        <time>2019-01-10T12:21:39Z</time>
      </trkpt>
      <trkpt lat="50.45011" lon="5.8802">
        <ele>569</ele>
        <time>2019-01-10T12:22:39Z</time>
      </trkpt>
      <trkpt lat="50.45108" lon="5.88062">
        <ele>565</ele>
        <time>2019-01-10T12:23:39Z</time>
      </trkpt>
      <trkpt lat="50.45221" lon="5.88103">
        <ele>567</ele>
        <time>2019-01-10T12:24:39Z</time>
      </trkpt>
      <trkpt lat="50.45367" lon="5.88154">
        <ele>563</ele>
        <time>2019-01-10T12:25:39Z</time>
      </trkpt>
      <trkpt lat="50.45615" lon="5.88208">
        <ele>551</ele>
        <time>2019-01-10T12:26:39Z</time>
      </trkpt>
      <trkpt lat="50.45811" lon="5.8825">
        <ele>541</ele>
        <time>2019-01-10T12:27:39Z</time>
      </trkpt>
      <trkpt lat="50.45832" lon="5.88242">
        <ele>539</ele>
        <time>2019-01-10T12:28:39Z</time>
      </trkpt>
      <trkpt lat="50.45861" lon="5.88218">
        <ele>535</ele>
        <time>2019-01-10T12:29:39Z</time>
      </trkpt>
      <trkpt lat="50.45885" lon="5.88185">
        <ele>532</ele>
        <time>2019-01-10T12:30:39Z</time>
      </trkpt>
      <trkpt lat="50.459" lon="5.88151">
        <ele>530</ele>
        <time>2019-01-10T12:31:39Z</time>
      </trkpt>
      <trkpt lat="50.4591" lon="5.88112">
        <ele>529</ele>
        <time>2019-01-10T12:32:39Z</time>
      </trkpt>
      <trkpt lat="50.45911" lon="5.88068">
        <ele>528</ele>
        <time>2019-01-10T12:33:39Z</time>
      </trkpt>
      <trkpt lat="50.45907" lon="5.87988">
        <ele>527</ele>
        <time>2019-01-10T12:34:39Z</time>
      </trkpt>
      <trkpt lat="50.45905" lon="5.87899">
        <ele>522</ele>
        <time>2019-01-10T12:35:39Z</time>
      </trkpt>
      <trkpt lat="50.45907" lon="5.8785">
        <ele>519</ele>
        <time>2019-01-10T12:36:39Z</time>
      </trkpt>
      <trkpt lat="50.45925" lon="5.8776">
        <ele>514</ele>
        <time>2019-01-10T12:37:39Z</time>
      </trkpt>
      <trkpt lat="50.45957" lon="5.87605">
        <ele>508</ele>
        <time>2019-01-10T12:38:39Z</time>
      </trkpt>
      <trkpt lat="50.45967" lon="5.87535">
        <ele>507</ele>
        <time>2019-01-10T12:39:39Z</time>
      </trkpt>
      <trkpt lat="50.45977" lon="5.87469">
        <ele>505</ele>
        <time>2019-01-10T12:40:39Z</time>
      </trkpt>
      <trkpt lat="50.45982" lon="5.87377">
        <ele>503</ele>
        <time>2019-01-10T12:41:39Z</time>
      </trkpt>
      <trkpt lat="50.45986" lon="5.87274">
        <ele>498</ele>
        <time>2019-01-10T12:42:39Z</time>
      </trkpt>
      <trkpt lat="50.45993" lon="5.87151">
        <ele>496</ele>
        <time>2019-01-10T12:43:39Z</time>
      </trkpt>
      <trkpt lat="50.45996" lon="5.87089">
        <ele>495</ele>
        <time>2019-01-10T12:44:39Z</time>
      </trkpt>
      <trkpt lat="50.45998" lon="5.87064">
        <ele>495</ele>
        <time>2019-01-10T12:45:39Z</time>
      </trkpt>
      <trkpt lat="50.46001" lon="5.87044">
        <ele>494</ele>
        <time>2019-01-10T12:46:39Z</time>
      </trkpt>
      <trkpt lat="50.46005" lon="5.87026">
        <ele>494</ele>
        <time>2019-01-10T12:47:39Z</time>
      </trkpt>
      <trkpt lat="50.46012" lon="5.8701">
        <ele>493</ele>
        <time>2019-01-10T12:48:39Z</time>
      </trkpt>
      <trkpt lat="50.46022" lon="5.86999">
        <ele>491</ele>
        <time>2019-01-10T12:49:39Z</time>
      </trkpt>
      <trkpt lat="50.46034" lon="5.86993">
        <ele>490</ele>
        <time>2019-01-10T12:50:39Z</time>
      </trkpt>
      <trkpt lat="50.46047" lon="5.86993">
        <ele>487</ele>
        <time>2019-01-10T12:51:39Z</time>
      </trkpt>
      <trkpt lat="50.4606" lon="5.86997">
        <ele>485</ele>
        <time>2019-01-10T12:52:39Z</time>
      </trkpt>
      <trkpt lat="50.46095" lon="5.87029">
        <ele>480</ele>
        <time>2019-01-10T12:53:39Z</time>
      </trkpt>
      <trkpt lat="50.46117" lon="5.87052">
        <ele>479</ele>
        <time>2019-01-10T12:54:39Z</time>
      </trkpt>
      <trkpt lat="50.46142" lon="5.87071">
        <ele>477</ele>
        <time>2019-01-10T12:55:39Z</time>
      </trkpt>
      <trkpt lat="50.46219" lon="5.87128">
        <ele>472</ele>
        <time>2019-01-10T12:56:39Z</time>
      </trkpt>
      <trkpt lat="50.46301" lon="5.87187">
        <ele>465</ele>
        <time>2019-01-10T12:57:39Z</time>
      </trkpt>
      <trkpt lat="50.46395" lon="5.87234">
        <ele>460</ele>
        <time>2019-01-10T12:58:39Z</time>
      </trkpt>
      <trkpt lat="50.46471" lon="5.87271">
        <ele>457</ele>
        <time>2019-01-10T12:59:39Z</time>
      </trkpt>
      <trkpt lat="50.46525" lon="5.87293">
        <ele>453</ele>
        <time>2019-01-10T13:00:39Z</time>
      </trkpt>
      <trkpt lat="50.4656" lon="5.87291">
        <ele>451</ele>
        <time>2019-01-10T13:01:39Z</time>
      </trkpt>
      <trkpt lat="50.46583" lon="5.87279">
        <ele>448</ele>
        <time>2019-01-10T13:02:39Z</time>
      </trkpt>
      <trkpt lat="50.46629" lon="5.87244">
        <ele>444</ele>
        <time>2019-01-10T13:03:39Z</time>
      </trkpt>
      <trkpt lat="50.46644" lon="5.87221">
        <ele>442</ele>
        <time>2019-01-10T13:04:39Z</time>
      </trkpt>
      <trkpt lat="50.46735" lon="5.87167">
        <ele>438</ele>
        <time>2019-01-10T13:05:39Z</time>
      </trkpt>
      <trkpt lat="50.46766" lon="5.8714">
        <ele>437</ele>
        <time>2019-01-10T13:06:39Z</time>
      </trkpt>
      <trkpt lat="50.46833" lon="5.87084">
        <ele>434</ele>
        <time>2019-01-10T13:07:39Z</time>
      </trkpt>
      <trkpt lat="50.46922" lon="5.87037">
        <ele>424</ele>
        <time>2019-01-10T13:08:39Z</time>
      </trkpt>
      <trkpt lat="50.46945" lon="5.87033">
        <ele>422</ele>
        <time>2019-01-10T13:09:39Z</time>
      </trkpt>
      <trkpt lat="50.46966" lon="5.87036">
        <ele>420</ele>
        <time>2019-01-10T13:10:39Z</time>
      </trkpt>
      <trkpt lat="50.4699" lon="5.87043">
        <ele>418</ele>
        <time>2019-01-10T13:11:39Z</time>
      </trkpt>
      <trkpt lat="50.46998" lon="5.87033">
        <ele>417</ele>
        <time>2019-01-10T13:12:39Z</time>
      </trkpt>
      <trkpt lat="50.46998" lon="5.87017">
        <ele>417</ele>
        <time>2019-01-10T13:13:39Z</time>
      </trkpt>
      <trkpt lat="50.46989" lon="5.87002">
        <ele>417</ele>
        <time>2019-01-10T13:14:39Z</time>
      </trkpt>
      <trkpt lat="50.4697" lon="5.86988">
        <ele>417</ele>
        <time>2019-01-10T13:15:39Z</time>
      </trkpt>
      <trkpt lat="50.46879" lon="5.86923">
        <ele>414</ele>
        <time>2019-01-10T13:16:39Z</time>
      </trkpt>
      <trkpt lat="50.46869" lon="5.86918">
        <ele>414</ele>
        <time>2019-01-10T13:17:39Z</time>
      </trkpt>
      <trkpt lat="50.46857" lon="5.86914">
        <ele>413</ele>
        <time>2019-01-10T13:18:39Z</time>
      </trkpt>
      <trkpt lat="50.46845" lon="5.86913">
        <ele>413</ele>
        <time>2019-01-10T13:19:39Z</time>
      </trkpt>
      <trkpt lat="50.46833" lon="5.86914">
        <ele>413</ele>
        <time>2019-01-10T13:20:39Z</time>
      </trkpt>
      <trkpt lat="50.46812" lon="5.86919">
        <ele>414</ele>
        <time>2019-01-10T13:21:39Z</time>
      </trkpt>
      <trkpt lat="50.46797" lon="5.86923">
        <ele>415</ele>
        <time>2019-01-10T13:22:39Z</time>
      </trkpt>
      <trkpt lat="50.46785" lon="5.86916">
        <ele>414</ele>
        <time>2019-01-10T13:23:39Z</time>
      </trkpt>
      <trkpt lat="50.46781" lon="5.86899">
        <ele>412</ele>
        <time>2019-01-10T13:24:39Z</time>
      </trkpt>
      <trkpt lat="50.46783" lon="5.86888">
        <ele>411</ele>
        <time>2019-01-10T13:25:39Z</time>
      </trkpt>
      <trkpt lat="50.46794" lon="5.86882">
        <ele>410</ele>
        <time>2019-01-10T13:26:39Z</time>
      </trkpt>
      <trkpt lat="50.46806" lon="5.86878">
        <ele>409</ele>
        <time>2019-01-10T13:27:39Z</time>
      </trkpt>
      <trkpt lat="50.46827" lon="5.86877">
        <ele>408</ele>
        <time>2019-01-10T13:28:39Z</time>
      </trkpt>
      <trkpt lat="50.46864" lon="5.86881">
        <ele>408</ele>
        <time>2019-01-10T13:29:39Z</time>
      </trkpt>
      <trkpt lat="50.46912" lon="5.86895">
        <ele>411</ele>
        <time>2019-01-10T13:30:39Z</time>
      </trkpt>
      <trkpt lat="50.46984" lon="5.86862">
        <ele>402</ele>
        <time>2019-01-10T13:31:39Z</time>
      </trkpt>
      <trkpt lat="50.47066" lon="5.86822">
        <ele>394</ele>
        <time>2019-01-10T13:32:39Z</time>
      </trkpt>
      <trkpt lat="50.47095" lon="5.86816">
        <ele>392</ele>
        <time>2019-01-10T13:33:39Z</time>
      </trkpt>
      <trkpt lat="50.47146" lon="5.86828">
        <ele>390</ele>
        <time>2019-01-10T13:34:39Z</time>
      </trkpt>
      <trkpt lat="50.47287" lon="5.86858">
        <ele>381</ele>
        <time>2019-01-10T13:35:39Z</time>
      </trkpt>
      <trkpt lat="50.47338" lon="5.86872">
        <ele>379</ele>
        <time>2019-01-10T13:36:39Z</time>
      </trkpt>
      <trkpt lat="50.47375" lon="5.86904">
        <ele>378</ele>
        <time>2019-01-10T13:37:39Z</time>
      </trkpt>
      <trkpt lat="50.47419" lon="5.86919">
        <ele>374</ele>
        <time>2019-01-10T13:38:39Z</time>
      </trkpt>
      <trkpt lat="50.47485" lon="5.86896">
        <ele>368</ele>
        <time>2019-01-10T13:39:39Z</time>
      </trkpt>
      <trkpt lat="50.47536" lon="5.86874">
        <ele>364</ele>
        <time>2019-01-10T13:40:39Z</time>
      </trkpt>
      <trkpt lat="50.47604" lon="5.8684">
        <ele>358</ele>
        <time>2019-01-10T13:41:39Z</time>
      </trkpt>
      <trkpt lat="50.47626" lon="5.86826">
        <ele>354</ele>
        <time>2019-01-10T13:42:39Z</time>
      </trkpt>
      <trkpt lat="50.47631" lon="5.86809">
        <ele>352</ele>
        <time>2019-01-10T13:43:39Z</time>
      </trkpt>
      <trkpt lat="50.47626" lon="5.86794">
        <ele>352</ele>
        <time>2019-01-10T13:44:39Z</time>
      </trkpt>
      <trkpt lat="50.47583" lon="5.86751">
        <ele>355</ele>
        <time>2019-01-10T13:45:39Z</time>
      </trkpt>
      <trkpt lat="50.47554" lon="5.86735">
        <ele>354</ele>
        <time>2019-01-10T13:46:39Z</time>
      </trkpt>
      <trkpt lat="50.47509" lon="5.86687">
        <ele>350</ele>
        <time>2019-01-10T13:47:39Z</time>
      </trkpt>
      <trkpt lat="50.4745" lon="5.86566">
        <ele>335</ele>
        <time>2019-01-10T13:48:39Z</time>
      </trkpt>
      <trkpt lat="50.47409" lon="5.86486">
        <ele>329</ele>
        <time>2019-01-10T13:49:39Z</time>
      </trkpt>
      <trkpt lat="50.47396" lon="5.86457">
        <ele>329</ele>
        <time>2019-01-10T13:50:39Z</time>
      </trkpt>
      <trkpt lat="50.47392" lon="5.86439">
        <ele>329</ele>
        <time>2019-01-10T13:51:39Z</time>
      </trkpt>
      <trkpt lat="50.47391" lon="5.86422">
        <ele>328</ele>
        <time>2019-01-10T13:52:39Z</time>
      </trkpt>
      <trkpt lat="50.47394" lon="5.86403">
        <ele>328</ele>
        <time>2019-01-10T13:53:39Z</time>
      </trkpt>
      <trkpt lat="50.47399" lon="5.86387">
        <ele>327</ele>
        <time>2019-01-10T13:54:39Z</time>
      </trkpt>
      <trkpt lat="50.47415" lon="5.86355">
        <ele>325</ele>
        <time>2019-01-10T13:55:39Z</time>
      </trkpt>
      <trkpt lat="50.47425" lon="5.86342">
        <ele>324</ele>
        <time>2019-01-10T13:56:39Z</time>
      </trkpt>
      <trkpt lat="50.47434" lon="5.86333">
        <ele>323</ele>
        <time>2019-01-10T13:57:39Z</time>
      </trkpt>
      <trkpt lat="50.47531" lon="5.86243">
        <ele>316</ele>
        <time>2019-01-10T13:58:39Z</time>
      </trkpt>
      <trkpt lat="50.47587" lon="5.86197">
        <ele>312</ele>
        <time>2019-01-10T13:59:39Z</time>
      </trkpt>
      <trkpt lat="50.47602" lon="5.86188">
        <ele>311</ele>
        <time>2019-01-10T14:00:39Z</time>
      </trkpt>
      <trkpt lat="50.47618" lon="5.86188">
        <ele>309</ele>
        <time>2019-01-10T14:01:39Z</time>
      </trkpt>
      <trkpt lat="50.47691" lon="5.86196">
        <ele>305</ele>
        <time>2019-01-10T14:02:39Z</time>
      </trkpt>
      <trkpt lat="50.47811" lon="5.86203">
        <ele>309</ele>
        <time>2019-01-10T14:03:39Z</time>
      </trkpt>
      <trkpt lat="50.47843" lon="5.86186">
        <ele>307</ele>
        <time>2019-01-10T14:04:39Z</time>
      </trkpt>
      <trkpt lat="50.47871" lon="5.86157">
        <ele>305</ele>
        <time>2019-01-10T14:05:39Z</time>
      </trkpt>
      <trkpt lat="50.47913" lon="5.86123">
        <ele>304</ele>
        <time>2019-01-10T14:06:39Z</time>
      </trkpt>
      <trkpt lat="50.47952" lon="5.861">
        <ele>303</ele>
        <time>2019-01-10T14:07:39Z</time>
      </trkpt>
      <trkpt lat="50.47995" lon="5.8608">
        <ele>302</ele>
        <time>2019-01-10T14:08:39Z</time>
      </trkpt>
      <trkpt lat="50.48031" lon="5.86068">
        <ele>298</ele>
        <time>2019-01-10T14:09:39Z</time>
      </trkpt>
      <trkpt lat="50.48133" lon="5.86023">
        <ele>289</ele>
        <time>2019-01-10T14:10:39Z</time>
      </trkpt>
      <trkpt lat="50.48193" lon="5.85992">
        <ele>285</ele>
        <time>2019-01-10T14:11:39Z</time>
      </trkpt>
      <trkpt lat="50.48235" lon="5.85973">
        <ele>286</ele>
        <time>2019-01-10T14:12:39Z</time>
      </trkpt>
      <trkpt lat="50.48252" lon="5.8597">
        <ele>286</ele>
        <time>2019-01-10T14:13:39Z</time>
      </trkpt>
      <trkpt lat="50.48266" lon="5.8597">
        <ele>286</ele>
        <time>2019-01-10T14:14:39Z</time>
      </trkpt>
      <trkpt lat="50.48341" lon="5.8598">
        <ele>283</ele>
        <time>2019-01-10T14:15:39Z</time>
      </trkpt>
      <trkpt lat="50.48432" lon="5.85997">
        <ele>276</ele>
        <time>2019-01-10T14:16:39Z</time>
      </trkpt>
      <trkpt lat="50.48529" lon="5.86013">
        <ele>272</ele>
        <time>2019-01-10T14:17:39Z</time>
      </trkpt>
      <trkpt lat="50.48577" lon="5.86032">
        <ele>270</ele>
        <time>2019-01-10T14:18:39Z</time>
      </trkpt>
      <trkpt lat="50.48616" lon="5.86047">
        <ele>269</ele>
        <time>2019-01-10T14:19:39Z</time>
      </trkpt>
      <trkpt lat="50.48708" lon="5.86095">
        <ele>264</ele>
        <time>2019-01-10T14:20:39Z</time>
      </trkpt>
      <trkpt lat="50.48753" lon="5.86118">
        <ele>263</ele>
        <time>2019-01-10T14:21:39Z</time>
      </trkpt>
      <trkpt lat="50.4877" lon="5.86132">
        <ele>263</ele>
        <time>2019-01-10T14:22:39Z</time>
      </trkpt>
      <trkpt lat="50.4881" lon="5.86171">
        <ele>261</ele>
        <time>2019-01-10T14:23:39Z</time>
      </trkpt>
      <trkpt lat="50.48849" lon="5.86218">
        <ele>262</ele>
        <time>2019-01-10T14:24:39Z</time>
      </trkpt>
      <trkpt lat="50.48869" lon="5.86242">
        <ele>262</ele>
        <time>2019-01-10T14:25:39Z</time>
      </trkpt>
      <trkpt lat="50.48887" lon="5.86255">
        <ele>262</ele>
        <time>2019-01-10T14:26:39Z</time>
      </trkpt>
      <trkpt lat="50.48957" lon="5.86297">
        <ele>261</ele>
        <time>2019-01-10T14:27:39Z</time>
      </trkpt>
      <trkpt lat="50.48997" lon="5.86317">
        <ele>260</ele>
        <time>2019-01-10T14:28:39Z</time>
      </trkpt>
      <trkpt lat="50.49033" lon="5.86336">
        <ele>259</ele>
        <time>2019-01-10T14:29:39Z</time>
      </trkpt>
      <trkpt lat="50.49055" lon="5.86342">
        <ele>258</ele>
        <time>2019-01-10T14:30:39Z</time>
      </trkpt>
      <trkpt lat="50.49068" lon="5.86344">
        <ele>258</ele>
        <time>2019-01-10T14:31:39Z</time>
      </trkpt>
      <trkpt lat="50.49098" lon="5.86332">
        <ele>256</ele>
        <time>2019-01-10T14:32:39Z</time>
      </trkpt>
      <trkpt lat="50.49114" lon="5.86319">
        <ele>256</ele>
        <time>2019-01-10T14:33:39Z</time>
      </trkpt>
      <trkpt lat="50.49134" lon="5.86293">
        <ele>255</ele>
        <time>2019-01-10T14:34:39Z</time>
      </trkpt>
      <trkpt lat="50.4915" lon="5.86269">
        <ele>254</ele>
        <time>2019-01-10T14:35:39Z</time>
      </trkpt>
      <trkpt lat="50.49169" lon="5.86241">
        <ele>253</ele>
        <time>2019-01-10T14:36:39Z</time>
      </trkpt>
      <trkpt lat="50.49199" lon="5.86282">
        <ele>253</ele>
        <time>2019-01-10T14:37:39Z</time>
      </trkpt>
      <trkpt lat="50.49221" lon="5.86302">
        <ele>252</ele>
        <time>2019-01-10T14:38:39Z</time>
      </trkpt>
      <trkpt lat="50.49231" lon="5.86299">
        <ele>252</ele>
        <time>2019-01-10T14:39:39Z</time>
      </trkpt>
      <trkpt lat="50.49232" lon="5.86272">
        <ele>251</ele>
        <time>2019-01-10T14:40:39Z</time>
      </trkpt>
      <trkpt lat="50.4923" lon="5.8622">
        <ele>250</ele>
        <time>2019-01-10T14:41:39Z</time>
      </trkpt>
      <trkpt lat="50.49219" lon="5.86108">
        <ele>250</ele>
        <time>2019-01-10T14:42:39Z</time>
      </trkpt>
      <trkpt lat="50.49197" lon="5.85969">
        <ele>251</ele>
        <time>2019-01-10T14:43:39Z</time>
      </trkpt>
      <trkpt lat="50.4917" lon="5.85788">
        <ele>248</ele>
        <time>2019-01-10T14:44:39Z</time>
      </trkpt>
      <trkpt lat="50.4915" lon="5.85631">
        <ele>247</ele>
        <time>2019-01-10T14:45:39Z</time>
      </trkpt>
      <trkpt lat="50.49102" lon="5.85305">
        <ele>244</ele>
        <time>2019-01-10T14:46:39Z</time>
      </trkpt>
      <trkpt lat="50.49052" lon="5.84972">
        <ele>242</ele>
        <time>2019-01-10T14:47:39Z</time>
      </trkpt>
      <trkpt lat="50.48978" lon="5.84473">
        <ele>236</ele>
        <time>2019-01-10T14:48:39Z</time>
      </trkpt>
      <trkpt lat="50.48944" lon="5.84256">
        <ele>239</ele>
        <time>2019-01-10T14:49:39Z</time>
      </trkpt>
      <trkpt lat="50.48929" lon="5.84141">
        <ele>238</ele>
        <time>2019-01-10T14:50:39Z</time>
      </trkpt>
      <trkpt lat="50.48884" lon="5.83844">
        <ele>241</ele>
        <time>2019-01-10T14:51:39Z</time>
      </trkpt>
      <trkpt lat="50.48868" lon="5.83732">
        <ele>239</ele>
        <time>2019-01-10T14:52:39Z</time>
      </trkpt>
      <trkpt lat="50.48854" lon="5.83633">
        <ele>236</ele>
        <time>2019-01-10T14:53:39Z</time>
      </trkpt>
      <trkpt lat="50.48845" lon="5.83574">
        <ele>233</ele>
        <time>2019-01-10T14:54:39Z</time>
      </trkpt>
      <trkpt lat="50.4884" lon="5.83529">
        <ele>231</ele>
        <time>2019-01-10T14:55:39Z</time>
      </trkpt>
      <trkpt lat="50.48844" lon="5.83476">
        <ele>232</ele>
        <time>2019-01-10T14:56:39Z</time>
      </trkpt>
      <trkpt lat="50.48856" lon="5.83391">
        <ele>234</ele>
        <time>2019-01-10T14:57:39Z</time>
      </trkpt>
      <trkpt lat="50.48871" lon="5.83291">
        <ele>235</ele>
        <time>2019-01-10T14:58:39Z</time>
      </trkpt>
      <trkpt lat="50.48879" lon="5.83243">
        <ele>235</ele>
        <time>2019-01-10T14:59:39Z</time>
      </trkpt>
      <trkpt lat="50.4889" lon="5.83213">
        <ele>235</ele>
        <time>2019-01-10T15:00:39Z</time>
      </trkpt>
      <trkpt lat="50.48899" lon="5.83189">
        <ele>234</ele>
        <time>2019-01-10T15:01:39Z</time>
      </trkpt>
      <trkpt lat="50.48909" lon="5.8317">
        <ele>231</ele>
        <time>2019-01-10T15:02:39Z</time>
      </trkpt>
      <trkpt lat="50.48933" lon="5.83134">
        <ele>229</ele>
        <time>2019-01-10T15:03:39Z</time>
      </trkpt>
      <trkpt lat="50.48964" lon="5.83107">
        <ele>226</ele>
        <time>2019-01-10T15:04:39Z</time>
      </trkpt>
      <trkpt lat="50.48986" lon="5.83089">
        <ele>223</ele>
        <time>2019-01-10T15:05:39Z</time>
      </trkpt>
      <trkpt lat="50.49017" lon="5.83079">
        <ele>221</ele>
        <time>2019-01-10T15:06:39Z</time>
      </trkpt>
      <trkpt lat="50.49037" lon="5.83076">
        <ele>222</ele>
        <time>2019-01-10T15:07:39Z</time>
      </trkpt>
      <trkpt lat="50.49032" lon="5.8305">
        <ele>223</ele>
        <time>2019-01-10T15:08:39Z</time>
      </trkpt>
      <trkpt lat="50.49027" lon="5.83038">
        <ele>224</ele>
        <time>2019-01-10T15:09:39Z</time>
      </trkpt>
      <trkpt lat="50.49015" lon="5.83025">
        <ele>224</ele>
        <time>2019-01-10T15:10:39Z</time>
      </trkpt>
      <trkpt lat="50.48998" lon="5.82998">
        <ele>224</ele>
        <time>2019-01-10T15:11:39Z</time>
      </trkpt>
      <trkpt lat="50.48972" lon="5.82961">
        <ele>229</ele>
        <time>2019-01-10T15:12:39Z</time>
      </trkpt>
      <trkpt lat="50.48942" lon="5.82932">
        <ele>228</ele>
        <time>2019-01-10T15:13:39Z</time>
      </trkpt>
      <trkpt lat="50.48905" lon="5.82905">
        <ele>227</ele>
        <time>2019-01-10T15:14:39Z</time>
      </trkpt>
      <trkpt lat="50.48832" lon="5.82855">
        <ele>232</ele>
        <time>2019-01-10T15:15:39Z</time>
      </trkpt>
      <trkpt lat="50.48817" lon="5.8285">
        <ele>233</ele>
        <time>2019-01-10T15:16:39Z</time>
      </trkpt>
      <trkpt lat="50.488" lon="5.82848">
        <ele>234</ele>
        <time>2019-01-10T15:17:39Z</time>
      </trkpt>
      <trkpt lat="50.4878" lon="5.82847">
        <ele>235</ele>
        <time>2019-01-10T15:18:39Z</time>
      </trkpt>
      <trkpt lat="50.48756" lon="5.82853">
        <ele>236</ele>
        <time>2019-01-10T15:19:39Z</time>
      </trkpt>
      <trkpt lat="50.48662" lon="5.82874">
        <ele>238</ele>
        <time>2019-01-10T15:20:39Z</time>
      </trkpt>
      <trkpt lat="50.48652" lon="5.82875">
        <ele>239</ele>
        <time>2019-01-10T15:21:39Z</time>
      </trkpt>
      <trkpt lat="50.48646" lon="5.82872">
        <ele>239</ele>
        <time>2019-01-10T15:22:39Z</time>
      </trkpt>
      <trkpt lat="50.48649" lon="5.82857">
        <ele>240</ele>
        <time>2019-01-10T15:23:39Z</time>
      </trkpt>
      <trkpt lat="50.48657" lon="5.8285">
        <ele>239</ele>
        <time>2019-01-10T15:24:39Z</time>
      </trkpt>
      <trkpt lat="50.48734" lon="5.828">
        <ele>244</ele>
        <time>2019-01-10T15:25:39Z</time>
      </trkpt>
      <trkpt lat="50.48787" lon="5.82766">
        <ele>250</ele>
        <time>2019-01-10T15:26:39Z</time>
      </trkpt>
      <trkpt lat="50.48801" lon="5.82762">
        <ele>250</ele>
        <time>2019-01-10T15:27:39Z</time>
      </trkpt>
      <trkpt lat="50.48828" lon="5.82767">
        <ele>248</ele>
        <time>2019-01-10T15:28:39Z</time>
      </trkpt>
      <trkpt lat="50.48865" lon="5.82779">
        <ele>246</ele>
        <time>2019-01-10T15:29:39Z</time>
      </trkpt>
      <trkpt lat="50.48877" lon="5.82779">
        <ele>247</ele>
        <time>2019-01-10T15:30:39Z</time>
      </trkpt>
      <trkpt lat="50.48884" lon="5.82772">
        <ele>248</ele>
        <time>2019-01-10T15:31:39Z</time>
      </trkpt>
      <trkpt lat="50.48889" lon="5.82761">
        <ele>251</ele>
        <time>2019-01-10T15:32:39Z</time>
      </trkpt>
      <trkpt lat="50.48892" lon="5.8274">
        <ele>253</ele>
        <time>2019-01-10T15:33:39Z</time>
      </trkpt>
      <trkpt lat="50.48897" lon="5.82723">
        <ele>254</ele>
        <time>2019-01-10T15:34:39Z</time>
      </trkpt>
      <trkpt lat="50.4892" lon="5.82715">
        <ele>254</ele>
        <time>2019-01-10T15:35:39Z</time>
      </trkpt>
      <trkpt lat="50.4893" lon="5.82724">
        <ele>254</ele>
        <time>2019-01-10T15:36:39Z</time>
      </trkpt>
      <trkpt lat="50.48937" lon="5.82733">
        <ele>254</ele>
        <time>2019-01-10T15:37:39Z</time>
      </trkpt>
      <trkpt lat="50.48945" lon="5.82741">
        <ele>254</ele>
        <time>2019-01-10T15:38:39Z</time>
      </trkpt>
      <trkpt lat="50.48955" lon="5.82748">
        <ele>254</ele>
        <time>2019-01-10T15:39:39Z</time>
      </trkpt>
      <trkpt lat="50.48966" lon="5.82744">
        <ele>254</ele>
        <time>2019-01-10T15:40:39Z</time>
      </trkpt>
      <trkpt lat="50.48976" lon="5.82735">
        <ele>255</ele>
        <time>2019-01-10T15:41:39Z</time>
      </trkpt>
      <trkpt lat="50.48984" lon="5.82723">
        <ele>255</ele>
        <time>2019-01-10T15:42:39Z</time>
      </trkpt>
      <trkpt lat="50.48985" lon="5.82689">
        <ele>256</ele>
        <time>2019-01-10T15:43:39Z</time>
      </trkpt>
      <trkpt lat="50.4897" lon="5.82573">
        <ele>259</ele>
        <time>2019-01-10T15:44:39Z</time>
      </trkpt>
      <trkpt lat="50.48958" lon="5.82496">
        <ele>265</ele>
        <time>2019-01-10T15:45:39Z</time>
      </trkpt>
      <trkpt lat="50.48953" lon="5.82481">
        <ele>266</ele>
        <time>2019-01-10T15:46:39Z</time>
      </trkpt>
      <trkpt lat="50.48944" lon="5.82464">
        <ele>267</ele>
        <time>2019-01-10T15:47:39Z</time>
      </trkpt>
      <trkpt lat="50.48933" lon="5.82449">
        <ele>268</ele>
        <time>2019-01-10T15:48:39Z</time>
      </trkpt>
      <trkpt lat="50.48926" lon="5.82442">
        <ele>269</ele>
        <time>2019-01-10T15:49:39Z</time>
      </trkpt>
      <trkpt lat="50.4886" lon="5.82403">
        <ele>273</ele>
        <time>2019-01-10T15:50:39Z</time>
      </trkpt>
      <trkpt lat="50.48787" lon="5.82354">
        <ele>278</ele>
        <time>2019-01-10T15:51:39Z</time>
      </trkpt>
      <trkpt lat="50.48779" lon="5.82343">
        <ele>278</ele>
        <time>2019-01-10T15:52:39Z</time>
      </trkpt>
      <trkpt lat="50.48771" lon="5.82324">
        <ele>279</ele>
        <time>2019-01-10T15:53:39Z</time>
      </trkpt>
      <trkpt lat="50.48768" lon="5.82307">
        <ele>279</ele>
        <time>2019-01-10T15:54:39Z</time>
      </trkpt>
      <trkpt lat="50.48766" lon="5.82288">
        <ele>279</ele>
        <time>2019-01-10T15:55:39Z</time>
      </trkpt>
      <trkpt lat="50.48766" lon="5.82097">
        <ele>286</ele>
        <time>2019-01-10T15:56:39Z</time>
      </trkpt>
      <trkpt lat="50.48768" lon="5.82066">
        <ele>288</ele>
        <time>2019-01-10T15:57:39Z</time>
      </trkpt>
      <trkpt lat="50.48774" lon="5.82043">
        <ele>290</ele>
        <time>2019-01-10T15:58:39Z</time>
      </trkpt>
      <trkpt lat="50.48781" lon="5.82028">
        <ele>291</ele>
        <time>2019-01-10T15:59:39Z</time>
      </trkpt>
      <trkpt lat="50.48794" lon="5.8201">
        <ele>292</ele>
        <time>2019-01-10T16:00:39Z</time>
      </trkpt>
      <trkpt lat="50.48809" lon="5.81994">
        <ele>293</ele>
        <time>2019-01-10T16:01:39Z</time>
      </trkpt>
      <trkpt lat="50.48918" lon="5.81889">
        <ele>303</ele>
        <time>2019-01-10T16:02:39Z</time>
      </trkpt>
      <trkpt lat="50.48991" lon="5.81821">
        <ele>313</ele>
        <time>2019-01-10T16:03:39Z</time>
      </trkpt>
      <trkpt lat="50.49017" lon="5.81818">
        <ele>316</ele>
        <time>2019-01-10T16:04:39Z</time>
      </trkpt>
      <trkpt lat="50.49032" lon="5.81822">
        <ele>317</ele>
        <time>2019-01-10T16:05:39Z</time>
      </trkpt>
      <trkpt lat="50.49054" lon="5.81835">
        <ele>318</ele>
        <time>2019-01-10T16:06:39Z</time>
      </trkpt>
      <trkpt lat="50.49112" lon="5.81892">
        <ele>318</ele>
        <time>2019-01-10T16:07:39Z</time>
      </trkpt>
      <trkpt lat="50.49146" lon="5.81926">
        <ele>319</ele>
        <time>2019-01-10T16:08:39Z</time>
      </trkpt>
      <trkpt lat="50.49157" lon="5.81936">
        <ele>320</ele>
        <time>2019-01-10T16:09:39Z</time>
      </trkpt>
      <trkpt lat="50.49163" lon="5.81931">
        <ele>321</ele>
        <time>2019-01-10T16:10:39Z</time>
      </trkpt>
      <trkpt lat="50.49161" lon="5.81915">
        <ele>321</ele>
        <time>2019-01-10T16:11:39Z</time>
      </trkpt>
      <trkpt lat="50.49145" lon="5.81885">
        <ele>323</ele>
        <time>2019-01-10T16:12:39Z</time>
      </trkpt>
      <trkpt lat="50.49133" lon="5.81854">
        <ele>324</ele>
        <time>2019-01-10T16:13:39Z</time>
      </trkpt>
      <trkpt lat="50.49111" lon="5.81782">
        <ele>330</ele>
        <time>2019-01-10T16:14:39Z</time>
      </trkpt>
      <trkpt lat="50.49099" lon="5.81745">
        <ele>333</ele>
        <time>2019-01-10T16:15:39Z</time>
      </trkpt>
      <trkpt lat="50.4907" lon="5.81686">
        <ele>337</ele>
        <time>2019-01-10T16:16:39Z</time>
      </trkpt>
      <trkpt lat="50.49031" lon="5.81631">
        <ele>340</ele>
        <time>2019-01-10T16:17:39Z</time>
      </trkpt>
      <trkpt lat="50.49006" lon="5.81601">
        <ele>342</ele>
        <time>2019-01-10T16:18:39Z</time>
      </trkpt>
      <trkpt lat="50.48958" lon="5.81545">
        <ele>346</ele>
        <time>2019-01-10T16:19:39Z</time>
      </trkpt>
      <trkpt lat="50.48946" lon="5.81534">
        <ele>346</ele>
        <time>2019-01-10T16:20:39Z</time>
      </trkpt>
      <trkpt lat="50.48936" lon="5.81519">
        <ele>347</ele>
        <time>2019-01-10T16:21:39Z</time>
      </trkpt>
      <trkpt lat="50.48921" lon="5.81494">
        <ele>349</ele>
        <time>2019-01-10T16:22:39Z</time>
      </trkpt>
      <trkpt lat="50.48911" lon="5.81463">
        <ele>350</ele>
        <time>2019-01-10T16:23:39Z</time>
      </trkpt>
      <trkpt lat="50.489" lon="5.8143">
        <ele>352</ele>
        <time>2019-01-10T16:24:39Z</time>
      </trkpt>
      <trkpt lat="50.4883" lon="5.81206">
        <ele>358</ele>
        <time>2019-01-10T16:25:39Z</time>
      </trkpt>
      <trkpt lat="50.4882" lon="5.81169">
        <ele>359</ele>
        <time>2019-01-10T16:26:39Z</time>
      </trkpt>
      <trkpt lat="50.48817" lon="5.81141">
        <ele>360</ele>
        <time>2019-01-10T16:27:39Z</time>
      </trkpt>
      <trkpt lat="50.48815" lon="5.81115">
        <ele>361</ele>
        <time>2019-01-10T16:28:39Z</time>
      </trkpt>
      <trkpt lat="50.48819" lon="5.81085">
        <ele>363</ele>
        <time>2019-01-10T16:29:39Z</time>
      </trkpt>
      <trkpt lat="50.48823" lon="5.81056">
        <ele>365</ele>
        <time>2019-01-10T16:30:39Z</time>
      </trkpt>
      <trkpt lat="50.4885" lon="5.80979">
        <ele>372</ele>
        <time>2019-01-10T16:31:39Z</time>
      </trkpt>
      <trkpt lat="50.4888" lon="5.80906">
        <ele>372</ele>
        <time>2019-01-10T16:32:39Z</time>
      </trkpt>
      <trkpt lat="50.48899" lon="5.80875">
        <ele>369</ele>
        <time>2019-01-10T16:33:39Z</time>
      </trkpt>
      <trkpt lat="50.48908" lon="5.80869">
        <ele>367</ele>
        <time>2019-01-10T16:34:39Z</time>
      </trkpt>
      <trkpt lat="50.4893" lon="5.80857">
        <ele>366</ele>
        <time>2019-01-10T16:35:39Z</time>
      </trkpt>
      <trkpt lat="50.48941" lon="5.80846">
        <ele>365</ele>
        <time>2019-01-10T16:36:39Z</time>
      </trkpt>
      <trkpt lat="50.48949" lon="5.80833">
        <ele>365</ele>
        <time>2019-01-10T16:37:39Z</time>
      </trkpt>
      <trkpt lat="50.48954" lon="5.8081">
        <ele>364</ele>
        <time>2019-01-10T16:38:39Z</time>
      </trkpt>
      <trkpt lat="50.48954" lon="5.80775">
        <ele>364</ele>
        <time>2019-01-10T16:39:39Z</time>
      </trkpt>
      <trkpt lat="50.48922" lon="5.80569">
        <ele>356</ele>
        <time>2019-01-10T16:40:39Z</time>
      </trkpt>
      <trkpt lat="50.48908" lon="5.8048">
        <ele>355</ele>
        <time>2019-01-10T16:41:39Z</time>
      </trkpt>
      <trkpt lat="50.48893" lon="5.80356">
        <ele>352</ele>
        <time>2019-01-10T16:42:39Z</time>
      </trkpt>
      <trkpt lat="50.48891" lon="5.80305">
        <ele>349</ele>
        <time>2019-01-10T16:43:39Z</time>
      </trkpt>
      <trkpt lat="50.48894" lon="5.80269">
        <ele>348</ele>
        <time>2019-01-10T16:44:39Z</time>
      </trkpt>
      <trkpt lat="50.48897" lon="5.8024">
        <ele>346</ele>
        <time>2019-01-10T16:45:39Z</time>
      </trkpt>
      <trkpt lat="50.48902" lon="5.80211">
        <ele>344</ele>
        <time>2019-01-10T16:46:39Z</time>
      </trkpt>
      <trkpt lat="50.48938" lon="5.80039">
        <ele>336</ele>
        <time>2019-01-10T16:47:39Z</time>
      </trkpt>
      <trkpt lat="50.48949" lon="5.79975">
        <ele>332</ele>
        <time>2019-01-10T16:48:39Z</time>
      </trkpt>
      <trkpt lat="50.48951" lon="5.79946">
        <ele>329</ele>
        <time>2019-01-10T16:49:39Z</time>
      </trkpt>
      <trkpt lat="50.48949" lon="5.79923">
        <ele>328</ele>
        <time>2019-01-10T16:50:39Z</time>
      </trkpt>
      <trkpt lat="50.48945" lon="5.7988">
        <ele>326</ele>
        <time>2019-01-10T16:51:39Z</time>
      </trkpt>
      <trkpt lat="50.48939" lon="5.79836">
        <ele>325</ele>
        <time>2019-01-10T16:52:39Z</time>
      </trkpt>
      <trkpt lat="50.48921" lon="5.79763">
        <ele>323</ele>
        <time>2019-01-10T16:53:39Z</time>
      </trkpt>
      <trkpt lat="50.4891" lon="5.79701">
        <ele>319</ele>
        <time>2019-01-10T16:54:39Z</time>
      </trkpt>
      <trkpt lat="50.48879" lon="5.79523">
        <ele>308</ele>
        <time>2019-01-10T16:55:39Z</time>
      </trkpt>
      <trkpt lat="50.48875" lon="5.7948">
        <ele>306</ele>
        <time>2019-01-10T16:56:39Z</time>
      </trkpt>
      <trkpt lat="50.48874" lon="5.79443">
        <ele>304</ele>
        <time>2019-01-10T16:57:39Z</time>
      </trkpt>
      <trkpt lat="50.48875" lon="5.79417">
        <ele>303</ele>
        <time>2019-01-10T16:58:39Z</time>
      </trkpt>
      <trkpt lat="50.48877" lon="5.79393">
        <ele>301</ele>
        <time>2019-01-10T16:59:39Z</time>
      </trkpt>
      <trkpt lat="50.4888" lon="5.79379">
        <ele>300</ele>
        <time>2019-01-10T17:00:39Z</time>
      </trkpt>
      <trkpt lat="50.48886" lon="5.79341">
        <ele>298</ele>
        <time>2019-01-10T17:01:39Z</time>
      </trkpt>
      <trkpt lat="50.48891" lon="5.79272">
        <ele>294</ele>
        <time>2019-01-10T17:02:39Z</time>
      </trkpt>
      <trkpt lat="50.48886" lon="5.79211">
        <ele>292</ele>
        <time>2019-01-10T17:03:39Z</time>
      </trkpt>
      <trkpt lat="50.4887" lon="5.79136">
        <ele>290</ele>
        <time>2019-01-10T17:04:39Z</time>
      </trkpt>
      <trkpt lat="50.48848" lon="5.79055">
        <ele>290</ele>
        <time>2019-01-10T17:05:39Z</time>
      </trkpt>
      <trkpt lat="50.48838" lon="5.79014">
        <ele>290</ele>
        <time>2019-01-10T17:06:39Z</time>
      </trkpt>
      <trkpt lat="50.48835" lon="5.79002">
        <ele>290</ele>
        <time>2019-01-10T17:07:39Z</time>
      </trkpt>
      <trkpt lat="50.48842" lon="5.78997">
        <ele>290</ele>
        <time>2019-01-10T17:08:39Z</time>
      </trkpt>
      <trkpt lat="50.48859" lon="5.78988">
        <ele>289</ele>
        <time>2019-01-10T17:09:39Z</time>
      </trkpt>
      <trkpt lat="50.48864" lon="5.78991">
        <ele>289</ele>
        <time>2019-01-10T17:10:39Z</time>
      </trkpt>
      <trkpt lat="50.48879" lon="5.79005">
        <ele>288</ele>
        <time>2019-01-10T17:11:39Z</time>
      </trkpt>
      <trkpt lat="50.48904" lon="5.7903">
        <ele>288</ele>
        <time>2019-01-10T17:12:39Z</time>
      </trkpt>
      <trkpt lat="50.48925" lon="5.79046">
        <ele>286</ele>
        <time>2019-01-10T17:13:39Z</time>
      </trkpt>
      <trkpt lat="50.48962" lon="5.79096">
        <ele>284</ele>
        <time>2019-01-10T17:14:39Z</time>
      </trkpt>
      <trkpt lat="50.48989" lon="5.79119">
        <ele>283</ele>
        <time>2019-01-10T17:15:39Z</time>
      </trkpt>
      <trkpt lat="50.49014" lon="5.79121">
        <ele>281</ele>
        <time>2019-01-10T17:16:39Z</time>
      </trkpt>
      <trkpt lat="50.4904" lon="5.79121">
        <ele>279</ele>
        <time>2019-01-10T17:17:39Z</time>
      </trkpt>
      <trkpt lat="50.49054" lon="5.79127">
        <ele>278</ele>
        <time>2019-01-10T17:18:39Z</time>
      </trkpt>
      <trkpt lat="50.49065" lon="5.79138">
        <ele>278</ele>
        <time>2019-01-10T17:19:39Z</time>
      </trkpt>
      <trkpt lat="50.49075" lon="5.79153">
        <ele>277</ele>
        <time>2019-01-10T17:20:39Z</time>
      </trkpt>
      <trkpt lat="50.49159" lon="5.79285">
        <ele>277</ele>
        <time>2019-01-10T17:21:39Z</time>
      </trkpt>
      <trkpt lat="50.49243" lon="5.79414">
        <ele>271</ele>
        <time>2019-01-10T17:22:39Z</time>
      </trkpt>
      <trkpt lat="50.4941" lon="5.79679">
        <ele>260</ele>
        <time>2019-01-10T17:23:39Z</time>
      </trkpt>
      <trkpt lat="50.49576" lon="5.79943">
        <ele>256</ele>
        <time>2019-01-10T17:24:39Z</time>
      </trkpt>
      <trkpt lat="50.49601" lon="5.79983">
        <ele>257</ele>
        <time>2019-01-10T17:25:39Z</time>
      </trkpt>
      <trkpt lat="50.49659" lon="5.80052">
        <ele>258</ele>
        <time>2019-01-10T17:26:39Z</time>
      </trkpt>
      <trkpt lat="50.49724" lon="5.80113">
        <ele>255</ele>
        <time>2019-01-10T17:27:39Z</time>
      </trkpt>
      <trkpt lat="50.4981" lon="5.80205">
        <ele>250</ele>
        <time>2019-01-10T17:28:39Z</time>
      </trkpt>
      <trkpt lat="50.50027" lon="5.80418">
        <ele>251</ele>
        <time>2019-01-10T17:29:39Z</time>
      </trkpt>
      <trkpt lat="50.50235" lon="5.80616">
        <ele>249</ele>
        <time>2019-01-10T17:30:39Z</time>
      </trkpt>
      <trkpt lat="50.50329" lon="5.80713">
        <ele>247</ele>
        <time>2019-01-10T17:31:39Z</time>
      </trkpt>
      <trkpt lat="50.50341" lon="5.80719">
        <ele>247</ele>
        <time>2019-01-10T17:32:39Z</time>
      </trkpt>
      <trkpt lat="50.50367" lon="5.80719">
        <ele>246</ele>
        <time>2019-01-10T17:33:39Z</time>
      </trkpt>
      <trkpt lat="50.50405" lon="5.80747">
        <ele>246</ele>
        <time>2019-01-10T17:34:39Z</time>
      </trkpt>
      <trkpt lat="50.50446" lon="5.80778">
        <ele>246</ele>
        <time>2019-01-10T17:35:39Z</time>
      </trkpt>
      <trkpt lat="50.50476" lon="5.80814">
        <ele>245</ele>
        <time>2019-01-10T17:36:39Z</time>
      </trkpt>
      <trkpt lat="50.50534" lon="5.80906">
        <ele>245</ele>
        <time>2019-01-10T17:37:39Z</time>
      </trkpt>
      <trkpt lat="50.5067" lon="5.81148">
        <ele>236</ele>
        <time>2019-01-10T17:38:39Z</time>
      </trkpt>
      <trkpt lat="50.50695" lon="5.81179">
        <ele>234</ele>
        <time>2019-01-10T17:39:39Z</time>
      </trkpt>
      <trkpt lat="50.50708" lon="5.81192">
        <ele>233</ele>
        <time>2019-01-10T17:40:39Z</time>
      </trkpt>
      <trkpt lat="50.50864" lon="5.81302">
        <ele>225</ele>
        <time>2019-01-10T17:41:39Z</time>
      </trkpt>
      <trkpt lat="50.50912" lon="5.81339">
        <ele>225</ele>
        <time>2019-01-10T17:42:39Z</time>
      </trkpt>
      <trkpt lat="50.50955" lon="5.81378">
        <ele>223</ele>
        <time>2019-01-10T17:43:39Z</time>
      </trkpt>
      <trkpt lat="50.50978" lon="5.81408">
        <ele>221</ele>
        <time>2019-01-10T17:44:39Z</time>
      </trkpt>
      <trkpt lat="50.50996" lon="5.8144">
        <ele>220</ele>
        <time>2019-01-10T17:45:39Z</time>
      </trkpt>
      <trkpt lat="50.51006" lon="5.81462">
        <ele>220</ele>
        <time>2019-01-10T17:46:39Z</time>
      </trkpt>
      <trkpt lat="50.51024" lon="5.81507">
        <ele>220</ele>
        <time>2019-01-10T17:47:39Z</time>
      </trkpt>
      <trkpt lat="50.51045" lon="5.8155">
        <ele>220</ele>
        <time>2019-01-10T17:48:39Z</time>
      </trkpt>
      <trkpt lat="50.51066" lon="5.81587">
        <ele>218</ele>
        <time>2019-01-10T17:49:39Z</time>
      </trkpt>
      <trkpt lat="50.51103" lon="5.8164">
        <ele>219</ele>
        <time>2019-01-10T17:50:39Z</time>
      </trkpt>
      <trkpt lat="50.51137" lon="5.81679">
        <ele>216</ele>
        <time>2019-01-10T17:51:39Z</time>
      </trkpt>
      <trkpt lat="50.51181" lon="5.81717">
        <ele>212</ele>
        <time>2019-01-10T17:52:39Z</time>
      </trkpt>
      <trkpt lat="50.51218" lon="5.81744">
        <ele>209</ele>
        <time>2019-01-10T17:53:39Z</time>
      </trkpt>
      <trkpt lat="50.51243" lon="5.81775">
        <ele>206</ele>
        <time>2019-01-10T17:54:39Z</time>
      </trkpt>
      <trkpt lat="50.51324" lon="5.81882">
        <ele>194</ele>
        <time>2019-01-10T17:55:39Z</time>
      </trkpt>
      <trkpt lat="50.51345" lon="5.81907">
        <ele>190</ele>
        <time>2019-01-10T17:56:39Z</time>
      </trkpt>
      <trkpt lat="50.51417" lon="5.8182">
        <ele>196</ele>
        <time>2019-01-10T17:57:39Z</time>
      </trkpt>
      <trkpt lat="50.51477" lon="5.81737">
        <ele>198</ele>
        <time>2019-01-10T17:58:39Z</time>
      </trkpt>
      <trkpt lat="50.51503" lon="5.81703">
        <ele>198</ele>
        <time>2019-01-10T17:59:39Z</time>
      </trkpt>
      <trkpt lat="50.51527" lon="5.81679">
        <ele>198</ele>
        <time>2019-01-10T18:00:39Z</time>
      </trkpt>
      <trkpt lat="50.51575" lon="5.8164">
        <ele>197</ele>
        <time>2019-01-10T18:01:39Z</time>
      </trkpt>
      <trkpt lat="50.5161" lon="5.81619">
        <ele>197</ele>
        <time>2019-01-10T18:02:39Z</time>
      </trkpt>
      <trkpt lat="50.51651" lon="5.81601">
        <ele>198</ele>
        <time>2019-01-10T18:03:39Z</time>
      </trkpt>
      <trkpt lat="50.51686" lon="5.81593">
        <ele>198</ele>
        <time>2019-01-10T18:04:39Z</time>
      </trkpt>
      <trkpt lat="50.5174" lon="5.81588">
        <ele>198</ele>
        <time>2019-01-10T18:05:39Z</time>
      </trkpt>
      <trkpt lat="50.51798" lon="5.81605">
        <ele>196</ele>
        <time>2019-01-10T18:06:39Z</time>
      </trkpt>
      <trkpt lat="50.5201" lon="5.81689">
        <ele>195</ele>
        <time>2019-01-10T18:07:39Z</time>
      </trkpt>
      <trkpt lat="50.52058" lon="5.81704">
        <ele>194</ele>
        <time>2019-01-10T18:08:39Z</time>
      </trkpt>
      <trkpt lat="50.52092" lon="5.81726">
        <ele>192</ele>
        <time>2019-01-10T18:09:39Z</time>
      </trkpt>
      <trkpt lat="50.52125" lon="5.81752">
        <ele>188</ele>
        <time>2019-01-10T18:10:39Z</time>
      </trkpt>
      <trkpt lat="50.52155" lon="5.81782">
        <ele>185</ele>
        <time>2019-01-10T18:11:39Z</time>
      </trkpt>
      <trkpt lat="50.52199" lon="5.81847">
        <ele>183</ele>
        <time>2019-01-10T18:12:39Z</time>
      </trkpt>
      <trkpt lat="50.52246" lon="5.81911">
        <ele>180</ele>
        <time>2019-01-10T18:13:39Z</time>
      </trkpt>
      <trkpt lat="50.52294" lon="5.81976">
        <ele>185</ele>
        <time>2019-01-10T18:14:39Z</time>
      </trkpt>
      <trkpt lat="50.52334" lon="5.82024">
        <ele>185</ele>
        <time>2019-01-10T18:15:39Z</time>
      </trkpt>
      <trkpt lat="50.52346" lon="5.82034">
        <ele>186</ele>
        <time>2019-01-10T18:16:39Z</time>
      </trkpt>
      <trkpt lat="50.52372" lon="5.8205">
        <ele>186</ele>
        <time>2019-01-10T18:17:39Z</time>
      </trkpt>
      <trkpt lat="50.52426" lon="5.82073">
        <ele>186</ele>
        <time>2019-01-10T18:18:39Z</time>
      </trkpt>
      <trkpt lat="50.52478" lon="5.82093">
        <ele>185</ele>
        <time>2019-01-10T18:19:39Z</time>
      </trkpt>
      <trkpt lat="50.52568" lon="5.82115">
        <ele>180</ele>
        <time>2019-01-10T18:20:39Z</time>
      </trkpt>
      <trkpt lat="50.52598" lon="5.82115">
        <ele>179</ele>
        <time>2019-01-10T18:21:39Z</time>
      </trkpt>
      <trkpt lat="50.52621" lon="5.82099">
        <ele>178</ele>
        <time>2019-01-10T18:22:39Z</time>
      </trkpt>
      <trkpt lat="50.52645" lon="5.82076">
        <ele>178</ele>
        <time>2019-01-10T18:23:39Z</time>
      </trkpt>
      <trkpt lat="50.52666" lon="5.82041">
        <ele>179</ele>
        <time>2019-01-10T18:24:39Z</time>
      </trkpt>
      <trkpt lat="50.5273" lon="5.81941">
        <ele>177</ele>
        <time>2019-01-10T18:25:39Z</time>
      </trkpt>
      <trkpt lat="50.52767" lon="5.81869">
        <ele>175</ele>
        <time>2019-01-10T18:26:39Z</time>
      </trkpt>
      <trkpt lat="50.52829" lon="5.81726">
        <ele>175</ele>
        <time>2019-01-10T18:27:39Z</time>
      </trkpt>
      <trkpt lat="50.52853" lon="5.8169">
        <ele>176</ele>
        <time>2019-01-10T18:28:39Z</time>
      </trkpt>
      <trkpt lat="50.52878" lon="5.81675">
        <ele>175</ele>
        <time>2019-01-10T18:29:39Z</time>
      </trkpt>
      <trkpt lat="50.52883" lon="5.81634">
        <ele>178</ele>
        <time>2019-01-10T18:30:39Z</time>
      </trkpt>
      <trkpt lat="50.52939" lon="5.81519">
        <ele>177</ele>
        <time>2019-01-10T18:31:39Z</time>
      </trkpt>
      <trkpt lat="50.53017" lon="5.81367">
        <ele>175</ele>
        <time>2019-01-10T18:32:39Z</time>
      </trkpt>
      <trkpt lat="50.53065" lon="5.81272">
        <ele>174</ele>
        <time>2019-01-10T18:33:39Z</time>
      </trkpt>
      <trkpt lat="50.53105" lon="5.81209">
        <ele>175</ele>
        <time>2019-01-10T18:34:39Z</time>
      </trkpt>
      <trkpt lat="50.5313" lon="5.81187">
        <ele>175</ele>
        <time>2019-01-10T18:35:39Z</time>
      </trkpt>
      <trkpt lat="50.53144" lon="5.81175">
        <ele>175</ele>
        <time>2019-01-10T18:36:39Z</time>
      </trkpt>
      <trkpt lat="50.53159" lon="5.81166">
        <ele>175</ele>
        <time>2019-01-10T18:37:39Z</time>
      </trkpt>
      <trkpt lat="50.5329" lon="5.81085">
        <ele>177</ele>
        <time>2019-01-10T18:38:39Z</time>
      </trkpt>
      <trkpt lat="50.5338" lon="5.81033">
        <ele>175</ele>
        <time>2019-01-10T18:39:39Z</time>
      </trkpt>
      <trkpt lat="50.53396" lon="5.81029">
        <ele>174</ele>
        <time>2019-01-10T18:40:39Z</time>
      </trkpt>
      <trkpt lat="50.53412" lon="5.81031">
        <ele>172</ele>
        <time>2019-01-10T18:41:39Z</time>
      </trkpt>
      <trkpt lat="50.5342" lon="5.81021">
        <ele>172</ele>
        <time>2019-01-10T18:42:39Z</time>
      </trkpt>
      <trkpt lat="50.53427" lon="5.81007">
        <ele>173</ele>
        <time>2019-01-10T18:43:39Z</time>
      </trkpt>
      <trkpt lat="50.5346" lon="5.80978">
        <ele>176</ele>
        <time>2019-01-10T18:44:39Z</time>
      </trkpt>
      <trkpt lat="50.53546" lon="5.80911">
        <ele>183</ele>
        <time>2019-01-10T18:45:39Z</time>
      </trkpt>
      <trkpt lat="50.53685" lon="5.80785">
        <ele>198</ele>
        <time>2019-01-10T18:46:39Z</time>
      </trkpt>
      <trkpt lat="50.53704" lon="5.80762">
        <ele>199</ele>
        <time>2019-01-10T18:47:39Z</time>
      </trkpt>
      <trkpt lat="50.53718" lon="5.80732">
        <ele>202</ele>
        <time>2019-01-10T18:48:39Z</time>
      </trkpt>
      <trkpt lat="50.53727" lon="5.80693">
        <ele>205</ele>
        <time>2019-01-10T18:49:39Z</time>
      </trkpt>
      <trkpt lat="50.53726" lon="5.80645">
        <ele>208</ele>
        <time>2019-01-10T18:50:39Z</time>
      </trkpt>
      <trkpt lat="50.53711" lon="5.80609">
        <ele>209</ele>
        <time>2019-01-10T18:51:39Z</time>
      </trkpt>
      <trkpt lat="50.53645" lon="5.80463">
        <ele>213</ele>
        <time>2019-01-10T18:52:39Z</time>
      </trkpt>
      <trkpt lat="50.53585" lon="5.80317">
        <ele>213</ele>
        <time>2019-01-10T18:53:39Z</time>
      </trkpt>
      <trkpt lat="50.53554" lon="5.80226">
        <ele>212</ele>
        <time>2019-01-10T18:54:39Z</time>
      </trkpt>
      <trkpt lat="50.53527" lon="5.80086">
        <ele>209</ele>
        <time>2019-01-10T18:55:39Z</time>
      </trkpt>
      <trkpt lat="50.53462" lon="5.7973">
        <ele>219</ele>
        <time>2019-01-10T18:56:39Z</time>
      </trkpt>
      <trkpt lat="50.53414" lon="5.7948">
        <ele>229</ele>
        <time>2019-01-10T18:57:39Z</time>
      </trkpt>
      <trkpt lat="50.5341" lon="5.79445">
        <ele>230</ele>
        <time>2019-01-10T18:58:39Z</time>
      </trkpt>
      <trkpt lat="50.53407" lon="5.794">
        <ele>231</ele>
        <time>2019-01-10T18:59:39Z</time>
      </trkpt>
      <trkpt lat="50.53415" lon="5.79138">
        <ele>234</ele>
        <time>2019-01-10T19:00:39Z</time>
      </trkpt>
      <trkpt lat="50.53422" lon="5.7895">
        <ele>238</ele>
        <time>2019-01-10T19:01:39Z</time>
      </trkpt>
      <trkpt lat="50.53432" lon="5.78822">
        <ele>243</ele>
        <time>2019-01-10T19:02:39Z</time>
      </trkpt>
      <trkpt lat="50.53433" lon="5.7879">
        <ele>245</ele>
        <time>2019-01-10T19:03:39Z</time>
      </trkpt>
      <trkpt lat="50.53429" lon="5.7876">
        <ele>247</ele>
        <time>2019-01-10T19:04:39Z</time>
      </trkpt>
      <trkpt lat="50.5339" lon="5.78408">
        <ele>283</ele>
        <time>2019-01-10T19:05:39Z</time>
      </trkpt>
      <trkpt lat="50.53338" lon="5.77955">
        <ele>327</ele>
        <time>2019-01-10T19:06:39Z</time>
      </trkpt>
      <trkpt lat="50.53321" lon="5.77785">
        <ele>330</ele>
        <time>2019-01-10T19:07:39Z</time>
      </trkpt>
      <trkpt lat="50.533" lon="5.77504">
        <ele>337</ele>
        <time>2019-01-10T19:08:39Z</time>
      </trkpt>
      <trkpt lat="50.53289" lon="5.77312">
        <ele>340</ele>
        <time>2019-01-10T19:09:39Z</time>
      </trkpt>
      <trkpt lat="50.53253" lon="5.76789">
        <ele>330</ele>
        <time>2019-01-10T19:10:39Z</time>
      </trkpt>
      <trkpt lat="50.53233" lon="5.76329">
        <ele>324</ele>
        <time>2019-01-10T19:11:39Z</time>
      </trkpt>
      <trkpt lat="50.53228" lon="5.76268">
        <ele>323</ele>
        <time>2019-01-10T19:12:39Z</time>
      </trkpt>
      <trkpt lat="50.53187" lon="5.7628">
        <ele>327</ele>
        <time>2019-01-10T19:13:39Z</time>
      </trkpt>
      <trkpt lat="50.53063" lon="5.76328">
        <ele>330</ele>
        <time>2019-01-10T19:14:39Z</time>
      </trkpt>
      <trkpt lat="50.5271" lon="5.76455">
        <ele>347</ele>
        <time>2019-01-10T19:15:39Z</time>
      </trkpt>
      <trkpt lat="50.52606" lon="5.76493">
        <ele>347</ele>
        <time>2019-01-10T19:16:39Z</time>
      </trkpt>
      <trkpt lat="50.52457" lon="5.76565">
        <ele>344</ele>
        <time>2019-01-10T19:17:39Z</time>
      </trkpt>
      <trkpt lat="50.52339" lon="5.76624">
        <ele>343</ele>
        <time>2019-01-10T19:18:39Z</time>
      </trkpt>
      <trkpt lat="50.52181" lon="5.76708">
        <ele>343</ele>
        <time>2019-01-10T19:19:39Z</time>
      </trkpt>
      <trkpt lat="50.52065" lon="5.7676">
        <ele>342</ele>
        <time>2019-01-10T19:20:39Z</time>
      </trkpt>
      <trkpt lat="50.51945" lon="5.76809">
        <ele>340</ele>
        <time>2019-01-10T19:21:39Z</time>
      </trkpt>
      <trkpt lat="50.51638" lon="5.76938">
        <ele>338</ele>
        <time>2019-01-10T19:22:39Z</time>
      </trkpt>
      <trkpt lat="50.51565" lon="5.7697">
        <ele>338</ele>
        <time>2019-01-10T19:23:39Z</time>
      </trkpt>
      <trkpt lat="50.51519" lon="5.76986">
        <ele>339</ele>
        <time>2019-01-10T19:24:39Z</time>
      </trkpt>
      <trkpt lat="50.51498" lon="5.7698">
        <ele>339</ele>
        <time>2019-01-10T19:25:39Z</time>
      </trkpt>
      <trkpt lat="50.51478" lon="5.76974">
        <ele>339</ele>
        <time>2019-01-10T19:26:39Z</time>
      </trkpt>
      <trkpt lat="50.51272" lon="5.76892">
        <ele>342</ele>
        <time>2019-01-10T19:27:39Z</time>
      </trkpt>
      <trkpt lat="50.51132" lon="5.76835">
        <ele>349</ele>
        <time>2019-01-10T19:28:39Z</time>
      </trkpt>
      <trkpt lat="50.5103" lon="5.76793">
        <ele>350</ele>
        <time>2019-01-10T19:29:39Z</time>
      </trkpt>
      <trkpt lat="50.50997" lon="5.76778">
        <ele>349</ele>
        <time>2019-01-10T19:30:39Z</time>
      </trkpt>
      <trkpt lat="50.5098" lon="5.76763">
        <ele>349</ele>
        <time>2019-01-10T19:31:39Z</time>
      </trkpt>
      <trkpt lat="50.50952" lon="5.76728">
        <ele>350</ele>
        <time>2019-01-10T19:32:39Z</time>
      </trkpt>
      <trkpt lat="50.50927" lon="5.76693">
        <ele>352</ele>
        <time>2019-01-10T19:33:39Z</time>
      </trkpt>
      <trkpt lat="50.50845" lon="5.7657">
        <ele>354</ele>
        <time>2019-01-10T19:34:39Z</time>
      </trkpt>
      <trkpt lat="50.50761" lon="5.76451">
        <ele>352</ele>
        <time>2019-01-10T19:35:39Z</time>
      </trkpt>
      <trkpt lat="50.50742" lon="5.76432">
        <ele>352</ele>
        <time>2019-01-10T19:36:39Z</time>
      </trkpt>
      <trkpt lat="50.50719" lon="5.76421">
        <ele>350</ele>
        <time>2019-01-10T19:37:39Z</time>
      </trkpt>
      <trkpt lat="50.50697" lon="5.7642">
        <ele>348</ele>
        <time>2019-01-10T19:38:39Z</time>
      </trkpt>
      <trkpt lat="50.5067" lon="5.76419">
        <ele>346</ele>
        <time>2019-01-10T19:39:39Z</time>
      </trkpt>
      <trkpt lat="50.50612" lon="5.76421">
        <ele>344</ele>
        <time>2019-01-10T19:40:39Z</time>
      </trkpt>
      <trkpt lat="50.50433" lon="5.76426">
        <ele>343</ele>
        <time>2019-01-10T19:41:39Z</time>
      </trkpt>
      <trkpt lat="50.50379" lon="5.76437">
        <ele>343</ele>
        <time>2019-01-10T19:42:39Z</time>
      </trkpt>
      <trkpt lat="50.5034" lon="5.76465">
        <ele>343</ele>
        <time>2019-01-10T19:43:39Z</time>
      </trkpt>
      <trkpt lat="50.50104" lon="5.76636">
        <ele>344</ele>
        <time>2019-01-10T19:44:39Z</time>
      </trkpt>
      <trkpt lat="50.50049" lon="5.76682">
        <ele>344</ele>
        <time>2019-01-10T19:45:39Z</time>
      </trkpt>
      <trkpt lat="50.49992" lon="5.76749">
        <ele>344</ele>
        <time>2019-01-10T19:46:39Z</time>
      </trkpt>
      <trkpt lat="50.49891" lon="5.76876">
        <ele>350</ele>
        <time>2019-01-10T19:47:39Z</time>
      </trkpt>
      <trkpt lat="50.49819" lon="5.7696">
        <ele>356</ele>
        <time>2019-01-10T19:48:39Z</time>
      </trkpt>
      <trkpt lat="50.49808" lon="5.76972">
        <ele>357</ele>
        <time>2019-01-10T19:49:39Z</time>
      </trkpt>
      <trkpt lat="50.49795" lon="5.7698">
        <ele>358</ele>
        <time>2019-01-10T19:50:39Z</time>
      </trkpt>
      <trkpt lat="50.49781" lon="5.76987">
        <ele>358</ele>
        <time>2019-01-10T19:51:39Z</time>
      </trkpt>
      <trkpt lat="50.49766" lon="5.76991">
        <ele>359</ele>
        <time>2019-01-10T19:52:39Z</time>
      </trkpt>
      <trkpt lat="50.49581" lon="5.77039">
        <ele>360</ele>
        <time>2019-01-10T19:53:39Z</time>
      </trkpt>
      <trkpt lat="50.49508" lon="5.7704">
        <ele>361</ele>
        <time>2019-01-10T19:54:39Z</time>
      </trkpt>
      <trkpt lat="50.4943" lon="5.77031">
        <ele>364</ele>
        <time>2019-01-10T19:55:39Z</time>
      </trkpt>
      <trkpt lat="50.49413" lon="5.7702">
        <ele>364</ele>
        <time>2019-01-10T19:56:39Z</time>
      </trkpt>
      <trkpt lat="50.49376" lon="5.76982">
        <ele>365</ele>
        <time>2019-01-10T19:57:39Z</time>
      </trkpt>
      <trkpt lat="50.49324" lon="5.76933">
        <ele>363</ele>
        <time>2019-01-10T19:58:39Z</time>
      </trkpt>
      <trkpt lat="50.49229" lon="5.76866">
        <ele>360</ele>
        <time>2019-01-10T19:59:39Z</time>
      </trkpt>
      <trkpt lat="50.48931" lon="5.76679">
        <ele>353</ele>
        <time>2019-01-10T20:00:39Z</time>
      </trkpt>
      <trkpt lat="50.48804" lon="5.76603">
        <ele>357</ele>
        <time>2019-01-10T20:01:39Z</time>
      </trkpt>
      <trkpt lat="50.4881" lon="5.76562">
        <ele>357</ele>
        <time>2019-01-10T20:02:39Z</time>
      </trkpt>
      <trkpt lat="50.48806" lon="5.7652">
        <ele>357</ele>
        <time>2019-01-10T20:03:39Z</time>
      </trkpt>
      <trkpt lat="50.48776" lon="5.764">
        <ele>355</ele>
        <time>2019-01-10T20:04:39Z</time>
      </trkpt>
      <trkpt lat="50.48721" lon="5.76164">
        <ele>348</ele>
        <time>2019-01-10T20:05:39Z</time>
      </trkpt>
      <trkpt lat="50.48677" lon="5.75965">
        <ele>343</ele>
        <time>2019-01-10T20:06:39Z</time>
      </trkpt>
      <trkpt lat="50.48598" lon="5.75639">
        <ele>335</ele>
        <time>2019-01-10T20:07:39Z</time>
      </trkpt>
      <trkpt lat="50.48593" lon="5.75581">
        <ele>334</ele>
        <time>2019-01-10T20:08:39Z</time>
      </trkpt>
      <trkpt lat="50.48592" lon="5.75554">
        <ele>334</ele>
        <time>2019-01-10T20:09:39Z</time>
      </trkpt>
      <trkpt lat="50.48596" lon="5.75526">
        <ele>335</ele>
        <time>2019-01-10T20:10:39Z</time>
      </trkpt>
      <trkpt lat="50.48601" lon="5.75499">
        <ele>335</ele>
        <time>2019-01-10T20:11:39Z</time>
      </trkpt>
      <trkpt lat="50.48614" lon="5.75448">
        <ele>338</ele>
        <time>2019-01-10T20:12:39Z</time>
      </trkpt>
      <trkpt lat="50.4863" lon="5.75367">
        <ele>340</ele>
        <time>2019-01-10T20:13:39Z</time>
      </trkpt>
      <trkpt lat="50.48629" lon="5.7532">
        <ele>342</ele>
        <time>2019-01-10T20:14:39Z</time>
      </trkpt>
      <trkpt lat="50.48627" lon="5.75293">
        <ele>342</ele>
        <time>2019-01-10T20:15:39Z</time>
      </trkpt>
      <trkpt lat="50.48623" lon="5.75261">
        <ele>343</ele>
        <time>2019-01-10T20:16:39Z</time>
      </trkpt>
      <trkpt lat="50.48617" lon="5.75227">
        <ele>342</ele>
        <time>2019-01-10T20:17:39Z</time>
      </trkpt>
      <trkpt lat="50.48608" lon="5.75185">
        <ele>340</ele>
        <time>2019-01-10T20:18:39Z</time>
      </trkpt>
      <trkpt lat="50.48534" lon="5.74887">
        <ele>331</ele>
        <time>2019-01-10T20:19:39Z</time>
      </trkpt>
      <trkpt lat="50.48496" lon="5.74736">
        <ele>327</ele>
        <time>2019-01-10T20:20:39Z</time>
      </trkpt>
      <trkpt lat="50.48474" lon="5.74676">
        <ele>323</ele>
        <time>2019-01-10T20:21:39Z</time>
      </trkpt>
      <trkpt lat="50.4835" lon="5.74425">
        <ele>305</ele>
        <time>2019-01-10T20:22:39Z</time>
      </trkpt>
      <trkpt lat="50.48218" lon="5.74161">
        <ele>291</ele>
        <time>2019-01-10T20:23:39Z</time>
      </trkpt>
      <trkpt lat="50.48203" lon="5.74145">
        <ele>291</ele>
        <time>2019-01-10T20:24:39Z</time>
      </trkpt>
      <trkpt lat="50.48187" lon="5.74135">
        <ele>290</ele>
        <time>2019-01-10T20:25:39Z</time>
      </trkpt>
      <trkpt lat="50.4817" lon="5.74131">
        <ele>290</ele>
        <time>2019-01-10T20:26:39Z</time>
      </trkpt>
      <trkpt lat="50.48156" lon="5.7413">
        <ele>289</ele>
        <time>2019-01-10T20:27:39Z</time>
      </trkpt>
      <trkpt lat="50.48098" lon="5.74144">
        <ele>286</ele>
        <time>2019-01-10T20:28:39Z</time>
      </trkpt>
      <trkpt lat="50.48052" lon="5.74156">
        <ele>284</ele>
        <time>2019-01-10T20:29:39Z</time>
      </trkpt>
      <trkpt lat="50.48029" lon="5.74157">
        <ele>283</ele>
        <time>2019-01-10T20:30:39Z</time>
      </trkpt>
      <trkpt lat="50.48004" lon="5.74148">
        <ele>281</ele>
        <time>2019-01-10T20:31:39Z</time>
      </trkpt>
      <trkpt lat="50.47984" lon="5.74141">
        <ele>279</ele>
        <time>2019-01-10T20:32:39Z</time>
      </trkpt>
      <trkpt lat="50.47905" lon="5.74105">
        <ele>273</ele>
        <time>2019-01-10T20:33:39Z</time>
      </trkpt>
      <trkpt lat="50.47875" lon="5.74108">
        <ele>272</ele>
        <time>2019-01-10T20:34:39Z</time>
      </trkpt>
      <trkpt lat="50.47757" lon="5.74122">
        <ele>266</ele>
        <time>2019-01-10T20:35:39Z</time>
      </trkpt>
      <trkpt lat="50.47668" lon="5.74109">
        <ele>262</ele>
        <time>2019-01-10T20:36:39Z</time>
      </trkpt>
      <trkpt lat="50.47556" lon="5.74082">
        <ele>255</ele>
        <time>2019-01-10T20:37:39Z</time>
      </trkpt>
      <trkpt lat="50.47495" lon="5.74045">
        <ele>251</ele>
        <time>2019-01-10T20:38:39Z</time>
      </trkpt>
      <trkpt lat="50.4744" lon="5.74005">
        <ele>249</ele>
        <time>2019-01-10T20:39:39Z</time>
      </trkpt>
      <trkpt lat="50.4743" lon="5.73994">
        <ele>248</ele>
        <time>2019-01-10T20:40:39Z</time>
      </trkpt>
      <trkpt lat="50.47421" lon="5.73967">
        <ele>246</ele>
        <time>2019-01-10T20:41:39Z</time>
      </trkpt>
      <trkpt lat="50.47416" lon="5.73951">
        <ele>245</ele>
        <time>2019-01-10T20:42:39Z</time>
      </trkpt>
      <trkpt lat="50.47412" lon="5.73935">
        <ele>244</ele>
        <time>2019-01-10T20:43:39Z</time>
      </trkpt>
      <trkpt lat="50.47409" lon="5.73915">
        <ele>242</ele>
        <time>2019-01-10T20:44:39Z</time>
      </trkpt>
      <trkpt lat="50.47407" lon="5.73894">
        <ele>242</ele>
        <time>2019-01-10T20:45:39Z</time>
      </trkpt>
      <trkpt lat="50.47407" lon="5.73874">
        <ele>241</ele>
        <time>2019-01-10T20:46:39Z</time>
      </trkpt>
      <trkpt lat="50.47409" lon="5.73852">
        <ele>240</ele>
        <time>2019-01-10T20:47:39Z</time>
      </trkpt>
      <trkpt lat="50.47413" lon="5.73832">
        <ele>239</ele>
        <time>2019-01-10T20:48:39Z</time>
      </trkpt>
      <trkpt lat="50.47418" lon="5.73811">
        <ele>238</ele>
        <time>2019-01-10T20:49:39Z</time>
      </trkpt>
      <trkpt lat="50.47431" lon="5.73771">
        <ele>237</ele>
        <time>2019-01-10T20:50:39Z</time>
      </trkpt>
      <trkpt lat="50.4748" lon="5.73597">
        <ele>229</ele>
        <time>2019-01-10T20:51:39Z</time>
      </trkpt>
      <trkpt lat="50.47438" lon="5.73539">
        <ele>232</ele>
        <time>2019-01-10T20:52:39Z</time>
      </trkpt>
      <trkpt lat="50.47337" lon="5.73391">
        <ele>239</ele>
        <time>2019-01-10T20:53:39Z</time>
      </trkpt>
      <trkpt lat="50.47268" lon="5.73291">
        <ele>241</ele>
        <time>2019-01-10T20:54:39Z</time>
      </trkpt>
      <trkpt lat="50.47242" lon="5.73232">
        <ele>241</ele>
        <time>2019-01-10T20:55:39Z</time>
      </trkpt>
      <trkpt lat="50.47202" lon="5.73127">
        <ele>238</ele>
        <time>2019-01-10T20:56:39Z</time>
      </trkpt>
      <trkpt lat="50.47201" lon="5.73115">
        <ele>238</ele>
        <time>2019-01-10T20:57:39Z</time>
      </trkpt>
      <trkpt lat="50.47201" lon="5.73102">
        <ele>237</ele>
        <time>2019-01-10T20:58:39Z</time>
      </trkpt>
      <trkpt lat="50.47204" lon="5.73089">
        <ele>237</ele>
        <time>2019-01-10T20:59:39Z</time>
      </trkpt>
      <trkpt lat="50.47252" lon="5.72906">
        <ele>240</ele>
        <time>2019-01-10T21:00:39Z</time>
      </trkpt>
      <trkpt lat="50.47296" lon="5.72743">
        <ele>238</ele>
        <time>2019-01-10T21:01:39Z</time>
      </trkpt>
      <trkpt lat="50.47299" lon="5.72735">
        <ele>238</ele>
        <time>2019-01-10T21:02:39Z</time>
      </trkpt>
      <trkpt lat="50.47308" lon="5.72713">
        <ele>238</ele>
        <time>2019-01-10T21:03:39Z</time>
      </trkpt>
      <trkpt lat="50.47336" lon="5.72603">
        <ele>239</ele>
        <time>2019-01-10T21:04:39Z</time>
      </trkpt>
      <trkpt lat="50.47348" lon="5.72563">
        <ele>238</ele>
        <time>2019-01-10T21:05:39Z</time>
      </trkpt>
      <trkpt lat="50.47383" lon="5.72489">
        <ele>237</ele>
        <time>2019-01-10T21:06:39Z</time>
      </trkpt>
      <trkpt lat="50.47402" lon="5.72439">
        <ele>237</ele>
        <time>2019-01-10T21:07:39Z</time>
      </trkpt>
      <trkpt lat="50.47432" lon="5.72389">
        <ele>235</ele>
        <time>2019-01-10T21:08:39Z</time>
      </trkpt>
      <trkpt lat="50.47439" lon="5.72358">
        <ele>233</ele>
        <time>2019-01-10T21:09:39Z</time>
      </trkpt>
      <trkpt lat="50.47449" lon="5.72274">
        <ele>229</ele>
        <time>2019-01-10T21:10:39Z</time>
      </trkpt>
      <trkpt lat="50.47459" lon="5.72215">
        <ele>226</ele>
        <time>2019-01-10T21:11:39Z</time>
      </trkpt>
      <trkpt lat="50.47468" lon="5.72182">
        <ele>224</ele>
        <time>2019-01-10T21:12:39Z</time>
      </trkpt>
      <trkpt lat="50.47502" lon="5.7211">
        <ele>218</ele>
        <time>2019-01-10T21:13:39Z</time>
      </trkpt>
      <trkpt lat="50.47527" lon="5.72065">
        <ele>209</ele>
        <time>2019-01-10T21:14:39Z</time>
      </trkpt>
      <trkpt lat="50.47537" lon="5.72044">
        <ele>205</ele>
        <time>2019-01-10T21:15:39Z</time>
      </trkpt>
      <trkpt lat="50.4753" lon="5.72017">
        <ele>203</ele>
        <time>2019-01-10T21:16:39Z</time>
      </trkpt>
      <trkpt lat="50.47535" lon="5.71966">
        <ele>196</ele>
        <time>2019-01-10T21:17:39Z</time>
      </trkpt>
      <trkpt lat="50.47524" lon="5.71889">
        <ele>187</ele>
        <time>2019-01-10T21:18:39Z</time>
      </trkpt>
      <trkpt lat="50.47531" lon="5.7186">
        <ele>181</ele>
        <time>2019-01-10T21:19:39Z</time>
      </trkpt>
      <trkpt lat="50.47534" lon="5.71841">
        <ele>177</ele>
        <time>2019-01-10T21:20:39Z</time>
      </trkpt>
      <trkpt lat="50.4753" lon="5.71819">
        <ele>174</ele>
        <time>2019-01-10T21:21:39Z</time>
      </trkpt>
      <trkpt lat="50.47527" lon="5.71807">
        <ele>173</ele>
        <time>2019-01-10T21:22:39Z</time>
      </trkpt>
      <trkpt lat="50.47531" lon="5.71782">
        <ele>170</ele>
        <time>2019-01-10T21:23:39Z</time>
      </trkpt>
      <trkpt lat="50.47539" lon="5.71725">
        <ele>165</ele>
        <time>2019-01-10T21:24:39Z</time>
      </trkpt>
      <trkpt lat="50.47542" lon="5.71712">
        <ele>164</ele>
        <time>2019-01-10T21:25:39Z</time>
      </trkpt>
      <trkpt lat="50.47547" lon="5.71677">
        <ele>162</ele>
        <time>2019-01-10T21:26:39Z</time>
      </trkpt>
      <trkpt lat="50.47554" lon="5.7167">
        <ele>161</ele>
        <time>2019-01-10T21:27:39Z</time>
      </trkpt>
      <trkpt lat="50.47583" lon="5.71683">
        <ele>161</ele>
        <time>2019-01-10T21:28:39Z</time>
      </trkpt>
      <trkpt lat="50.476" lon="5.71687">
        <ele>163</ele>
        <time>2019-01-10T21:29:39Z</time>
      </trkpt>
      <trkpt lat="50.47597" lon="5.71613">
        <ele>158</ele>
        <time>2019-01-10T21:30:39Z</time>
      </trkpt>
      <trkpt lat="50.47603" lon="5.7156">
        <ele>154</ele>
        <time>2019-01-10T21:31:39Z</time>
      </trkpt>
      <trkpt lat="50.47611" lon="5.71521">
        <ele>151</ele>
        <time>2019-01-10T21:32:39Z</time>
      </trkpt>
      <trkpt lat="50.47626" lon="5.71485">
        <ele>149</ele>
        <time>2019-01-10T21:33:39Z</time>
      </trkpt>
      <trkpt lat="50.47642" lon="5.71458">
        <ele>148</ele>
        <time>2019-01-10T21:34:39Z</time>
      </trkpt>
      <trkpt lat="50.47653" lon="5.71445">
        <ele>147</ele>
        <time>2019-01-10T21:35:39Z</time>
      </trkpt>
      <trkpt lat="50.47776" lon="5.71309">
        <ele>142</ele>
        <time>2019-01-10T21:36:39Z</time>
      </trkpt>
      <trkpt lat="50.47827" lon="5.71271">
        <ele>139</ele>
        <time>2019-01-10T21:37:39Z</time>
      </trkpt>
      <trkpt lat="50.47847" lon="5.71263">
        <ele>139</ele>
        <time>2019-01-10T21:38:39Z</time>
      </trkpt>
      <trkpt lat="50.4792" lon="5.7123">
        <ele>141</ele>
        <time>2019-01-10T21:39:39Z</time>
      </trkpt>
      <trkpt lat="50.47959" lon="5.712">
        <ele>136</ele>
        <time>2019-01-10T21:40:39Z</time>
      </trkpt>
      <trkpt lat="50.4797" lon="5.71195">
        <ele>136</ele>
        <time>2019-01-10T21:41:39Z</time>
      </trkpt>
      <trkpt lat="50.47987" lon="5.71175">
        <ele>134</ele>
        <time>2019-01-10T21:42:39Z</time>
      </trkpt>
      <trkpt lat="50.47979" lon="5.71119">
        <ele>131</ele>
        <time>2019-01-10T21:43:39Z</time>
      </trkpt>
      <trkpt lat="50.48004" lon="5.71094">
        <ele>131</ele>
        <time>2019-01-10T21:44:39Z</time>
      </trkpt>
      <trkpt lat="50.48019" lon="5.71078">
        <ele>132</ele>
        <time>2019-01-10T21:45:39Z</time>
      </trkpt>
      <trkpt lat="50.48077" lon="5.71019">
        <ele>132</ele>
        <time>2019-01-10T21:46:39Z</time>
      </trkpt>
      <trkpt lat="50.48112" lon="5.70974">
        <ele>133</ele>
        <time>2019-01-10T21:47:39Z</time>
      </trkpt>
      <trkpt lat="50.48138" lon="5.70929">
        <ele>133</ele>
        <time>2019-01-10T21:48:39Z</time>
      </trkpt>
      <trkpt lat="50.48159" lon="5.7087">
        <ele>131</ele>
        <time>2019-01-10T21:49:39Z</time>
      </trkpt>
      <trkpt lat="50.48169" lon="5.70831">
        <ele>130</ele>
        <time>2019-01-10T21:50:39Z</time>
      </trkpt>
      <trkpt lat="50.48182" lon="5.7079">
        <ele>131</ele>
        <time>2019-01-10T21:51:39Z</time>
      </trkpt>
      <trkpt lat="50.48196" lon="5.70733">
        <ele>131</ele>
        <time>2019-01-10T21:52:39Z</time>
      </trkpt>
      <trkpt lat="50.48212" lon="5.70729">
        <ele>131</ele>
        <time>2019-01-10T21:53:39Z</time>
      </trkpt>
      <trkpt lat="50.48244" lon="5.70718">
        <ele>133</ele>
        <time>2019-01-10T21:54:39Z</time>
      </trkpt>
      <trkpt lat="50.48279" lon="5.70714">
        <ele>135</ele>
        <time>2019-01-10T21:55:39Z</time>
      </trkpt>
      <trkpt lat="50.48299" lon="5.70711">
        <ele>136</ele>
        <time>2019-01-10T21:56:39Z</time>
      </trkpt>
      <trkpt lat="50.48359" lon="5.70707">
        <ele>138</ele>
        <time>2019-01-10T21:57:39Z</time>
      </trkpt>
      <trkpt lat="50.484" lon="5.70704">
        <ele>139</ele>
        <time>2019-01-10T21:58:39Z</time>
      </trkpt>
      <trkpt lat="50.48413" lon="5.70697">
        <ele>140</ele>
        <time>2019-01-10T21:59:39Z</time>
      </trkpt>
      <trkpt lat="50.48413" lon="5.70685">
        <ele>139</ele>
        <time>2019-01-10T22:00:39Z</time>
      </trkpt>
      <trkpt lat="50.48412" lon="5.70671">
        <ele>139</ele>
        <time>2019-01-10T22:01:39Z</time>
      </trkpt>
      <trkpt lat="50.48405" lon="5.70661">
        <ele>139</ele>
        <time>2019-01-10T22:02:39Z</time>
      </trkpt>
      <trkpt lat="50.48384" lon="5.70623">
        <ele>137</ele>
        <time>2019-01-10T22:03:39Z</time>
      </trkpt>
      <trkpt lat="50.48345" lon="5.70552">
        <ele>134</ele>
        <time>2019-01-10T22:04:39Z</time>
      </trkpt>
      <trkpt lat="50.48332" lon="5.70504">
        <ele>133</ele>
        <time>2019-01-10T22:05:39Z</time>
      </trkpt>
      <trkpt lat="50.48323" lon="5.70455">
        <ele>132</ele>
        <time>2019-01-10T22:06:39Z</time>
      </trkpt>
      <trkpt lat="50.4832" lon="5.70396">
        <ele>132</ele>
        <time>2019-01-10T22:07:39Z</time>
      </trkpt>
      <trkpt lat="50.48332" lon="5.7038">
        <ele>133</ele>
        <time>2019-01-10T22:08:39Z</time>
      </trkpt>
      <trkpt lat="50.48344" lon="5.70369">
        <ele>134</ele>
        <time>2019-01-10T22:09:39Z</time>
      </trkpt>
      <trkpt lat="50.48395" lon="5.70325">
        <ele>139</ele>
        <time>2019-01-10T22:10:39Z</time>
      </trkpt>
      <trkpt lat="50.48412" lon="5.70316">
        <ele>140</ele>
        <time>2019-01-10T22:11:39Z</time>
      </trkpt>
      <trkpt lat="50.48423" lon="5.70314">
        <ele>141</ele>
        <time>2019-01-10T22:12:39Z</time>
      </trkpt>
      <trkpt lat="50.48435" lon="5.70315">
        <ele>142</ele>
        <time>2019-01-10T22:13:39Z</time>
      </trkpt>
      <trkpt lat="50.48447" lon="5.7032">
        <ele>142</ele>
        <time>2019-01-10T22:14:39Z</time>
      </trkpt>
      <trkpt lat="50.48538" lon="5.70345">
        <ele>151</ele>
        <time>2019-01-10T22:15:39Z</time>
      </trkpt>
      <trkpt lat="50.4861" lon="5.70303">
        <ele>160</ele>
        <time>2019-01-10T22:16:39Z</time>
      </trkpt>
      <trkpt lat="50.48625" lon="5.70353">
        <ele>161</ele>
        <time>2019-01-10T22:17:39Z</time>
      </trkpt>
      <trkpt lat="50.48633" lon="5.70404">
        <ele>165</ele>
        <time>2019-01-10T22:18:39Z</time>
      </trkpt>
      <trkpt lat="50.4864" lon="5.7044">
        <ele>167</ele>
        <time>2019-01-10T22:19:39Z</time>
      </trkpt>
      <trkpt lat="50.48658" lon="5.7048">
        <ele>170</ele>
        <time>2019-01-10T22:20:39Z</time>
      </trkpt>
      <trkpt lat="50.48666" lon="5.70499">
        <ele>172</ele>
        <time>2019-01-10T22:21:39Z</time>
      </trkpt>
      <trkpt lat="50.48675" lon="5.70518">
        <ele>174</ele>
        <time>2019-01-10T22:22:39Z</time>
      </trkpt>
      <trkpt lat="50.48741" lon="5.70627">
        <ele>181</ele>
        <time>2019-01-10T22:23:39Z</time>
      </trkpt>
      <trkpt lat="50.48835" lon="5.70768">
        <ele>190</ele>
        <time>2019-01-10T22:24:39Z</time>
      </trkpt>
      <trkpt lat="50.48845" lon="5.70774">
        <ele>191</ele>
        <time>2019-01-10T22:25:39Z</time>
      </trkpt>
      <trkpt lat="50.48856" lon="5.70775">
        <ele>193</ele>
        <time>2019-01-10T22:26:39Z</time>
      </trkpt>
      <trkpt lat="50.48867" lon="5.70772">
        <ele>194</ele>
        <time>2019-01-10T22:27:39Z</time>
      </trkpt>
      <trkpt lat="50.48887" lon="5.70758">
        <ele>196</ele>
        <time>2019-01-10T22:28:39Z</time>
      </trkpt>
      <trkpt lat="50.4897" lon="5.70708">
        <ele>204</ele>
        <time>2019-01-10T22:29:39Z</time>
      </trkpt>
      <trkpt lat="50.49064" lon="5.70596">
        <ele>221</ele>
        <time>2019-01-10T22:30:39Z</time>
      </trkpt>
      <trkpt lat="50.49074" lon="5.70587">
        <ele>223</ele>
        <time>2019-01-10T22:31:39Z</time>
      </trkpt>
      <trkpt lat="50.49085" lon="5.70578">
        <ele>225</ele>
        <time>2019-01-10T22:32:39Z</time>
      </trkpt>
      <trkpt lat="50.49093" lon="5.70567">
        <ele>226</ele>
        <time>2019-01-10T22:33:39Z</time>
      </trkpt>
      <trkpt lat="50.49099" lon="5.70551">
        <ele>228</ele>
        <time>2019-01-10T22:34:39Z</time>
      </trkpt>
      <trkpt lat="50.491" lon="5.70514">
        <ele>232</ele>
        <time>2019-01-10T22:35:39Z</time>
      </trkpt>
      <trkpt lat="50.4909" lon="5.7043">
        <ele>241</ele>
        <time>2019-01-10T22:36:39Z</time>
      </trkpt>
      <trkpt lat="50.49092" lon="5.70405">
        <ele>244</ele>
        <time>2019-01-10T22:37:39Z</time>
      </trkpt>
      <trkpt lat="50.49093" lon="5.70386">
        <ele>246</ele>
        <time>2019-01-10T22:38:39Z</time>
      </trkpt>
      <trkpt lat="50.49094" lon="5.70365">
        <ele>248</ele>
        <time>2019-01-10T22:39:39Z</time>
      </trkpt>
      <trkpt lat="50.491" lon="5.70324">
        <ele>251</ele>
        <time>2019-01-10T22:40:39Z</time>
      </trkpt>
      <trkpt lat="50.49114" lon="5.70245">
        <ele>255</ele>
        <time>2019-01-10T22:41:39Z</time>
      </trkpt>
      <trkpt lat="50.49127" lon="5.70195">
        <ele>258</ele>
        <time>2019-01-10T22:42:39Z</time>
      </trkpt>
      <trkpt lat="50.49135" lon="5.70178">
        <ele>260</ele>
        <time>2019-01-10T22:43:39Z</time>
      </trkpt>
      <trkpt lat="50.49146" lon="5.70163">
        <ele>262</ele>
        <time>2019-01-10T22:44:39Z</time>
      </trkpt>
      <trkpt lat="50.49158" lon="5.70151">
        <ele>264</ele>
        <time>2019-01-10T22:45:39Z</time>
      </trkpt>
      <trkpt lat="50.4917" lon="5.70139">
        <ele>266</ele>
        <time>2019-01-10T22:46:39Z</time>
      </trkpt>
      <trkpt lat="50.49182" lon="5.70127">
        <ele>267</ele>
        <time>2019-01-10T22:47:39Z</time>
      </trkpt>
      <trkpt lat="50.49193" lon="5.70112">
        <ele>269</ele>
        <time>2019-01-10T22:48:39Z</time>
      </trkpt>
      <trkpt lat="50.49203" lon="5.70098">
        <ele>270</ele>
        <time>2019-01-10T22:49:39Z</time>
      </trkpt>
      <trkpt lat="50.49212" lon="5.70081">
        <ele>272</ele>
        <time>2019-01-10T22:50:39Z</time>
      </trkpt>
      <trkpt lat="50.49219" lon="5.70063">
        <ele>274</ele>
        <time>2019-01-10T22:51:39Z</time>
      </trkpt>
      <trkpt lat="50.49223" lon="5.70043">
        <ele>277</ele>
        <time>2019-01-10T22:52:39Z</time>
      </trkpt>
      <trkpt lat="50.49226" lon="5.69941">
        <ele>287</ele>
        <time>2019-01-10T22:53:39Z</time>
      </trkpt>
      <trkpt lat="50.49215" lon="5.69905">
        <ele>288</ele>
        <time>2019-01-10T22:54:39Z</time>
      </trkpt>
      <trkpt lat="50.49196" lon="5.69875">
        <ele>289</ele>
        <time>2019-01-10T22:55:39Z</time>
      </trkpt>
      <trkpt lat="50.49149" lon="5.69814">
        <ele>290</ele>
        <time>2019-01-10T22:56:39Z</time>
      </trkpt>
      <trkpt lat="50.49128" lon="5.69784">
        <ele>291</ele>
        <time>2019-01-10T22:57:39Z</time>
      </trkpt>
      <trkpt lat="50.49106" lon="5.69752">
        <ele>292</ele>
        <time>2019-01-10T22:58:39Z</time>
      </trkpt>
      <trkpt lat="50.49088" lon="5.69702">
        <ele>298</ele>
        <time>2019-01-10T22:59:39Z</time>
      </trkpt>
      <trkpt lat="50.49033" lon="5.69618">
        <ele>307</ele>
        <time>2019-01-10T23:00:39Z</time>
      </trkpt>
      <trkpt lat="50.48998" lon="5.6958">
        <ele>311</ele>
        <time>2019-01-10T23:01:39Z</time>
      </trkpt>
      <trkpt lat="50.48974" lon="5.69563">
        <ele>311</ele>
        <time>2019-01-10T23:02:39Z</time>
      </trkpt>
      <trkpt lat="50.48927" lon="5.69521">
        <ele>312</ele>
        <time>2019-01-10T23:03:39Z</time>
      </trkpt>
      <trkpt lat="50.48896" lon="5.69497">
        <ele>312</ele>
        <time>2019-01-10T23:04:39Z</time>
      </trkpt>
      <trkpt lat="50.48863" lon="5.69463">
        <ele>310</ele>
        <time>2019-01-10T23:05:39Z</time>
      </trkpt>
      <trkpt lat="50.48821" lon="5.69417">
        <ele>309</ele>
        <time>2019-01-10T23:06:39Z</time>
      </trkpt>
      <trkpt lat="50.48708" lon="5.69316">
        <ele>305</ele>
        <time>2019-01-10T23:07:39Z</time>
      </trkpt>
      <trkpt lat="50.48648" lon="5.69269">
        <ele>302</ele>
        <time>2019-01-10T23:08:39Z</time>
      </trkpt>
      <trkpt lat="50.48624" lon="5.69238">
        <ele>300</ele>
        <time>2019-01-10T23:09:39Z</time>
      </trkpt>
      <trkpt lat="50.48634" lon="5.69215">
        <ele>300</ele>
        <time>2019-01-10T23:10:39Z</time>
      </trkpt>
      <trkpt lat="50.48702" lon="5.69108">
        <ele>300</ele>
        <time>2019-01-10T23:11:39Z</time>
      </trkpt>
      <trkpt lat="50.48872" lon="5.68847">
        <ele>294</ele>
        <time>2019-01-10T23:12:39Z</time>
      </trkpt>
      <trkpt lat="50.4896" lon="5.68711">
        <ele>294</ele>
        <time>2019-01-10T23:13:39Z</time>
      </trkpt>
      <trkpt lat="50.48983" lon="5.6864">
        <ele>296</ele>
        <time>2019-01-10T23:14:39Z</time>
      </trkpt>
      <trkpt lat="50.49022" lon="5.68487">
        <ele>307</ele>
        <time>2019-01-10T23:15:39Z</time>
      </trkpt>
      <trkpt lat="50.49111" lon="5.68186">
        <ele>312</ele>
        <time>2019-01-10T23:16:39Z</time>
      </trkpt>
      <trkpt lat="50.49128" lon="5.68148">
        <ele>311</ele>
        <time>2019-01-10T23:17:39Z</time>
      </trkpt>
      <trkpt lat="50.4926" lon="5.6792">
        <ele>306</ele>
        <time>2019-01-10T23:18:39Z</time>
      </trkpt>
      <trkpt lat="50.49272" lon="5.67895">
        <ele>305</ele>
        <time>2019-01-10T23:19:39Z</time>
      </trkpt>
      <trkpt lat="50.49277" lon="5.67881">
        <ele>305</ele>
        <time>2019-01-10T23:20:39Z</time>
      </trkpt>
      <trkpt lat="50.49276" lon="5.6782">
        <ele>304</ele>
        <time>2019-01-10T23:21:39Z</time>
      </trkpt>
      <trkpt lat="50.49277" lon="5.67764">
        <ele>305</ele>
        <time>2019-01-10T23:22:39Z</time>
      </trkpt>
      <trkpt lat="50.49273" lon="5.67674">
        <ele>305</ele>
        <time>2019-01-10T23:23:39Z</time>
      </trkpt>
      <trkpt lat="50.49275" lon="5.67604">
        <ele>303</ele>
        <time>2019-01-10T23:24:39Z</time>
      </trkpt>
      <trkpt lat="50.49281" lon="5.67533">
        <ele>302</ele>
        <time>2019-01-10T23:25:39Z</time>
      </trkpt>
      <trkpt lat="50.49286" lon="5.67467">
        <ele>302</ele>
        <time>2019-01-10T23:26:39Z</time>
      </trkpt>
      <trkpt lat="50.49283" lon="5.67423">
        <ele>302</ele>
        <time>2019-01-10T23:27:39Z</time>
      </trkpt>
      <trkpt lat="50.4928" lon="5.67378">
        <ele>301</ele>
        <time>2019-01-10T23:28:39Z</time>
      </trkpt>
      <trkpt lat="50.49277" lon="5.67314">
        <ele>300</ele>
        <time>2019-01-10T23:29:39Z</time>
      </trkpt>
      <trkpt lat="50.49279" lon="5.67296">
        <ele>300</ele>
        <time>2019-01-10T23:30:39Z</time>
      </trkpt>
      <trkpt lat="50.49286" lon="5.67285">
        <ele>300</ele>
        <time>2019-01-10T23:31:39Z</time>
      </trkpt>
      <trkpt lat="50.49309" lon="5.67263">
        <ele>299</ele>
        <time>2019-01-10T23:32:39Z</time>
      </trkpt>
      <trkpt lat="50.49338" lon="5.67244">
        <ele>299</ele>
        <time>2019-01-10T23:33:39Z</time>
      </trkpt>
      <trkpt lat="50.49367" lon="5.67226">
        <ele>300</ele>
        <time>2019-01-10T23:34:39Z</time>
      </trkpt>
      <trkpt lat="50.49376" lon="5.67213">
        <ele>300</ele>
        <time>2019-01-10T23:35:39Z</time>
      </trkpt>
      <trkpt lat="50.49386" lon="5.67175">
        <ele>301</ele>
        <time>2019-01-10T23:36:39Z</time>
      </trkpt>
      <trkpt lat="50.49404" lon="5.67107">
        <ele>300</ele>
        <time>2019-01-10T23:37:39Z</time>
      </trkpt>
      <trkpt lat="50.49409" lon="5.67068">
        <ele>300</ele>
        <time>2019-01-10T23:38:39Z</time>
      </trkpt>
      <trkpt lat="50.49455" lon="5.6702">
        <ele>300</ele>
        <time>2019-01-10T23:39:39Z</time>
      </trkpt>
      <trkpt lat="50.49494" lon="5.66987">
        <ele>299</ele>
        <time>2019-01-10T23:40:39Z</time>
      </trkpt>
      <trkpt lat="50.49544" lon="5.66945">
        <ele>297</ele>
        <time>2019-01-10T23:41:39Z</time>
      </trkpt>
      <trkpt lat="50.49569" lon="5.66952">
        <ele>296</ele>
        <time>2019-01-10T23:42:39Z</time>
      </trkpt>
      <trkpt lat="50.49666" lon="5.66985">
        <ele>288</ele>
        <time>2019-01-10T23:43:39Z</time>
      </trkpt>
      <trkpt lat="50.49726" lon="5.66993">
        <ele>285</ele>
        <time>2019-01-10T23:44:39Z</time>
      </trkpt>
      <trkpt lat="50.49775" lon="5.66994">
        <ele>282</ele>
        <time>2019-01-10T23:45:39Z</time>
      </trkpt>
      <trkpt lat="50.49829" lon="5.66985">
        <ele>279</ele>
        <time>2019-01-10T23:46:39Z</time>
      </trkpt>
      <trkpt lat="50.49861" lon="5.66975">
        <ele>278</ele>
        <time>2019-01-10T23:47:39Z</time>
      </trkpt>
      <trkpt lat="50.49882" lon="5.6696">
        <ele>276</ele>
        <time>2019-01-10T23:48:39Z</time>
      </trkpt>
      <trkpt lat="50.49895" lon="5.66948">
        <ele>275</ele>
        <time>2019-01-10T23:49:39Z</time>
      </trkpt>
      <trkpt lat="50.49908" lon="5.6693">
        <ele>273</ele>
        <time>2019-01-10T23:50:39Z</time>
      </trkpt>
      <trkpt lat="50.49919" lon="5.66914">
        <ele>271</ele>
        <time>2019-01-10T23:51:39Z</time>
      </trkpt>
      <trkpt lat="50.4994" lon="5.66882">
        <ele>270</ele>
        <time>2019-01-10T23:52:39Z</time>
      </trkpt>
      <trkpt lat="50.49976" lon="5.66801">
        <ele>266</ele>
        <time>2019-01-10T23:53:39Z</time>
      </trkpt>
      <trkpt lat="50.49988" lon="5.66763">
        <ele>264</ele>
        <time>2019-01-10T23:54:39Z</time>
      </trkpt>
      <trkpt lat="50.49996" lon="5.66719">
        <ele>262</ele>
        <time>2019-01-10T23:55:39Z</time>
      </trkpt>
      <trkpt lat="50.49999" lon="5.66643">
        <ele>258</ele>
        <time>2019-01-10T23:56:39Z</time>
      </trkpt>
      <trkpt lat="50.49996" lon="5.66568">
        <ele>254</ele>
        <time>2019-01-10T23:57:39Z</time>
      </trkpt>
      <trkpt lat="50.49998" lon="5.66542">
        <ele>253</ele>
        <time>2019-01-10T23:58:39Z</time>
      </trkpt>
      <trkpt lat="50.50001" lon="5.66521">
        <ele>252</ele>
        <time>2019-01-10T23:59:39Z</time>
      </trkpt>
      <trkpt lat="50.50004" lon="5.66502">
        <ele>251</ele>
        <time>2019-01-11T00:00:39Z</time>
      </trkpt>
      <trkpt lat="50.50012" lon="5.66492">
        <ele>251</ele>
        <time>2019-01-11T00:01:39Z</time>
      </trkpt>
      <trkpt lat="50.50034" lon="5.66471">
        <ele>250</ele>
        <time>2019-01-11T00:02:39Z</time>
      </trkpt>
      <trkpt lat="50.50054" lon="5.66457">
        <ele>249</ele>
        <time>2019-01-11T00:03:39Z</time>
      </trkpt>
      <trkpt lat="50.50068" lon="5.66448">
        <ele>248</ele>
        <time>2019-01-11T00:04:39Z</time>
      </trkpt>
      <trkpt lat="50.50187" lon="5.66364">
        <ele>243</ele>
        <time>2019-01-11T00:05:39Z</time>
      </trkpt>
      <trkpt lat="50.50211" lon="5.66341">
        <ele>242</ele>
        <time>2019-01-11T00:06:39Z</time>
      </trkpt>
      <trkpt lat="50.50222" lon="5.66318">
        <ele>242</ele>
        <time>2019-01-11T00:07:39Z</time>
      </trkpt>
      <trkpt lat="50.50232" lon="5.66278">
        <ele>240</ele>
        <time>2019-01-11T00:08:39Z</time>
      </trkpt>
      <trkpt lat="50.50241" lon="5.66255">
        <ele>239</ele>
        <time>2019-01-11T00:09:39Z</time>
      </trkpt>
      <trkpt lat="50.5027" lon="5.66218">
        <ele>238</ele>
        <time>2019-01-11T00:10:39Z</time>
      </trkpt>
      <trkpt lat="50.503" lon="5.66183">
        <ele>237</ele>
        <time>2019-01-11T00:11:39Z</time>
      </trkpt>
      <trkpt lat="50.50332" lon="5.66167">
        <ele>236</ele>
        <time>2019-01-11T00:12:39Z</time>
      </trkpt>
      <trkpt lat="50.50358" lon="5.66164">
        <ele>235</ele>
        <time>2019-01-11T00:13:39Z</time>
      </trkpt>
      <trkpt lat="50.5039" lon="5.66179">
        <ele>234</ele>
        <time>2019-01-11T00:14:39Z</time>
      </trkpt>
      <trkpt lat="50.50439" lon="5.66226">
        <ele>232</ele>
        <time>2019-01-11T00:15:39Z</time>
      </trkpt>
      <trkpt lat="50.50472" lon="5.66265">
        <ele>230</ele>
        <time>2019-01-11T00:16:39Z</time>
      </trkpt>
      <trkpt lat="50.50493" lon="5.66283">
        <ele>229</ele>
        <time>2019-01-11T00:17:39Z</time>
      </trkpt>
      <trkpt lat="50.50512" lon="5.66292">
        <ele>228</ele>
        <time>2019-01-11T00:18:39Z</time>
      </trkpt>
      <trkpt lat="50.50533" lon="5.663">
        <ele>227</ele>
        <time>2019-01-11T00:19:39Z</time>
      </trkpt>
      <trkpt lat="50.50548" lon="5.66302">
        <ele>227</ele>
        <time>2019-01-11T00:20:39Z</time>
      </trkpt>
      <trkpt lat="50.5057" lon="5.66297">
        <ele>227</ele>
        <time>2019-01-11T00:21:39Z</time>
      </trkpt>
      <trkpt lat="50.5058" lon="5.66291">
        <ele>227</ele>
        <time>2019-01-11T00:22:39Z</time>
      </trkpt>
      <trkpt lat="50.50599" lon="5.66277">
        <ele>226</ele>
        <time>2019-01-11T00:23:39Z</time>
      </trkpt>
      <trkpt lat="50.50622" lon="5.66251">
        <ele>224</ele>
        <time>2019-01-11T00:24:39Z</time>
      </trkpt>
      <trkpt lat="50.50639" lon="5.6623">
        <ele>223</ele>
        <time>2019-01-11T00:25:39Z</time>
      </trkpt>
      <trkpt lat="50.50661" lon="5.66206">
        <ele>220</ele>
        <time>2019-01-11T00:26:39Z</time>
      </trkpt>
      <trkpt lat="50.5068" lon="5.66189">
        <ele>219</ele>
        <time>2019-01-11T00:27:39Z</time>
      </trkpt>
      <trkpt lat="50.5069" lon="5.66196">
        <ele>219</ele>
        <time>2019-01-11T00:28:39Z</time>
      </trkpt>
      <trkpt lat="50.507" lon="5.66188">
        <ele>219</ele>
        <time>2019-01-11T00:29:39Z</time>
      </trkpt>
      <trkpt lat="50.50709" lon="5.66153">
        <ele>218</ele>
        <time>2019-01-11T00:30:39Z</time>
      </trkpt>
      <trkpt lat="50.50722" lon="5.66129">
        <ele>218</ele>
        <time>2019-01-11T00:31:39Z</time>
      </trkpt>
      <trkpt lat="50.50738" lon="5.6611">
        <ele>216</ele>
        <time>2019-01-11T00:32:39Z</time>
      </trkpt>
      <trkpt lat="50.50765" lon="5.66078">
        <ele>215</ele>
        <time>2019-01-11T00:33:39Z</time>
      </trkpt>
      <trkpt lat="50.50799" lon="5.66041">
        <ele>216</ele>
        <time>2019-01-11T00:34:39Z</time>
      </trkpt>
      <trkpt lat="50.50831" lon="5.66008">
        <ele>216</ele>
        <time>2019-01-11T00:35:39Z</time>
      </trkpt>
      <trkpt lat="50.50853" lon="5.65991">
        <ele>217</ele>
        <time>2019-01-11T00:36:39Z</time>
      </trkpt>
      <trkpt lat="50.50892" lon="5.65966">
        <ele>220</ele>
        <time>2019-01-11T00:37:39Z</time>
      </trkpt>
      <trkpt lat="50.50944" lon="5.65941">
        <ele>224</ele>
        <time>2019-01-11T00:38:39Z</time>
      </trkpt>
      <trkpt lat="50.51003" lon="5.65919">
        <ele>229</ele>
        <time>2019-01-11T00:39:39Z</time>
      </trkpt>
      <trkpt lat="50.51026" lon="5.6591">
        <ele>231</ele>
        <time>2019-01-11T00:40:39Z</time>
      </trkpt>
      <trkpt lat="50.51048" lon="5.65908">
        <ele>232</ele>
        <time>2019-01-11T00:41:39Z</time>
      </trkpt>
      <trkpt lat="50.51071" lon="5.65907">
        <ele>233</ele>
        <time>2019-01-11T00:42:39Z</time>
      </trkpt>
      <trkpt lat="50.51094" lon="5.65908">
        <ele>235</ele>
        <time>2019-01-11T00:43:39Z</time>
      </trkpt>
      <trkpt lat="50.51253" lon="5.65922">
        <ele>245</ele>
        <time>2019-01-11T00:44:39Z</time>
      </trkpt>
      <trkpt lat="50.51338" lon="5.65929">
        <ele>254</ele>
        <time>2019-01-11T00:45:39Z</time>
      </trkpt>
      <trkpt lat="50.5139" lon="5.65938">
        <ele>258</ele>
        <time>2019-01-11T00:46:39Z</time>
      </trkpt>
      <trkpt lat="50.51438" lon="5.65953">
        <ele>261</ele>
        <time>2019-01-11T00:47:39Z</time>
      </trkpt>
      <trkpt lat="50.51501" lon="5.65974">
        <ele>266</ele>
        <time>2019-01-11T00:48:39Z</time>
      </trkpt>
      <trkpt lat="50.51547" lon="5.65989">
        <ele>269</ele>
        <time>2019-01-11T00:49:39Z</time>
      </trkpt>
      <trkpt lat="50.51599" lon="5.66002">
        <ele>273</ele>
        <time>2019-01-11T00:50:39Z</time>
      </trkpt>
      <trkpt lat="50.51653" lon="5.66002">
        <ele>276</ele>
        <time>2019-01-11T00:51:39Z</time>
      </trkpt>
      <trkpt lat="50.51712" lon="5.65998">
        <ele>279</ele>
        <time>2019-01-11T00:52:39Z</time>
      </trkpt>
      <trkpt lat="50.51769" lon="5.65991">
        <ele>282</ele>
        <time>2019-01-11T00:53:39Z</time>
      </trkpt>
      <trkpt lat="50.51862" lon="5.65971">
        <ele>284</ele>
        <time>2019-01-11T00:54:39Z</time>
      </trkpt>
      <trkpt lat="50.51953" lon="5.65954">
        <ele>285</ele>
        <time>2019-01-11T00:55:39Z</time>
      </trkpt>
      <trkpt lat="50.52019" lon="5.65938">
        <ele>283</ele>
        <time>2019-01-11T00:56:39Z</time>
      </trkpt>
      <trkpt lat="50.52062" lon="5.65919">
        <ele>280</ele>
        <time>2019-01-11T00:57:39Z</time>
      </trkpt>
      <trkpt lat="50.52146" lon="5.65877">
        <ele>275</ele>
        <time>2019-01-11T00:58:39Z</time>
      </trkpt>
      <trkpt lat="50.52293" lon="5.65823">
        <ele>269</ele>
        <time>2019-01-11T00:59:39Z</time>
      </trkpt>
      <trkpt lat="50.52455" lon="5.65764">
        <ele>262</ele>
        <time>2019-01-11T01:00:39Z</time>
      </trkpt>
      <trkpt lat="50.52631" lon="5.657">
        <ele>258</ele>
        <time>2019-01-11T01:01:39Z</time>
      </trkpt>
      <trkpt lat="50.52681" lon="5.65682">
        <ele>258</ele>
        <time>2019-01-11T01:02:39Z</time>
      </trkpt>
      <trkpt lat="50.52828" lon="5.65626">
        <ele>259</ele>
        <time>2019-01-11T01:03:39Z</time>
      </trkpt>
      <trkpt lat="50.52955" lon="5.65576">
        <ele>257</ele>
        <time>2019-01-11T01:04:39Z</time>
      </trkpt>
      <trkpt lat="50.53046" lon="5.65544">
        <ele>256</ele>
        <time>2019-01-11T01:05:39Z</time>
      </trkpt>
      <trkpt lat="50.53091" lon="5.65529">
        <ele>256</ele>
        <time>2019-01-11T01:06:39Z</time>
      </trkpt>
      <trkpt lat="50.53121" lon="5.65521">
        <ele>257</ele>
        <time>2019-01-11T01:07:39Z</time>
      </trkpt>
      <trkpt lat="50.53183" lon="5.65508">
        <ele>258</ele>
        <time>2019-01-11T01:08:39Z</time>
      </trkpt>
      <trkpt lat="50.53247" lon="5.65492">
        <ele>256</ele>
        <time>2019-01-11T01:09:39Z</time>
      </trkpt>
      <trkpt lat="50.53271" lon="5.65478">
        <ele>255</ele>
        <time>2019-01-11T01:10:39Z</time>
      </trkpt>
      <trkpt lat="50.53323" lon="5.65442">
        <ele>254</ele>
        <time>2019-01-11T01:11:39Z</time>
      </trkpt>
      <trkpt lat="50.53374" lon="5.65406">
        <ele>255</ele>
        <time>2019-01-11T01:12:39Z</time>
      </trkpt>
      <trkpt lat="50.53398" lon="5.65394">
        <ele>256</ele>
        <time>2019-01-11T01:13:39Z</time>
      </trkpt>
      <trkpt lat="50.53446" lon="5.65387">
        <ele>256</ele>
        <time>2019-01-11T01:14:39Z</time>
      </trkpt>
      <trkpt lat="50.53559" lon="5.65372">
        <ele>256</ele>
        <time>2019-01-11T01:15:39Z</time>
      </trkpt>
      <trkpt lat="50.53594" lon="5.65367">
        <ele>256</ele>
        <time>2019-01-11T01:16:39Z</time>
      </trkpt>
      <trkpt lat="50.53623" lon="5.65362">
        <ele>256</ele>
        <time>2019-01-11T01:17:39Z</time>
      </trkpt>
      <trkpt lat="50.53658" lon="5.65354">
        <ele>256</ele>
        <time>2019-01-11T01:18:39Z</time>
      </trkpt>
      <trkpt lat="50.53688" lon="5.65346">
        <ele>256</ele>
        <time>2019-01-11T01:19:39Z</time>
      </trkpt>
      <trkpt lat="50.53741" lon="5.65329">
        <ele>257</ele>
        <time>2019-01-11T01:20:39Z</time>
      </trkpt>
      <trkpt lat="50.53872" lon="5.65287">
        <ele>256</ele>
        <time>2019-01-11T01:21:39Z</time>
      </trkpt>
      <trkpt lat="50.53943" lon="5.65262">
        <ele>257</ele>
        <time>2019-01-11T01:22:39Z</time>
      </trkpt>
      <trkpt lat="50.5394" lon="5.65194">
        <ele>257</ele>
        <time>2019-01-11T01:23:39Z</time>
      </trkpt>
      <trkpt lat="50.53939" lon="5.65058">
        <ele>256</ele>
        <time>2019-01-11T01:24:39Z</time>
      </trkpt>
      <trkpt lat="50.53936" lon="5.64881">
        <ele>252</ele>
        <time>2019-01-11T01:25:39Z</time>
      </trkpt>
      <trkpt lat="50.53933" lon="5.64709">
        <ele>252</ele>
        <time>2019-01-11T01:26:39Z</time>
      </trkpt>
      <trkpt lat="50.53928" lon="5.64494">
        <ele>248</ele>
        <time>2019-01-11T01:27:39Z</time>
      </trkpt>
      <trkpt lat="50.53898" lon="5.64219">
        <ele>248</ele>
        <time>2019-01-11T01:28:39Z</time>
      </trkpt>
      <trkpt lat="50.53877" lon="5.64059">
        <ele>249</ele>
        <time>2019-01-11T01:29:39Z</time>
      </trkpt>
      <trkpt lat="50.53868" lon="5.64007">
        <ele>250</ele>
        <time>2019-01-11T01:30:39Z</time>
      </trkpt>
      <trkpt lat="50.53855" lon="5.63952">
        <ele>251</ele>
        <time>2019-01-11T01:31:39Z</time>
      </trkpt>
      <trkpt lat="50.5384" lon="5.63899">
        <ele>251</ele>
        <time>2019-01-11T01:32:39Z</time>
      </trkpt>
      <trkpt lat="50.53825" lon="5.63863">
        <ele>251</ele>
        <time>2019-01-11T01:33:39Z</time>
      </trkpt>
      <trkpt lat="50.53803" lon="5.6382">
        <ele>250</ele>
        <time>2019-01-11T01:34:39Z</time>
      </trkpt>
      <trkpt lat="50.53767" lon="5.63754">
        <ele>249</ele>
        <time>2019-01-11T01:35:39Z</time>
      </trkpt>
      <trkpt lat="50.53744" lon="5.63697">
        <ele>249</ele>
        <time>2019-01-11T01:36:39Z</time>
      </trkpt>
      <trkpt lat="50.53711" lon="5.63606">
        <ele>249</ele>
        <time>2019-01-11T01:37:39Z</time>
      </trkpt>
      <trkpt lat="50.53667" lon="5.63494">
        <ele>249</ele>
        <time>2019-01-11T01:38:39Z</time>
      </trkpt>
      <trkpt lat="50.53647" lon="5.63444">
        <ele>249</ele>
        <time>2019-01-11T01:39:39Z</time>
      </trkpt>
      <trkpt lat="50.53629" lon="5.63387">
        <ele>250</ele>
        <time>2019-01-11T01:40:39Z</time>
      </trkpt>
      <trkpt lat="50.53595" lon="5.63254">
        <ele>252</ele>
        <time>2019-01-11T01:41:39Z</time>
      </trkpt>
      <trkpt lat="50.53575" lon="5.63169">
        <ele>253</ele>
        <time>2019-01-11T01:42:39Z</time>
      </trkpt>
      <trkpt lat="50.5356" lon="5.63111">
        <ele>253</ele>
        <time>2019-01-11T01:43:39Z</time>
      </trkpt>
      <trkpt lat="50.53542" lon="5.63056">
        <ele>253</ele>
        <time>2019-01-11T01:44:39Z</time>
      </trkpt>
      <trkpt lat="50.53528" lon="5.63015">
        <ele>253</ele>
        <time>2019-01-11T01:45:39Z</time>
      </trkpt>
      <trkpt lat="50.53506" lon="5.62948">
        <ele>253</ele>
        <time>2019-01-11T01:46:39Z</time>
      </trkpt>
      <trkpt lat="50.53501" lon="5.62931">
        <ele>253</ele>
        <time>2019-01-11T01:47:39Z</time>
      </trkpt>
      <trkpt lat="50.53492" lon="5.62882">
        <ele>254</ele>
        <time>2019-01-11T01:48:39Z</time>
      </trkpt>
      <trkpt lat="50.53472" lon="5.62773">
        <ele>256</ele>
        <time>2019-01-11T01:49:39Z</time>
      </trkpt>
      <trkpt lat="50.53462" lon="5.62751">
        <ele>256</ele>
        <time>2019-01-11T01:50:39Z</time>
      </trkpt>
      <trkpt lat="50.53399" lon="5.62643">
        <ele>255</ele>
        <time>2019-01-11T01:51:39Z</time>
      </trkpt>
      <trkpt lat="50.5332" lon="5.62506">
        <ele>250</ele>
        <time>2019-01-11T01:52:39Z</time>
      </trkpt>
      <trkpt lat="50.53209" lon="5.6231">
        <ele>239</ele>
        <time>2019-01-11T01:53:39Z</time>
      </trkpt>
      <trkpt lat="50.53189" lon="5.62285">
        <ele>238</ele>
        <time>2019-01-11T01:54:39Z</time>
      </trkpt>
      <trkpt lat="50.53175" lon="5.62278">
        <ele>238</ele>
        <time>2019-01-11T01:55:39Z</time>
      </trkpt>
      <trkpt lat="50.53164" lon="5.62266">
        <ele>238</ele>
        <time>2019-01-11T01:56:39Z</time>
      </trkpt>
      <trkpt lat="50.53163" lon="5.62239">
        <ele>238</ele>
        <time>2019-01-11T01:57:39Z</time>
      </trkpt>
      <trkpt lat="50.53163" lon="5.6218">
        <ele>238</ele>
        <time>2019-01-11T01:58:39Z</time>
      </trkpt>
      <trkpt lat="50.53164" lon="5.62013">
        <ele>239</ele>
        <time>2019-01-11T01:59:39Z</time>
      </trkpt>
      <trkpt lat="50.53163" lon="5.61746">
        <ele>240</ele>
        <time>2019-01-11T02:00:39Z</time>
      </trkpt>
      <trkpt lat="50.53144" lon="5.61548">
        <ele>244</ele>
        <time>2019-01-11T02:01:39Z</time>
      </trkpt>
      <trkpt lat="50.53138" lon="5.61467">
        <ele>242</ele>
        <time>2019-01-11T02:02:39Z</time>
      </trkpt>
      <trkpt lat="50.53139" lon="5.61388">
        <ele>240</ele>
        <time>2019-01-11T02:03:39Z</time>
      </trkpt>
      <trkpt lat="50.53144" lon="5.61158">
        <ele>241</ele>
        <time>2019-01-11T02:04:39Z</time>
      </trkpt>
      <trkpt lat="50.53138" lon="5.61125">
        <ele>241</ele>
        <time>2019-01-11T02:05:39Z</time>
      </trkpt>
      <trkpt lat="50.53107" lon="5.60979">
        <ele>241</ele>
        <time>2019-01-11T02:06:39Z</time>
      </trkpt>
      <trkpt lat="50.53089" lon="5.60886">
        <ele>241</ele>
        <time>2019-01-11T02:07:39Z</time>
      </trkpt>
      <trkpt lat="50.53064" lon="5.60787">
        <ele>239</ele>
        <time>2019-01-11T02:08:39Z</time>
      </trkpt>
      <trkpt lat="50.53052" lon="5.60733">
        <ele>239</ele>
        <time>2019-01-11T02:09:39Z</time>
      </trkpt>
      <trkpt lat="50.53034" lon="5.60616">
        <ele>240</ele>
        <time>2019-01-11T02:10:39Z</time>
      </trkpt>
      <trkpt lat="50.53028" lon="5.60583">
        <ele>240</ele>
        <time>2019-01-11T02:11:39Z</time>
      </trkpt>
      <trkpt lat="50.53027" lon="5.60552">
        <ele>240</ele>
        <time>2019-01-11T02:12:39Z</time>
      </trkpt>
      <trkpt lat="50.53025" lon="5.60495">
        <ele>239</ele>
        <time>2019-01-11T02:13:39Z</time>
      </trkpt>
      <trkpt lat="50.53019" lon="5.60419">
        <ele>239</ele>
        <time>2019-01-11T02:14:39Z</time>
      </trkpt>
      <trkpt lat="50.53013" lon="5.60366">
        <ele>238</ele>
        <time>2019-01-11T02:15:39Z</time>
      </trkpt>
      <trkpt lat="50.53012" lon="5.60328">
        <ele>237</ele>
        <time>2019-01-11T02:16:39Z</time>
      </trkpt>
      <trkpt lat="50.53016" lon="5.60287">
        <ele>236</ele>
        <time>2019-01-11T02:17:39Z</time>
      </trkpt>
      <trkpt lat="50.53017" lon="5.60226">
        <ele>235</ele>
        <time>2019-01-11T02:18:39Z</time>
      </trkpt>
      <trkpt lat="50.53013" lon="5.60187">
        <ele>233</ele>
        <time>2019-01-11T02:19:39Z</time>
      </trkpt>
      <trkpt lat="50.52998" lon="5.60062">
        <ele>232</ele>
        <time>2019-01-11T02:20:39Z</time>
      </trkpt>
      <trkpt lat="50.5299" lon="5.60004">
        <ele>231</ele>
        <time>2019-01-11T02:21:39Z</time>
      </trkpt>
      <trkpt lat="50.52988" lon="5.59955">
        <ele>231</ele>
        <time>2019-01-11T02:22:39Z</time>
      </trkpt>
      <trkpt lat="50.52988" lon="5.59909">
        <ele>230</ele>
        <time>2019-01-11T02:23:39Z</time>
      </trkpt>
      <trkpt lat="50.53002" lon="5.5984">
        <ele>229</ele>
        <time>2019-01-11T02:24:39Z</time>
      </trkpt>
      <trkpt lat="50.53011" lon="5.59795">
        <ele>228</ele>
        <time>2019-01-11T02:25:39Z</time>
      </trkpt>
      <trkpt lat="50.53027" lon="5.59754">
        <ele>227</ele>
        <time>2019-01-11T02:26:39Z</time>
      </trkpt>
      <trkpt lat="50.53057" lon="5.59691">
        <ele>226</ele>
        <time>2019-01-11T02:27:39Z</time>
      </trkpt>
      <trkpt lat="50.53071" lon="5.59661">
        <ele>225</ele>
        <time>2019-01-11T02:28:39Z</time>
      </trkpt>
      <trkpt lat="50.5308" lon="5.59633">
        <ele>224</ele>
        <time>2019-01-11T02:29:39Z</time>
      </trkpt>
      <trkpt lat="50.53096" lon="5.5955">
        <ele>222</ele>
        <time>2019-01-11T02:30:39Z</time>
      </trkpt>
      <trkpt lat="50.53108" lon="5.59515">
        <ele>220</ele>
        <time>2019-01-11T02:31:39Z</time>
      </trkpt>
      <trkpt lat="50.53121" lon="5.59494">
        <ele>219</ele>
        <time>2019-01-11T02:32:39Z</time>
      </trkpt>
      <trkpt lat="50.53132" lon="5.59482">
        <ele>219</ele>
        <time>2019-01-11T02:33:39Z</time>
      </trkpt>
      <trkpt lat="50.53163" lon="5.59446">
        <ele>217</ele>
        <time>2019-01-11T02:34:39Z</time>
      </trkpt>
      <trkpt lat="50.53216" lon="5.59392">
        <ele>213</ele>
        <time>2019-01-11T02:35:39Z</time>
      </trkpt>
      <trkpt lat="50.53242" lon="5.59378">
        <ele>211</ele>
        <time>2019-01-11T02:36:39Z</time>
      </trkpt>
      <trkpt lat="50.53258" lon="5.59376">
        <ele>210</ele>
        <time>2019-01-11T02:37:39Z</time>
      </trkpt>
      <trkpt lat="50.53288" lon="5.59375">
        <ele>207</ele>
        <time>2019-01-11T02:38:39Z</time>
      </trkpt>
      <trkpt lat="50.53315" lon="5.5937">
        <ele>205</ele>
        <time>2019-01-11T02:39:39Z</time>
      </trkpt>
      <trkpt lat="50.53338" lon="5.59356">
        <ele>203</ele>
        <time>2019-01-11T02:40:39Z</time>
      </trkpt>
      <trkpt lat="50.53353" lon="5.59325">
        <ele>202</ele>
        <time>2019-01-11T02:41:39Z</time>
      </trkpt>
      <trkpt lat="50.53363" lon="5.5929">
        <ele>201</ele>
        <time>2019-01-11T02:42:39Z</time>
      </trkpt>
      <trkpt lat="50.53372" lon="5.5922">
        <ele>198</ele>
        <time>2019-01-11T02:43:39Z</time>
      </trkpt>
      <trkpt lat="50.53403" lon="5.58982">
        <ele>186</ele>
        <time>2019-01-11T02:44:39Z</time>
      </trkpt>
      <trkpt lat="50.53437" lon="5.58705">
        <ele>174</ele>
        <time>2019-01-11T02:45:39Z</time>
      </trkpt>
      <trkpt lat="50.53444" lon="5.58634">
        <ele>172</ele>
        <time>2019-01-11T02:46:39Z</time>
      </trkpt>
      <trkpt lat="50.53435" lon="5.58615">
        <ele>169</ele>
        <time>2019-01-11T02:47:39Z</time>
      </trkpt>
      <trkpt lat="50.53422" lon="5.58534">
        <ele>165</ele>
        <time>2019-01-11T02:48:39Z</time>
      </trkpt>
      <trkpt lat="50.53413" lon="5.58442">
        <ele>163</ele>
        <time>2019-01-11T02:49:39Z</time>
      </trkpt>
      <trkpt lat="50.53391" lon="5.58365">
        <ele>162</ele>
        <time>2019-01-11T02:50:39Z</time>
      </trkpt>
      <trkpt lat="50.53324" lon="5.58181">
        <ele>151</ele>
        <time>2019-01-11T02:51:39Z</time>
      </trkpt>
      <trkpt lat="50.53287" lon="5.58076">
        <ele>147</ele>
        <time>2019-01-11T02:52:39Z</time>
      </trkpt>
      <trkpt lat="50.53255" lon="5.57982">
        <ele>139</ele>
        <time>2019-01-11T02:53:39Z</time>
      </trkpt>
      <trkpt lat="50.5324" lon="5.5793">
        <ele>137</ele>
        <time>2019-01-11T02:54:39Z</time>
      </trkpt>
      <trkpt lat="50.53221" lon="5.57881">
        <ele>136</ele>
        <time>2019-01-11T02:55:39Z</time>
      </trkpt>
      <trkpt lat="50.53203" lon="5.57811">
        <ele>132</ele>
        <time>2019-01-11T02:56:39Z</time>
      </trkpt>
      <trkpt lat="50.53182" lon="5.57715">
        <ele>129</ele>
        <time>2019-01-11T02:57:39Z</time>
      </trkpt>
      <trkpt lat="50.53167" lon="5.57628">
        <ele>124</ele>
        <time>2019-01-11T02:58:39Z</time>
      </trkpt>
      <trkpt lat="50.5316" lon="5.57568">
        <ele>121</ele>
        <time>2019-01-11T02:59:39Z</time>
      </trkpt>
      <trkpt lat="50.53153" lon="5.5751">
        <ele>118</ele>
        <time>2019-01-11T03:00:39Z</time>
      </trkpt>
      <trkpt lat="50.53145" lon="5.5741">
        <ele>112</ele>
        <time>2019-01-11T03:01:39Z</time>
      </trkpt>
      <trkpt lat="50.53128" lon="5.57347">
        <ele>105</ele>
        <time>2019-01-11T03:02:39Z</time>
      </trkpt>
      <trkpt lat="50.53128" lon="5.57328">
        <ele>103</ele>
        <time>2019-01-11T03:03:39Z</time>
      </trkpt>
      <trkpt lat="50.53127" lon="5.57266">
        <ele>97</ele>
        <time>2019-01-11T03:04:39Z</time>
      </trkpt>
      <trkpt lat="50.53127" lon="5.57233">
        <ele>94</ele>
        <time>2019-01-11T03:05:39Z</time>
      </trkpt>
      <trkpt lat="50.53125" lon="5.57217">
        <ele>93</ele>
        <time>2019-01-11T03:06:39Z</time>
      </trkpt>
      <trkpt lat="50.5313" lon="5.57206">
        <ele>93</ele>
        <time>2019-01-11T03:07:39Z</time>
      </trkpt>
      <trkpt lat="50.53132" lon="5.57189">
        <ele>93</ele>
        <time>2019-01-11T03:08:39Z</time>
      </trkpt>
      <trkpt lat="50.53139" lon="5.57176">
        <ele>93</ele>
        <time>2019-01-11T03:09:39Z</time>
      </trkpt>
      <trkpt lat="50.53146" lon="5.57145">
        <ele>92</ele>
        <time>2019-01-11T03:10:39Z</time>
      </trkpt>
      <trkpt lat="50.5315" lon="5.57119">
        <ele>91</ele>
        <time>2019-01-11T03:11:39Z</time>
      </trkpt>
      <trkpt lat="50.53158" lon="5.57068">
        <ele>89</ele>
        <time>2019-01-11T03:12:39Z</time>
      </trkpt>
      <trkpt lat="50.5317" lon="5.56995">
        <ele>87</ele>
        <time>2019-01-11T03:13:39Z</time>
      </trkpt>
      <trkpt lat="50.53191" lon="5.56913">
        <ele>91</ele>
        <time>2019-01-11T03:14:39Z</time>
      </trkpt>
      <trkpt lat="50.53205" lon="5.56867">
        <ele>93</ele>
        <time>2019-01-11T03:15:39Z</time>
      </trkpt>
      <trkpt lat="50.53233" lon="5.56783">
        <ele>92</ele>
        <time>2019-01-11T03:16:39Z</time>
      </trkpt>
      <trkpt lat="50.53247" lon="5.56745">
        <ele>90</ele>
        <time>2019-01-11T03:17:39Z</time>
      </trkpt>
      <trkpt lat="50.53259" lon="5.567">
        <ele>89</ele>
        <time>2019-01-11T03:18:39Z</time>
      </trkpt>
      <trkpt lat="50.53283" lon="5.56689">
        <ele>91</ele>
        <time>2019-01-11T03:19:39Z</time>
      </trkpt>
      <trkpt lat="50.53317" lon="5.56656">
        <ele>92</ele>
        <time>2019-01-11T03:20:39Z</time>
      </trkpt>
      <trkpt lat="50.53358" lon="5.56606">
        <ele>93</ele>
        <time>2019-01-11T03:21:39Z</time>
      </trkpt>
      <trkpt lat="50.5339" lon="5.56571">
        <ele>93</ele>
        <time>2019-01-11T03:22:39Z</time>
      </trkpt>
      <trkpt lat="50.53401" lon="5.56561">
        <ele>94</ele>
        <time>2019-01-11T03:23:39Z</time>
      </trkpt>
      <trkpt lat="50.53423" lon="5.56562">
        <ele>96</ele>
        <time>2019-01-11T03:24:39Z</time>
      </trkpt>
      <trkpt lat="50.53439" lon="5.56573">
        <ele>98</ele>
        <time>2019-01-11T03:25:39Z</time>
      </trkpt>
      <trkpt lat="50.53447" lon="5.56579">
        <ele>100</ele>
        <time>2019-01-11T03:26:39Z</time>
      </trkpt>
      <trkpt lat="50.53468" lon="5.56595">
        <ele>103</ele>
        <time>2019-01-11T03:27:39Z</time>
      </trkpt>
      <trkpt lat="50.53493" lon="5.56613">
        <ele>107</ele>
        <time>2019-01-11T03:28:39Z</time>
      </trkpt>
      <trkpt lat="50.53527" lon="5.5663">
        <ele>110</ele>
        <time>2019-01-11T03:29:39Z</time>
      </trkpt>
      <trkpt lat="50.53542" lon="5.56639">
        <ele>111</ele>
        <time>2019-01-11T03:30:39Z</time>
      </trkpt>
      <trkpt lat="50.53548" lon="5.56644">
        <ele>111</ele>
        <time>2019-01-11T03:31:39Z</time>
      </trkpt>
      <trkpt lat="50.53559" lon="5.56672">
        <ele>113</ele>
        <time>2019-01-11T03:32:39Z</time>
      </trkpt>
      <trkpt lat="50.53572" lon="5.56711">
        <ele>115</ele>
        <time>2019-01-11T03:33:39Z</time>
      </trkpt>
      <trkpt lat="50.53581" lon="5.56742">
        <ele>116</ele>
        <time>2019-01-11T03:34:39Z</time>
      </trkpt>
      <trkpt lat="50.53593" lon="5.56794">
        <ele>117</ele>
        <time>2019-01-11T03:35:39Z</time>
      </trkpt>
      <trkpt lat="50.53602" lon="5.56841">
        <ele>118</ele>
        <time>2019-01-11T03:36:39Z</time>
      </trkpt>
      <trkpt lat="50.53608" lon="5.56879">
        <ele>119</ele>
        <time>2019-01-11T03:37:39Z</time>
      </trkpt>
      <trkpt lat="50.53616" lon="5.56976">
        <ele>121</ele>
        <time>2019-01-11T03:38:39Z</time>
      </trkpt>
      <trkpt lat="50.53621" lon="5.57016">
        <ele>122</ele>
        <time>2019-01-11T03:39:39Z</time>
      </trkpt>
      <trkpt lat="50.5365" lon="5.57297">
        <ele>133</ele>
        <time>2019-01-11T03:40:39Z</time>
      </trkpt>
      <trkpt lat="50.53672" lon="5.57487">
        <ele>132</ele>
        <time>2019-01-11T03:41:39Z</time>
      </trkpt>
      <trkpt lat="50.53698" lon="5.57698">
        <ele>132</ele>
        <time>2019-01-11T03:42:39Z</time>
      </trkpt>
      <trkpt lat="50.53701" lon="5.57739">
        <ele>132</ele>
        <time>2019-01-11T03:43:39Z</time>
      </trkpt>
      <trkpt lat="50.5372" lon="5.57867">
        <ele>128</ele>
        <time>2019-01-11T03:44:39Z</time>
      </trkpt>
      <trkpt lat="50.53721" lon="5.57885">
        <ele>127</ele>
        <time>2019-01-11T03:45:39Z</time>
      </trkpt>
      <trkpt lat="50.53719" lon="5.57905">
        <ele>126</ele>
        <time>2019-01-11T03:46:39Z</time>
      </trkpt>
      <trkpt lat="50.53714" lon="5.57924">
        <ele>126</ele>
        <time>2019-01-11T03:47:39Z</time>
      </trkpt>
      <trkpt lat="50.537" lon="5.57953">
        <ele>127</ele>
        <time>2019-01-11T03:48:39Z</time>
      </trkpt>
      <trkpt lat="50.53688" lon="5.57983">
        <ele>127</ele>
        <time>2019-01-11T03:49:39Z</time>
      </trkpt>
      <trkpt lat="50.53683" lon="5.58015">
        <ele>128</ele>
        <time>2019-01-11T03:50:39Z</time>
      </trkpt>
      <trkpt lat="50.53688" lon="5.5805">
        <ele>127</ele>
        <time>2019-01-11T03:51:39Z</time>
      </trkpt>
      <trkpt lat="50.53787" lon="5.5842">
        <ele>116</ele>
        <time>2019-01-11T03:52:39Z</time>
      </trkpt>
      <trkpt lat="50.53805" lon="5.58467">
        <ele>115</ele>
        <time>2019-01-11T03:53:39Z</time>
      </trkpt>
      <trkpt lat="50.53907" lon="5.58618">
        <ele>105</ele>
        <time>2019-01-11T03:54:39Z</time>
      </trkpt>
      <trkpt lat="50.53962" lon="5.58707">
        <ele>104</ele>
        <time>2019-01-11T03:55:39Z</time>
      </trkpt>
      <trkpt lat="50.53984" lon="5.58734">
        <ele>101</ele>
        <time>2019-01-11T03:56:39Z</time>
      </trkpt>
      <trkpt lat="50.53985" lon="5.58716">
        <ele>99</ele>
        <time>2019-01-11T03:57:39Z</time>
      </trkpt>
      <trkpt lat="50.53966" lon="5.58676">
        <ele>99</ele>
        <time>2019-01-11T03:58:39Z</time>
      </trkpt>
      <trkpt lat="50.53957" lon="5.58649">
        <ele>98</ele>
        <time>2019-01-11T03:59:39Z</time>
      </trkpt>
      <trkpt lat="50.53932" lon="5.58561">
        <ele>93</ele>
        <time>2019-01-11T04:00:39Z</time>
      </trkpt>
      <trkpt lat="50.53926" lon="5.58542">
        <ele>92</ele>
        <time>2019-01-11T04:01:39Z</time>
      </trkpt>
      <trkpt lat="50.5391" lon="5.58499">
        <ele>91</ele>
        <time>2019-01-11T04:02:39Z</time>
      </trkpt>
      <trkpt lat="50.53874" lon="5.58415">
        <ele>92</ele>
        <time>2019-01-11T04:03:39Z</time>
      </trkpt>
      <trkpt lat="50.53867" lon="5.58394">
        <ele>93</ele>
        <time>2019-01-11T04:04:39Z</time>
      </trkpt>
      <trkpt lat="50.53858" lon="5.58364">
        <ele>93</ele>
        <time>2019-01-11T04:05:39Z</time>
      </trkpt>
      <trkpt lat="50.53857" lon="5.58348">
        <ele>92</ele>
        <time>2019-01-11T04:06:39Z</time>
      </trkpt>
      <trkpt lat="50.53841" lon="5.58168">
        <ele>91</ele>
        <time>2019-01-11T04:07:39Z</time>
      </trkpt>
      <trkpt lat="50.53853" lon="5.58115">
        <ele>88</ele>
        <time>2019-01-11T04:08:39Z</time>
      </trkpt>
      <trkpt lat="50.539" lon="5.58081">
        <ele>82</ele>
        <time>2019-01-11T04:09:39Z</time>
      </trkpt>
      <trkpt lat="50.53984" lon="5.58015">
        <ele>79</ele>
        <time>2019-01-11T04:10:39Z</time>
      </trkpt>
      <trkpt lat="50.54025" lon="5.57984">
        <ele>79</ele>
        <time>2019-01-11T04:11:39Z</time>
      </trkpt>
      <trkpt lat="50.54076" lon="5.57951">
        <ele>80</ele>
        <time>2019-01-11T04:12:39Z</time>
      </trkpt>
      <trkpt lat="50.5408" lon="5.57936">
        <ele>80</ele>
        <time>2019-01-11T04:13:39Z</time>
      </trkpt>
      <trkpt lat="50.54065" lon="5.5787">
        <ele>81</ele>
        <time>2019-01-11T04:14:39Z</time>
      </trkpt>
      <trkpt lat="50.54115" lon="5.57834">
        <ele>83</ele>
        <time>2019-01-11T04:15:39Z</time>
      </trkpt>
      <trkpt lat="50.54129" lon="5.57819">
        <ele>83</ele>
        <time>2019-01-11T04:16:39Z</time>
      </trkpt>
      <trkpt lat="50.54162" lon="5.57801">
        <ele>85</ele>
        <time>2019-01-11T04:17:39Z</time>
      </trkpt>
      <trkpt lat="50.54171" lon="5.57798">
        <ele>86</ele>
        <time>2019-01-11T04:18:39Z</time>
      </trkpt>
      <trkpt lat="50.54178" lon="5.57804">
        <ele>88</ele>
        <time>2019-01-11T04:19:39Z</time>
      </trkpt>
      <trkpt lat="50.54183" lon="5.5781">
        <ele>89</ele>
        <time>2019-01-11T04:20:39Z</time>
      </trkpt>
      <trkpt lat="50.54195" lon="5.57839">
        <ele>91</ele>
        <time>2019-01-11T04:21:39Z</time>
      </trkpt>
      <trkpt lat="50.54211" lon="5.57874">
        <ele>92</ele>
        <time>2019-01-11T04:22:39Z</time>
      </trkpt>
      <trkpt lat="50.54219" lon="5.57882">
        <ele>93</ele>
        <time>2019-01-11T04:23:39Z</time>
      </trkpt>
      <trkpt lat="50.54234" lon="5.5788">
        <ele>96</ele>
        <time>2019-01-11T04:24:39Z</time>
      </trkpt>
      <trkpt lat="50.54241" lon="5.57882">
        <ele>97</ele>
        <time>2019-01-11T04:25:39Z</time>
      </trkpt>
      <trkpt lat="50.54246" lon="5.57885">
        <ele>98</ele>
        <time>2019-01-11T04:26:39Z</time>
      </trkpt>
      <trkpt lat="50.54259" lon="5.57928">
        <ele>100</ele>
        <time>2019-01-11T04:27:39Z</time>
      </trkpt>
      <trkpt lat="50.54285" lon="5.57986">
        <ele>105</ele>
        <time>2019-01-11T04:28:39Z</time>
      </trkpt>
      <trkpt lat="50.54294" lon="5.58009">
        <ele>107</ele>
        <time>2019-01-11T04:29:39Z</time>
      </trkpt>
      <trkpt lat="50.54304" lon="5.58024">
        <ele>108</ele>
        <time>2019-01-11T04:30:39Z</time>
      </trkpt>
      <trkpt lat="50.54343" lon="5.58083">
        <ele>114</ele>
        <time>2019-01-11T04:31:39Z</time>
      </trkpt>
      <trkpt lat="50.54364" lon="5.5812">
        <ele>116</ele>
        <time>2019-01-11T04:32:39Z</time>
      </trkpt>
      <trkpt lat="50.54382" lon="5.58154">
        <ele>117</ele>
        <time>2019-01-11T04:33:39Z</time>
      </trkpt>
      <trkpt lat="50.54403" lon="5.58172">
        <ele>121</ele>
        <time>2019-01-11T04:34:39Z</time>
      </trkpt>
      <trkpt lat="50.54422" lon="5.58181">
        <ele>125</ele>
        <time>2019-01-11T04:35:39Z</time>
      </trkpt>
      <trkpt lat="50.54434" lon="5.58185">
        <ele>126</ele>
        <time>2019-01-11T04:36:39Z</time>
      </trkpt>
      <trkpt lat="50.54454" lon="5.5818">
        <ele>129</ele>
        <time>2019-01-11T04:37:39Z</time>
      </trkpt>
      <trkpt lat="50.54472" lon="5.5817">
        <ele>132</ele>
        <time>2019-01-11T04:38:39Z</time>
      </trkpt>
      <trkpt lat="50.54489" lon="5.58155">
        <ele>135</ele>
        <time>2019-01-11T04:39:39Z</time>
      </trkpt>
      <trkpt lat="50.54534" lon="5.58089">
        <ele>145</ele>
        <time>2019-01-11T04:40:39Z</time>
      </trkpt>
      <trkpt lat="50.54543" lon="5.5808">
        <ele>146</ele>
        <time>2019-01-11T04:41:39Z</time>
      </trkpt>
      <trkpt lat="50.54576" lon="5.58056">
        <ele>151</ele>
        <time>2019-01-11T04:42:39Z</time>
      </trkpt>
      <trkpt lat="50.54606" lon="5.58041">
        <ele>155</ele>
        <time>2019-01-11T04:43:39Z</time>
      </trkpt>
      <trkpt lat="50.54632" lon="5.58038">
        <ele>158</ele>
        <time>2019-01-11T04:44:39Z</time>
      </trkpt>
      <trkpt lat="50.54648" lon="5.5803">
        <ele>160</ele>
        <time>2019-01-11T04:45:39Z</time>
      </trkpt>
      <trkpt lat="50.54665" lon="5.58008">
        <ele>162</ele>
        <time>2019-01-11T04:46:39Z</time>
      </trkpt>
      <trkpt lat="50.54677" lon="5.57966">
        <ele>166</ele>
        <time>2019-01-11T04:47:39Z</time>
      </trkpt>
      <trkpt lat="50.54705" lon="5.57911">
        <ele>172</ele>
        <time>2019-01-11T04:48:39Z</time>
      </trkpt>
      <trkpt lat="50.54714" lon="5.57894">
        <ele>174</ele>
        <time>2019-01-11T04:49:39Z</time>
      </trkpt>
      <trkpt lat="50.54753" lon="5.57836">
        <ele>181</ele>
        <time>2019-01-11T04:50:39Z</time>
      </trkpt>
      <trkpt lat="50.54783" lon="5.57796">
        <ele>187</ele>
        <time>2019-01-11T04:51:39Z</time>
      </trkpt>
      <trkpt lat="50.54799" lon="5.57779">
        <ele>191</ele>
        <time>2019-01-11T04:52:39Z</time>
      </trkpt>
      <trkpt lat="50.54853" lon="5.57728">
        <ele>202</ele>
        <time>2019-01-11T04:53:39Z</time>
      </trkpt>
      <trkpt lat="50.54864" lon="5.57719">
        <ele>204</ele>
        <time>2019-01-11T04:54:39Z</time>
      </trkpt>
      <trkpt lat="50.54903" lon="5.57668">
        <ele>213</ele>
        <time>2019-01-11T04:55:39Z</time>
      </trkpt>
      <trkpt lat="50.54927" lon="5.57604">
        <ele>219</ele>
        <time>2019-01-11T04:56:39Z</time>
      </trkpt>
      <trkpt lat="50.54945" lon="5.57534">
        <ele>224</ele>
        <time>2019-01-11T04:57:39Z</time>
      </trkpt>
      <trkpt lat="50.54982" lon="5.57468">
        <ele>226</ele>
        <time>2019-01-11T04:58:39Z</time>
      </trkpt>
      <trkpt lat="50.55" lon="5.57433">
        <ele>225</ele>
        <time>2019-01-11T04:59:39Z</time>
      </trkpt>
      <trkpt lat="50.55015" lon="5.57401">
        <ele>223</ele>
        <time>2019-01-11T05:00:39Z</time>
      </trkpt>
      <trkpt lat="50.55032" lon="5.57316">
        <ele>216</ele>
        <time>2019-01-11T05:01:39Z</time>
      </trkpt>
      <trkpt lat="50.55057" lon="5.57215">
        <ele>204</ele>
        <time>2019-01-11T05:02:39Z</time>
      </trkpt>
      <trkpt lat="50.55107" lon="5.57131">
        <ele>191</ele>
        <time>2019-01-11T05:03:39Z</time>
      </trkpt>
      <trkpt lat="50.55142" lon="5.5707">
        <ele>186</ele>
        <time>2019-01-11T05:04:39Z</time>
      </trkpt>
      <trkpt lat="50.55155" lon="5.57028">
        <ele>183</ele>
        <time>2019-01-11T05:05:39Z</time>
      </trkpt>
      <trkpt lat="50.55171" lon="5.57007">
        <ele>182</ele>
        <time>2019-01-11T05:06:39Z</time>
      </trkpt>
      <trkpt lat="50.55187" lon="5.56994">
        <ele>181</ele>
        <time>2019-01-11T05:07:39Z</time>
      </trkpt>
      <trkpt lat="50.5526" lon="5.56972">
        <ele>179</ele>
        <time>2019-01-11T05:08:39Z</time>
      </trkpt>
      <trkpt lat="50.55275" lon="5.56952">
        <ele>180</ele>
        <time>2019-01-11T05:09:39Z</time>
      </trkpt>
      <trkpt lat="50.55285" lon="5.5693">
        <ele>180</ele>
        <time>2019-01-11T05:10:39Z</time>
      </trkpt>
      <trkpt lat="50.55318" lon="5.56794">
        <ele>181</ele>
        <time>2019-01-11T05:11:39Z</time>
      </trkpt>
      <trkpt lat="50.55319" lon="5.56701">
        <ele>180</ele>
        <time>2019-01-11T05:12:39Z</time>
      </trkpt>
      <trkpt lat="50.55327" lon="5.56634">
        <ele>179</ele>
        <time>2019-01-11T05:13:39Z</time>
      </trkpt>
      <trkpt lat="50.55344" lon="5.56561">
        <ele>176</ele>
        <time>2019-01-11T05:14:39Z</time>
      </trkpt>
      <trkpt lat="50.55346" lon="5.5648">
        <ele>174</ele>
        <time>2019-01-11T05:15:39Z</time>
      </trkpt>
      <trkpt lat="50.55345" lon="5.56456">
        <ele>173</ele>
        <time>2019-01-11T05:16:39Z</time>
      </trkpt>
      <trkpt lat="50.55322" lon="5.56223">
        <ele>172</ele>
        <time>2019-01-11T05:17:39Z</time>
      </trkpt>
      <trkpt lat="50.55325" lon="5.56194">
        <ele>172</ele>
        <time>2019-01-11T05:18:39Z</time>
      </trkpt>
      <trkpt lat="50.55343" lon="5.56141">
        <ele>172</ele>
        <time>2019-01-11T05:19:39Z</time>
      </trkpt>
      <trkpt lat="50.55353" lon="5.56092">
        <ele>171</ele>
        <time>2019-01-11T05:20:39Z</time>
      </trkpt>
      <trkpt lat="50.55364" lon="5.55958">
        <ele>177</ele>
        <time>2019-01-11T05:21:39Z</time>
      </trkpt>
      <trkpt lat="50.55364" lon="5.55926">
        <ele>180</ele>
        <time>2019-01-11T05:22:39Z</time>
      </trkpt>
      <trkpt lat="50.55358" lon="5.55888">
        <ele>181</ele>
        <time>2019-01-11T05:23:39Z</time>
      </trkpt>
      <trkpt lat="50.55365" lon="5.55832">
        <ele>182</ele>
        <time>2019-01-11T05:24:39Z</time>
      </trkpt>
      <trkpt lat="50.55372" lon="5.55793">
        <ele>185</ele>
        <time>2019-01-11T05:25:39Z</time>
      </trkpt>
      <trkpt lat="50.55372" lon="5.55753">
        <ele>187</ele>
        <time>2019-01-11T05:26:39Z</time>
      </trkpt>
      <trkpt lat="50.55357" lon="5.55663">
        <ele>191</ele>
        <time>2019-01-11T05:27:39Z</time>
      </trkpt>
      <trkpt lat="50.55328" lon="5.55501">
        <ele>192</ele>
        <time>2019-01-11T05:28:39Z</time>
      </trkpt>
      <trkpt lat="50.55306" lon="5.55375">
        <ele>195</ele>
        <time>2019-01-11T05:29:39Z</time>
      </trkpt>
      <trkpt lat="50.55282" lon="5.55196">
        <ele>202</ele>
        <time>2019-01-11T05:30:39Z</time>
      </trkpt>
      <trkpt lat="50.55275" lon="5.55125">
        <ele>203</ele>
        <time>2019-01-11T05:31:39Z</time>
      </trkpt>
      <trkpt lat="50.5527" lon="5.55086">
        <ele>203</ele>
        <time>2019-01-11T05:32:39Z</time>
      </trkpt>
      <trkpt lat="50.55262" lon="5.55047">
        <ele>204</ele>
        <time>2019-01-11T05:33:39Z</time>
      </trkpt>
      <trkpt lat="50.55247" lon="5.55018">
        <ele>203</ele>
        <time>2019-01-11T05:34:39Z</time>
      </trkpt>
      <trkpt lat="50.55241" lon="5.55001">
        <ele>202</ele>
        <time>2019-01-11T05:35:39Z</time>
      </trkpt>
      <trkpt lat="50.55243" lon="5.54985">
        <ele>203</ele>
        <time>2019-01-11T05:36:39Z</time>
      </trkpt>
      <trkpt lat="50.55246" lon="5.54975">
        <ele>204</ele>
        <time>2019-01-11T05:37:39Z</time>
      </trkpt>
      <trkpt lat="50.55273" lon="5.54909">
        <ele>209</ele>
        <time>2019-01-11T05:38:39Z</time>
      </trkpt>
      <trkpt lat="50.55299" lon="5.54844">
        <ele>211</ele>
        <time>2019-01-11T05:39:39Z</time>
      </trkpt>
      <trkpt lat="50.55335" lon="5.54816">
        <ele>213</ele>
        <time>2019-01-11T05:40:39Z</time>
      </trkpt>
      <trkpt lat="50.55359" lon="5.54811">
        <ele>215</ele>
        <time>2019-01-11T05:41:39Z</time>
      </trkpt>
      <trkpt lat="50.55378" lon="5.54807">
        <ele>216</ele>
        <time>2019-01-11T05:42:39Z</time>
      </trkpt>
      <trkpt lat="50.55396" lon="5.54806">
        <ele>218</ele>
        <time>2019-01-11T05:43:39Z</time>
      </trkpt>
      <trkpt lat="50.55428" lon="5.54805">
        <ele>220</ele>
        <time>2019-01-11T05:44:39Z</time>
      </trkpt>
      <trkpt lat="50.55443" lon="5.54805">
        <ele>222</ele>
        <time>2019-01-11T05:45:39Z</time>
      </trkpt>
      <trkpt lat="50.5552" lon="5.5482">
        <ele>230</ele>
        <time>2019-01-11T05:46:39Z</time>
      </trkpt>
      <trkpt lat="50.55563" lon="5.54829">
        <ele>236</ele>
        <time>2019-01-11T05:47:39Z</time>
      </trkpt>
      <trkpt lat="50.55577" lon="5.54833">
        <ele>238</ele>
        <time>2019-01-11T05:48:39Z</time>
      </trkpt>
      <trkpt lat="50.55594" lon="5.54842">
        <ele>240</ele>
        <time>2019-01-11T05:49:39Z</time>
      </trkpt>
      <trkpt lat="50.55625" lon="5.54891">
        <ele>244</ele>
        <time>2019-01-11T05:50:39Z</time>
      </trkpt>
      <trkpt lat="50.55652" lon="5.5493">
        <ele>247</ele>
        <time>2019-01-11T05:51:39Z</time>
      </trkpt>
      <trkpt lat="50.55667" lon="5.54935">
        <ele>248</ele>
        <time>2019-01-11T05:52:39Z</time>
      </trkpt>
      <trkpt lat="50.55707" lon="5.54936">
        <ele>250</ele>
        <time>2019-01-11T05:53:39Z</time>
      </trkpt>
      <trkpt lat="50.55742" lon="5.54935">
        <ele>252</ele>
        <time>2019-01-11T05:54:39Z</time>
      </trkpt>
      <trkpt lat="50.55763" lon="5.54927">
        <ele>253</ele>
        <time>2019-01-11T05:55:39Z</time>
      </trkpt>
      <trkpt lat="50.55784" lon="5.54907">
        <ele>255</ele>
        <time>2019-01-11T05:56:39Z</time>
      </trkpt>
      <trkpt lat="50.55937" lon="5.54762">
        <ele>267</ele>
        <time>2019-01-11T05:57:39Z</time>
      </trkpt>
      <trkpt lat="50.5598" lon="5.54748">
        <ele>269</ele>
        <time>2019-01-11T05:58:39Z</time>
      </trkpt>
      <trkpt lat="50.56003" lon="5.54746">
        <ele>270</ele>
        <time>2019-01-11T05:59:39Z</time>
      </trkpt>
      <trkpt lat="50.56055" lon="5.54737">
        <ele>270</ele>
        <time>2019-01-11T06:00:39Z</time>
      </trkpt>
      <trkpt lat="50.56122" lon="5.54717">
        <ele>270</ele>
        <time>2019-01-11T06:01:39Z</time>
      </trkpt>
      <trkpt lat="50.56133" lon="5.54725">
        <ele>269</ele>
        <time>2019-01-11T06:02:39Z</time>
      </trkpt>
      <trkpt lat="50.56143" lon="5.54746">
        <ele>269</ele>
        <time>2019-01-11T06:03:39Z</time>
      </trkpt>
      <trkpt lat="50.56156" lon="5.54837">
        <ele>270</ele>
        <time>2019-01-11T06:04:39Z</time>
      </trkpt>
      <trkpt lat="50.56199" lon="5.54816">
        <ele>270</ele>
        <time>2019-01-11T06:05:39Z</time>
      </trkpt>
      <trkpt lat="50.56216" lon="5.54809">
        <ele>270</ele>
        <time>2019-01-11T06:06:39Z</time>
      </trkpt>
      <trkpt lat="50.5623" lon="5.548">
        <ele>269</ele>
        <time>2019-01-11T06:07:39Z</time>
      </trkpt>
      <trkpt lat="50.5626" lon="5.54783">
        <ele>268</ele>
        <time>2019-01-11T06:08:39Z</time>
      </trkpt>
      <trkpt lat="50.56333" lon="5.54747">
        <ele>267</ele>
        <time>2019-01-11T06:09:39Z</time>
      </trkpt>
      <trkpt lat="50.56382" lon="5.54726">
        <ele>265</ele>
        <time>2019-01-11T06:10:39Z</time>
      </trkpt>
      <trkpt lat="50.56396" lon="5.54722">
        <ele>265</ele>
        <time>2019-01-11T06:11:39Z</time>
      </trkpt>
      <trkpt lat="50.56457" lon="5.54712">
        <ele>265</ele>
        <time>2019-01-11T06:12:39Z</time>
      </trkpt>
      <trkpt lat="50.56465" lon="5.54709">
        <ele>265</ele>
        <time>2019-01-11T06:13:39Z</time>
      </trkpt>
      <trkpt lat="50.56566" lon="5.54659">
        <ele>263</ele>
        <time>2019-01-11T06:14:39Z</time>
      </trkpt>
      <trkpt lat="50.56616" lon="5.54654">
        <ele>263</ele>
        <time>2019-01-11T06:15:39Z</time>
      </trkpt>
      <trkpt lat="50.56633" lon="5.54649">
        <ele>263</ele>
        <time>2019-01-11T06:16:39Z</time>
      </trkpt>
      <trkpt lat="50.56643" lon="5.54663">
        <ele>264</ele>
        <time>2019-01-11T06:17:39Z</time>
      </trkpt>
      <trkpt lat="50.56641" lon="5.54683">
        <ele>264</ele>
        <time>2019-01-11T06:18:39Z</time>
      </trkpt>
      <trkpt lat="50.56652" lon="5.5469">
        <ele>264</ele>
        <time>2019-01-11T06:19:39Z</time>
      </trkpt>
      <trkpt lat="50.5666" lon="5.54679">
        <ele>264</ele>
        <time>2019-01-11T06:20:39Z</time>
      </trkpt>
      <trkpt lat="50.56659" lon="5.54667">
        <ele>264</ele>
        <time>2019-01-11T06:21:39Z</time>
      </trkpt>
      <trkpt lat="50.56673" lon="5.54661">
        <ele>264</ele>
        <time>2019-01-11T06:22:39Z</time>
      </trkpt>
      <trkpt lat="50.56691" lon="5.54665">
        <ele>264</ele>
        <time>2019-01-11T06:23:39Z</time>
      </trkpt>
      <trkpt lat="50.56715" lon="5.54672">
        <ele>264</ele>
        <time>2019-01-11T06:24:39Z</time>
      </trkpt>
      <trkpt lat="50.5674" lon="5.54676">
        <ele>264</ele>
        <time>2019-01-11T06:25:39Z</time>
      </trkpt>
      <trkpt lat="50.56767" lon="5.54672">
        <ele>264</ele>
        <time>2019-01-11T06:26:39Z</time>
      </trkpt>
      <trkpt lat="50.56803" lon="5.54663">
        <ele>263</ele>
        <time>2019-01-11T06:27:39Z</time>
      </trkpt>
      <trkpt lat="50.569" lon="5.54637">
        <ele>261</ele>
        <time>2019-01-11T06:28:39Z</time>
      </trkpt>
      <trkpt lat="50.56954" lon="5.54622">
        <ele>260</ele>
        <time>2019-01-11T06:29:39Z</time>
      </trkpt>
      <trkpt lat="50.5714" lon="5.54521">
        <ele>254</ele>
        <time>2019-01-11T06:30:39Z</time>
      </trkpt>
      <trkpt lat="50.57189" lon="5.54486">
        <ele>252</ele>
        <time>2019-01-11T06:31:39Z</time>
      </trkpt>
      <trkpt lat="50.57208" lon="5.54468">
        <ele>252</ele>
        <time>2019-01-11T06:32:39Z</time>
      </trkpt>
      <trkpt lat="50.5722" lon="5.54451">
        <ele>252</ele>
        <time>2019-01-11T06:33:39Z</time>
      </trkpt>
      <trkpt lat="50.5724" lon="5.54433">
        <ele>252</ele>
        <time>2019-01-11T06:34:39Z</time>
      </trkpt>
      <trkpt lat="50.57261" lon="5.54421">
        <ele>252</ele>
        <time>2019-01-11T06:35:39Z</time>
      </trkpt>
      <trkpt lat="50.57277" lon="5.54413">
        <ele>251</ele>
        <time>2019-01-11T06:36:39Z</time>
      </trkpt>
      <trkpt lat="50.57348" lon="5.54378">
        <ele>250</ele>
        <time>2019-01-11T06:37:39Z</time>
      </trkpt>
      <trkpt lat="50.57381" lon="5.54362">
        <ele>249</ele>
        <time>2019-01-11T06:38:39Z</time>
      </trkpt>
      <trkpt lat="50.57402" lon="5.5435">
        <ele>249</ele>
        <time>2019-01-11T06:39:39Z</time>
      </trkpt>
      <trkpt lat="50.57415" lon="5.54328">
        <ele>249</ele>
        <time>2019-01-11T06:40:39Z</time>
      </trkpt>
      <trkpt lat="50.57438" lon="5.54272">
        <ele>248</ele>
        <time>2019-01-11T06:41:39Z</time>
      </trkpt>
      <trkpt lat="50.57458" lon="5.54218">
        <ele>248</ele>
        <time>2019-01-11T06:42:39Z</time>
      </trkpt>
      <trkpt lat="50.57512" lon="5.54029">
        <ele>247</ele>
        <time>2019-01-11T06:43:39Z</time>
      </trkpt>
      <trkpt lat="50.57578" lon="5.53806">
        <ele>245</ele>
        <time>2019-01-11T06:44:39Z</time>
      </trkpt>
      <trkpt lat="50.57605" lon="5.53709">
        <ele>245</ele>
        <time>2019-01-11T06:45:39Z</time>
      </trkpt>
      <trkpt lat="50.57622" lon="5.53702">
        <ele>246</ele>
        <time>2019-01-11T06:46:39Z</time>
      </trkpt>
      <trkpt lat="50.57741" lon="5.53765">
        <ele>245</ele>
        <time>2019-01-11T06:47:39Z</time>
      </trkpt>
      <trkpt lat="50.57813" lon="5.53796">
        <ele>244</ele>
        <time>2019-01-11T06:48:39Z</time>
      </trkpt>
      <trkpt lat="50.57872" lon="5.53851">
        <ele>241</ele>
        <time>2019-01-11T06:49:39Z</time>
      </trkpt>
      <trkpt lat="50.57883" lon="5.53858">
        <ele>241</ele>
        <time>2019-01-11T06:50:39Z</time>
      </trkpt>
      <trkpt lat="50.57992" lon="5.53897">
        <ele>233</ele>
        <time>2019-01-11T06:51:39Z</time>
      </trkpt>
      <trkpt lat="50.58016" lon="5.53909">
        <ele>231</ele>
        <time>2019-01-11T06:52:39Z</time>
      </trkpt>
      <trkpt lat="50.58084" lon="5.53948">
        <ele>228</ele>
        <time>2019-01-11T06:53:39Z</time>
      </trkpt>
      <trkpt lat="50.58123" lon="5.53975">
        <ele>226</ele>
        <time>2019-01-11T06:54:39Z</time>
      </trkpt>
      <trkpt lat="50.58138" lon="5.53973">
        <ele>225</ele>
        <time>2019-01-11T06:55:39Z</time>
      </trkpt>
      <trkpt lat="50.58148" lon="5.5397">
        <ele>224</ele>
        <time>2019-01-11T06:56:39Z</time>
      </trkpt>
      <trkpt lat="50.58232" lon="5.53938">
        <ele>219</ele>
        <time>2019-01-11T06:57:39Z</time>
      </trkpt>
      <trkpt lat="50.58258" lon="5.53932">
        <ele>217</ele>
        <time>2019-01-11T06:58:39Z</time>
      </trkpt>
      <trkpt lat="50.58282" lon="5.53938">
        <ele>215</ele>
        <time>2019-01-11T06:59:39Z</time>
      </trkpt>
      <trkpt lat="50.58454" lon="5.54016">
        <ele>202</ele>
        <time>2019-01-11T07:00:39Z</time>
      </trkpt>
      <trkpt lat="50.58487" lon="5.54032">
        <ele>200</ele>
        <time>2019-01-11T07:01:39Z</time>
      </trkpt>
      <trkpt lat="50.58506" lon="5.5404">
        <ele>199</ele>
        <time>2019-01-11T07:02:39Z</time>
      </trkpt>
      <trkpt lat="50.58523" lon="5.54044">
        <ele>198</ele>
        <time>2019-01-11T07:03:39Z</time>
      </trkpt>
      <trkpt lat="50.58538" lon="5.54046">
        <ele>197</ele>
        <time>2019-01-11T07:04:39Z</time>
      </trkpt>
      <trkpt lat="50.58551" lon="5.54045">
        <ele>196</ele>
        <time>2019-01-11T07:05:39Z</time>
      </trkpt>
      <trkpt lat="50.58571" lon="5.54033">
        <ele>194</ele>
        <time>2019-01-11T07:06:39Z</time>
      </trkpt>
      <trkpt lat="50.58587" lon="5.54018">
        <ele>192</ele>
        <time>2019-01-11T07:07:39Z</time>
      </trkpt>
      <trkpt lat="50.58656" lon="5.53955">
        <ele>188</ele>
        <time>2019-01-11T07:08:39Z</time>
      </trkpt>
      <trkpt lat="50.58745" lon="5.53876">
        <ele>182</ele>
        <time>2019-01-11T07:09:39Z</time>
      </trkpt>
      <trkpt lat="50.58759" lon="5.53844">
        <ele>179</ele>
        <time>2019-01-11T07:10:39Z</time>
      </trkpt>
      <trkpt lat="50.58765" lon="5.53816">
        <ele>178</ele>
        <time>2019-01-11T07:11:39Z</time>
      </trkpt>
      <trkpt lat="50.58768" lon="5.53775">
        <ele>178</ele>
        <time>2019-01-11T07:12:39Z</time>
      </trkpt>
      <trkpt lat="50.58779" lon="5.53731">
        <ele>177</ele>
        <time>2019-01-11T07:13:39Z</time>
      </trkpt>
      <trkpt lat="50.58892" lon="5.53464">
        <ele>166</ele>
        <time>2019-01-11T07:14:39Z</time>
      </trkpt>
      <trkpt lat="50.58967" lon="5.53286">
        <ele>163</ele>
        <time>2019-01-11T07:15:39Z</time>
      </trkpt>
      <trkpt lat="50.58998" lon="5.53269">
        <ele>161</ele>
        <time>2019-01-11T07:16:39Z</time>
      </trkpt>
      <trkpt lat="50.5902" lon="5.53266">
        <ele>159</ele>
        <time>2019-01-11T07:17:39Z</time>
      </trkpt>
      <trkpt lat="50.59033" lon="5.53262">
        <ele>158</ele>
        <time>2019-01-11T07:18:39Z</time>
      </trkpt>
      <trkpt lat="50.59045" lon="5.53253">
        <ele>157</ele>
        <time>2019-01-11T07:19:39Z</time>
      </trkpt>
      <trkpt lat="50.59054" lon="5.53241">
        <ele>156</ele>
        <time>2019-01-11T07:20:39Z</time>
      </trkpt>
      <trkpt lat="50.59087" lon="5.53198">
        <ele>154</ele>
        <time>2019-01-11T07:21:39Z</time>
      </trkpt>
      <trkpt lat="50.59204" lon="5.53039">
        <ele>148</ele>
        <time>2019-01-11T07:22:39Z</time>
      </trkpt>
      <trkpt lat="50.59245" lon="5.52995">
        <ele>148</ele>
        <time>2019-01-11T07:23:39Z</time>
      </trkpt>
      <trkpt lat="50.5934" lon="5.52998">
        <ele>140</ele>
        <time>2019-01-11T07:24:39Z</time>
      </trkpt>
      <trkpt lat="50.59384" lon="5.53001">
        <ele>138</ele>
        <time>2019-01-11T07:25:39Z</time>
      </trkpt>
      <trkpt lat="50.59542" lon="5.53048">
        <ele>129</ele>
        <time>2019-01-11T07:26:39Z</time>
      </trkpt>
      <trkpt lat="50.59641" lon="5.53087">
        <ele>119</ele>
        <time>2019-01-11T07:27:39Z</time>
      </trkpt>
      <trkpt lat="50.59687" lon="5.53111">
        <ele>116</ele>
        <time>2019-01-11T07:28:39Z</time>
      </trkpt>
      <trkpt lat="50.5978" lon="5.5316">
        <ele>109</ele>
        <time>2019-01-11T07:29:39Z</time>
      </trkpt>
      <trkpt lat="50.59833" lon="5.53196">
        <ele>105</ele>
        <time>2019-01-11T07:30:39Z</time>
      </trkpt>
      <trkpt lat="50.59897" lon="5.53246">
        <ele>101</ele>
        <time>2019-01-11T07:31:39Z</time>
      </trkpt>
      <trkpt lat="50.59989" lon="5.53316">
        <ele>98</ele>
        <time>2019-01-11T07:32:39Z</time>
      </trkpt>
      <trkpt lat="50.60082" lon="5.53382">
        <ele>94</ele>
        <time>2019-01-11T07:33:39Z</time>
      </trkpt>
      <trkpt lat="50.60102" lon="5.53392">
        <ele>93</ele>
        <time>2019-01-11T07:34:39Z</time>
      </trkpt>
      <trkpt lat="50.60118" lon="5.53396">
        <ele>93</ele>
        <time>2019-01-11T07:35:39Z</time>
      </trkpt>
      <trkpt lat="50.60153" lon="5.53405">
        <ele>91</ele>
        <time>2019-01-11T07:36:39Z</time>
      </trkpt>
      <trkpt lat="50.60314" lon="5.53449">
        <ele>83</ele>
        <time>2019-01-11T07:37:39Z</time>
      </trkpt>
      <trkpt lat="50.60324" lon="5.53443">
        <ele>83</ele>
        <time>2019-01-11T07:38:39Z</time>
      </trkpt>
      <trkpt lat="50.60336" lon="5.53445">
        <ele>82</ele>
        <time>2019-01-11T07:39:39Z</time>
      </trkpt>
      <trkpt lat="50.60343" lon="5.53456">
        <ele>82</ele>
        <time>2019-01-11T07:40:39Z</time>
      </trkpt>
      <trkpt lat="50.60436" lon="5.53485">
        <ele>77</ele>
        <time>2019-01-11T07:41:39Z</time>
      </trkpt>
      <trkpt lat="50.60484" lon="5.53499">
        <ele>76</ele>
        <time>2019-01-11T07:42:39Z</time>
      </trkpt>
      <trkpt lat="50.60513" lon="5.535">
        <ele>75</ele>
        <time>2019-01-11T07:43:39Z</time>
      </trkpt>
      <trkpt lat="50.60534" lon="5.53505">
        <ele>74</ele>
        <time>2019-01-11T07:44:39Z</time>
      </trkpt>
      <trkpt lat="50.60552" lon="5.53515">
        <ele>73</ele>
        <time>2019-01-11T07:45:39Z</time>
      </trkpt>
      <trkpt lat="50.6056" lon="5.53473">
        <ele>72</ele>
        <time>2019-01-11T07:46:39Z</time>
      </trkpt>
      <trkpt lat="50.60566" lon="5.53427">
        <ele>72</ele>
        <time>2019-01-11T07:47:39Z</time>
      </trkpt>
      <trkpt lat="50.60588" lon="5.5326">
        <ele>74</ele>
        <time>2019-01-11T07:48:39Z</time>
      </trkpt>
      <trkpt lat="50.60599" lon="5.53175">
        <ele>76</ele>
        <time>2019-01-11T07:49:39Z</time>
      </trkpt>
      <trkpt lat="50.6061" lon="5.53106">
        <ele>76</ele>
        <time>2019-01-11T07:50:39Z</time>
      </trkpt>
      <trkpt lat="50.60622" lon="5.53045">
        <ele>74</ele>
        <time>2019-01-11T07:51:39Z</time>
      </trkpt>
      <trkpt lat="50.60635" lon="5.52993">
        <ele>72</ele>
        <time>2019-01-11T07:52:39Z</time>
      </trkpt>
      <trkpt lat="50.6065" lon="5.52928">
        <ele>71</ele>
        <time>2019-01-11T07:53:39Z</time>
      </trkpt>
      <trkpt lat="50.60665" lon="5.52871">
        <ele>71</ele>
        <time>2019-01-11T07:54:39Z</time>
      </trkpt>
      <trkpt lat="50.60695" lon="5.52755">
        <ele>72</ele>
        <time>2019-01-11T07:55:39Z</time>
      </trkpt>
      <trkpt lat="50.60718" lon="5.52677">
        <ele>72</ele>
        <time>2019-01-11T07:56:39Z</time>
      </trkpt>
      <trkpt lat="50.60739" lon="5.52601">
        <ele>71</ele>
        <time>2019-01-11T07:57:39Z</time>
      </trkpt>
      <trkpt lat="50.60761" lon="5.5253">
        <ele>70</ele>
        <time>2019-01-11T07:58:39Z</time>
      </trkpt>
      <trkpt lat="50.60766" lon="5.5251">
        <ele>70</ele>
        <time>2019-01-11T07:59:39Z</time>
      </trkpt>
      <trkpt lat="50.60775" lon="5.52484">
        <ele>69</ele>
        <time>2019-01-11T08:00:39Z</time>
      </trkpt>
      <trkpt lat="50.60788" lon="5.52427">
        <ele>69</ele>
        <time>2019-01-11T08:01:39Z</time>
      </trkpt>
      <trkpt lat="50.60803" lon="5.52334">
        <ele>68</ele>
        <time>2019-01-11T08:02:39Z</time>
      </trkpt>
      <trkpt lat="50.60811" lon="5.52281">
        <ele>69</ele>
        <time>2019-01-11T08:03:39Z</time>
      </trkpt>
      <trkpt lat="50.60815" lon="5.52224">
        <ele>69</ele>
        <time>2019-01-11T08:04:39Z</time>
      </trkpt>
      <trkpt lat="50.60818" lon="5.52176">
        <ele>70</ele>
        <time>2019-01-11T08:05:39Z</time>
      </trkpt>
      <trkpt lat="50.60818" lon="5.5213">
        <ele>72</ele>
        <time>2019-01-11T08:06:39Z</time>
      </trkpt>
      <trkpt lat="50.6082" lon="5.5211">
        <ele>73</ele>
        <time>2019-01-11T08:07:39Z</time>
      </trkpt>
      <trkpt lat="50.60827" lon="5.521">
        <ele>73</ele>
        <time>2019-01-11T08:08:39Z</time>
      </trkpt>
      <trkpt lat="50.60834" lon="5.52096">
        <ele>72</ele>
        <time>2019-01-11T08:09:39Z</time>
      </trkpt>
      <trkpt lat="50.60866" lon="5.52091">
        <ele>69</ele>
        <time>2019-01-11T08:10:39Z</time>
      </trkpt>
      <trkpt lat="50.60898" lon="5.52088">
        <ele>66</ele>
        <time>2019-01-11T08:11:39Z</time>
      </trkpt>
      <trkpt lat="50.60911" lon="5.52088">
        <ele>65</ele>
        <time>2019-01-11T08:12:39Z</time>
      </trkpt>
      <trkpt lat="50.60918" lon="5.52083">
        <ele>64</ele>
        <time>2019-01-11T08:13:39Z</time>
      </trkpt>
      <trkpt lat="50.60925" lon="5.52065">
        <ele>64</ele>
        <time>2019-01-11T08:14:39Z</time>
      </trkpt>
      <trkpt lat="50.60949" lon="5.5197">
        <ele>63</ele>
        <time>2019-01-11T08:15:39Z</time>
      </trkpt>
      <trkpt lat="50.60983" lon="5.51838">
        <ele>62</ele>
        <time>2019-01-11T08:16:39Z</time>
      </trkpt>
      <trkpt lat="50.61009" lon="5.51726">
        <ele>64</ele>
        <time>2019-01-11T08:17:39Z</time>
      </trkpt>
      <trkpt lat="50.61023" lon="5.51671">
        <ele>65</ele>
        <time>2019-01-11T08:18:39Z</time>
      </trkpt>
      <trkpt lat="50.61028" lon="5.51641">
        <ele>65</ele>
        <time>2019-01-11T08:19:39Z</time>
      </trkpt>
      <trkpt lat="50.61027" lon="5.51625">
        <ele>64</ele>
        <time>2019-01-11T08:20:39Z</time>
      </trkpt>
      <trkpt lat="50.61021" lon="5.5159">
        <ele>63</ele>
        <time>2019-01-11T08:21:39Z</time>
      </trkpt>
      <trkpt lat="50.60997" lon="5.51465">
        <ele>63</ele>
        <time>2019-01-11T08:22:39Z</time>
      </trkpt>
      <trkpt lat="50.60995" lon="5.51455">
        <ele>63</ele>
        <time>2019-01-11T08:23:39Z</time>
      </trkpt>
      <trkpt lat="50.60997" lon="5.51446">
        <ele>63</ele>
        <time>2019-01-11T08:24:39Z</time>
      </trkpt>
      <trkpt lat="50.61009" lon="5.51436">
        <ele>63</ele>
        <time>2019-01-11T08:25:39Z</time>
      </trkpt>
      <trkpt lat="50.61055" lon="5.51417">
        <ele>63</ele>
        <time>2019-01-11T08:26:39Z</time>
      </trkpt>
      <trkpt lat="50.61065" lon="5.514">
        <ele>63</ele>
        <time>2019-01-11T08:27:39Z</time>
      </trkpt>
      <trkpt lat="50.61067" lon="5.51373">
        <ele>64</ele>
        <time>2019-01-11T08:28:39Z</time>
      </trkpt>
      <trkpt lat="50.61062" lon="5.51311">
        <ele>65</ele>
        <time>2019-01-11T08:29:39Z</time>
      </trkpt>
      <trkpt lat="50.61066" lon="5.51298">
        <ele>64</ele>
        <time>2019-01-11T08:30:39Z</time>
      </trkpt>
      <trkpt lat="50.61078" lon="5.5129">
        <ele>64</ele>
        <time>2019-01-11T08:31:39Z</time>
      </trkpt>
      <trkpt lat="50.6112" lon="5.51274">
        <ele>63</ele>
        <time>2019-01-11T08:32:39Z</time>
      </trkpt>
      <trkpt lat="50.61157" lon="5.51257">
        <ele>62</ele>
        <time>2019-01-11T08:33:39Z</time>
      </trkpt>
      <trkpt lat="50.61173" lon="5.51254">
        <ele>62</ele>
        <time>2019-01-11T08:34:39Z</time>
      </trkpt>
      <trkpt lat="50.61193" lon="5.51254">
        <ele>62</ele>
        <time>2019-01-11T08:35:39Z</time>
      </trkpt>
      <trkpt lat="50.61209" lon="5.51258">
        <ele>62</ele>
        <time>2019-01-11T08:36:39Z</time>
      </trkpt>
      <trkpt lat="50.61217" lon="5.51267">
        <ele>62</ele>
        <time>2019-01-11T08:37:39Z</time>
      </trkpt>
      <trkpt lat="50.61228" lon="5.51267">
        <ele>62</ele>
        <time>2019-01-11T08:38:39Z</time>
      </trkpt>
      <trkpt lat="50.61238" lon="5.51259">
        <ele>62</ele>
        <time>2019-01-11T08:39:39Z</time>
      </trkpt>
      <trkpt lat="50.61345" lon="5.5122">
        <ele>66</ele>
        <time>2019-01-11T08:40:39Z</time>
      </trkpt>
      <trkpt lat="50.61414" lon="5.51196">
        <ele>64</ele>
        <time>2019-01-11T08:41:39Z</time>
      </trkpt>
      <trkpt lat="50.61437" lon="5.51188">
        <ele>64</ele>
        <time>2019-01-11T08:42:39Z</time>
      </trkpt>
      <trkpt lat="50.61447" lon="5.51193">
        <ele>64</ele>
        <time>2019-01-11T08:43:39Z</time>
      </trkpt>
      <trkpt lat="50.61456" lon="5.51233">
        <ele>65</ele>
        <time>2019-01-11T08:44:39Z</time>
      </trkpt>
      <trkpt lat="50.61475" lon="5.51367">
        <ele>65</ele>
        <time>2019-01-11T08:45:39Z</time>
      </trkpt>
      <trkpt lat="50.61483" lon="5.51457">
        <ele>64</ele>
        <time>2019-01-11T08:46:39Z</time>
      </trkpt>
      <trkpt lat="50.61496" lon="5.51554">
        <ele>63</ele>
        <time>2019-01-11T08:47:39Z</time>
      </trkpt>
      <trkpt lat="50.61596" lon="5.51553">
        <ele>63</ele>
        <time>2019-01-11T08:48:39Z</time>
      </trkpt>
      <trkpt lat="50.61629" lon="5.51551">
        <ele>63</ele>
        <time>2019-01-11T08:49:39Z</time>
      </trkpt>
      <trkpt lat="50.61638" lon="5.51549">
        <ele>63</ele>
        <time>2019-01-11T08:50:39Z</time>
      </trkpt>
      <trkpt lat="50.61649" lon="5.51533">
        <ele>63</ele>
        <time>2019-01-11T08:51:39Z</time>
      </trkpt>
      <trkpt lat="50.61658" lon="5.51504">
        <ele>63</ele>
        <time>2019-01-11T08:52:39Z</time>
      </trkpt>
      <trkpt lat="50.61669" lon="5.51496">
        <ele>63</ele>
        <time>2019-01-11T08:53:39Z</time>
      </trkpt>
      <trkpt lat="50.61682" lon="5.51496">
        <ele>63</ele>
        <time>2019-01-11T08:54:39Z</time>
      </trkpt>
      <trkpt lat="50.61682" lon="5.51477">
        <ele>63</ele>
        <time>2019-01-11T08:55:39Z</time>
      </trkpt>
      <trkpt lat="50.61678" lon="5.51441">
        <ele>63</ele>
        <time>2019-01-11T08:56:39Z</time>
      </trkpt>
      <trkpt lat="50.61676" lon="5.51417">
        <ele>63</ele>
        <time>2019-01-11T08:57:39Z</time>
      </trkpt>
      <trkpt lat="50.61674" lon="5.51395">
        <ele>62</ele>
        <time>2019-01-11T08:58:39Z</time>
      </trkpt>
      <trkpt lat="50.61671" lon="5.51357">
        <ele>61</ele>
        <time>2019-01-11T08:59:39Z</time>
      </trkpt>
      <trkpt lat="50.61663" lon="5.51288">
        <ele>62</ele>
        <time>2019-01-11T09:00:39Z</time>
      </trkpt>
      <trkpt lat="50.61664" lon="5.51268">
        <ele>62</ele>
        <time>2019-01-11T09:01:39Z</time>
      </trkpt>
      <trkpt lat="50.61668" lon="5.5125">
        <ele>63</ele>
        <time>2019-01-11T09:02:39Z</time>
      </trkpt>
      <trkpt lat="50.61677" lon="5.51235">
        <ele>63</ele>
        <time>2019-01-11T09:03:39Z</time>
      </trkpt>
      <trkpt lat="50.61688" lon="5.5122">
        <ele>63</ele>
        <time>2019-01-11T09:04:39Z</time>
      </trkpt>
      <trkpt lat="50.61725" lon="5.51198">
        <ele>64</ele>
        <time>2019-01-11T09:05:39Z</time>
      </trkpt>
      <trkpt lat="50.61765" lon="5.51172">
        <ele>65</ele>
        <time>2019-01-11T09:06:39Z</time>
      </trkpt>
      <trkpt lat="50.61796" lon="5.51156">
        <ele>64</ele>
        <time>2019-01-11T09:07:39Z</time>
      </trkpt>
      <trkpt lat="50.6185" lon="5.51129">
        <ele>65</ele>
        <time>2019-01-11T09:08:39Z</time>
      </trkpt>
      <trkpt lat="50.61862" lon="5.51135">
        <ele>66</ele>
        <time>2019-01-11T09:09:39Z</time>
      </trkpt>
      <trkpt lat="50.61871" lon="5.51149">
        <ele>66</ele>
        <time>2019-01-11T09:10:39Z</time>
      </trkpt>
      <trkpt lat="50.61876" lon="5.51165">
        <ele>66</ele>
        <time>2019-01-11T09:11:39Z</time>
      </trkpt>
      <trkpt lat="50.61875" lon="5.51182">
        <ele>66</ele>
        <time>2019-01-11T09:12:39Z</time>
      </trkpt>
      <trkpt lat="50.61872" lon="5.51202">
        <ele>65</ele>
        <time>2019-01-11T09:13:39Z</time>
      </trkpt>
      <trkpt lat="50.61861" lon="5.51222">
        <ele>64</ele>
        <time>2019-01-11T09:14:39Z</time>
      </trkpt>
      <trkpt lat="50.61849" lon="5.51221">
        <ele>64</ele>
        <time>2019-01-11T09:15:39Z</time>
      </trkpt>
      <trkpt lat="50.61834" lon="5.51221">
        <ele>64</ele>
        <time>2019-01-11T09:16:39Z</time>
      </trkpt>
      <trkpt lat="50.61825" lon="5.51209">
        <ele>64</ele>
        <time>2019-01-11T09:17:39Z</time>
      </trkpt>
      <trkpt lat="50.61816" lon="5.51188">
        <ele>64</ele>
        <time>2019-01-11T09:18:39Z</time>
      </trkpt>
      <trkpt lat="50.61808" lon="5.51166">
        <ele>64</ele>
        <time>2019-01-11T09:19:39Z</time>
      </trkpt>
      <trkpt lat="50.61797" lon="5.51113">
        <ele>64</ele>
        <time>2019-01-11T09:20:39Z</time>
      </trkpt>
      <trkpt lat="50.61788" lon="5.51073">
        <ele>64</ele>
        <time>2019-01-11T09:21:39Z</time>
      </trkpt>
      <trkpt lat="50.61775" lon="5.51031">
        <ele>63</ele>
        <time>2019-01-11T09:22:39Z</time>
      </trkpt>
      <trkpt lat="50.61765" lon="5.50959">
        <ele>63</ele>
        <time>2019-01-11T09:23:39Z</time>
      </trkpt>
      <trkpt lat="50.61759" lon="5.50889">
        <ele>63</ele>
        <time>2019-01-11T09:24:39Z</time>
      </trkpt>
      <trkpt lat="50.61754" lon="5.5083">
        <ele>63</ele>
        <time>2019-01-11T09:25:39Z</time>
      </trkpt>
      <trkpt lat="50.61724" lon="5.50735">
        <ele>65</ele>
        <time>2019-01-11T09:26:39Z</time>
      </trkpt>
      <trkpt lat="50.6166" lon="5.50594">
        <ele>64</ele>
        <time>2019-01-11T09:27:39Z</time>
      </trkpt>
      <trkpt lat="50.61601" lon="5.50486">
        <ele>65</ele>
        <time>2019-01-11T09:28:39Z</time>
      </trkpt>
      <trkpt lat="50.61596" lon="5.50455">
        <ele>64</ele>
        <time>2019-01-11T09:29:39Z</time>
      </trkpt>
      <trkpt lat="50.61609" lon="5.50394">
        <ele>64</ele>
        <time>2019-01-11T09:30:39Z</time>
      </trkpt>
      <trkpt lat="50.6161" lon="5.50353">
        <ele>64</ele>
        <time>2019-01-11T09:31:39Z</time>
      </trkpt>
      <trkpt lat="50.61602" lon="5.50333">
        <ele>64</ele>
        <time>2019-01-11T09:32:39Z</time>
      </trkpt>
      <trkpt lat="50.61471" lon="5.50101">
        <ele>63</ele>
        <time>2019-01-11T09:33:39Z</time>
      </trkpt>
      <trkpt lat="50.61338" lon="5.49875">
        <ele>61</ele>
        <time>2019-01-11T09:34:39Z</time>
      </trkpt>
      <trkpt lat="50.61265" lon="5.49745">
        <ele>62</ele>
        <time>2019-01-11T09:35:39Z</time>
      </trkpt>
      <trkpt lat="50.61112" lon="5.4951">
        <ele>65</ele>
        <time>2019-01-11T09:36:39Z</time>
      </trkpt>
      <trkpt lat="50.61032" lon="5.49389">
        <ele>64</ele>
        <time>2019-01-11T09:37:39Z</time>
      </trkpt>
      <trkpt lat="50.60903" lon="5.49196">
        <ele>64</ele>
        <time>2019-01-11T09:38:39Z</time>
      </trkpt>
      <trkpt lat="50.60805" lon="5.49035">
        <ele>66</ele>
        <time>2019-01-11T09:39:39Z</time>
      </trkpt>
      <trkpt lat="50.60769" lon="5.48966">
        <ele>65</ele>
        <time>2019-01-11T09:40:39Z</time>
      </trkpt>
      <trkpt lat="50.60724" lon="5.48878">
        <ele>64</ele>
        <time>2019-01-11T09:41:39Z</time>
      </trkpt>
      <trkpt lat="50.60647" lon="5.48723">
        <ele>64</ele>
        <time>2019-01-11T09:42:39Z</time>
      </trkpt>
      <trkpt lat="50.60575" lon="5.48557">
        <ele>65</ele>
        <time>2019-01-11T09:43:39Z</time>
      </trkpt>
      <trkpt lat="50.60506" lon="5.48403">
        <ele>67</ele>
        <time>2019-01-11T09:44:39Z</time>
      </trkpt>
      <trkpt lat="50.60493" lon="5.48396">
        <ele>67</ele>
        <time>2019-01-11T09:45:39Z</time>
      </trkpt>
      <trkpt lat="50.60483" lon="5.48399">
        <ele>67</ele>
        <time>2019-01-11T09:46:39Z</time>
      </trkpt>
      <trkpt lat="50.60422" lon="5.4847">
        <ele>64</ele>
        <time>2019-01-11T09:47:39Z</time>
      </trkpt>
      <trkpt lat="50.60404" lon="5.48442">
        <ele>65</ele>
        <time>2019-01-11T09:48:39Z</time>
      </trkpt>
      <trkpt lat="50.60426" lon="5.48411">
        <ele>65</ele>
        <time>2019-01-11T09:49:39Z</time>
      </trkpt>
    </trkseg>
  </trk>
</gpx>